<?xml version="1.0" encoding="UTF-8" standalone="no" ?>
<gpx xmlns="http://www.topografix.com/GPX/1/1" xmlns:xsi="http://www.w3.org/2001/XMLSchema-instance" xsi:schemaLocation="http://www.topografix.com/GPX/1/1 http://www.topografix.com/GPX/1/1/gpx.xsd" version="1.1" creator="VisuGPX - https://www.visugpx.com">
  <metadata>
    <name>Briod-La Guillotine-L'Ermitage-La Fontaine en Serein...</name>
  </metadata>
  <trk>
    <name><![CDATA[Briod-La Guillotine-L'Ermitage-La Fontaine en Serein..._1]]></name>
    <extensions>
      <line xmlns="http://www.topografix.com/GPX/gpx_style/0/2">
        <color>0000FF</color>
        <width>4</width>
      </line>
    </extensions>
    <trkseg>
      <trkpt lat="46.67941" lon="5.62402">
        <ele>536.5</ele>
        <time>2022-03-29T07:08:13Z</time>
      </trkpt>
      <trkpt lat="46.67938" lon="5.62409">
        <ele>538.7</ele>
        <time>2022-03-29T07:08:15Z</time>
      </trkpt>
      <trkpt lat="46.67938" lon="5.62416">
        <ele>545.6</ele>
        <time>2022-03-29T07:08:18Z</time>
      </trkpt>
      <trkpt lat="46.67933" lon="5.62421">
        <ele>545.9</ele>
        <time>2022-03-29T07:08:21Z</time>
      </trkpt>
      <trkpt lat="46.67928" lon="5.62422">
        <ele>546.3</ele>
        <time>2022-03-29T07:08:26Z</time>
      </trkpt>
      <trkpt lat="46.67923" lon="5.62424">
        <ele>545.9</ele>
        <time>2022-03-29T07:08:30Z</time>
      </trkpt>
      <trkpt lat="46.67918" lon="5.62425">
        <ele>545.2</ele>
        <time>2022-03-29T07:08:35Z</time>
      </trkpt>
      <trkpt lat="46.67913" lon="5.62427">
        <ele>545.2</ele>
        <time>2022-03-29T07:08:40Z</time>
      </trkpt>
      <trkpt lat="46.67908" lon="5.62427">
        <ele>540.6</ele>
        <time>2022-03-29T07:08:45Z</time>
      </trkpt>
      <trkpt lat="46.67904" lon="5.62425">
        <ele>536.6</ele>
        <time>2022-03-29T07:08:50Z</time>
      </trkpt>
      <trkpt lat="46.67899" lon="5.62424">
        <ele>535.4</ele>
        <time>2022-03-29T07:08:54Z</time>
      </trkpt>
      <trkpt lat="46.67894" lon="5.62423">
        <ele>534.5</ele>
        <time>2022-03-29T07:08:58Z</time>
      </trkpt>
      <trkpt lat="46.67889" lon="5.62423">
        <ele>534.2</ele>
        <time>2022-03-29T07:09:02Z</time>
      </trkpt>
      <trkpt lat="46.67883" lon="5.62422">
        <ele>533.9</ele>
        <time>2022-03-29T07:09:06Z</time>
      </trkpt>
      <trkpt lat="46.67878" lon="5.62419">
        <ele>533.2</ele>
        <time>2022-03-29T07:09:11Z</time>
      </trkpt>
      <trkpt lat="46.67873" lon="5.62414">
        <ele>532.7</ele>
        <time>2022-03-29T07:09:16Z</time>
      </trkpt>
      <trkpt lat="46.67868" lon="5.62412">
        <ele>532.9</ele>
        <time>2022-03-29T07:09:20Z</time>
      </trkpt>
      <trkpt lat="46.67866" lon="5.62406">
        <ele>533.6</ele>
        <time>2022-03-29T07:09:24Z</time>
      </trkpt>
      <trkpt lat="46.67864" lon="5.62399">
        <ele>534.2</ele>
        <time>2022-03-29T07:09:29Z</time>
      </trkpt>
      <trkpt lat="46.67861" lon="5.62394">
        <ele>534.1</ele>
        <time>2022-03-29T07:09:33Z</time>
      </trkpt>
      <trkpt lat="46.67856" lon="5.6239">
        <ele>534.7</ele>
        <time>2022-03-29T07:09:38Z</time>
      </trkpt>
      <trkpt lat="46.67852" lon="5.62384">
        <ele>535.6</ele>
        <time>2022-03-29T07:09:43Z</time>
      </trkpt>
      <trkpt lat="46.67849" lon="5.62378">
        <ele>535.3</ele>
        <time>2022-03-29T07:09:49Z</time>
      </trkpt>
      <trkpt lat="46.67846" lon="5.62374">
        <ele>534.8</ele>
        <time>2022-03-29T07:09:53Z</time>
      </trkpt>
      <trkpt lat="46.67843" lon="5.62368">
        <ele>534</ele>
        <time>2022-03-29T07:09:57Z</time>
      </trkpt>
      <trkpt lat="46.67839" lon="5.62363">
        <ele>532.8</ele>
        <time>2022-03-29T07:10:01Z</time>
      </trkpt>
      <trkpt lat="46.67835" lon="5.62359">
        <ele>531.8</ele>
        <time>2022-03-29T07:10:05Z</time>
      </trkpt>
      <trkpt lat="46.67831" lon="5.62355">
        <ele>530.9</ele>
        <time>2022-03-29T07:10:09Z</time>
      </trkpt>
      <trkpt lat="46.67826" lon="5.62352">
        <ele>530.6</ele>
        <time>2022-03-29T07:10:14Z</time>
      </trkpt>
      <trkpt lat="46.67822" lon="5.62349">
        <ele>531.2</ele>
        <time>2022-03-29T07:10:21Z</time>
      </trkpt>
      <trkpt lat="46.67817" lon="5.62345">
        <ele>532.5</ele>
        <time>2022-03-29T07:10:26Z</time>
      </trkpt>
      <trkpt lat="46.67812" lon="5.62341">
        <ele>534.7</ele>
        <time>2022-03-29T07:10:31Z</time>
      </trkpt>
      <trkpt lat="46.67808" lon="5.62337">
        <ele>536.8</ele>
        <time>2022-03-29T07:10:36Z</time>
      </trkpt>
      <trkpt lat="46.67804" lon="5.62332">
        <ele>539</ele>
        <time>2022-03-29T07:10:42Z</time>
      </trkpt>
      <trkpt lat="46.67801" lon="5.62325">
        <ele>539.5</ele>
        <time>2022-03-29T07:10:48Z</time>
      </trkpt>
      <trkpt lat="46.67798" lon="5.6232">
        <ele>538.8</ele>
        <time>2022-03-29T07:10:52Z</time>
      </trkpt>
      <trkpt lat="46.67794" lon="5.62315">
        <ele>537.8</ele>
        <time>2022-03-29T07:10:57Z</time>
      </trkpt>
      <trkpt lat="46.67789" lon="5.62311">
        <ele>536.9</ele>
        <time>2022-03-29T07:11:01Z</time>
      </trkpt>
      <trkpt lat="46.67785" lon="5.62308">
        <ele>535.8</ele>
        <time>2022-03-29T07:11:05Z</time>
      </trkpt>
      <trkpt lat="46.6778" lon="5.62304">
        <ele>534.8</ele>
        <time>2022-03-29T07:11:09Z</time>
      </trkpt>
      <trkpt lat="46.67776" lon="5.623">
        <ele>534.3</ele>
        <time>2022-03-29T07:11:13Z</time>
      </trkpt>
      <trkpt lat="46.67772" lon="5.62295">
        <ele>534.3</ele>
        <time>2022-03-29T07:11:17Z</time>
      </trkpt>
      <trkpt lat="46.67769" lon="5.62291">
        <ele>534.6</ele>
        <time>2022-03-29T07:11:21Z</time>
      </trkpt>
      <trkpt lat="46.67765" lon="5.62286">
        <ele>535.8</ele>
        <time>2022-03-29T07:11:26Z</time>
      </trkpt>
      <trkpt lat="46.67762" lon="5.6228">
        <ele>536.9</ele>
        <time>2022-03-29T07:11:30Z</time>
      </trkpt>
      <trkpt lat="46.67758" lon="5.62275">
        <ele>538.1</ele>
        <time>2022-03-29T07:11:35Z</time>
      </trkpt>
      <trkpt lat="46.67754" lon="5.62271">
        <ele>538.4</ele>
        <time>2022-03-29T07:11:39Z</time>
      </trkpt>
      <trkpt lat="46.67749" lon="5.62268">
        <ele>537.6</ele>
        <time>2022-03-29T07:11:43Z</time>
      </trkpt>
      <trkpt lat="46.67745" lon="5.62265">
        <ele>536.9</ele>
        <time>2022-03-29T07:11:47Z</time>
      </trkpt>
      <trkpt lat="46.67741" lon="5.62262">
        <ele>537.1</ele>
        <time>2022-03-29T07:11:51Z</time>
      </trkpt>
      <trkpt lat="46.67736" lon="5.62258">
        <ele>537.7</ele>
        <time>2022-03-29T07:11:56Z</time>
      </trkpt>
      <trkpt lat="46.67731" lon="5.62257">
        <ele>538.3</ele>
        <time>2022-03-29T07:12:00Z</time>
      </trkpt>
      <trkpt lat="46.67726" lon="5.62258">
        <ele>538.9</ele>
        <time>2022-03-29T07:12:04Z</time>
      </trkpt>
      <trkpt lat="46.67722" lon="5.62259">
        <ele>539.4</ele>
        <time>2022-03-29T07:12:08Z</time>
      </trkpt>
      <trkpt lat="46.67718" lon="5.62261">
        <ele>540.4</ele>
        <time>2022-03-29T07:12:14Z</time>
      </trkpt>
      <trkpt lat="46.67712" lon="5.62263">
        <ele>540.5</ele>
        <time>2022-03-29T07:12:19Z</time>
      </trkpt>
      <trkpt lat="46.67707" lon="5.62264">
        <ele>539.9</ele>
        <time>2022-03-29T07:12:22Z</time>
      </trkpt>
      <trkpt lat="46.67702" lon="5.62263">
        <ele>538.8</ele>
        <time>2022-03-29T07:12:25Z</time>
      </trkpt>
      <trkpt lat="46.67697" lon="5.62261">
        <ele>537.7</ele>
        <time>2022-03-29T07:12:28Z</time>
      </trkpt>
      <trkpt lat="46.67692" lon="5.62258">
        <ele>534.8</ele>
        <time>2022-03-29T07:12:33Z</time>
      </trkpt>
      <trkpt lat="46.67687" lon="5.62257">
        <ele>531.9</ele>
        <time>2022-03-29T07:12:38Z</time>
      </trkpt>
      <trkpt lat="46.67682" lon="5.62254">
        <ele>528.8</ele>
        <time>2022-03-29T07:12:44Z</time>
      </trkpt>
      <trkpt lat="46.67677" lon="5.62251">
        <ele>527.5</ele>
        <time>2022-03-29T07:12:49Z</time>
      </trkpt>
      <trkpt lat="46.67673" lon="5.62246">
        <ele>527.2</ele>
        <time>2022-03-29T07:12:53Z</time>
      </trkpt>
      <trkpt lat="46.67668" lon="5.62242">
        <ele>526.9</ele>
        <time>2022-03-29T07:12:58Z</time>
      </trkpt>
      <trkpt lat="46.67665" lon="5.62237">
        <ele>526.8</ele>
        <time>2022-03-29T07:13:03Z</time>
      </trkpt>
      <trkpt lat="46.67661" lon="5.62233">
        <ele>526.9</ele>
        <time>2022-03-29T07:13:07Z</time>
      </trkpt>
      <trkpt lat="46.67658" lon="5.62228">
        <ele>527.1</ele>
        <time>2022-03-29T07:13:12Z</time>
      </trkpt>
      <trkpt lat="46.67654" lon="5.62223">
        <ele>527</ele>
        <time>2022-03-29T07:13:19Z</time>
      </trkpt>
      <trkpt lat="46.6765" lon="5.62217">
        <ele>526.9</ele>
        <time>2022-03-29T07:13:24Z</time>
      </trkpt>
      <trkpt lat="46.67646" lon="5.62212">
        <ele>526.9</ele>
        <time>2022-03-29T07:13:29Z</time>
      </trkpt>
      <trkpt lat="46.67643" lon="5.62205">
        <ele>526.6</ele>
        <time>2022-03-29T07:13:34Z</time>
      </trkpt>
      <trkpt lat="46.67639" lon="5.62199">
        <ele>526.1</ele>
        <time>2022-03-29T07:13:39Z</time>
      </trkpt>
      <trkpt lat="46.67636" lon="5.62194">
        <ele>526</ele>
        <time>2022-03-29T07:13:43Z</time>
      </trkpt>
      <trkpt lat="46.67631" lon="5.6219">
        <ele>526.8</ele>
        <time>2022-03-29T07:13:48Z</time>
      </trkpt>
      <trkpt lat="46.67627" lon="5.62186">
        <ele>527.8</ele>
        <time>2022-03-29T07:13:52Z</time>
      </trkpt>
      <trkpt lat="46.67623" lon="5.62183">
        <ele>528.8</ele>
        <time>2022-03-29T07:13:56Z</time>
      </trkpt>
      <trkpt lat="46.67619" lon="5.62178">
        <ele>530.3</ele>
        <time>2022-03-29T07:14:01Z</time>
      </trkpt>
      <trkpt lat="46.67615" lon="5.62173">
        <ele>531.6</ele>
        <time>2022-03-29T07:14:06Z</time>
      </trkpt>
      <trkpt lat="46.67612" lon="5.62166">
        <ele>532</ele>
        <time>2022-03-29T07:14:11Z</time>
      </trkpt>
      <trkpt lat="46.67609" lon="5.62161">
        <ele>532.2</ele>
        <time>2022-03-29T07:14:15Z</time>
      </trkpt>
      <trkpt lat="46.67605" lon="5.62156">
        <ele>532.7</ele>
        <time>2022-03-29T07:14:19Z</time>
      </trkpt>
      <trkpt lat="46.67603" lon="5.6215">
        <ele>533.3</ele>
        <time>2022-03-29T07:14:23Z</time>
      </trkpt>
      <trkpt lat="46.67604" lon="5.62143">
        <ele>533.8</ele>
        <time>2022-03-29T07:14:28Z</time>
      </trkpt>
      <trkpt lat="46.67607" lon="5.62136">
        <ele>534.1</ele>
        <time>2022-03-29T07:14:32Z</time>
      </trkpt>
      <trkpt lat="46.6761" lon="5.6213">
        <ele>534.3</ele>
        <time>2022-03-29T07:14:37Z</time>
      </trkpt>
      <trkpt lat="46.67612" lon="5.62124">
        <ele>534.3</ele>
        <time>2022-03-29T07:14:42Z</time>
      </trkpt>
      <trkpt lat="46.67614" lon="5.62117">
        <ele>533.5</ele>
        <time>2022-03-29T07:14:47Z</time>
      </trkpt>
      <trkpt lat="46.67617" lon="5.6211">
        <ele>532.8</ele>
        <time>2022-03-29T07:14:51Z</time>
      </trkpt>
      <trkpt lat="46.67619" lon="5.62102">
        <ele>531.9</ele>
        <time>2022-03-29T07:14:55Z</time>
      </trkpt>
      <trkpt lat="46.6762" lon="5.62095">
        <ele>531.1</ele>
        <time>2022-03-29T07:14:59Z</time>
      </trkpt>
      <trkpt lat="46.67621" lon="5.62088">
        <ele>530.8</ele>
        <time>2022-03-29T07:15:03Z</time>
      </trkpt>
      <trkpt lat="46.67624" lon="5.62082">
        <ele>531.1</ele>
        <time>2022-03-29T07:15:08Z</time>
      </trkpt>
      <trkpt lat="46.67625" lon="5.62075">
        <ele>530.2</ele>
        <time>2022-03-29T07:15:15Z</time>
      </trkpt>
      <trkpt lat="46.67627" lon="5.62069">
        <ele>529.9</ele>
        <time>2022-03-29T07:15:18Z</time>
      </trkpt>
      <trkpt lat="46.67627" lon="5.62062">
        <ele>529.7</ele>
        <time>2022-03-29T07:15:25Z</time>
      </trkpt>
      <trkpt lat="46.67626" lon="5.62054">
        <ele>530</ele>
        <time>2022-03-29T07:15:30Z</time>
      </trkpt>
      <trkpt lat="46.67624" lon="5.62047">
        <ele>530.1</ele>
        <time>2022-03-29T07:15:33Z</time>
      </trkpt>
      <trkpt lat="46.67623" lon="5.62039">
        <ele>530.4</ele>
        <time>2022-03-29T07:15:36Z</time>
      </trkpt>
      <trkpt lat="46.67623" lon="5.62031">
        <ele>530.7</ele>
        <time>2022-03-29T07:15:40Z</time>
      </trkpt>
      <trkpt lat="46.67625" lon="5.62024">
        <ele>530.8</ele>
        <time>2022-03-29T07:15:44Z</time>
      </trkpt>
      <trkpt lat="46.67626" lon="5.62017">
        <ele>530.7</ele>
        <time>2022-03-29T07:15:48Z</time>
      </trkpt>
      <trkpt lat="46.67615" lon="5.61977">
        <ele>530.2</ele>
        <time>2022-03-29T07:16:09Z</time>
      </trkpt>
      <trkpt lat="46.67613" lon="5.61971">
        <ele>530.5</ele>
        <time>2022-03-29T07:16:13Z</time>
      </trkpt>
      <trkpt lat="46.67611" lon="5.61964">
        <ele>531</ele>
        <time>2022-03-29T07:16:18Z</time>
      </trkpt>
      <trkpt lat="46.67609" lon="5.61958">
        <ele>532</ele>
        <time>2022-03-29T07:16:23Z</time>
      </trkpt>
      <trkpt lat="46.67608" lon="5.61952">
        <ele>533.9</ele>
        <time>2022-03-29T07:16:28Z</time>
      </trkpt>
      <trkpt lat="46.67607" lon="5.61945">
        <ele>535.9</ele>
        <time>2022-03-29T07:16:34Z</time>
      </trkpt>
      <trkpt lat="46.67603" lon="5.61939">
        <ele>536.3</ele>
        <time>2022-03-29T07:16:41Z</time>
      </trkpt>
      <trkpt lat="46.67602" lon="5.61932">
        <ele>536.3</ele>
        <time>2022-03-29T07:16:45Z</time>
      </trkpt>
      <trkpt lat="46.67599" lon="5.61925">
        <ele>536.1</ele>
        <time>2022-03-29T07:16:48Z</time>
      </trkpt>
      <trkpt lat="46.67597" lon="5.6192">
        <ele>536</ele>
        <time>2022-03-29T07:16:51Z</time>
      </trkpt>
      <trkpt lat="46.67593" lon="5.61914">
        <ele>536</ele>
        <time>2022-03-29T07:16:55Z</time>
      </trkpt>
      <trkpt lat="46.67589" lon="5.61909">
        <ele>535.9</ele>
        <time>2022-03-29T07:16:59Z</time>
      </trkpt>
      <trkpt lat="46.67585" lon="5.61904">
        <ele>535.7</ele>
        <time>2022-03-29T07:17:03Z</time>
      </trkpt>
      <trkpt lat="46.67582" lon="5.61898">
        <ele>535.5</ele>
        <time>2022-03-29T07:17:07Z</time>
      </trkpt>
      <trkpt lat="46.6758" lon="5.61892">
        <ele>535.5</ele>
        <time>2022-03-29T07:17:11Z</time>
      </trkpt>
      <trkpt lat="46.67578" lon="5.61886">
        <ele>535.4</ele>
        <time>2022-03-29T07:17:15Z</time>
      </trkpt>
      <trkpt lat="46.67576" lon="5.61879">
        <ele>535.7</ele>
        <time>2022-03-29T07:17:20Z</time>
      </trkpt>
      <trkpt lat="46.67573" lon="5.61872">
        <ele>536.4</ele>
        <time>2022-03-29T07:17:25Z</time>
      </trkpt>
      <trkpt lat="46.6757" lon="5.61866">
        <ele>536.9</ele>
        <time>2022-03-29T07:17:29Z</time>
      </trkpt>
      <trkpt lat="46.67568" lon="5.6186">
        <ele>537.5</ele>
        <time>2022-03-29T07:17:34Z</time>
      </trkpt>
      <trkpt lat="46.67565" lon="5.61855">
        <ele>538.6</ele>
        <time>2022-03-29T07:17:38Z</time>
      </trkpt>
      <trkpt lat="46.67561" lon="5.61848">
        <ele>539.8</ele>
        <time>2022-03-29T07:17:42Z</time>
      </trkpt>
      <trkpt lat="46.67558" lon="5.61843">
        <ele>540.8</ele>
        <time>2022-03-29T07:17:46Z</time>
      </trkpt>
      <trkpt lat="46.67554" lon="5.61837">
        <ele>541.7</ele>
        <time>2022-03-29T07:17:51Z</time>
      </trkpt>
      <trkpt lat="46.67552" lon="5.61831">
        <ele>542.4</ele>
        <time>2022-03-29T07:17:56Z</time>
      </trkpt>
      <trkpt lat="46.67549" lon="5.61826">
        <ele>543</ele>
        <time>2022-03-29T07:18:01Z</time>
      </trkpt>
      <trkpt lat="46.67545" lon="5.61821">
        <ele>543.5</ele>
        <time>2022-03-29T07:18:06Z</time>
      </trkpt>
      <trkpt lat="46.67541" lon="5.61816">
        <ele>544</ele>
        <time>2022-03-29T07:18:11Z</time>
      </trkpt>
      <trkpt lat="46.67538" lon="5.6181">
        <ele>543.9</ele>
        <time>2022-03-29T07:18:15Z</time>
      </trkpt>
      <trkpt lat="46.67535" lon="5.61805">
        <ele>543.5</ele>
        <time>2022-03-29T07:18:18Z</time>
      </trkpt>
      <trkpt lat="46.67531" lon="5.61799">
        <ele>542.7</ele>
        <time>2022-03-29T07:18:22Z</time>
      </trkpt>
      <trkpt lat="46.67528" lon="5.61794">
        <ele>541.8</ele>
        <time>2022-03-29T07:18:26Z</time>
      </trkpt>
      <trkpt lat="46.67525" lon="5.61788">
        <ele>541</ele>
        <time>2022-03-29T07:18:31Z</time>
      </trkpt>
      <trkpt lat="46.67523" lon="5.61782">
        <ele>540.9</ele>
        <time>2022-03-29T07:18:35Z</time>
      </trkpt>
      <trkpt lat="46.67522" lon="5.61775">
        <ele>541.2</ele>
        <time>2022-03-29T07:18:39Z</time>
      </trkpt>
      <trkpt lat="46.67521" lon="5.61768">
        <ele>541.9</ele>
        <time>2022-03-29T07:18:44Z</time>
      </trkpt>
      <trkpt lat="46.6752" lon="5.61761">
        <ele>541.9</ele>
        <time>2022-03-29T07:18:50Z</time>
      </trkpt>
      <trkpt lat="46.67519" lon="5.61754">
        <ele>541.6</ele>
        <time>2022-03-29T07:18:56Z</time>
      </trkpt>
      <trkpt lat="46.67517" lon="5.61748">
        <ele>541.6</ele>
        <time>2022-03-29T07:19:00Z</time>
      </trkpt>
      <trkpt lat="46.67513" lon="5.61744">
        <ele>540.9</ele>
        <time>2022-03-29T07:19:05Z</time>
      </trkpt>
      <trkpt lat="46.67509" lon="5.6174">
        <ele>540.2</ele>
        <time>2022-03-29T07:19:08Z</time>
      </trkpt>
      <trkpt lat="46.67505" lon="5.61736">
        <ele>539.2</ele>
        <time>2022-03-29T07:19:12Z</time>
      </trkpt>
      <trkpt lat="46.67501" lon="5.61729">
        <ele>538.3</ele>
        <time>2022-03-29T07:19:16Z</time>
      </trkpt>
      <trkpt lat="46.67501" lon="5.61722">
        <ele>537.9</ele>
        <time>2022-03-29T07:19:21Z</time>
      </trkpt>
      <trkpt lat="46.67499" lon="5.61714">
        <ele>538.1</ele>
        <time>2022-03-29T07:19:25Z</time>
      </trkpt>
      <trkpt lat="46.67498" lon="5.61707">
        <ele>538.4</ele>
        <time>2022-03-29T07:19:28Z</time>
      </trkpt>
      <trkpt lat="46.67496" lon="5.61701">
        <ele>538.9</ele>
        <time>2022-03-29T07:19:34Z</time>
      </trkpt>
      <trkpt lat="46.67492" lon="5.61696">
        <ele>539.2</ele>
        <time>2022-03-29T07:19:39Z</time>
      </trkpt>
      <trkpt lat="46.67491" lon="5.61688">
        <ele>539.5</ele>
        <time>2022-03-29T07:19:43Z</time>
      </trkpt>
      <trkpt lat="46.67489" lon="5.6168">
        <ele>539.7</ele>
        <time>2022-03-29T07:19:47Z</time>
      </trkpt>
      <trkpt lat="46.67486" lon="5.61674">
        <ele>539.4</ele>
        <time>2022-03-29T07:19:51Z</time>
      </trkpt>
      <trkpt lat="46.67484" lon="5.61667">
        <ele>538.9</ele>
        <time>2022-03-29T07:19:56Z</time>
      </trkpt>
      <trkpt lat="46.67482" lon="5.61661">
        <ele>538.8</ele>
        <time>2022-03-29T07:20:00Z</time>
      </trkpt>
      <trkpt lat="46.67478" lon="5.61654">
        <ele>538.4</ele>
        <time>2022-03-29T07:20:06Z</time>
      </trkpt>
      <trkpt lat="46.67476" lon="5.61647">
        <ele>538.4</ele>
        <time>2022-03-29T07:20:09Z</time>
      </trkpt>
      <trkpt lat="46.67473" lon="5.61642">
        <ele>538.7</ele>
        <time>2022-03-29T07:20:13Z</time>
      </trkpt>
      <trkpt lat="46.67469" lon="5.61638">
        <ele>539.4</ele>
        <time>2022-03-29T07:20:18Z</time>
      </trkpt>
      <trkpt lat="46.67466" lon="5.61632">
        <ele>539.8</ele>
        <time>2022-03-29T07:20:24Z</time>
      </trkpt>
      <trkpt lat="46.67462" lon="5.61627">
        <ele>538.6</ele>
        <time>2022-03-29T07:20:30Z</time>
      </trkpt>
      <trkpt lat="46.67459" lon="5.61622">
        <ele>537.5</ele>
        <time>2022-03-29T07:20:35Z</time>
      </trkpt>
      <trkpt lat="46.67455" lon="5.61616">
        <ele>536.5</ele>
        <time>2022-03-29T07:20:39Z</time>
      </trkpt>
      <trkpt lat="46.67451" lon="5.61611">
        <ele>535.5</ele>
        <time>2022-03-29T07:20:43Z</time>
      </trkpt>
      <trkpt lat="46.67448" lon="5.61605">
        <ele>533.9</ele>
        <time>2022-03-29T07:20:48Z</time>
      </trkpt>
      <trkpt lat="46.67444" lon="5.61602">
        <ele>530.6</ele>
        <time>2022-03-29T07:20:55Z</time>
      </trkpt>
      <trkpt lat="46.6744" lon="5.61598">
        <ele>528.7</ele>
        <time>2022-03-29T07:20:59Z</time>
      </trkpt>
      <trkpt lat="46.67438" lon="5.6159">
        <ele>527</ele>
        <time>2022-03-29T07:21:04Z</time>
      </trkpt>
      <trkpt lat="46.67434" lon="5.61586">
        <ele>525.9</ele>
        <time>2022-03-29T07:21:08Z</time>
      </trkpt>
      <trkpt lat="46.67429" lon="5.61582">
        <ele>525.3</ele>
        <time>2022-03-29T07:21:12Z</time>
      </trkpt>
      <trkpt lat="46.67424" lon="5.61579">
        <ele>525.2</ele>
        <time>2022-03-29T07:21:15Z</time>
      </trkpt>
      <trkpt lat="46.67418" lon="5.61577">
        <ele>525</ele>
        <time>2022-03-29T07:21:18Z</time>
      </trkpt>
      <trkpt lat="46.67413" lon="5.61576">
        <ele>524.6</ele>
        <time>2022-03-29T07:21:21Z</time>
      </trkpt>
      <trkpt lat="46.67407" lon="5.61574">
        <ele>523.8</ele>
        <time>2022-03-29T07:21:25Z</time>
      </trkpt>
      <trkpt lat="46.67404" lon="5.61569">
        <ele>523.7</ele>
        <time>2022-03-29T07:21:29Z</time>
      </trkpt>
      <trkpt lat="46.67401" lon="5.61563">
        <ele>524.3</ele>
        <time>2022-03-29T07:21:34Z</time>
      </trkpt>
      <trkpt lat="46.67398" lon="5.61558">
        <ele>524.3</ele>
        <time>2022-03-29T07:21:40Z</time>
      </trkpt>
      <trkpt lat="46.67393" lon="5.61554">
        <ele>524.3</ele>
        <time>2022-03-29T07:21:45Z</time>
      </trkpt>
      <trkpt lat="46.67388" lon="5.61551">
        <ele>524.5</ele>
        <time>2022-03-29T07:21:49Z</time>
      </trkpt>
      <trkpt lat="46.67386" lon="5.61545">
        <ele>524.4</ele>
        <time>2022-03-29T07:21:54Z</time>
      </trkpt>
      <trkpt lat="46.67381" lon="5.61543">
        <ele>524.1</ele>
        <time>2022-03-29T07:22:01Z</time>
      </trkpt>
      <trkpt lat="46.67377" lon="5.61546">
        <ele>524.1</ele>
        <time>2022-03-29T07:22:06Z</time>
      </trkpt>
      <trkpt lat="46.67374" lon="5.61551">
        <ele>524.4</ele>
        <time>2022-03-29T07:22:10Z</time>
      </trkpt>
      <trkpt lat="46.6737" lon="5.61557">
        <ele>525.2</ele>
        <time>2022-03-29T07:22:15Z</time>
      </trkpt>
      <trkpt lat="46.67366" lon="5.61561">
        <ele>526.2</ele>
        <time>2022-03-29T07:22:20Z</time>
      </trkpt>
      <trkpt lat="46.67361" lon="5.61562">
        <ele>527.5</ele>
        <time>2022-03-29T07:22:25Z</time>
      </trkpt>
      <trkpt lat="46.67357" lon="5.61563">
        <ele>528.2</ele>
        <time>2022-03-29T07:22:30Z</time>
      </trkpt>
      <trkpt lat="46.67352" lon="5.61562">
        <ele>528.5</ele>
        <time>2022-03-29T07:22:34Z</time>
      </trkpt>
      <trkpt lat="46.67348" lon="5.61559">
        <ele>529</ele>
        <time>2022-03-29T07:22:39Z</time>
      </trkpt>
      <trkpt lat="46.67342" lon="5.6156">
        <ele>530.4</ele>
        <time>2022-03-29T07:22:45Z</time>
      </trkpt>
      <trkpt lat="46.67338" lon="5.61559">
        <ele>531.6</ele>
        <time>2022-03-29T07:22:50Z</time>
      </trkpt>
      <trkpt lat="46.67333" lon="5.61559">
        <ele>532.6</ele>
        <time>2022-03-29T07:22:54Z</time>
      </trkpt>
      <trkpt lat="46.67328" lon="5.61559">
        <ele>533.5</ele>
        <time>2022-03-29T07:22:58Z</time>
      </trkpt>
      <trkpt lat="46.67322" lon="5.61559">
        <ele>534.6</ele>
        <time>2022-03-29T07:23:02Z</time>
      </trkpt>
      <trkpt lat="46.67317" lon="5.61558">
        <ele>535.9</ele>
        <time>2022-03-29T07:23:06Z</time>
      </trkpt>
      <trkpt lat="46.67313" lon="5.61557">
        <ele>538</ele>
        <time>2022-03-29T07:23:13Z</time>
      </trkpt>
      <trkpt lat="46.67308" lon="5.61557">
        <ele>539.5</ele>
        <time>2022-03-29T07:23:23Z</time>
      </trkpt>
      <trkpt lat="46.67304" lon="5.61558">
        <ele>538.9</ele>
        <time>2022-03-29T07:23:28Z</time>
      </trkpt>
      <trkpt lat="46.67299" lon="5.61559">
        <ele>538.4</ele>
        <time>2022-03-29T07:23:32Z</time>
      </trkpt>
      <trkpt lat="46.67293" lon="5.6156">
        <ele>537.8</ele>
        <time>2022-03-29T07:23:36Z</time>
      </trkpt>
      <trkpt lat="46.67288" lon="5.61559">
        <ele>537.5</ele>
        <time>2022-03-29T07:23:40Z</time>
      </trkpt>
      <trkpt lat="46.67283" lon="5.61556">
        <ele>536.7</ele>
        <time>2022-03-29T07:23:50Z</time>
      </trkpt>
      <trkpt lat="46.67278" lon="5.61554">
        <ele>535.9</ele>
        <time>2022-03-29T07:23:55Z</time>
      </trkpt>
      <trkpt lat="46.67273" lon="5.61553">
        <ele>535.5</ele>
        <time>2022-03-29T07:23:59Z</time>
      </trkpt>
      <trkpt lat="46.67269" lon="5.61554">
        <ele>535.3</ele>
        <time>2022-03-29T07:24:03Z</time>
      </trkpt>
      <trkpt lat="46.67264" lon="5.61555">
        <ele>535.1</ele>
        <time>2022-03-29T07:24:08Z</time>
      </trkpt>
      <trkpt lat="46.67258" lon="5.61554">
        <ele>535.1</ele>
        <time>2022-03-29T07:24:12Z</time>
      </trkpt>
      <trkpt lat="46.67253" lon="5.61552">
        <ele>535.2</ele>
        <time>2022-03-29T07:24:15Z</time>
      </trkpt>
      <trkpt lat="46.67249" lon="5.61551">
        <ele>535.1</ele>
        <time>2022-03-29T07:24:19Z</time>
      </trkpt>
      <trkpt lat="46.67244" lon="5.6155">
        <ele>535.3</ele>
        <time>2022-03-29T07:24:24Z</time>
      </trkpt>
      <trkpt lat="46.67238" lon="5.6155">
        <ele>536.1</ele>
        <time>2022-03-29T07:24:29Z</time>
      </trkpt>
      <trkpt lat="46.67234" lon="5.61549">
        <ele>537</ele>
        <time>2022-03-29T07:24:33Z</time>
      </trkpt>
      <trkpt lat="46.67228" lon="5.61549">
        <ele>538.2</ele>
        <time>2022-03-29T07:24:38Z</time>
      </trkpt>
      <trkpt lat="46.67224" lon="5.61549">
        <ele>538.7</ele>
        <time>2022-03-29T07:24:42Z</time>
      </trkpt>
      <trkpt lat="46.67219" lon="5.61548">
        <ele>539.1</ele>
        <time>2022-03-29T07:24:46Z</time>
      </trkpt>
      <trkpt lat="46.67213" lon="5.61548">
        <ele>539.1</ele>
        <time>2022-03-29T07:24:50Z</time>
      </trkpt>
      <trkpt lat="46.67208" lon="5.61547">
        <ele>539.4</ele>
        <time>2022-03-29T07:24:53Z</time>
      </trkpt>
      <trkpt lat="46.67203" lon="5.61547">
        <ele>539.6</ele>
        <time>2022-03-29T07:24:57Z</time>
      </trkpt>
      <trkpt lat="46.67199" lon="5.61548">
        <ele>539.7</ele>
        <time>2022-03-29T07:25:01Z</time>
      </trkpt>
      <trkpt lat="46.67193" lon="5.61549">
        <ele>539.6</ele>
        <time>2022-03-29T07:25:06Z</time>
      </trkpt>
      <trkpt lat="46.67189" lon="5.61546">
        <ele>539.7</ele>
        <time>2022-03-29T07:25:13Z</time>
      </trkpt>
      <trkpt lat="46.67184" lon="5.61548">
        <ele>538.2</ele>
        <time>2022-03-29T07:25:21Z</time>
      </trkpt>
      <trkpt lat="46.67178" lon="5.61548">
        <ele>536.9</ele>
        <time>2022-03-29T07:25:25Z</time>
      </trkpt>
      <trkpt lat="46.67174" lon="5.61544">
        <ele>534.7</ele>
        <time>2022-03-29T07:25:31Z</time>
      </trkpt>
      <trkpt lat="46.67168" lon="5.61544">
        <ele>532.8</ele>
        <time>2022-03-29T07:25:36Z</time>
      </trkpt>
      <trkpt lat="46.67162" lon="5.61545">
        <ele>531.4</ele>
        <time>2022-03-29T07:25:39Z</time>
      </trkpt>
      <trkpt lat="46.67157" lon="5.61545">
        <ele>530.2</ele>
        <time>2022-03-29T07:25:42Z</time>
      </trkpt>
      <trkpt lat="46.67153" lon="5.61545">
        <ele>529.1</ele>
        <time>2022-03-29T07:25:46Z</time>
      </trkpt>
      <trkpt lat="46.67148" lon="5.61546">
        <ele>529.3</ele>
        <time>2022-03-29T07:25:52Z</time>
      </trkpt>
      <trkpt lat="46.67143" lon="5.61546">
        <ele>530.4</ele>
        <time>2022-03-29T07:25:59Z</time>
      </trkpt>
      <trkpt lat="46.67138" lon="5.61543">
        <ele>530.8</ele>
        <time>2022-03-29T07:26:05Z</time>
      </trkpt>
      <trkpt lat="46.67134" lon="5.61539">
        <ele>531.1</ele>
        <time>2022-03-29T07:26:11Z</time>
      </trkpt>
      <trkpt lat="46.67132" lon="5.61533">
        <ele>530.9</ele>
        <time>2022-03-29T07:26:17Z</time>
      </trkpt>
      <trkpt lat="46.6713" lon="5.61525">
        <ele>531.4</ele>
        <time>2022-03-29T07:26:23Z</time>
      </trkpt>
      <trkpt lat="46.67128" lon="5.61519">
        <ele>532</ele>
        <time>2022-03-29T07:26:28Z</time>
      </trkpt>
      <trkpt lat="46.67126" lon="5.61512">
        <ele>532.8</ele>
        <time>2022-03-29T07:26:32Z</time>
      </trkpt>
      <trkpt lat="46.67124" lon="5.61506">
        <ele>533.9</ele>
        <time>2022-03-29T07:26:37Z</time>
      </trkpt>
      <trkpt lat="46.67124" lon="5.61498">
        <ele>535.1</ele>
        <time>2022-03-29T07:26:42Z</time>
      </trkpt>
      <trkpt lat="46.67123" lon="5.61492">
        <ele>535.7</ele>
        <time>2022-03-29T07:26:46Z</time>
      </trkpt>
      <trkpt lat="46.67121" lon="5.61485">
        <ele>536.4</ele>
        <time>2022-03-29T07:26:50Z</time>
      </trkpt>
      <trkpt lat="46.67118" lon="5.61478">
        <ele>537.1</ele>
        <time>2022-03-29T07:26:55Z</time>
      </trkpt>
      <trkpt lat="46.67117" lon="5.61471">
        <ele>538.2</ele>
        <time>2022-03-29T07:27:01Z</time>
      </trkpt>
      <trkpt lat="46.67115" lon="5.61464">
        <ele>540.2</ele>
        <time>2022-03-29T07:27:07Z</time>
      </trkpt>
      <trkpt lat="46.67112" lon="5.6146">
        <ele>542</ele>
        <time>2022-03-29T07:27:12Z</time>
      </trkpt>
      <trkpt lat="46.67111" lon="5.61453">
        <ele>545.7</ele>
        <time>2022-03-29T07:27:21Z</time>
      </trkpt>
      <trkpt lat="46.67109" lon="5.61445">
        <ele>548.1</ele>
        <time>2022-03-29T07:27:30Z</time>
      </trkpt>
      <trkpt lat="46.67109" lon="5.61437">
        <ele>548.3</ele>
        <time>2022-03-29T07:27:36Z</time>
      </trkpt>
      <trkpt lat="46.67108" lon="5.6143">
        <ele>548.6</ele>
        <time>2022-03-29T07:27:42Z</time>
      </trkpt>
      <trkpt lat="46.67106" lon="5.61424">
        <ele>548.4</ele>
        <time>2022-03-29T07:27:48Z</time>
      </trkpt>
      <trkpt lat="46.67103" lon="5.61419">
        <ele>548.1</ele>
        <time>2022-03-29T07:27:54Z</time>
      </trkpt>
      <trkpt lat="46.67099" lon="5.61414">
        <ele>547.8</ele>
        <time>2022-03-29T07:28:00Z</time>
      </trkpt>
      <trkpt lat="46.67095" lon="5.61409">
        <ele>548</ele>
        <time>2022-03-29T07:28:08Z</time>
      </trkpt>
      <trkpt lat="46.67092" lon="5.61404">
        <ele>548.3</ele>
        <time>2022-03-29T07:28:11Z</time>
      </trkpt>
      <trkpt lat="46.67089" lon="5.61399">
        <ele>548.9</ele>
        <time>2022-03-29T07:28:15Z</time>
      </trkpt>
      <trkpt lat="46.67087" lon="5.61392">
        <ele>550</ele>
        <time>2022-03-29T07:28:22Z</time>
      </trkpt>
      <trkpt lat="46.67084" lon="5.61385">
        <ele>550.8</ele>
        <time>2022-03-29T07:28:27Z</time>
      </trkpt>
      <trkpt lat="46.67081" lon="5.6138">
        <ele>552.3</ele>
        <time>2022-03-29T07:28:35Z</time>
      </trkpt>
      <trkpt lat="46.6708" lon="5.61372">
        <ele>553</ele>
        <time>2022-03-29T07:28:41Z</time>
      </trkpt>
      <trkpt lat="46.67078" lon="5.61365">
        <ele>553.7</ele>
        <time>2022-03-29T07:28:45Z</time>
      </trkpt>
      <trkpt lat="46.67076" lon="5.61358">
        <ele>554.3</ele>
        <time>2022-03-29T07:28:49Z</time>
      </trkpt>
      <trkpt lat="46.67072" lon="5.61354">
        <ele>554.1</ele>
        <time>2022-03-29T07:28:57Z</time>
      </trkpt>
      <trkpt lat="46.67069" lon="5.61348">
        <ele>553.4</ele>
        <time>2022-03-29T07:29:03Z</time>
      </trkpt>
      <trkpt lat="46.67066" lon="5.61342">
        <ele>551.9</ele>
        <time>2022-03-29T07:29:08Z</time>
      </trkpt>
      <trkpt lat="46.67063" lon="5.61336">
        <ele>550.2</ele>
        <time>2022-03-29T07:29:13Z</time>
      </trkpt>
      <trkpt lat="46.67059" lon="5.6133">
        <ele>549.4</ele>
        <time>2022-03-29T07:29:17Z</time>
      </trkpt>
      <trkpt lat="46.67058" lon="5.61324">
        <ele>549.3</ele>
        <time>2022-03-29T07:29:20Z</time>
      </trkpt>
      <trkpt lat="46.67057" lon="5.61316">
        <ele>549.6</ele>
        <time>2022-03-29T07:29:24Z</time>
      </trkpt>
      <trkpt lat="46.67056" lon="5.61308">
        <ele>550.5</ele>
        <time>2022-03-29T07:29:28Z</time>
      </trkpt>
      <trkpt lat="46.67054" lon="5.61302">
        <ele>551.1</ele>
        <time>2022-03-29T07:29:32Z</time>
      </trkpt>
      <trkpt lat="46.67051" lon="5.61295">
        <ele>551.9</ele>
        <time>2022-03-29T07:29:37Z</time>
      </trkpt>
      <trkpt lat="46.67049" lon="5.61289">
        <ele>553.3</ele>
        <time>2022-03-29T07:29:53Z</time>
      </trkpt>
      <trkpt lat="46.67045" lon="5.61284">
        <ele>553.3</ele>
        <time>2022-03-29T07:29:58Z</time>
      </trkpt>
      <trkpt lat="46.67043" lon="5.61277">
        <ele>553</ele>
        <time>2022-03-29T07:30:03Z</time>
      </trkpt>
      <trkpt lat="46.67041" lon="5.6127">
        <ele>552.9</ele>
        <time>2022-03-29T07:30:07Z</time>
      </trkpt>
      <trkpt lat="46.67039" lon="5.61264">
        <ele>553.1</ele>
        <time>2022-03-29T07:30:11Z</time>
      </trkpt>
      <trkpt lat="46.67037" lon="5.61257">
        <ele>553.3</ele>
        <time>2022-03-29T07:30:16Z</time>
      </trkpt>
      <trkpt lat="46.67036" lon="5.6125">
        <ele>553.9</ele>
        <time>2022-03-29T07:30:22Z</time>
      </trkpt>
      <trkpt lat="46.67037" lon="5.61243">
        <ele>554.4</ele>
        <time>2022-03-29T07:30:28Z</time>
      </trkpt>
      <trkpt lat="46.67034" lon="5.61238">
        <ele>554.3</ele>
        <time>2022-03-29T07:30:31Z</time>
      </trkpt>
      <trkpt lat="46.6703" lon="5.61232">
        <ele>553.7</ele>
        <time>2022-03-29T07:30:36Z</time>
      </trkpt>
      <trkpt lat="46.67026" lon="5.61226">
        <ele>553</ele>
        <time>2022-03-29T07:30:40Z</time>
      </trkpt>
      <trkpt lat="46.67022" lon="5.6122">
        <ele>551.8</ele>
        <time>2022-03-29T07:30:46Z</time>
      </trkpt>
      <trkpt lat="46.67019" lon="5.61214">
        <ele>551.1</ele>
        <time>2022-03-29T07:30:52Z</time>
      </trkpt>
      <trkpt lat="46.67017" lon="5.61208">
        <ele>550.8</ele>
        <time>2022-03-29T07:30:57Z</time>
      </trkpt>
      <trkpt lat="46.67014" lon="5.61202">
        <ele>550.5</ele>
        <time>2022-03-29T07:31:01Z</time>
      </trkpt>
      <trkpt lat="46.67011" lon="5.61196">
        <ele>550.3</ele>
        <time>2022-03-29T07:31:06Z</time>
      </trkpt>
      <trkpt lat="46.67008" lon="5.6119">
        <ele>550.3</ele>
        <time>2022-03-29T07:31:10Z</time>
      </trkpt>
      <trkpt lat="46.67005" lon="5.61183">
        <ele>550.4</ele>
        <time>2022-03-29T07:31:14Z</time>
      </trkpt>
      <trkpt lat="46.67" lon="5.61181">
        <ele>550.6</ele>
        <time>2022-03-29T07:31:18Z</time>
      </trkpt>
      <trkpt lat="46.66994" lon="5.61181">
        <ele>551</ele>
        <time>2022-03-29T07:31:22Z</time>
      </trkpt>
      <trkpt lat="46.66989" lon="5.61183">
        <ele>551.6</ele>
        <time>2022-03-29T07:31:27Z</time>
      </trkpt>
      <trkpt lat="46.6699" lon="5.6119">
        <ele>554.2</ele>
        <time>2022-03-29T07:31:38Z</time>
      </trkpt>
      <trkpt lat="46.66987" lon="5.61196">
        <ele>554.6</ele>
        <time>2022-03-29T07:31:42Z</time>
      </trkpt>
      <trkpt lat="46.66982" lon="5.61198">
        <ele>554.5</ele>
        <time>2022-03-29T07:31:47Z</time>
      </trkpt>
      <trkpt lat="46.66978" lon="5.61202">
        <ele>553.8</ele>
        <time>2022-03-29T07:31:51Z</time>
      </trkpt>
      <trkpt lat="46.66974" lon="5.61208">
        <ele>552.8</ele>
        <time>2022-03-29T07:31:56Z</time>
      </trkpt>
      <trkpt lat="46.66969" lon="5.61211">
        <ele>552.5</ele>
        <time>2022-03-29T07:32:00Z</time>
      </trkpt>
      <trkpt lat="46.66965" lon="5.61213">
        <ele>552.3</ele>
        <time>2022-03-29T07:32:03Z</time>
      </trkpt>
      <trkpt lat="46.66961" lon="5.61216">
        <ele>552.3</ele>
        <time>2022-03-29T07:32:06Z</time>
      </trkpt>
      <trkpt lat="46.66957" lon="5.61219">
        <ele>552.4</ele>
        <time>2022-03-29T07:32:09Z</time>
      </trkpt>
      <trkpt lat="46.66952" lon="5.61223">
        <ele>552.5</ele>
        <time>2022-03-29T07:32:14Z</time>
      </trkpt>
      <trkpt lat="46.66949" lon="5.61229">
        <ele>552.5</ele>
        <time>2022-03-29T07:32:22Z</time>
      </trkpt>
      <trkpt lat="46.66945" lon="5.61233">
        <ele>552.2</ele>
        <time>2022-03-29T07:32:29Z</time>
      </trkpt>
      <trkpt lat="46.66941" lon="5.61237">
        <ele>552.1</ele>
        <time>2022-03-29T07:32:34Z</time>
      </trkpt>
      <trkpt lat="46.66937" lon="5.61241">
        <ele>552.2</ele>
        <time>2022-03-29T07:32:39Z</time>
      </trkpt>
      <trkpt lat="46.66932" lon="5.61243">
        <ele>552.2</ele>
        <time>2022-03-29T07:32:43Z</time>
      </trkpt>
      <trkpt lat="46.66927" lon="5.61246">
        <ele>552.2</ele>
        <time>2022-03-29T07:32:47Z</time>
      </trkpt>
      <trkpt lat="46.66923" lon="5.61251">
        <ele>552.1</ele>
        <time>2022-03-29T07:32:51Z</time>
      </trkpt>
      <trkpt lat="46.6692" lon="5.61255">
        <ele>552.1</ele>
        <time>2022-03-29T07:32:56Z</time>
      </trkpt>
      <trkpt lat="46.66916" lon="5.6126">
        <ele>552.3</ele>
        <time>2022-03-29T07:33:01Z</time>
      </trkpt>
      <trkpt lat="46.66912" lon="5.61264">
        <ele>552.7</ele>
        <time>2022-03-29T07:33:05Z</time>
      </trkpt>
      <trkpt lat="46.66907" lon="5.61268">
        <ele>553.3</ele>
        <time>2022-03-29T07:33:09Z</time>
      </trkpt>
      <trkpt lat="46.66903" lon="5.61271">
        <ele>554.1</ele>
        <time>2022-03-29T07:33:13Z</time>
      </trkpt>
      <trkpt lat="46.66898" lon="5.61275">
        <ele>555</ele>
        <time>2022-03-29T07:33:17Z</time>
      </trkpt>
      <trkpt lat="46.66895" lon="5.6128">
        <ele>555.6</ele>
        <time>2022-03-29T07:33:21Z</time>
      </trkpt>
      <trkpt lat="46.66892" lon="5.61286">
        <ele>555.7</ele>
        <time>2022-03-29T07:33:26Z</time>
      </trkpt>
      <trkpt lat="46.6689" lon="5.61292">
        <ele>555.8</ele>
        <time>2022-03-29T07:33:31Z</time>
      </trkpt>
      <trkpt lat="46.66886" lon="5.61295">
        <ele>555.4</ele>
        <time>2022-03-29T07:33:36Z</time>
      </trkpt>
      <trkpt lat="46.66881" lon="5.61298">
        <ele>555</ele>
        <time>2022-03-29T07:33:40Z</time>
      </trkpt>
      <trkpt lat="46.66876" lon="5.61303">
        <ele>554.9</ele>
        <time>2022-03-29T07:33:44Z</time>
      </trkpt>
      <trkpt lat="46.66872" lon="5.61307">
        <ele>554.9</ele>
        <time>2022-03-29T07:33:48Z</time>
      </trkpt>
      <trkpt lat="46.66867" lon="5.61311">
        <ele>554.9</ele>
        <time>2022-03-29T07:33:52Z</time>
      </trkpt>
      <trkpt lat="46.66862" lon="5.61313">
        <ele>554.5</ele>
        <time>2022-03-29T07:33:57Z</time>
      </trkpt>
      <trkpt lat="46.66857" lon="5.61316">
        <ele>554.5</ele>
        <time>2022-03-29T07:34:02Z</time>
      </trkpt>
      <trkpt lat="46.66853" lon="5.6132">
        <ele>554.5</ele>
        <time>2022-03-29T07:34:08Z</time>
      </trkpt>
      <trkpt lat="46.66849" lon="5.61325">
        <ele>555</ele>
        <time>2022-03-29T07:34:13Z</time>
      </trkpt>
      <trkpt lat="46.66845" lon="5.61329">
        <ele>555.6</ele>
        <time>2022-03-29T07:34:20Z</time>
      </trkpt>
      <trkpt lat="46.66841" lon="5.61335">
        <ele>555.7</ele>
        <time>2022-03-29T07:34:25Z</time>
      </trkpt>
      <trkpt lat="46.66837" lon="5.6134">
        <ele>555.6</ele>
        <time>2022-03-29T07:34:29Z</time>
      </trkpt>
      <trkpt lat="46.66832" lon="5.61344">
        <ele>555.5</ele>
        <time>2022-03-29T07:34:33Z</time>
      </trkpt>
      <trkpt lat="46.66828" lon="5.61347">
        <ele>555.4</ele>
        <time>2022-03-29T07:34:36Z</time>
      </trkpt>
      <trkpt lat="46.66823" lon="5.61351">
        <ele>555.2</ele>
        <time>2022-03-29T07:34:40Z</time>
      </trkpt>
      <trkpt lat="46.66819" lon="5.61355">
        <ele>554.9</ele>
        <time>2022-03-29T07:34:44Z</time>
      </trkpt>
      <trkpt lat="46.66815" lon="5.61358">
        <ele>554.7</ele>
        <time>2022-03-29T07:34:48Z</time>
      </trkpt>
      <trkpt lat="46.6681" lon="5.6136">
        <ele>554.5</ele>
        <time>2022-03-29T07:34:51Z</time>
      </trkpt>
      <trkpt lat="46.66806" lon="5.61364">
        <ele>553.9</ele>
        <time>2022-03-29T07:34:55Z</time>
      </trkpt>
      <trkpt lat="46.66802" lon="5.6137">
        <ele>553.2</ele>
        <time>2022-03-29T07:35:00Z</time>
      </trkpt>
      <trkpt lat="46.66798" lon="5.61375">
        <ele>552.8</ele>
        <time>2022-03-29T07:35:04Z</time>
      </trkpt>
      <trkpt lat="46.66793" lon="5.61379">
        <ele>552.6</ele>
        <time>2022-03-29T07:35:08Z</time>
      </trkpt>
      <trkpt lat="46.66788" lon="5.61384">
        <ele>552.5</ele>
        <time>2022-03-29T07:35:12Z</time>
      </trkpt>
      <trkpt lat="46.66785" lon="5.61388">
        <ele>552.5</ele>
        <time>2022-03-29T07:35:16Z</time>
      </trkpt>
      <trkpt lat="46.66781" lon="5.61392">
        <ele>552.6</ele>
        <time>2022-03-29T07:35:21Z</time>
      </trkpt>
      <trkpt lat="46.66777" lon="5.61395">
        <ele>553.4</ele>
        <time>2022-03-29T07:35:26Z</time>
      </trkpt>
      <trkpt lat="46.66773" lon="5.61399">
        <ele>554.3</ele>
        <time>2022-03-29T07:35:31Z</time>
      </trkpt>
      <trkpt lat="46.66768" lon="5.61403">
        <ele>555</ele>
        <time>2022-03-29T07:35:36Z</time>
      </trkpt>
      <trkpt lat="46.66765" lon="5.61408">
        <ele>555.7</ele>
        <time>2022-03-29T07:35:40Z</time>
      </trkpt>
      <trkpt lat="46.6676" lon="5.61412">
        <ele>556.1</ele>
        <time>2022-03-29T07:35:44Z</time>
      </trkpt>
      <trkpt lat="46.66756" lon="5.61416">
        <ele>556.2</ele>
        <time>2022-03-29T07:35:48Z</time>
      </trkpt>
      <trkpt lat="46.66752" lon="5.6142">
        <ele>556.2</ele>
        <time>2022-03-29T07:35:52Z</time>
      </trkpt>
      <trkpt lat="46.66748" lon="5.61424">
        <ele>556.5</ele>
        <time>2022-03-29T07:35:58Z</time>
      </trkpt>
      <trkpt lat="46.66743" lon="5.61427">
        <ele>556.5</ele>
        <time>2022-03-29T07:36:03Z</time>
      </trkpt>
      <trkpt lat="46.6674" lon="5.61432">
        <ele>556.6</ele>
        <time>2022-03-29T07:36:07Z</time>
      </trkpt>
      <trkpt lat="46.66735" lon="5.61435">
        <ele>557</ele>
        <time>2022-03-29T07:36:11Z</time>
      </trkpt>
      <trkpt lat="46.6673" lon="5.61439">
        <ele>557.9</ele>
        <time>2022-03-29T07:36:15Z</time>
      </trkpt>
      <trkpt lat="46.66728" lon="5.61445">
        <ele>559.4</ele>
        <time>2022-03-29T07:36:21Z</time>
      </trkpt>
      <trkpt lat="46.66723" lon="5.61447">
        <ele>560</ele>
        <time>2022-03-29T07:36:25Z</time>
      </trkpt>
      <trkpt lat="46.66719" lon="5.61451">
        <ele>560.3</ele>
        <time>2022-03-29T07:36:29Z</time>
      </trkpt>
      <trkpt lat="46.66715" lon="5.61455">
        <ele>560.7</ele>
        <time>2022-03-29T07:36:34Z</time>
      </trkpt>
      <trkpt lat="46.6671" lon="5.6146">
        <ele>561.6</ele>
        <time>2022-03-29T07:36:40Z</time>
      </trkpt>
      <trkpt lat="46.66707" lon="5.61464">
        <ele>562.3</ele>
        <time>2022-03-29T07:36:44Z</time>
      </trkpt>
      <trkpt lat="46.66703" lon="5.61469">
        <ele>562.9</ele>
        <time>2022-03-29T07:36:48Z</time>
      </trkpt>
      <trkpt lat="46.66699" lon="5.61473">
        <ele>563.3</ele>
        <time>2022-03-29T07:36:52Z</time>
      </trkpt>
      <trkpt lat="46.66694" lon="5.61477">
        <ele>563.6</ele>
        <time>2022-03-29T07:36:55Z</time>
      </trkpt>
      <trkpt lat="46.6669" lon="5.61481">
        <ele>563.5</ele>
        <time>2022-03-29T07:36:58Z</time>
      </trkpt>
      <trkpt lat="46.66686" lon="5.61485">
        <ele>563.2</ele>
        <time>2022-03-29T07:37:02Z</time>
      </trkpt>
      <trkpt lat="46.66683" lon="5.61491">
        <ele>562.1</ele>
        <time>2022-03-29T07:37:10Z</time>
      </trkpt>
      <trkpt lat="46.66678" lon="5.61495">
        <ele>561.7</ele>
        <time>2022-03-29T07:37:15Z</time>
      </trkpt>
      <trkpt lat="46.66675" lon="5.61499">
        <ele>561.8</ele>
        <time>2022-03-29T07:37:20Z</time>
      </trkpt>
      <trkpt lat="46.66671" lon="5.61503">
        <ele>561.8</ele>
        <time>2022-03-29T07:37:24Z</time>
      </trkpt>
      <trkpt lat="46.66667" lon="5.61507">
        <ele>561.6</ele>
        <time>2022-03-29T07:37:28Z</time>
      </trkpt>
      <trkpt lat="46.66663" lon="5.61511">
        <ele>561.3</ele>
        <time>2022-03-29T07:37:32Z</time>
      </trkpt>
      <trkpt lat="46.66658" lon="5.61513">
        <ele>560.2</ele>
        <time>2022-03-29T07:37:37Z</time>
      </trkpt>
      <trkpt lat="46.66653" lon="5.61515">
        <ele>559</ele>
        <time>2022-03-29T07:37:42Z</time>
      </trkpt>
      <trkpt lat="46.66649" lon="5.61517">
        <ele>558.4</ele>
        <time>2022-03-29T07:37:46Z</time>
      </trkpt>
      <trkpt lat="46.66644" lon="5.61519">
        <ele>558.1</ele>
        <time>2022-03-29T07:37:50Z</time>
      </trkpt>
      <trkpt lat="46.66639" lon="5.61521">
        <ele>558</ele>
        <time>2022-03-29T07:37:54Z</time>
      </trkpt>
      <trkpt lat="46.66634" lon="5.61524">
        <ele>558.2</ele>
        <time>2022-03-29T07:37:57Z</time>
      </trkpt>
      <trkpt lat="46.66629" lon="5.61526">
        <ele>558.4</ele>
        <time>2022-03-29T07:38:01Z</time>
      </trkpt>
      <trkpt lat="46.66625" lon="5.61529">
        <ele>558.5</ele>
        <time>2022-03-29T07:38:07Z</time>
      </trkpt>
      <trkpt lat="46.6662" lon="5.61531">
        <ele>558.3</ele>
        <time>2022-03-29T07:38:12Z</time>
      </trkpt>
      <trkpt lat="46.66616" lon="5.61531">
        <ele>558</ele>
        <time>2022-03-29T07:38:17Z</time>
      </trkpt>
      <trkpt lat="46.6661" lon="5.61532">
        <ele>557.8</ele>
        <time>2022-03-29T07:38:23Z</time>
      </trkpt>
      <trkpt lat="46.66606" lon="5.61535">
        <ele>558</ele>
        <time>2022-03-29T07:38:27Z</time>
      </trkpt>
      <trkpt lat="46.66601" lon="5.61536">
        <ele>558.3</ele>
        <time>2022-03-29T07:38:31Z</time>
      </trkpt>
      <trkpt lat="46.66596" lon="5.61538">
        <ele>558.4</ele>
        <time>2022-03-29T07:38:38Z</time>
      </trkpt>
      <trkpt lat="46.66591" lon="5.61539">
        <ele>557.8</ele>
        <time>2022-03-29T07:38:46Z</time>
      </trkpt>
      <trkpt lat="46.66587" lon="5.61541">
        <ele>557.1</ele>
        <time>2022-03-29T07:38:49Z</time>
      </trkpt>
      <trkpt lat="46.66582" lon="5.61543">
        <ele>556.6</ele>
        <time>2022-03-29T07:38:52Z</time>
      </trkpt>
      <trkpt lat="46.66578" lon="5.61545">
        <ele>556.1</ele>
        <time>2022-03-29T07:38:56Z</time>
      </trkpt>
      <trkpt lat="46.66573" lon="5.61547">
        <ele>555.5</ele>
        <time>2022-03-29T07:39:00Z</time>
      </trkpt>
      <trkpt lat="46.66568" lon="5.61548">
        <ele>554.6</ele>
        <time>2022-03-29T07:39:05Z</time>
      </trkpt>
      <trkpt lat="46.66564" lon="5.6155">
        <ele>553.9</ele>
        <time>2022-03-29T07:39:10Z</time>
      </trkpt>
      <trkpt lat="46.66559" lon="5.61554">
        <ele>553.1</ele>
        <time>2022-03-29T07:39:16Z</time>
      </trkpt>
      <trkpt lat="46.66555" lon="5.61557">
        <ele>552.9</ele>
        <time>2022-03-29T07:39:20Z</time>
      </trkpt>
      <trkpt lat="46.66551" lon="5.6156">
        <ele>552.6</ele>
        <time>2022-03-29T07:39:24Z</time>
      </trkpt>
      <trkpt lat="46.66546" lon="5.61561">
        <ele>552.2</ele>
        <time>2022-03-29T07:39:28Z</time>
      </trkpt>
      <trkpt lat="46.66541" lon="5.61563">
        <ele>551.9</ele>
        <time>2022-03-29T07:39:33Z</time>
      </trkpt>
      <trkpt lat="46.66538" lon="5.61568">
        <ele>552.1</ele>
        <time>2022-03-29T07:39:40Z</time>
      </trkpt>
      <trkpt lat="46.66534" lon="5.61571">
        <ele>552.1</ele>
        <time>2022-03-29T07:39:44Z</time>
      </trkpt>
      <trkpt lat="46.66529" lon="5.61574">
        <ele>551.8</ele>
        <time>2022-03-29T07:39:47Z</time>
      </trkpt>
      <trkpt lat="46.66524" lon="5.61575">
        <ele>551.4</ele>
        <time>2022-03-29T07:39:50Z</time>
      </trkpt>
      <trkpt lat="46.66518" lon="5.61577">
        <ele>551.1</ele>
        <time>2022-03-29T07:39:53Z</time>
      </trkpt>
      <trkpt lat="46.66513" lon="5.6158">
        <ele>551.1</ele>
        <time>2022-03-29T07:39:57Z</time>
      </trkpt>
      <trkpt lat="46.66508" lon="5.61582">
        <ele>551.2</ele>
        <time>2022-03-29T07:40:02Z</time>
      </trkpt>
      <trkpt lat="46.665" lon="5.61583">
        <ele>550.9</ele>
        <time>2022-03-29T07:40:16Z</time>
      </trkpt>
      <trkpt lat="46.66496" lon="5.61587">
        <ele>550.7</ele>
        <time>2022-03-29T07:40:20Z</time>
      </trkpt>
      <trkpt lat="46.66493" lon="5.61592">
        <ele>550.2</ele>
        <time>2022-03-29T07:40:25Z</time>
      </trkpt>
      <trkpt lat="46.66489" lon="5.61597">
        <ele>550</ele>
        <time>2022-03-29T07:40:29Z</time>
      </trkpt>
      <trkpt lat="46.66485" lon="5.61601">
        <ele>549.8</ele>
        <time>2022-03-29T07:40:32Z</time>
      </trkpt>
      <trkpt lat="46.6648" lon="5.61604">
        <ele>548.8</ele>
        <time>2022-03-29T07:40:36Z</time>
      </trkpt>
      <trkpt lat="46.66475" lon="5.61605">
        <ele>548</ele>
        <time>2022-03-29T07:40:39Z</time>
      </trkpt>
      <trkpt lat="46.6647" lon="5.61608">
        <ele>547.6</ele>
        <time>2022-03-29T07:40:45Z</time>
      </trkpt>
      <trkpt lat="46.66468" lon="5.61613">
        <ele>548.2</ele>
        <time>2022-03-29T07:40:50Z</time>
      </trkpt>
      <trkpt lat="46.66467" lon="5.61621">
        <ele>548.7</ele>
        <time>2022-03-29T07:40:55Z</time>
      </trkpt>
      <trkpt lat="46.66467" lon="5.61628">
        <ele>548.7</ele>
        <time>2022-03-29T07:41:00Z</time>
      </trkpt>
      <trkpt lat="46.66465" lon="5.61635">
        <ele>548.7</ele>
        <time>2022-03-29T07:41:05Z</time>
      </trkpt>
      <trkpt lat="46.66462" lon="5.6164">
        <ele>548.2</ele>
        <time>2022-03-29T07:41:10Z</time>
      </trkpt>
      <trkpt lat="46.66459" lon="5.61647">
        <ele>547.3</ele>
        <time>2022-03-29T07:41:15Z</time>
      </trkpt>
      <trkpt lat="46.66458" lon="5.61653">
        <ele>546.5</ele>
        <time>2022-03-29T07:41:19Z</time>
      </trkpt>
      <trkpt lat="46.66457" lon="5.61661">
        <ele>545.8</ele>
        <time>2022-03-29T07:41:24Z</time>
      </trkpt>
      <trkpt lat="46.66455" lon="5.61667">
        <ele>545.4</ele>
        <time>2022-03-29T07:41:28Z</time>
      </trkpt>
      <trkpt lat="46.66453" lon="5.61675">
        <ele>545.2</ele>
        <time>2022-03-29T07:41:32Z</time>
      </trkpt>
      <trkpt lat="46.66452" lon="5.61681">
        <ele>544.9</ele>
        <time>2022-03-29T07:41:36Z</time>
      </trkpt>
      <trkpt lat="46.66448" lon="5.61687">
        <ele>544.6</ele>
        <time>2022-03-29T07:41:40Z</time>
      </trkpt>
      <trkpt lat="46.66444" lon="5.61693">
        <ele>543.9</ele>
        <time>2022-03-29T07:41:45Z</time>
      </trkpt>
      <trkpt lat="46.66441" lon="5.61699">
        <ele>543.1</ele>
        <time>2022-03-29T07:41:51Z</time>
      </trkpt>
      <trkpt lat="46.66438" lon="5.61704">
        <ele>542.2</ele>
        <time>2022-03-29T07:41:56Z</time>
      </trkpt>
      <trkpt lat="46.66434" lon="5.61709">
        <ele>540.5</ele>
        <time>2022-03-29T07:42:02Z</time>
      </trkpt>
      <trkpt lat="46.66432" lon="5.61715">
        <ele>539.6</ele>
        <time>2022-03-29T07:42:06Z</time>
      </trkpt>
      <trkpt lat="46.66431" lon="5.61722">
        <ele>539.1</ele>
        <time>2022-03-29T07:42:10Z</time>
      </trkpt>
      <trkpt lat="46.66431" lon="5.6173">
        <ele>539.1</ele>
        <time>2022-03-29T07:42:14Z</time>
      </trkpt>
      <trkpt lat="46.66429" lon="5.61736">
        <ele>540</ele>
        <time>2022-03-29T07:42:18Z</time>
      </trkpt>
      <trkpt lat="46.66427" lon="5.61742">
        <ele>541.5</ele>
        <time>2022-03-29T07:42:23Z</time>
      </trkpt>
      <trkpt lat="46.66427" lon="5.61749">
        <ele>541.5</ele>
        <time>2022-03-29T07:42:28Z</time>
      </trkpt>
      <trkpt lat="46.66426" lon="5.61757">
        <ele>541.3</ele>
        <time>2022-03-29T07:42:34Z</time>
      </trkpt>
      <trkpt lat="46.66425" lon="5.61764">
        <ele>541</ele>
        <time>2022-03-29T07:42:39Z</time>
      </trkpt>
      <trkpt lat="46.66423" lon="5.61772">
        <ele>540.2</ele>
        <time>2022-03-29T07:42:44Z</time>
      </trkpt>
      <trkpt lat="46.66422" lon="5.61779">
        <ele>539.2</ele>
        <time>2022-03-29T07:42:49Z</time>
      </trkpt>
      <trkpt lat="46.66421" lon="5.61785">
        <ele>538.8</ele>
        <time>2022-03-29T07:42:53Z</time>
      </trkpt>
      <trkpt lat="46.6642" lon="5.61792">
        <ele>539</ele>
        <time>2022-03-29T07:42:57Z</time>
      </trkpt>
      <trkpt lat="46.66419" lon="5.618">
        <ele>539.3</ele>
        <time>2022-03-29T07:43:02Z</time>
      </trkpt>
      <trkpt lat="46.66417" lon="5.61807">
        <ele>540</ele>
        <time>2022-03-29T07:43:06Z</time>
      </trkpt>
      <trkpt lat="46.66416" lon="5.61813">
        <ele>541</ele>
        <time>2022-03-29T07:43:10Z</time>
      </trkpt>
      <trkpt lat="46.66414" lon="5.6182">
        <ele>542.3</ele>
        <time>2022-03-29T07:43:15Z</time>
      </trkpt>
      <trkpt lat="46.66412" lon="5.61827">
        <ele>543.4</ele>
        <time>2022-03-29T07:43:20Z</time>
      </trkpt>
      <trkpt lat="46.6641" lon="5.61834">
        <ele>544</ele>
        <time>2022-03-29T07:43:24Z</time>
      </trkpt>
      <trkpt lat="46.66407" lon="5.6184">
        <ele>544.7</ele>
        <time>2022-03-29T07:43:28Z</time>
      </trkpt>
      <trkpt lat="46.66405" lon="5.61848">
        <ele>544.9</ele>
        <time>2022-03-29T07:43:32Z</time>
      </trkpt>
      <trkpt lat="46.66404" lon="5.61854">
        <ele>544.7</ele>
        <time>2022-03-29T07:43:35Z</time>
      </trkpt>
      <trkpt lat="46.66401" lon="5.6186">
        <ele>544.8</ele>
        <time>2022-03-29T07:43:40Z</time>
      </trkpt>
      <trkpt lat="46.66398" lon="5.61867">
        <ele>544.6</ele>
        <time>2022-03-29T07:43:45Z</time>
      </trkpt>
      <trkpt lat="46.66396" lon="5.61873">
        <ele>544.2</ele>
        <time>2022-03-29T07:43:49Z</time>
      </trkpt>
      <trkpt lat="46.66394" lon="5.6188">
        <ele>543.9</ele>
        <time>2022-03-29T07:43:54Z</time>
      </trkpt>
      <trkpt lat="46.66392" lon="5.61886">
        <ele>543.8</ele>
        <time>2022-03-29T07:43:59Z</time>
      </trkpt>
      <trkpt lat="46.66389" lon="5.61893">
        <ele>543.6</ele>
        <time>2022-03-29T07:44:04Z</time>
      </trkpt>
      <trkpt lat="46.66387" lon="5.61899">
        <ele>543.4</ele>
        <time>2022-03-29T07:44:09Z</time>
      </trkpt>
      <trkpt lat="46.66384" lon="5.61905">
        <ele>543.2</ele>
        <time>2022-03-29T07:44:14Z</time>
      </trkpt>
      <trkpt lat="46.66381" lon="5.61911">
        <ele>542.9</ele>
        <time>2022-03-29T07:44:19Z</time>
      </trkpt>
      <trkpt lat="46.66379" lon="5.61918">
        <ele>542.7</ele>
        <time>2022-03-29T07:44:24Z</time>
      </trkpt>
      <trkpt lat="46.66376" lon="5.61924">
        <ele>542.8</ele>
        <time>2022-03-29T07:44:28Z</time>
      </trkpt>
      <trkpt lat="46.66373" lon="5.6193">
        <ele>542.8</ele>
        <time>2022-03-29T07:44:33Z</time>
      </trkpt>
      <trkpt lat="46.6637" lon="5.61937">
        <ele>543</ele>
        <time>2022-03-29T07:44:37Z</time>
      </trkpt>
      <trkpt lat="46.66367" lon="5.61944">
        <ele>543.6</ele>
        <time>2022-03-29T07:44:41Z</time>
      </trkpt>
      <trkpt lat="46.66365" lon="5.6195">
        <ele>544.2</ele>
        <time>2022-03-29T07:44:45Z</time>
      </trkpt>
      <trkpt lat="46.66363" lon="5.61956">
        <ele>545</ele>
        <time>2022-03-29T07:44:49Z</time>
      </trkpt>
      <trkpt lat="46.66359" lon="5.61961">
        <ele>546.2</ele>
        <time>2022-03-29T07:44:53Z</time>
      </trkpt>
      <trkpt lat="46.66355" lon="5.61967">
        <ele>547.5</ele>
        <time>2022-03-29T07:44:57Z</time>
      </trkpt>
      <trkpt lat="46.66351" lon="5.61973">
        <ele>548.8</ele>
        <time>2022-03-29T07:45:01Z</time>
      </trkpt>
      <trkpt lat="46.66348" lon="5.61979">
        <ele>550.2</ele>
        <time>2022-03-29T07:45:06Z</time>
      </trkpt>
      <trkpt lat="46.66346" lon="5.61985">
        <ele>551.3</ele>
        <time>2022-03-29T07:45:11Z</time>
      </trkpt>
      <trkpt lat="46.66343" lon="5.6199">
        <ele>552.3</ele>
        <time>2022-03-29T07:45:15Z</time>
      </trkpt>
      <trkpt lat="46.6634" lon="5.61997">
        <ele>553.5</ele>
        <time>2022-03-29T07:45:20Z</time>
      </trkpt>
      <trkpt lat="46.66338" lon="5.62003">
        <ele>554.3</ele>
        <time>2022-03-29T07:45:24Z</time>
      </trkpt>
      <trkpt lat="46.66335" lon="5.62009">
        <ele>554.6</ele>
        <time>2022-03-29T07:45:28Z</time>
      </trkpt>
      <trkpt lat="46.66333" lon="5.62015">
        <ele>554.8</ele>
        <time>2022-03-29T07:45:32Z</time>
      </trkpt>
      <trkpt lat="46.6633" lon="5.62021">
        <ele>554.9</ele>
        <time>2022-03-29T07:45:36Z</time>
      </trkpt>
      <trkpt lat="46.66328" lon="5.62028">
        <ele>555.2</ele>
        <time>2022-03-29T07:45:40Z</time>
      </trkpt>
      <trkpt lat="46.66326" lon="5.62035">
        <ele>555.7</ele>
        <time>2022-03-29T07:45:45Z</time>
      </trkpt>
      <trkpt lat="46.66323" lon="5.62042">
        <ele>556.2</ele>
        <time>2022-03-29T07:45:50Z</time>
      </trkpt>
      <trkpt lat="46.6632" lon="5.62048">
        <ele>556.5</ele>
        <time>2022-03-29T07:45:54Z</time>
      </trkpt>
      <trkpt lat="46.66318" lon="5.62054">
        <ele>556.8</ele>
        <time>2022-03-29T07:45:58Z</time>
      </trkpt>
      <trkpt lat="46.66315" lon="5.6206">
        <ele>556.1</ele>
        <time>2022-03-29T07:46:03Z</time>
      </trkpt>
      <trkpt lat="46.66312" lon="5.62066">
        <ele>555.8</ele>
        <time>2022-03-29T07:46:08Z</time>
      </trkpt>
      <trkpt lat="46.66309" lon="5.62071">
        <ele>556</ele>
        <time>2022-03-29T07:46:12Z</time>
      </trkpt>
      <trkpt lat="46.66305" lon="5.62077">
        <ele>556.6</ele>
        <time>2022-03-29T07:46:16Z</time>
      </trkpt>
      <trkpt lat="46.66301" lon="5.62083">
        <ele>557.1</ele>
        <time>2022-03-29T07:46:20Z</time>
      </trkpt>
      <trkpt lat="46.66298" lon="5.62089">
        <ele>556.8</ele>
        <time>2022-03-29T07:46:24Z</time>
      </trkpt>
      <trkpt lat="46.66294" lon="5.62093">
        <ele>555.5</ele>
        <time>2022-03-29T07:46:28Z</time>
      </trkpt>
      <trkpt lat="46.6629" lon="5.62098">
        <ele>553.8</ele>
        <time>2022-03-29T07:46:33Z</time>
      </trkpt>
      <trkpt lat="46.66286" lon="5.62102">
        <ele>552.4</ele>
        <time>2022-03-29T07:46:37Z</time>
      </trkpt>
      <trkpt lat="46.66281" lon="5.62106">
        <ele>551</ele>
        <time>2022-03-29T07:46:42Z</time>
      </trkpt>
      <trkpt lat="46.66277" lon="5.62109">
        <ele>549.8</ele>
        <time>2022-03-29T07:46:46Z</time>
      </trkpt>
      <trkpt lat="46.66272" lon="5.62111">
        <ele>548.6</ele>
        <time>2022-03-29T07:46:51Z</time>
      </trkpt>
      <trkpt lat="46.66268" lon="5.62114">
        <ele>548.1</ele>
        <time>2022-03-29T07:46:56Z</time>
      </trkpt>
      <trkpt lat="46.66264" lon="5.62118">
        <ele>548.5</ele>
        <time>2022-03-29T07:47:01Z</time>
      </trkpt>
      <trkpt lat="46.6626" lon="5.62121">
        <ele>549</ele>
        <time>2022-03-29T07:47:05Z</time>
      </trkpt>
      <trkpt lat="46.66255" lon="5.62124">
        <ele>549.4</ele>
        <time>2022-03-29T07:47:09Z</time>
      </trkpt>
      <trkpt lat="46.66251" lon="5.62127">
        <ele>549.7</ele>
        <time>2022-03-29T07:47:13Z</time>
      </trkpt>
      <trkpt lat="46.66247" lon="5.62131">
        <ele>550</ele>
        <time>2022-03-29T07:47:17Z</time>
      </trkpt>
      <trkpt lat="46.66243" lon="5.62135">
        <ele>550.3</ele>
        <time>2022-03-29T07:47:21Z</time>
      </trkpt>
      <trkpt lat="46.66239" lon="5.6214">
        <ele>550.6</ele>
        <time>2022-03-29T07:47:25Z</time>
      </trkpt>
      <trkpt lat="46.66235" lon="5.62146">
        <ele>551.2</ele>
        <time>2022-03-29T07:47:30Z</time>
      </trkpt>
      <trkpt lat="46.66231" lon="5.62151">
        <ele>551</ele>
        <time>2022-03-29T07:47:35Z</time>
      </trkpt>
      <trkpt lat="46.66228" lon="5.62156">
        <ele>550.2</ele>
        <time>2022-03-29T07:47:40Z</time>
      </trkpt>
      <trkpt lat="46.66224" lon="5.6216">
        <ele>549.8</ele>
        <time>2022-03-29T07:47:44Z</time>
      </trkpt>
      <trkpt lat="46.6622" lon="5.62165">
        <ele>549.4</ele>
        <time>2022-03-29T07:47:48Z</time>
      </trkpt>
      <trkpt lat="46.66217" lon="5.6217">
        <ele>549</ele>
        <time>2022-03-29T07:47:52Z</time>
      </trkpt>
      <trkpt lat="46.66214" lon="5.62176">
        <ele>547.9</ele>
        <time>2022-03-29T07:47:57Z</time>
      </trkpt>
      <trkpt lat="46.66211" lon="5.62181">
        <ele>547.1</ele>
        <time>2022-03-29T07:48:01Z</time>
      </trkpt>
      <trkpt lat="46.66209" lon="5.62187">
        <ele>546.5</ele>
        <time>2022-03-29T07:48:05Z</time>
      </trkpt>
      <trkpt lat="46.66206" lon="5.62193">
        <ele>546.3</ele>
        <time>2022-03-29T07:48:09Z</time>
      </trkpt>
      <trkpt lat="46.66205" lon="5.622">
        <ele>546.3</ele>
        <time>2022-03-29T07:48:13Z</time>
      </trkpt>
      <trkpt lat="46.66203" lon="5.62207">
        <ele>546.4</ele>
        <time>2022-03-29T07:48:17Z</time>
      </trkpt>
      <trkpt lat="46.66201" lon="5.62214">
        <ele>545.5</ele>
        <time>2022-03-29T07:48:21Z</time>
      </trkpt>
      <trkpt lat="46.66198" lon="5.6222">
        <ele>544.9</ele>
        <time>2022-03-29T07:48:25Z</time>
      </trkpt>
      <trkpt lat="46.66197" lon="5.62226">
        <ele>545.4</ele>
        <time>2022-03-29T07:48:29Z</time>
      </trkpt>
      <trkpt lat="46.66195" lon="5.62233">
        <ele>546.2</ele>
        <time>2022-03-29T07:48:35Z</time>
      </trkpt>
      <trkpt lat="46.66192" lon="5.62238">
        <ele>547.1</ele>
        <time>2022-03-29T07:48:42Z</time>
      </trkpt>
      <trkpt lat="46.66187" lon="5.62241">
        <ele>547.5</ele>
        <time>2022-03-29T07:48:48Z</time>
      </trkpt>
      <trkpt lat="46.66182" lon="5.62245">
        <ele>547.8</ele>
        <time>2022-03-29T07:48:51Z</time>
      </trkpt>
      <trkpt lat="46.66178" lon="5.62249">
        <ele>548.2</ele>
        <time>2022-03-29T07:48:54Z</time>
      </trkpt>
      <trkpt lat="46.66174" lon="5.62253">
        <ele>548.6</ele>
        <time>2022-03-29T07:48:58Z</time>
      </trkpt>
      <trkpt lat="46.66171" lon="5.62259">
        <ele>548.8</ele>
        <time>2022-03-29T07:49:03Z</time>
      </trkpt>
      <trkpt lat="46.66169" lon="5.62266">
        <ele>548.6</ele>
        <time>2022-03-29T07:49:09Z</time>
      </trkpt>
      <trkpt lat="46.66166" lon="5.62272">
        <ele>547.7</ele>
        <time>2022-03-29T07:49:14Z</time>
      </trkpt>
      <trkpt lat="46.66164" lon="5.62278">
        <ele>546.9</ele>
        <time>2022-03-29T07:49:19Z</time>
      </trkpt>
      <trkpt lat="46.66161" lon="5.62284">
        <ele>546.5</ele>
        <time>2022-03-29T07:49:24Z</time>
      </trkpt>
      <trkpt lat="46.66159" lon="5.62289">
        <ele>546.3</ele>
        <time>2022-03-29T07:49:29Z</time>
      </trkpt>
      <trkpt lat="46.66156" lon="5.62296">
        <ele>546.4</ele>
        <time>2022-03-29T07:49:34Z</time>
      </trkpt>
      <trkpt lat="46.66152" lon="5.62299">
        <ele>546.2</ele>
        <time>2022-03-29T07:49:40Z</time>
      </trkpt>
      <trkpt lat="46.66148" lon="5.62304">
        <ele>545.5</ele>
        <time>2022-03-29T07:49:45Z</time>
      </trkpt>
      <trkpt lat="46.66145" lon="5.62309">
        <ele>545</ele>
        <time>2022-03-29T07:49:49Z</time>
      </trkpt>
      <trkpt lat="46.6614" lon="5.62314">
        <ele>544.4</ele>
        <time>2022-03-29T07:49:53Z</time>
      </trkpt>
      <trkpt lat="46.66137" lon="5.62318">
        <ele>543.7</ele>
        <time>2022-03-29T07:49:57Z</time>
      </trkpt>
      <trkpt lat="46.66132" lon="5.62322">
        <ele>543</ele>
        <time>2022-03-29T07:50:03Z</time>
      </trkpt>
      <trkpt lat="46.66128" lon="5.62325">
        <ele>542.7</ele>
        <time>2022-03-29T07:50:07Z</time>
      </trkpt>
      <trkpt lat="46.66123" lon="5.62329">
        <ele>542.8</ele>
        <time>2022-03-29T07:50:12Z</time>
      </trkpt>
      <trkpt lat="46.66117" lon="5.62332">
        <ele>543.4</ele>
        <time>2022-03-29T07:50:16Z</time>
      </trkpt>
      <trkpt lat="46.66113" lon="5.62335">
        <ele>543.5</ele>
        <time>2022-03-29T07:50:19Z</time>
      </trkpt>
      <trkpt lat="46.66109" lon="5.6234">
        <ele>543.7</ele>
        <time>2022-03-29T07:50:23Z</time>
      </trkpt>
      <trkpt lat="46.66105" lon="5.62344">
        <ele>543.8</ele>
        <time>2022-03-29T07:50:27Z</time>
      </trkpt>
      <trkpt lat="46.661" lon="5.62346">
        <ele>543.9</ele>
        <time>2022-03-29T07:50:32Z</time>
      </trkpt>
      <trkpt lat="46.66095" lon="5.62349">
        <ele>543.6</ele>
        <time>2022-03-29T07:50:36Z</time>
      </trkpt>
      <trkpt lat="46.66091" lon="5.62351">
        <ele>542.9</ele>
        <time>2022-03-29T07:50:40Z</time>
      </trkpt>
      <trkpt lat="46.66086" lon="5.62351">
        <ele>542.3</ele>
        <time>2022-03-29T07:50:45Z</time>
      </trkpt>
      <trkpt lat="46.66081" lon="5.6235">
        <ele>541.4</ele>
        <time>2022-03-29T07:50:51Z</time>
      </trkpt>
      <trkpt lat="46.66076" lon="5.62353">
        <ele>540.7</ele>
        <time>2022-03-29T07:50:57Z</time>
      </trkpt>
      <trkpt lat="46.66071" lon="5.62352">
        <ele>539.9</ele>
        <time>2022-03-29T07:51:01Z</time>
      </trkpt>
      <trkpt lat="46.66066" lon="5.6235">
        <ele>539.3</ele>
        <time>2022-03-29T07:51:04Z</time>
      </trkpt>
      <trkpt lat="46.66061" lon="5.62347">
        <ele>539</ele>
        <time>2022-03-29T07:51:07Z</time>
      </trkpt>
      <trkpt lat="46.66057" lon="5.62349">
        <ele>539.2</ele>
        <time>2022-03-29T07:51:13Z</time>
      </trkpt>
      <trkpt lat="46.66052" lon="5.62352">
        <ele>539.8</ele>
        <time>2022-03-29T07:51:19Z</time>
      </trkpt>
      <trkpt lat="46.66047" lon="5.62352">
        <ele>539.9</ele>
        <time>2022-03-29T07:51:24Z</time>
      </trkpt>
      <trkpt lat="46.66041" lon="5.62353">
        <ele>539.1</ele>
        <time>2022-03-29T07:51:29Z</time>
      </trkpt>
      <trkpt lat="46.66036" lon="5.62352">
        <ele>538.1</ele>
        <time>2022-03-29T07:51:34Z</time>
      </trkpt>
      <trkpt lat="46.66031" lon="5.62351">
        <ele>537.6</ele>
        <time>2022-03-29T07:51:38Z</time>
      </trkpt>
      <trkpt lat="46.66026" lon="5.6235">
        <ele>537.3</ele>
        <time>2022-03-29T07:51:43Z</time>
      </trkpt>
      <trkpt lat="46.66021" lon="5.6235">
        <ele>537.5</ele>
        <time>2022-03-29T07:51:48Z</time>
      </trkpt>
      <trkpt lat="46.66016" lon="5.62351">
        <ele>537.4</ele>
        <time>2022-03-29T07:51:53Z</time>
      </trkpt>
      <trkpt lat="46.66011" lon="5.62351">
        <ele>537</ele>
        <time>2022-03-29T07:51:57Z</time>
      </trkpt>
      <trkpt lat="46.66006" lon="5.62351">
        <ele>536.9</ele>
        <time>2022-03-29T07:52:01Z</time>
      </trkpt>
      <trkpt lat="46.66001" lon="5.6235">
        <ele>537.1</ele>
        <time>2022-03-29T07:52:06Z</time>
      </trkpt>
      <trkpt lat="46.65996" lon="5.62351">
        <ele>537.8</ele>
        <time>2022-03-29T07:52:10Z</time>
      </trkpt>
      <trkpt lat="46.65991" lon="5.6235">
        <ele>538.6</ele>
        <time>2022-03-29T07:52:14Z</time>
      </trkpt>
      <trkpt lat="46.65986" lon="5.6235">
        <ele>539.5</ele>
        <time>2022-03-29T07:52:20Z</time>
      </trkpt>
      <trkpt lat="46.65981" lon="5.62348">
        <ele>540</ele>
        <time>2022-03-29T07:52:25Z</time>
      </trkpt>
      <trkpt lat="46.65975" lon="5.62347">
        <ele>540.3</ele>
        <time>2022-03-29T07:52:30Z</time>
      </trkpt>
      <trkpt lat="46.65971" lon="5.62346">
        <ele>540.3</ele>
        <time>2022-03-29T07:52:33Z</time>
      </trkpt>
      <trkpt lat="46.65966" lon="5.62346">
        <ele>540.2</ele>
        <time>2022-03-29T07:52:38Z</time>
      </trkpt>
      <trkpt lat="46.65961" lon="5.62349">
        <ele>540.2</ele>
        <time>2022-03-29T07:52:44Z</time>
      </trkpt>
      <trkpt lat="46.65957" lon="5.62352">
        <ele>540.5</ele>
        <time>2022-03-29T07:52:48Z</time>
      </trkpt>
      <trkpt lat="46.65952" lon="5.62356">
        <ele>541</ele>
        <time>2022-03-29T07:52:51Z</time>
      </trkpt>
      <trkpt lat="46.65947" lon="5.6236">
        <ele>541.3</ele>
        <time>2022-03-29T07:52:54Z</time>
      </trkpt>
      <trkpt lat="46.65943" lon="5.62365">
        <ele>541.9</ele>
        <time>2022-03-29T07:52:57Z</time>
      </trkpt>
      <trkpt lat="46.65941" lon="5.62372">
        <ele>542.6</ele>
        <time>2022-03-29T07:53:01Z</time>
      </trkpt>
      <trkpt lat="46.6594" lon="5.62379">
        <ele>543.1</ele>
        <time>2022-03-29T07:53:06Z</time>
      </trkpt>
      <trkpt lat="46.6594" lon="5.62386">
        <ele>543.2</ele>
        <time>2022-03-29T07:53:11Z</time>
      </trkpt>
      <trkpt lat="46.65938" lon="5.62393">
        <ele>542.4</ele>
        <time>2022-03-29T07:53:16Z</time>
      </trkpt>
      <trkpt lat="46.65937" lon="5.624">
        <ele>541.9</ele>
        <time>2022-03-29T07:53:20Z</time>
      </trkpt>
      <trkpt lat="46.65936" lon="5.62407">
        <ele>541.5</ele>
        <time>2022-03-29T07:53:25Z</time>
      </trkpt>
      <trkpt lat="46.65934" lon="5.62414">
        <ele>541</ele>
        <time>2022-03-29T07:53:31Z</time>
      </trkpt>
      <trkpt lat="46.65933" lon="5.62422">
        <ele>540.3</ele>
        <time>2022-03-29T07:53:36Z</time>
      </trkpt>
      <trkpt lat="46.65931" lon="5.62429">
        <ele>540.1</ele>
        <time>2022-03-29T07:53:40Z</time>
      </trkpt>
      <trkpt lat="46.65929" lon="5.62436">
        <ele>539.6</ele>
        <time>2022-03-29T07:53:45Z</time>
      </trkpt>
      <trkpt lat="46.65928" lon="5.62443">
        <ele>539.2</ele>
        <time>2022-03-29T07:53:49Z</time>
      </trkpt>
      <trkpt lat="46.65926" lon="5.6245">
        <ele>538.8</ele>
        <time>2022-03-29T07:53:54Z</time>
      </trkpt>
      <trkpt lat="46.65925" lon="5.62456">
        <ele>538.1</ele>
        <time>2022-03-29T07:53:59Z</time>
      </trkpt>
      <trkpt lat="46.65923" lon="5.62463">
        <ele>537.7</ele>
        <time>2022-03-29T07:54:03Z</time>
      </trkpt>
      <trkpt lat="46.65922" lon="5.6247">
        <ele>537.4</ele>
        <time>2022-03-29T07:54:08Z</time>
      </trkpt>
      <trkpt lat="46.6592" lon="5.62477">
        <ele>537.3</ele>
        <time>2022-03-29T07:54:13Z</time>
      </trkpt>
      <trkpt lat="46.65918" lon="5.62484">
        <ele>537</ele>
        <time>2022-03-29T07:54:17Z</time>
      </trkpt>
      <trkpt lat="46.65915" lon="5.6249">
        <ele>536.1</ele>
        <time>2022-03-29T07:54:22Z</time>
      </trkpt>
      <trkpt lat="46.65914" lon="5.62497">
        <ele>535.4</ele>
        <time>2022-03-29T07:54:27Z</time>
      </trkpt>
      <trkpt lat="46.65913" lon="5.62504">
        <ele>535.2</ele>
        <time>2022-03-29T07:54:31Z</time>
      </trkpt>
      <trkpt lat="46.65912" lon="5.6251">
        <ele>535.3</ele>
        <time>2022-03-29T07:54:35Z</time>
      </trkpt>
      <trkpt lat="46.6591" lon="5.62516">
        <ele>536</ele>
        <time>2022-03-29T07:54:40Z</time>
      </trkpt>
      <trkpt lat="46.65906" lon="5.62521">
        <ele>536.6</ele>
        <time>2022-03-29T07:54:44Z</time>
      </trkpt>
      <trkpt lat="46.65902" lon="5.62525">
        <ele>537.1</ele>
        <time>2022-03-29T07:54:48Z</time>
      </trkpt>
      <trkpt lat="46.65897" lon="5.62527">
        <ele>537.7</ele>
        <time>2022-03-29T07:54:52Z</time>
      </trkpt>
      <trkpt lat="46.65893" lon="5.6253">
        <ele>538.3</ele>
        <time>2022-03-29T07:54:56Z</time>
      </trkpt>
      <trkpt lat="46.65888" lon="5.62533">
        <ele>539.1</ele>
        <time>2022-03-29T07:55:01Z</time>
      </trkpt>
      <trkpt lat="46.65884" lon="5.62537">
        <ele>539.8</ele>
        <time>2022-03-29T07:55:05Z</time>
      </trkpt>
      <trkpt lat="46.65879" lon="5.62541">
        <ele>540.5</ele>
        <time>2022-03-29T07:55:10Z</time>
      </trkpt>
      <trkpt lat="46.65876" lon="5.62544">
        <ele>541</ele>
        <time>2022-03-29T07:55:13Z</time>
      </trkpt>
      <trkpt lat="46.65872" lon="5.62549">
        <ele>542.1</ele>
        <time>2022-03-29T07:55:17Z</time>
      </trkpt>
      <trkpt lat="46.65867" lon="5.62548">
        <ele>542.5</ele>
        <time>2022-03-29T07:55:37Z</time>
      </trkpt>
      <trkpt lat="46.65863" lon="5.62548">
        <ele>541.9</ele>
        <time>2022-03-29T07:55:42Z</time>
      </trkpt>
      <trkpt lat="46.65858" lon="5.62548">
        <ele>541.5</ele>
        <time>2022-03-29T07:55:47Z</time>
      </trkpt>
      <trkpt lat="46.65853" lon="5.62545">
        <ele>541.6</ele>
        <time>2022-03-29T07:55:54Z</time>
      </trkpt>
      <trkpt lat="46.65849" lon="5.62543">
        <ele>541</ele>
        <time>2022-03-29T07:56:00Z</time>
      </trkpt>
      <trkpt lat="46.65845" lon="5.62539">
        <ele>540.4</ele>
        <time>2022-03-29T07:56:05Z</time>
      </trkpt>
      <trkpt lat="46.65842" lon="5.62534">
        <ele>540</ele>
        <time>2022-03-29T07:56:10Z</time>
      </trkpt>
      <trkpt lat="46.6584" lon="5.62527">
        <ele>539.7</ele>
        <time>2022-03-29T07:56:15Z</time>
      </trkpt>
      <trkpt lat="46.65838" lon="5.62521">
        <ele>539.2</ele>
        <time>2022-03-29T07:56:19Z</time>
      </trkpt>
      <trkpt lat="46.65834" lon="5.62516">
        <ele>539</ele>
        <time>2022-03-29T07:56:23Z</time>
      </trkpt>
      <trkpt lat="46.6583" lon="5.62511">
        <ele>538.9</ele>
        <time>2022-03-29T07:56:27Z</time>
      </trkpt>
      <trkpt lat="46.65826" lon="5.62507">
        <ele>539</ele>
        <time>2022-03-29T07:56:32Z</time>
      </trkpt>
      <trkpt lat="46.65822" lon="5.62504">
        <ele>539.1</ele>
        <time>2022-03-29T07:56:36Z</time>
      </trkpt>
      <trkpt lat="46.65817" lon="5.62501">
        <ele>539.5</ele>
        <time>2022-03-29T07:56:41Z</time>
      </trkpt>
      <trkpt lat="46.65812" lon="5.625">
        <ele>539.9</ele>
        <time>2022-03-29T07:56:46Z</time>
      </trkpt>
      <trkpt lat="46.65807" lon="5.625">
        <ele>540</ele>
        <time>2022-03-29T07:56:50Z</time>
      </trkpt>
      <trkpt lat="46.65802" lon="5.62498">
        <ele>540</ele>
        <time>2022-03-29T07:56:55Z</time>
      </trkpt>
      <trkpt lat="46.65797" lon="5.62499">
        <ele>539.7</ele>
        <time>2022-03-29T07:57:00Z</time>
      </trkpt>
      <trkpt lat="46.65792" lon="5.62499">
        <ele>539.5</ele>
        <time>2022-03-29T07:57:05Z</time>
      </trkpt>
      <trkpt lat="46.65787" lon="5.62499">
        <ele>540</ele>
        <time>2022-03-29T07:57:10Z</time>
      </trkpt>
      <trkpt lat="46.65782" lon="5.625">
        <ele>540.5</ele>
        <time>2022-03-29T07:57:15Z</time>
      </trkpt>
      <trkpt lat="46.65776" lon="5.62501">
        <ele>540.9</ele>
        <time>2022-03-29T07:57:20Z</time>
      </trkpt>
      <trkpt lat="46.65771" lon="5.625">
        <ele>542.1</ele>
        <time>2022-03-29T07:57:26Z</time>
      </trkpt>
      <trkpt lat="46.65766" lon="5.625">
        <ele>543.3</ele>
        <time>2022-03-29T07:57:31Z</time>
      </trkpt>
      <trkpt lat="46.65761" lon="5.62501">
        <ele>545</ele>
        <time>2022-03-29T07:57:37Z</time>
      </trkpt>
      <trkpt lat="46.65755" lon="5.625">
        <ele>547</ele>
        <time>2022-03-29T07:57:42Z</time>
      </trkpt>
      <trkpt lat="46.65749" lon="5.62501">
        <ele>548.6</ele>
        <time>2022-03-29T07:57:46Z</time>
      </trkpt>
      <trkpt lat="46.65744" lon="5.62501">
        <ele>549.7</ele>
        <time>2022-03-29T07:57:50Z</time>
      </trkpt>
      <trkpt lat="46.65739" lon="5.62502">
        <ele>550.7</ele>
        <time>2022-03-29T07:57:54Z</time>
      </trkpt>
      <trkpt lat="46.65734" lon="5.62503">
        <ele>551.3</ele>
        <time>2022-03-29T07:57:58Z</time>
      </trkpt>
      <trkpt lat="46.65729" lon="5.62502">
        <ele>551.4</ele>
        <time>2022-03-29T07:58:02Z</time>
      </trkpt>
      <trkpt lat="46.65724" lon="5.62501">
        <ele>551.7</ele>
        <time>2022-03-29T07:58:07Z</time>
      </trkpt>
      <trkpt lat="46.65719" lon="5.62501">
        <ele>552.4</ele>
        <time>2022-03-29T07:58:13Z</time>
      </trkpt>
      <trkpt lat="46.65714" lon="5.62501">
        <ele>552.8</ele>
        <time>2022-03-29T07:58:19Z</time>
      </trkpt>
      <trkpt lat="46.65709" lon="5.625">
        <ele>552.8</ele>
        <time>2022-03-29T07:58:24Z</time>
      </trkpt>
      <trkpt lat="46.65704" lon="5.625">
        <ele>552.8</ele>
        <time>2022-03-29T07:58:28Z</time>
      </trkpt>
      <trkpt lat="46.65699" lon="5.62501">
        <ele>552.6</ele>
        <time>2022-03-29T07:58:33Z</time>
      </trkpt>
      <trkpt lat="46.65694" lon="5.62504">
        <ele>552.4</ele>
        <time>2022-03-29T07:58:37Z</time>
      </trkpt>
      <trkpt lat="46.65689" lon="5.62505">
        <ele>552.1</ele>
        <time>2022-03-29T07:58:42Z</time>
      </trkpt>
      <trkpt lat="46.65684" lon="5.62505">
        <ele>552</ele>
        <time>2022-03-29T07:58:47Z</time>
      </trkpt>
      <trkpt lat="46.65679" lon="5.62504">
        <ele>551.6</ele>
        <time>2022-03-29T07:58:52Z</time>
      </trkpt>
      <trkpt lat="46.65674" lon="5.62503">
        <ele>550.7</ele>
        <time>2022-03-29T07:58:56Z</time>
      </trkpt>
      <trkpt lat="46.65669" lon="5.62504">
        <ele>550.2</ele>
        <time>2022-03-29T07:59:00Z</time>
      </trkpt>
      <trkpt lat="46.65664" lon="5.62503">
        <ele>549.6</ele>
        <time>2022-03-29T07:59:04Z</time>
      </trkpt>
      <trkpt lat="46.65659" lon="5.625">
        <ele>549.4</ele>
        <time>2022-03-29T07:59:09Z</time>
      </trkpt>
      <trkpt lat="46.65655" lon="5.62496">
        <ele>549</ele>
        <time>2022-03-29T07:59:14Z</time>
      </trkpt>
      <trkpt lat="46.65651" lon="5.62494">
        <ele>548.2</ele>
        <time>2022-03-29T07:59:19Z</time>
      </trkpt>
      <trkpt lat="46.65646" lon="5.62491">
        <ele>548</ele>
        <time>2022-03-29T07:59:23Z</time>
      </trkpt>
      <trkpt lat="46.65641" lon="5.62487">
        <ele>548.1</ele>
        <time>2022-03-29T07:59:28Z</time>
      </trkpt>
      <trkpt lat="46.65637" lon="5.62485">
        <ele>548.1</ele>
        <time>2022-03-29T07:59:32Z</time>
      </trkpt>
      <trkpt lat="46.65632" lon="5.62482">
        <ele>548.1</ele>
        <time>2022-03-29T07:59:37Z</time>
      </trkpt>
      <trkpt lat="46.65627" lon="5.62481">
        <ele>549</ele>
        <time>2022-03-29T07:59:42Z</time>
      </trkpt>
      <trkpt lat="46.65622" lon="5.62479">
        <ele>549.9</ele>
        <time>2022-03-29T07:59:47Z</time>
      </trkpt>
      <trkpt lat="46.65617" lon="5.62477">
        <ele>551.1</ele>
        <time>2022-03-29T07:59:52Z</time>
      </trkpt>
      <trkpt lat="46.65613" lon="5.62474">
        <ele>551.7</ele>
        <time>2022-03-29T07:59:56Z</time>
      </trkpt>
      <trkpt lat="46.65608" lon="5.62473">
        <ele>552.1</ele>
        <time>2022-03-29T08:00:00Z</time>
      </trkpt>
      <trkpt lat="46.65603" lon="5.62472">
        <ele>552.2</ele>
        <time>2022-03-29T08:00:04Z</time>
      </trkpt>
      <trkpt lat="46.65597" lon="5.62472">
        <ele>552.1</ele>
        <time>2022-03-29T08:00:08Z</time>
      </trkpt>
      <trkpt lat="46.65592" lon="5.62471">
        <ele>551.7</ele>
        <time>2022-03-29T08:00:13Z</time>
      </trkpt>
      <trkpt lat="46.65587" lon="5.6247">
        <ele>551.4</ele>
        <time>2022-03-29T08:00:17Z</time>
      </trkpt>
      <trkpt lat="46.65583" lon="5.62469">
        <ele>551.3</ele>
        <time>2022-03-29T08:00:22Z</time>
      </trkpt>
      <trkpt lat="46.65578" lon="5.6247">
        <ele>551.3</ele>
        <time>2022-03-29T08:00:28Z</time>
      </trkpt>
      <trkpt lat="46.65573" lon="5.62472">
        <ele>550.7</ele>
        <time>2022-03-29T08:00:32Z</time>
      </trkpt>
      <trkpt lat="46.65568" lon="5.62475">
        <ele>550.7</ele>
        <time>2022-03-29T08:00:37Z</time>
      </trkpt>
      <trkpt lat="46.65563" lon="5.62476">
        <ele>551</ele>
        <time>2022-03-29T08:00:41Z</time>
      </trkpt>
      <trkpt lat="46.65557" lon="5.62478">
        <ele>551.6</ele>
        <time>2022-03-29T08:00:46Z</time>
      </trkpt>
      <trkpt lat="46.65552" lon="5.6248">
        <ele>551.5</ele>
        <time>2022-03-29T08:00:50Z</time>
      </trkpt>
      <trkpt lat="46.65547" lon="5.62481">
        <ele>551.2</ele>
        <time>2022-03-29T08:00:52Z</time>
      </trkpt>
      <trkpt lat="46.65542" lon="5.62483">
        <ele>550.8</ele>
        <time>2022-03-29T08:00:55Z</time>
      </trkpt>
      <trkpt lat="46.65537" lon="5.62484">
        <ele>549.5</ele>
        <time>2022-03-29T08:01:00Z</time>
      </trkpt>
      <trkpt lat="46.65532" lon="5.62485">
        <ele>548</ele>
        <time>2022-03-29T08:01:04Z</time>
      </trkpt>
      <trkpt lat="46.65527" lon="5.62487">
        <ele>546.1</ele>
        <time>2022-03-29T08:01:08Z</time>
      </trkpt>
      <trkpt lat="46.65522" lon="5.62487">
        <ele>544.1</ele>
        <time>2022-03-29T08:01:12Z</time>
      </trkpt>
      <trkpt lat="46.65517" lon="5.62488">
        <ele>542.5</ele>
        <time>2022-03-29T08:01:16Z</time>
      </trkpt>
      <trkpt lat="46.65512" lon="5.62491">
        <ele>540.9</ele>
        <time>2022-03-29T08:01:21Z</time>
      </trkpt>
      <trkpt lat="46.65507" lon="5.62493">
        <ele>539.9</ele>
        <time>2022-03-29T08:01:26Z</time>
      </trkpt>
      <trkpt lat="46.65502" lon="5.62493">
        <ele>539.4</ele>
        <time>2022-03-29T08:01:31Z</time>
      </trkpt>
      <trkpt lat="46.65497" lon="5.62495">
        <ele>539</ele>
        <time>2022-03-29T08:01:36Z</time>
      </trkpt>
      <trkpt lat="46.65492" lon="5.62498">
        <ele>538.4</ele>
        <time>2022-03-29T08:01:41Z</time>
      </trkpt>
      <trkpt lat="46.65488" lon="5.62499">
        <ele>538</ele>
        <time>2022-03-29T08:01:45Z</time>
      </trkpt>
      <trkpt lat="46.65483" lon="5.62502">
        <ele>537.6</ele>
        <time>2022-03-29T08:01:50Z</time>
      </trkpt>
      <trkpt lat="46.65479" lon="5.62506">
        <ele>537.4</ele>
        <time>2022-03-29T08:01:55Z</time>
      </trkpt>
      <trkpt lat="46.65474" lon="5.6251">
        <ele>536.3</ele>
        <time>2022-03-29T08:02:01Z</time>
      </trkpt>
      <trkpt lat="46.65469" lon="5.62513">
        <ele>535.9</ele>
        <time>2022-03-29T08:02:06Z</time>
      </trkpt>
      <trkpt lat="46.65464" lon="5.62515">
        <ele>536</ele>
        <time>2022-03-29T08:02:10Z</time>
      </trkpt>
      <trkpt lat="46.65459" lon="5.62518">
        <ele>536.2</ele>
        <time>2022-03-29T08:02:14Z</time>
      </trkpt>
      <trkpt lat="46.65455" lon="5.6252">
        <ele>536</ele>
        <time>2022-03-29T08:02:18Z</time>
      </trkpt>
      <trkpt lat="46.65451" lon="5.62525">
        <ele>535.8</ele>
        <time>2022-03-29T08:02:23Z</time>
      </trkpt>
      <trkpt lat="46.65447" lon="5.6253">
        <ele>535.7</ele>
        <time>2022-03-29T08:02:28Z</time>
      </trkpt>
      <trkpt lat="46.65443" lon="5.62535">
        <ele>536.2</ele>
        <time>2022-03-29T08:02:33Z</time>
      </trkpt>
      <trkpt lat="46.6544" lon="5.62539">
        <ele>536.3</ele>
        <time>2022-03-29T08:02:38Z</time>
      </trkpt>
      <trkpt lat="46.65436" lon="5.62544">
        <ele>536</ele>
        <time>2022-03-29T08:02:42Z</time>
      </trkpt>
      <trkpt lat="46.65431" lon="5.62549">
        <ele>534.8</ele>
        <time>2022-03-29T08:02:47Z</time>
      </trkpt>
      <trkpt lat="46.65427" lon="5.62552">
        <ele>533.4</ele>
        <time>2022-03-29T08:02:51Z</time>
      </trkpt>
      <trkpt lat="46.65423" lon="5.62557">
        <ele>532</ele>
        <time>2022-03-29T08:02:55Z</time>
      </trkpt>
      <trkpt lat="46.65419" lon="5.62562">
        <ele>531</ele>
        <time>2022-03-29T08:02:59Z</time>
      </trkpt>
      <trkpt lat="46.65414" lon="5.62566">
        <ele>530.4</ele>
        <time>2022-03-29T08:03:03Z</time>
      </trkpt>
      <trkpt lat="46.65411" lon="5.6257">
        <ele>530.1</ele>
        <time>2022-03-29T08:03:07Z</time>
      </trkpt>
      <trkpt lat="46.65406" lon="5.62573">
        <ele>530.4</ele>
        <time>2022-03-29T08:03:11Z</time>
      </trkpt>
      <trkpt lat="46.65402" lon="5.62577">
        <ele>530.9</ele>
        <time>2022-03-29T08:03:15Z</time>
      </trkpt>
      <trkpt lat="46.65398" lon="5.6258">
        <ele>532.2</ele>
        <time>2022-03-29T08:03:20Z</time>
      </trkpt>
      <trkpt lat="46.65393" lon="5.62583">
        <ele>533.2</ele>
        <time>2022-03-29T08:03:25Z</time>
      </trkpt>
      <trkpt lat="46.65389" lon="5.62587">
        <ele>533.4</ele>
        <time>2022-03-29T08:03:30Z</time>
      </trkpt>
      <trkpt lat="46.65384" lon="5.62589">
        <ele>533.6</ele>
        <time>2022-03-29T08:03:34Z</time>
      </trkpt>
      <trkpt lat="46.6538" lon="5.62592">
        <ele>533.9</ele>
        <time>2022-03-29T08:03:38Z</time>
      </trkpt>
      <trkpt lat="46.65374" lon="5.62594">
        <ele>534.5</ele>
        <time>2022-03-29T08:03:42Z</time>
      </trkpt>
      <trkpt lat="46.65369" lon="5.62595">
        <ele>534.9</ele>
        <time>2022-03-29T08:03:46Z</time>
      </trkpt>
      <trkpt lat="46.65365" lon="5.62597">
        <ele>534.8</ele>
        <time>2022-03-29T08:03:50Z</time>
      </trkpt>
      <trkpt lat="46.6536" lon="5.62599">
        <ele>535</ele>
        <time>2022-03-29T08:03:55Z</time>
      </trkpt>
      <trkpt lat="46.65355" lon="5.62601">
        <ele>534.6</ele>
        <time>2022-03-29T08:04:00Z</time>
      </trkpt>
      <trkpt lat="46.6535" lon="5.62604">
        <ele>533.7</ele>
        <time>2022-03-29T08:04:05Z</time>
      </trkpt>
      <trkpt lat="46.65345" lon="5.62606">
        <ele>533.3</ele>
        <time>2022-03-29T08:04:09Z</time>
      </trkpt>
      <trkpt lat="46.65341" lon="5.62609">
        <ele>533</ele>
        <time>2022-03-29T08:04:13Z</time>
      </trkpt>
      <trkpt lat="46.65337" lon="5.62611">
        <ele>533.1</ele>
        <time>2022-03-29T08:04:17Z</time>
      </trkpt>
      <trkpt lat="46.65332" lon="5.62614">
        <ele>533.4</ele>
        <time>2022-03-29T08:04:21Z</time>
      </trkpt>
      <trkpt lat="46.65328" lon="5.62616">
        <ele>533.6</ele>
        <time>2022-03-29T08:04:25Z</time>
      </trkpt>
      <trkpt lat="46.65323" lon="5.62619">
        <ele>533.6</ele>
        <time>2022-03-29T08:04:30Z</time>
      </trkpt>
      <trkpt lat="46.65319" lon="5.62622">
        <ele>533.5</ele>
        <time>2022-03-29T08:04:34Z</time>
      </trkpt>
      <trkpt lat="46.65313" lon="5.62623">
        <ele>532.9</ele>
        <time>2022-03-29T08:04:39Z</time>
      </trkpt>
      <trkpt lat="46.65309" lon="5.62626">
        <ele>532.8</ele>
        <time>2022-03-29T08:04:43Z</time>
      </trkpt>
      <trkpt lat="46.65305" lon="5.62629">
        <ele>533.1</ele>
        <time>2022-03-29T08:04:47Z</time>
      </trkpt>
      <trkpt lat="46.653" lon="5.62631">
        <ele>533.3</ele>
        <time>2022-03-29T08:04:52Z</time>
      </trkpt>
      <trkpt lat="46.65295" lon="5.62633">
        <ele>533.7</ele>
        <time>2022-03-29T08:04:56Z</time>
      </trkpt>
      <trkpt lat="46.65289" lon="5.62636">
        <ele>534.1</ele>
        <time>2022-03-29T08:05:01Z</time>
      </trkpt>
      <trkpt lat="46.65284" lon="5.62639">
        <ele>534.4</ele>
        <time>2022-03-29T08:05:07Z</time>
      </trkpt>
      <trkpt lat="46.6528" lon="5.62641">
        <ele>534.6</ele>
        <time>2022-03-29T08:05:12Z</time>
      </trkpt>
      <trkpt lat="46.65276" lon="5.62644">
        <ele>534.7</ele>
        <time>2022-03-29T08:05:16Z</time>
      </trkpt>
      <trkpt lat="46.65272" lon="5.62648">
        <ele>534.8</ele>
        <time>2022-03-29T08:05:19Z</time>
      </trkpt>
      <trkpt lat="46.65267" lon="5.62651">
        <ele>534.6</ele>
        <time>2022-03-29T08:05:23Z</time>
      </trkpt>
      <trkpt lat="46.65262" lon="5.62654">
        <ele>533.9</ele>
        <time>2022-03-29T08:05:28Z</time>
      </trkpt>
      <trkpt lat="46.65257" lon="5.62656">
        <ele>533.2</ele>
        <time>2022-03-29T08:05:33Z</time>
      </trkpt>
      <trkpt lat="46.65252" lon="5.62659">
        <ele>532.9</ele>
        <time>2022-03-29T08:05:37Z</time>
      </trkpt>
      <trkpt lat="46.65247" lon="5.62662">
        <ele>532.5</ele>
        <time>2022-03-29T08:05:41Z</time>
      </trkpt>
      <trkpt lat="46.65242" lon="5.62663">
        <ele>531.9</ele>
        <time>2022-03-29T08:05:46Z</time>
      </trkpt>
      <trkpt lat="46.65237" lon="5.62664">
        <ele>531.6</ele>
        <time>2022-03-29T08:05:50Z</time>
      </trkpt>
      <trkpt lat="46.65232" lon="5.62665">
        <ele>531.4</ele>
        <time>2022-03-29T08:05:55Z</time>
      </trkpt>
      <trkpt lat="46.65227" lon="5.62665">
        <ele>531.6</ele>
        <time>2022-03-29T08:06:00Z</time>
      </trkpt>
      <trkpt lat="46.65221" lon="5.62666">
        <ele>531.6</ele>
        <time>2022-03-29T08:06:06Z</time>
      </trkpt>
      <trkpt lat="46.65217" lon="5.62668">
        <ele>531.7</ele>
        <time>2022-03-29T08:06:10Z</time>
      </trkpt>
      <trkpt lat="46.65211" lon="5.62669">
        <ele>531.6</ele>
        <time>2022-03-29T08:06:14Z</time>
      </trkpt>
      <trkpt lat="46.65206" lon="5.62671">
        <ele>531.4</ele>
        <time>2022-03-29T08:06:17Z</time>
      </trkpt>
      <trkpt lat="46.65201" lon="5.62673">
        <ele>531.5</ele>
        <time>2022-03-29T08:06:21Z</time>
      </trkpt>
      <trkpt lat="46.65196" lon="5.62675">
        <ele>531.9</ele>
        <time>2022-03-29T08:06:26Z</time>
      </trkpt>
      <trkpt lat="46.6519" lon="5.62677">
        <ele>531.9</ele>
        <time>2022-03-29T08:06:31Z</time>
      </trkpt>
      <trkpt lat="46.65186" lon="5.62678">
        <ele>531.6</ele>
        <time>2022-03-29T08:06:35Z</time>
      </trkpt>
      <trkpt lat="46.65181" lon="5.62679">
        <ele>531.4</ele>
        <time>2022-03-29T08:06:39Z</time>
      </trkpt>
      <trkpt lat="46.65176" lon="5.62681">
        <ele>531.4</ele>
        <time>2022-03-29T08:06:44Z</time>
      </trkpt>
      <trkpt lat="46.65178" lon="5.62688">
        <ele>532.2</ele>
        <time>2022-03-29T08:06:52Z</time>
      </trkpt>
      <trkpt lat="46.65182" lon="5.62691">
        <ele>531.9</ele>
        <time>2022-03-29T08:07:02Z</time>
      </trkpt>
      <trkpt lat="46.65178" lon="5.62687">
        <ele>530.6</ele>
        <time>2022-03-29T08:07:34Z</time>
      </trkpt>
      <trkpt lat="46.65172" lon="5.62685">
        <ele>530.3</ele>
        <time>2022-03-29T08:07:39Z</time>
      </trkpt>
      <trkpt lat="46.65167" lon="5.62686">
        <ele>529.6</ele>
        <time>2022-03-29T08:07:43Z</time>
      </trkpt>
      <trkpt lat="46.65162" lon="5.62687">
        <ele>529.1</ele>
        <time>2022-03-29T08:07:46Z</time>
      </trkpt>
      <trkpt lat="46.65156" lon="5.62689">
        <ele>528.8</ele>
        <time>2022-03-29T08:07:50Z</time>
      </trkpt>
      <trkpt lat="46.65151" lon="5.6269">
        <ele>528.7</ele>
        <time>2022-03-29T08:07:54Z</time>
      </trkpt>
      <trkpt lat="46.65145" lon="5.62692">
        <ele>528.3</ele>
        <time>2022-03-29T08:07:58Z</time>
      </trkpt>
      <trkpt lat="46.65139" lon="5.62693">
        <ele>528.1</ele>
        <time>2022-03-29T08:08:02Z</time>
      </trkpt>
      <trkpt lat="46.65134" lon="5.62694">
        <ele>528.2</ele>
        <time>2022-03-29T08:08:06Z</time>
      </trkpt>
      <trkpt lat="46.65128" lon="5.62696">
        <ele>528.3</ele>
        <time>2022-03-29T08:08:10Z</time>
      </trkpt>
      <trkpt lat="46.65123" lon="5.62698">
        <ele>528.5</ele>
        <time>2022-03-29T08:08:14Z</time>
      </trkpt>
      <trkpt lat="46.65118" lon="5.62698">
        <ele>528.2</ele>
        <time>2022-03-29T08:08:18Z</time>
      </trkpt>
      <trkpt lat="46.65114" lon="5.62699">
        <ele>528</ele>
        <time>2022-03-29T08:08:21Z</time>
      </trkpt>
      <trkpt lat="46.65109" lon="5.627">
        <ele>527.7</ele>
        <time>2022-03-29T08:08:24Z</time>
      </trkpt>
      <trkpt lat="46.65104" lon="5.62702">
        <ele>527.4</ele>
        <time>2022-03-29T08:08:28Z</time>
      </trkpt>
      <trkpt lat="46.65099" lon="5.62703">
        <ele>526.9</ele>
        <time>2022-03-29T08:08:32Z</time>
      </trkpt>
      <trkpt lat="46.65094" lon="5.62705">
        <ele>526.1</ele>
        <time>2022-03-29T08:08:37Z</time>
      </trkpt>
      <trkpt lat="46.65089" lon="5.62707">
        <ele>525.2</ele>
        <time>2022-03-29T08:08:41Z</time>
      </trkpt>
      <trkpt lat="46.65084" lon="5.62708">
        <ele>524.8</ele>
        <time>2022-03-29T08:08:45Z</time>
      </trkpt>
      <trkpt lat="46.65078" lon="5.6271">
        <ele>524.8</ele>
        <time>2022-03-29T08:08:49Z</time>
      </trkpt>
      <trkpt lat="46.65073" lon="5.62712">
        <ele>524.7</ele>
        <time>2022-03-29T08:08:53Z</time>
      </trkpt>
      <trkpt lat="46.65068" lon="5.62713">
        <ele>524.5</ele>
        <time>2022-03-29T08:08:57Z</time>
      </trkpt>
      <trkpt lat="46.65063" lon="5.62714">
        <ele>524.2</ele>
        <time>2022-03-29T08:09:01Z</time>
      </trkpt>
      <trkpt lat="46.65058" lon="5.62715">
        <ele>523.9</ele>
        <time>2022-03-29T08:09:05Z</time>
      </trkpt>
      <trkpt lat="46.65053" lon="5.62717">
        <ele>524.2</ele>
        <time>2022-03-29T08:09:09Z</time>
      </trkpt>
      <trkpt lat="46.65047" lon="5.62718">
        <ele>524.7</ele>
        <time>2022-03-29T08:09:13Z</time>
      </trkpt>
      <trkpt lat="46.65042" lon="5.62721">
        <ele>524.8</ele>
        <time>2022-03-29T08:09:17Z</time>
      </trkpt>
      <trkpt lat="46.65038" lon="5.62722">
        <ele>525</ele>
        <time>2022-03-29T08:09:21Z</time>
      </trkpt>
      <trkpt lat="46.65032" lon="5.62724">
        <ele>525.1</ele>
        <time>2022-03-29T08:09:25Z</time>
      </trkpt>
      <trkpt lat="46.65027" lon="5.62725">
        <ele>525.3</ele>
        <time>2022-03-29T08:09:29Z</time>
      </trkpt>
      <trkpt lat="46.65022" lon="5.62727">
        <ele>525.5</ele>
        <time>2022-03-29T08:09:33Z</time>
      </trkpt>
      <trkpt lat="46.65016" lon="5.62728">
        <ele>525.6</ele>
        <time>2022-03-29T08:09:37Z</time>
      </trkpt>
      <trkpt lat="46.65012" lon="5.62729">
        <ele>526.1</ele>
        <time>2022-03-29T08:09:40Z</time>
      </trkpt>
      <trkpt lat="46.65007" lon="5.6273">
        <ele>526.4</ele>
        <time>2022-03-29T08:09:43Z</time>
      </trkpt>
      <trkpt lat="46.65002" lon="5.62733">
        <ele>526.5</ele>
        <time>2022-03-29T08:09:47Z</time>
      </trkpt>
      <trkpt lat="46.64998" lon="5.62734">
        <ele>527.1</ele>
        <time>2022-03-29T08:09:51Z</time>
      </trkpt>
      <trkpt lat="46.64992" lon="5.62736">
        <ele>527.6</ele>
        <time>2022-03-29T08:09:55Z</time>
      </trkpt>
      <trkpt lat="46.64988" lon="5.62739">
        <ele>527.9</ele>
        <time>2022-03-29T08:09:58Z</time>
      </trkpt>
      <trkpt lat="46.64983" lon="5.62742">
        <ele>528.5</ele>
        <time>2022-03-29T08:10:01Z</time>
      </trkpt>
      <trkpt lat="46.64979" lon="5.62745">
        <ele>529.4</ele>
        <time>2022-03-29T08:10:04Z</time>
      </trkpt>
      <trkpt lat="46.64974" lon="5.62747">
        <ele>530.5</ele>
        <time>2022-03-29T08:10:08Z</time>
      </trkpt>
      <trkpt lat="46.64969" lon="5.62751">
        <ele>531.9</ele>
        <time>2022-03-29T08:10:14Z</time>
      </trkpt>
      <trkpt lat="46.64967" lon="5.62757">
        <ele>532.2</ele>
        <time>2022-03-29T08:10:18Z</time>
      </trkpt>
      <trkpt lat="46.64965" lon="5.62763">
        <ele>532.5</ele>
        <time>2022-03-29T08:10:22Z</time>
      </trkpt>
      <trkpt lat="46.64964" lon="5.6277">
        <ele>532.8</ele>
        <time>2022-03-29T08:10:25Z</time>
      </trkpt>
      <trkpt lat="46.64963" lon="5.62778">
        <ele>532.7</ele>
        <time>2022-03-29T08:10:30Z</time>
      </trkpt>
      <trkpt lat="46.64962" lon="5.62784">
        <ele>532</ele>
        <time>2022-03-29T08:10:36Z</time>
      </trkpt>
      <trkpt lat="46.6496" lon="5.62791">
        <ele>531.5</ele>
        <time>2022-03-29T08:10:41Z</time>
      </trkpt>
      <trkpt lat="46.64959" lon="5.62797">
        <ele>531</ele>
        <time>2022-03-29T08:10:45Z</time>
      </trkpt>
      <trkpt lat="46.64958" lon="5.62804">
        <ele>530.5</ele>
        <time>2022-03-29T08:10:49Z</time>
      </trkpt>
      <trkpt lat="46.64957" lon="5.62811">
        <ele>530.2</ele>
        <time>2022-03-29T08:10:54Z</time>
      </trkpt>
      <trkpt lat="46.64956" lon="5.62819">
        <ele>530.3</ele>
        <time>2022-03-29T08:10:59Z</time>
      </trkpt>
      <trkpt lat="46.64956" lon="5.62826">
        <ele>530.4</ele>
        <time>2022-03-29T08:11:04Z</time>
      </trkpt>
      <trkpt lat="46.64954" lon="5.62833">
        <ele>530.4</ele>
        <time>2022-03-29T08:11:09Z</time>
      </trkpt>
      <trkpt lat="46.64953" lon="5.6284">
        <ele>530.4</ele>
        <time>2022-03-29T08:11:14Z</time>
      </trkpt>
      <trkpt lat="46.64952" lon="5.62849">
        <ele>530.5</ele>
        <time>2022-03-29T08:11:18Z</time>
      </trkpt>
      <trkpt lat="46.64949" lon="5.62856">
        <ele>530.6</ele>
        <time>2022-03-29T08:11:22Z</time>
      </trkpt>
      <trkpt lat="46.64946" lon="5.62863">
        <ele>531</ele>
        <time>2022-03-29T08:11:26Z</time>
      </trkpt>
      <trkpt lat="46.64943" lon="5.62868">
        <ele>531.1</ele>
        <time>2022-03-29T08:11:30Z</time>
      </trkpt>
      <trkpt lat="46.64939" lon="5.62872">
        <ele>531.3</ele>
        <time>2022-03-29T08:11:35Z</time>
      </trkpt>
      <trkpt lat="46.64934" lon="5.62874">
        <ele>532.8</ele>
        <time>2022-03-29T08:11:41Z</time>
      </trkpt>
      <trkpt lat="46.64929" lon="5.62878">
        <ele>534.4</ele>
        <time>2022-03-29T08:11:46Z</time>
      </trkpt>
      <trkpt lat="46.64925" lon="5.62881">
        <ele>535.9</ele>
        <time>2022-03-29T08:11:50Z</time>
      </trkpt>
      <trkpt lat="46.6492" lon="5.62884">
        <ele>537.3</ele>
        <time>2022-03-29T08:11:54Z</time>
      </trkpt>
      <trkpt lat="46.64915" lon="5.62885">
        <ele>538.9</ele>
        <time>2022-03-29T08:12:00Z</time>
      </trkpt>
      <trkpt lat="46.6491" lon="5.62887">
        <ele>540.3</ele>
        <time>2022-03-29T08:12:05Z</time>
      </trkpt>
      <trkpt lat="46.64905" lon="5.6289">
        <ele>541</ele>
        <time>2022-03-29T08:12:11Z</time>
      </trkpt>
      <trkpt lat="46.64899" lon="5.6289">
        <ele>541</ele>
        <time>2022-03-29T08:12:17Z</time>
      </trkpt>
      <trkpt lat="46.64894" lon="5.6289">
        <ele>540.8</ele>
        <time>2022-03-29T08:12:21Z</time>
      </trkpt>
      <trkpt lat="46.64889" lon="5.6289">
        <ele>540.5</ele>
        <time>2022-03-29T08:12:25Z</time>
      </trkpt>
      <trkpt lat="46.64883" lon="5.62891">
        <ele>540.4</ele>
        <time>2022-03-29T08:12:29Z</time>
      </trkpt>
      <trkpt lat="46.64878" lon="5.62892">
        <ele>540.5</ele>
        <time>2022-03-29T08:12:33Z</time>
      </trkpt>
      <trkpt lat="46.64873" lon="5.62893">
        <ele>540.3</ele>
        <time>2022-03-29T08:12:38Z</time>
      </trkpt>
      <trkpt lat="46.64868" lon="5.62893">
        <ele>540.8</ele>
        <time>2022-03-29T08:12:42Z</time>
      </trkpt>
      <trkpt lat="46.64863" lon="5.62894">
        <ele>541.2</ele>
        <time>2022-03-29T08:12:46Z</time>
      </trkpt>
      <trkpt lat="46.64858" lon="5.62895">
        <ele>541.8</ele>
        <time>2022-03-29T08:12:50Z</time>
      </trkpt>
      <trkpt lat="46.64854" lon="5.62896">
        <ele>541.8</ele>
        <time>2022-03-29T08:12:55Z</time>
      </trkpt>
      <trkpt lat="46.64848" lon="5.62897">
        <ele>540.9</ele>
        <time>2022-03-29T08:13:00Z</time>
      </trkpt>
      <trkpt lat="46.64843" lon="5.62898">
        <ele>540</ele>
        <time>2022-03-29T08:13:04Z</time>
      </trkpt>
      <trkpt lat="46.64838" lon="5.62898">
        <ele>538.7</ele>
        <time>2022-03-29T08:13:08Z</time>
      </trkpt>
      <trkpt lat="46.64833" lon="5.62898">
        <ele>537.8</ele>
        <time>2022-03-29T08:13:12Z</time>
      </trkpt>
      <trkpt lat="46.64828" lon="5.62899">
        <ele>537.3</ele>
        <time>2022-03-29T08:13:16Z</time>
      </trkpt>
      <trkpt lat="46.64823" lon="5.629">
        <ele>537.1</ele>
        <time>2022-03-29T08:13:20Z</time>
      </trkpt>
      <trkpt lat="46.64818" lon="5.62901">
        <ele>536.7</ele>
        <time>2022-03-29T08:13:24Z</time>
      </trkpt>
      <trkpt lat="46.64814" lon="5.62903">
        <ele>536.5</ele>
        <time>2022-03-29T08:13:28Z</time>
      </trkpt>
      <trkpt lat="46.64809" lon="5.62905">
        <ele>536</ele>
        <time>2022-03-29T08:13:33Z</time>
      </trkpt>
      <trkpt lat="46.64804" lon="5.62908">
        <ele>535.5</ele>
        <time>2022-03-29T08:13:38Z</time>
      </trkpt>
      <trkpt lat="46.64799" lon="5.62911">
        <ele>535.5</ele>
        <time>2022-03-29T08:13:42Z</time>
      </trkpt>
      <trkpt lat="46.64795" lon="5.62913">
        <ele>535.6</ele>
        <time>2022-03-29T08:13:47Z</time>
      </trkpt>
      <trkpt lat="46.6479" lon="5.62915">
        <ele>535.7</ele>
        <time>2022-03-29T08:13:52Z</time>
      </trkpt>
      <trkpt lat="46.64785" lon="5.62916">
        <ele>535.9</ele>
        <time>2022-03-29T08:13:57Z</time>
      </trkpt>
      <trkpt lat="46.64779" lon="5.62919">
        <ele>536.2</ele>
        <time>2022-03-29T08:14:01Z</time>
      </trkpt>
      <trkpt lat="46.64774" lon="5.62921">
        <ele>536.6</ele>
        <time>2022-03-29T08:14:05Z</time>
      </trkpt>
      <trkpt lat="46.64769" lon="5.62922">
        <ele>537.1</ele>
        <time>2022-03-29T08:14:10Z</time>
      </trkpt>
      <trkpt lat="46.64764" lon="5.62923">
        <ele>537.4</ele>
        <time>2022-03-29T08:14:14Z</time>
      </trkpt>
      <trkpt lat="46.64759" lon="5.62926">
        <ele>537.5</ele>
        <time>2022-03-29T08:14:18Z</time>
      </trkpt>
      <trkpt lat="46.64754" lon="5.62926">
        <ele>537.9</ele>
        <time>2022-03-29T08:14:23Z</time>
      </trkpt>
      <trkpt lat="46.64749" lon="5.62926">
        <ele>538.2</ele>
        <time>2022-03-29T08:14:28Z</time>
      </trkpt>
      <trkpt lat="46.64743" lon="5.62925">
        <ele>538.3</ele>
        <time>2022-03-29T08:14:34Z</time>
      </trkpt>
      <trkpt lat="46.64738" lon="5.62924">
        <ele>537.9</ele>
        <time>2022-03-29T08:14:38Z</time>
      </trkpt>
      <trkpt lat="46.64734" lon="5.62922">
        <ele>537.3</ele>
        <time>2022-03-29T08:14:43Z</time>
      </trkpt>
      <trkpt lat="46.6473" lon="5.62919">
        <ele>537.4</ele>
        <time>2022-03-29T08:14:50Z</time>
      </trkpt>
      <trkpt lat="46.64726" lon="5.62914">
        <ele>535.3</ele>
        <time>2022-03-29T08:21:37Z</time>
      </trkpt>
      <trkpt lat="46.64721" lon="5.62914">
        <ele>536.9</ele>
        <time>2022-03-29T08:21:43Z</time>
      </trkpt>
      <trkpt lat="46.64716" lon="5.62911">
        <ele>537.5</ele>
        <time>2022-03-29T08:21:49Z</time>
      </trkpt>
      <trkpt lat="46.64711" lon="5.62909">
        <ele>537.2</ele>
        <time>2022-03-29T08:21:55Z</time>
      </trkpt>
      <trkpt lat="46.64706" lon="5.62908">
        <ele>536.7</ele>
        <time>2022-03-29T08:22:00Z</time>
      </trkpt>
      <trkpt lat="46.64701" lon="5.62907">
        <ele>536.6</ele>
        <time>2022-03-29T08:22:04Z</time>
      </trkpt>
      <trkpt lat="46.64697" lon="5.62904">
        <ele>536.6</ele>
        <time>2022-03-29T08:22:08Z</time>
      </trkpt>
      <trkpt lat="46.64693" lon="5.62902">
        <ele>536.4</ele>
        <time>2022-03-29T08:22:12Z</time>
      </trkpt>
      <trkpt lat="46.64687" lon="5.629">
        <ele>536.8</ele>
        <time>2022-03-29T08:22:16Z</time>
      </trkpt>
      <trkpt lat="46.64682" lon="5.62897">
        <ele>537.2</ele>
        <time>2022-03-29T08:22:20Z</time>
      </trkpt>
      <trkpt lat="46.64677" lon="5.62897">
        <ele>537.7</ele>
        <time>2022-03-29T08:22:24Z</time>
      </trkpt>
      <trkpt lat="46.64672" lon="5.62897">
        <ele>537.7</ele>
        <time>2022-03-29T08:22:28Z</time>
      </trkpt>
      <trkpt lat="46.64666" lon="5.62898">
        <ele>537.2</ele>
        <time>2022-03-29T08:22:33Z</time>
      </trkpt>
      <trkpt lat="46.64661" lon="5.62899">
        <ele>536.6</ele>
        <time>2022-03-29T08:22:37Z</time>
      </trkpt>
      <trkpt lat="46.64657" lon="5.629">
        <ele>536.3</ele>
        <time>2022-03-29T08:22:41Z</time>
      </trkpt>
      <trkpt lat="46.64652" lon="5.62902">
        <ele>535.6</ele>
        <time>2022-03-29T08:22:46Z</time>
      </trkpt>
      <trkpt lat="46.64647" lon="5.62904">
        <ele>534.8</ele>
        <time>2022-03-29T08:22:51Z</time>
      </trkpt>
      <trkpt lat="46.64643" lon="5.62906">
        <ele>533.9</ele>
        <time>2022-03-29T08:22:55Z</time>
      </trkpt>
      <trkpt lat="46.64639" lon="5.6291">
        <ele>532.7</ele>
        <time>2022-03-29T08:22:59Z</time>
      </trkpt>
      <trkpt lat="46.64634" lon="5.62914">
        <ele>531.6</ele>
        <time>2022-03-29T08:23:03Z</time>
      </trkpt>
      <trkpt lat="46.6463" lon="5.62918">
        <ele>530.3</ele>
        <time>2022-03-29T08:23:07Z</time>
      </trkpt>
      <trkpt lat="46.64627" lon="5.62922">
        <ele>529.3</ele>
        <time>2022-03-29T08:23:11Z</time>
      </trkpt>
      <trkpt lat="46.64623" lon="5.62928">
        <ele>528.5</ele>
        <time>2022-03-29T08:23:16Z</time>
      </trkpt>
      <trkpt lat="46.6462" lon="5.62934">
        <ele>528.1</ele>
        <time>2022-03-29T08:23:21Z</time>
      </trkpt>
      <trkpt lat="46.64616" lon="5.62938">
        <ele>528.3</ele>
        <time>2022-03-29T08:23:26Z</time>
      </trkpt>
      <trkpt lat="46.64612" lon="5.62938">
        <ele>528.8</ele>
        <time>2022-03-29T08:23:38Z</time>
      </trkpt>
      <trkpt lat="46.6461" lon="5.62931">
        <ele>530.2</ele>
        <time>2022-03-29T08:24:02Z</time>
      </trkpt>
      <trkpt lat="46.64608" lon="5.62924">
        <ele>530.7</ele>
        <time>2022-03-29T08:24:06Z</time>
      </trkpt>
      <trkpt lat="46.64606" lon="5.62916">
        <ele>530.7</ele>
        <time>2022-03-29T08:24:11Z</time>
      </trkpt>
      <trkpt lat="46.64604" lon="5.62909">
        <ele>531</ele>
        <time>2022-03-29T08:24:15Z</time>
      </trkpt>
      <trkpt lat="46.64602" lon="5.62902">
        <ele>531.4</ele>
        <time>2022-03-29T08:24:19Z</time>
      </trkpt>
      <trkpt lat="46.64599" lon="5.62896">
        <ele>531.7</ele>
        <time>2022-03-29T08:24:23Z</time>
      </trkpt>
      <trkpt lat="46.64597" lon="5.62889">
        <ele>532</ele>
        <time>2022-03-29T08:24:27Z</time>
      </trkpt>
      <trkpt lat="46.64594" lon="5.62881">
        <ele>532.3</ele>
        <time>2022-03-29T08:24:31Z</time>
      </trkpt>
      <trkpt lat="46.64591" lon="5.62873">
        <ele>532.3</ele>
        <time>2022-03-29T08:24:35Z</time>
      </trkpt>
      <trkpt lat="46.6459" lon="5.62866">
        <ele>532.2</ele>
        <time>2022-03-29T08:24:39Z</time>
      </trkpt>
      <trkpt lat="46.64587" lon="5.62859">
        <ele>531.7</ele>
        <time>2022-03-29T08:24:44Z</time>
      </trkpt>
      <trkpt lat="46.64585" lon="5.62852">
        <ele>531.6</ele>
        <time>2022-03-29T08:24:49Z</time>
      </trkpt>
      <trkpt lat="46.64582" lon="5.62846">
        <ele>531.6</ele>
        <time>2022-03-29T08:24:54Z</time>
      </trkpt>
      <trkpt lat="46.6458" lon="5.62839">
        <ele>531.4</ele>
        <time>2022-03-29T08:24:58Z</time>
      </trkpt>
      <trkpt lat="46.64578" lon="5.62832">
        <ele>531.2</ele>
        <time>2022-03-29T08:25:02Z</time>
      </trkpt>
      <trkpt lat="46.64575" lon="5.62825">
        <ele>531</ele>
        <time>2022-03-29T08:25:06Z</time>
      </trkpt>
      <trkpt lat="46.64574" lon="5.62818">
        <ele>531</ele>
        <time>2022-03-29T08:25:10Z</time>
      </trkpt>
      <trkpt lat="46.64572" lon="5.62811">
        <ele>531.2</ele>
        <time>2022-03-29T08:25:14Z</time>
      </trkpt>
      <trkpt lat="46.6457" lon="5.62805">
        <ele>531.8</ele>
        <time>2022-03-29T08:25:19Z</time>
      </trkpt>
      <trkpt lat="46.64567" lon="5.62799">
        <ele>532.5</ele>
        <time>2022-03-29T08:25:24Z</time>
      </trkpt>
      <trkpt lat="46.64564" lon="5.62793">
        <ele>533.6</ele>
        <time>2022-03-29T08:25:29Z</time>
      </trkpt>
      <trkpt lat="46.64562" lon="5.62786">
        <ele>534.1</ele>
        <time>2022-03-29T08:25:33Z</time>
      </trkpt>
      <trkpt lat="46.64559" lon="5.62779">
        <ele>534.5</ele>
        <time>2022-03-29T08:25:38Z</time>
      </trkpt>
      <trkpt lat="46.64557" lon="5.62773">
        <ele>534.7</ele>
        <time>2022-03-29T08:25:42Z</time>
      </trkpt>
      <trkpt lat="46.64554" lon="5.62766">
        <ele>534.7</ele>
        <time>2022-03-29T08:25:47Z</time>
      </trkpt>
      <trkpt lat="46.64552" lon="5.62759">
        <ele>534.8</ele>
        <time>2022-03-29T08:25:51Z</time>
      </trkpt>
      <trkpt lat="46.6455" lon="5.62752">
        <ele>534.9</ele>
        <time>2022-03-29T08:25:55Z</time>
      </trkpt>
      <trkpt lat="46.64547" lon="5.62745">
        <ele>535.4</ele>
        <time>2022-03-29T08:26:00Z</time>
      </trkpt>
      <trkpt lat="46.64545" lon="5.62739">
        <ele>536.1</ele>
        <time>2022-03-29T08:26:04Z</time>
      </trkpt>
      <trkpt lat="46.64543" lon="5.62732">
        <ele>536.9</ele>
        <time>2022-03-29T08:26:10Z</time>
      </trkpt>
      <trkpt lat="46.64541" lon="5.62726">
        <ele>537.3</ele>
        <time>2022-03-29T08:26:15Z</time>
      </trkpt>
      <trkpt lat="46.64539" lon="5.6272">
        <ele>537</ele>
        <time>2022-03-29T08:26:19Z</time>
      </trkpt>
      <trkpt lat="46.64536" lon="5.62713">
        <ele>536.8</ele>
        <time>2022-03-29T08:26:25Z</time>
      </trkpt>
      <trkpt lat="46.64534" lon="5.62707">
        <ele>537</ele>
        <time>2022-03-29T08:26:29Z</time>
      </trkpt>
      <trkpt lat="46.64532" lon="5.62699">
        <ele>536.9</ele>
        <time>2022-03-29T08:26:33Z</time>
      </trkpt>
      <trkpt lat="46.64529" lon="5.62691">
        <ele>536.5</ele>
        <time>2022-03-29T08:26:37Z</time>
      </trkpt>
      <trkpt lat="46.64527" lon="5.62685">
        <ele>536</ele>
        <time>2022-03-29T08:26:41Z</time>
      </trkpt>
      <trkpt lat="46.64525" lon="5.62678">
        <ele>535.1</ele>
        <time>2022-03-29T08:26:46Z</time>
      </trkpt>
      <trkpt lat="46.64522" lon="5.62672">
        <ele>534.6</ele>
        <time>2022-03-29T08:26:50Z</time>
      </trkpt>
      <trkpt lat="46.6452" lon="5.62666">
        <ele>534.4</ele>
        <time>2022-03-29T08:26:54Z</time>
      </trkpt>
      <trkpt lat="46.64518" lon="5.6266">
        <ele>534.3</ele>
        <time>2022-03-29T08:26:58Z</time>
      </trkpt>
      <trkpt lat="46.64516" lon="5.62653">
        <ele>534.2</ele>
        <time>2022-03-29T08:27:03Z</time>
      </trkpt>
      <trkpt lat="46.64514" lon="5.62646">
        <ele>534</ele>
        <time>2022-03-29T08:27:09Z</time>
      </trkpt>
      <trkpt lat="46.64512" lon="5.62638">
        <ele>533.7</ele>
        <time>2022-03-29T08:27:13Z</time>
      </trkpt>
      <trkpt lat="46.6451" lon="5.62632">
        <ele>533.3</ele>
        <time>2022-03-29T08:27:16Z</time>
      </trkpt>
      <trkpt lat="46.64508" lon="5.62625">
        <ele>533.3</ele>
        <time>2022-03-29T08:27:20Z</time>
      </trkpt>
      <trkpt lat="46.64505" lon="5.62619">
        <ele>533.2</ele>
        <time>2022-03-29T08:27:24Z</time>
      </trkpt>
      <trkpt lat="46.64501" lon="5.62613">
        <ele>533.5</ele>
        <time>2022-03-29T08:27:29Z</time>
      </trkpt>
      <trkpt lat="46.64498" lon="5.62608">
        <ele>533.9</ele>
        <time>2022-03-29T08:27:34Z</time>
      </trkpt>
      <trkpt lat="46.64496" lon="5.62601">
        <ele>534.3</ele>
        <time>2022-03-29T08:27:39Z</time>
      </trkpt>
      <trkpt lat="46.64494" lon="5.62595">
        <ele>535.2</ele>
        <time>2022-03-29T08:27:45Z</time>
      </trkpt>
      <trkpt lat="46.64492" lon="5.62588">
        <ele>535.9</ele>
        <time>2022-03-29T08:27:50Z</time>
      </trkpt>
      <trkpt lat="46.64489" lon="5.62581">
        <ele>536.4</ele>
        <time>2022-03-29T08:27:53Z</time>
      </trkpt>
      <trkpt lat="46.64486" lon="5.62575">
        <ele>537.2</ele>
        <time>2022-03-29T08:27:56Z</time>
      </trkpt>
      <trkpt lat="46.64484" lon="5.62569">
        <ele>537.9</ele>
        <time>2022-03-29T08:28:00Z</time>
      </trkpt>
      <trkpt lat="46.64482" lon="5.62563">
        <ele>538.2</ele>
        <time>2022-03-29T08:28:04Z</time>
      </trkpt>
      <trkpt lat="46.6448" lon="5.62556">
        <ele>538.5</ele>
        <time>2022-03-29T08:28:08Z</time>
      </trkpt>
      <trkpt lat="46.64478" lon="5.62549">
        <ele>538.4</ele>
        <time>2022-03-29T08:28:13Z</time>
      </trkpt>
      <trkpt lat="46.64476" lon="5.62542">
        <ele>538.3</ele>
        <time>2022-03-29T08:28:18Z</time>
      </trkpt>
      <trkpt lat="46.64473" lon="5.62535">
        <ele>538.4</ele>
        <time>2022-03-29T08:28:23Z</time>
      </trkpt>
      <trkpt lat="46.64471" lon="5.62528">
        <ele>538.1</ele>
        <time>2022-03-29T08:28:28Z</time>
      </trkpt>
      <trkpt lat="46.64468" lon="5.62522">
        <ele>537.4</ele>
        <time>2022-03-29T08:28:33Z</time>
      </trkpt>
      <trkpt lat="46.64466" lon="5.62514">
        <ele>536.7</ele>
        <time>2022-03-29T08:28:38Z</time>
      </trkpt>
      <trkpt lat="46.64464" lon="5.62508">
        <ele>536.4</ele>
        <time>2022-03-29T08:28:42Z</time>
      </trkpt>
      <trkpt lat="46.64461" lon="5.62502">
        <ele>536.3</ele>
        <time>2022-03-29T08:28:46Z</time>
      </trkpt>
      <trkpt lat="46.64458" lon="5.62495">
        <ele>536.5</ele>
        <time>2022-03-29T08:28:50Z</time>
      </trkpt>
      <trkpt lat="46.64456" lon="5.62489">
        <ele>537.1</ele>
        <time>2022-03-29T08:28:54Z</time>
      </trkpt>
      <trkpt lat="46.64455" lon="5.62482">
        <ele>537.1</ele>
        <time>2022-03-29T08:28:58Z</time>
      </trkpt>
      <trkpt lat="46.64452" lon="5.62475">
        <ele>537</ele>
        <time>2022-03-29T08:29:02Z</time>
      </trkpt>
      <trkpt lat="46.6445" lon="5.62469">
        <ele>536.8</ele>
        <time>2022-03-29T08:29:06Z</time>
      </trkpt>
      <trkpt lat="46.64448" lon="5.62462">
        <ele>536.8</ele>
        <time>2022-03-29T08:29:10Z</time>
      </trkpt>
      <trkpt lat="46.64446" lon="5.62455">
        <ele>537.2</ele>
        <time>2022-03-29T08:29:14Z</time>
      </trkpt>
      <trkpt lat="46.64444" lon="5.62449">
        <ele>537.5</ele>
        <time>2022-03-29T08:29:19Z</time>
      </trkpt>
      <trkpt lat="46.64441" lon="5.62443">
        <ele>537.3</ele>
        <time>2022-03-29T08:29:24Z</time>
      </trkpt>
      <trkpt lat="46.64439" lon="5.62437">
        <ele>537</ele>
        <time>2022-03-29T08:29:28Z</time>
      </trkpt>
      <trkpt lat="46.64436" lon="5.6243">
        <ele>536.7</ele>
        <time>2022-03-29T08:29:33Z</time>
      </trkpt>
      <trkpt lat="46.64433" lon="5.62424">
        <ele>536.6</ele>
        <time>2022-03-29T08:29:37Z</time>
      </trkpt>
      <trkpt lat="46.64431" lon="5.62419">
        <ele>536.6</ele>
        <time>2022-03-29T08:29:41Z</time>
      </trkpt>
      <trkpt lat="46.64427" lon="5.62415">
        <ele>536.5</ele>
        <time>2022-03-29T08:29:45Z</time>
      </trkpt>
      <trkpt lat="46.64421" lon="5.62412">
        <ele>536.1</ele>
        <time>2022-03-29T08:29:49Z</time>
      </trkpt>
      <trkpt lat="46.64417" lon="5.6241">
        <ele>535.6</ele>
        <time>2022-03-29T08:29:53Z</time>
      </trkpt>
      <trkpt lat="46.64411" lon="5.62408">
        <ele>534.8</ele>
        <time>2022-03-29T08:29:57Z</time>
      </trkpt>
      <trkpt lat="46.64406" lon="5.62406">
        <ele>533.3</ele>
        <time>2022-03-29T08:30:01Z</time>
      </trkpt>
      <trkpt lat="46.64401" lon="5.62405">
        <ele>530.8</ele>
        <time>2022-03-29T08:30:06Z</time>
      </trkpt>
      <trkpt lat="46.64395" lon="5.62403">
        <ele>529.5</ele>
        <time>2022-03-29T08:30:11Z</time>
      </trkpt>
      <trkpt lat="46.64391" lon="5.62403">
        <ele>528.8</ele>
        <time>2022-03-29T08:30:15Z</time>
      </trkpt>
      <trkpt lat="46.64386" lon="5.62403">
        <ele>528.3</ele>
        <time>2022-03-29T08:30:19Z</time>
      </trkpt>
      <trkpt lat="46.64381" lon="5.62405">
        <ele>528.5</ele>
        <time>2022-03-29T08:30:23Z</time>
      </trkpt>
      <trkpt lat="46.64376" lon="5.62405">
        <ele>529.1</ele>
        <time>2022-03-29T08:30:27Z</time>
      </trkpt>
      <trkpt lat="46.64371" lon="5.62404">
        <ele>530</ele>
        <time>2022-03-29T08:30:31Z</time>
      </trkpt>
      <trkpt lat="46.64366" lon="5.62403">
        <ele>531.1</ele>
        <time>2022-03-29T08:30:35Z</time>
      </trkpt>
      <trkpt lat="46.64362" lon="5.62402">
        <ele>532</ele>
        <time>2022-03-29T08:30:39Z</time>
      </trkpt>
      <trkpt lat="46.64357" lon="5.624">
        <ele>532.1</ele>
        <time>2022-03-29T08:30:43Z</time>
      </trkpt>
      <trkpt lat="46.64352" lon="5.62398">
        <ele>532</ele>
        <time>2022-03-29T08:30:48Z</time>
      </trkpt>
      <trkpt lat="46.64348" lon="5.62399">
        <ele>532</ele>
        <time>2022-03-29T08:30:52Z</time>
      </trkpt>
      <trkpt lat="46.64343" lon="5.62398">
        <ele>532.4</ele>
        <time>2022-03-29T08:30:56Z</time>
      </trkpt>
      <trkpt lat="46.64338" lon="5.62395">
        <ele>533.2</ele>
        <time>2022-03-29T08:31:01Z</time>
      </trkpt>
      <trkpt lat="46.64332" lon="5.62395">
        <ele>534.3</ele>
        <time>2022-03-29T08:31:06Z</time>
      </trkpt>
      <trkpt lat="46.64328" lon="5.62394">
        <ele>535</ele>
        <time>2022-03-29T08:31:11Z</time>
      </trkpt>
      <trkpt lat="46.64323" lon="5.62392">
        <ele>535.3</ele>
        <time>2022-03-29T08:31:16Z</time>
      </trkpt>
      <trkpt lat="46.64318" lon="5.62392">
        <ele>535.6</ele>
        <time>2022-03-29T08:31:20Z</time>
      </trkpt>
      <trkpt lat="46.64313" lon="5.6239">
        <ele>535.7</ele>
        <time>2022-03-29T08:31:24Z</time>
      </trkpt>
      <trkpt lat="46.64309" lon="5.62388">
        <ele>535.7</ele>
        <time>2022-03-29T08:31:28Z</time>
      </trkpt>
      <trkpt lat="46.64303" lon="5.62386">
        <ele>535.6</ele>
        <time>2022-03-29T08:31:33Z</time>
      </trkpt>
      <trkpt lat="46.64298" lon="5.62384">
        <ele>535.8</ele>
        <time>2022-03-29T08:31:38Z</time>
      </trkpt>
      <trkpt lat="46.64293" lon="5.62383">
        <ele>536</ele>
        <time>2022-03-29T08:31:42Z</time>
      </trkpt>
      <trkpt lat="46.64289" lon="5.62382">
        <ele>536</ele>
        <time>2022-03-29T08:31:46Z</time>
      </trkpt>
      <trkpt lat="46.64284" lon="5.6238">
        <ele>536</ele>
        <time>2022-03-29T08:31:50Z</time>
      </trkpt>
      <trkpt lat="46.64279" lon="5.62379">
        <ele>536.1</ele>
        <time>2022-03-29T08:31:54Z</time>
      </trkpt>
      <trkpt lat="46.64273" lon="5.62378">
        <ele>536.2</ele>
        <time>2022-03-29T08:31:58Z</time>
      </trkpt>
      <trkpt lat="46.64268" lon="5.62377">
        <ele>536.6</ele>
        <time>2022-03-29T08:32:02Z</time>
      </trkpt>
      <trkpt lat="46.64264" lon="5.62374">
        <ele>537.1</ele>
        <time>2022-03-29T08:32:07Z</time>
      </trkpt>
      <trkpt lat="46.6426" lon="5.62371">
        <ele>536.9</ele>
        <time>2022-03-29T08:32:12Z</time>
      </trkpt>
      <trkpt lat="46.64254" lon="5.62369">
        <ele>536.3</ele>
        <time>2022-03-29T08:32:17Z</time>
      </trkpt>
      <trkpt lat="46.64249" lon="5.62368">
        <ele>536.1</ele>
        <time>2022-03-29T08:32:21Z</time>
      </trkpt>
      <trkpt lat="46.64244" lon="5.62366">
        <ele>536.3</ele>
        <time>2022-03-29T08:32:25Z</time>
      </trkpt>
      <trkpt lat="46.64239" lon="5.62364">
        <ele>536.5</ele>
        <time>2022-03-29T08:32:29Z</time>
      </trkpt>
      <trkpt lat="46.64235" lon="5.62362">
        <ele>536.3</ele>
        <time>2022-03-29T08:32:34Z</time>
      </trkpt>
      <trkpt lat="46.6423" lon="5.6236">
        <ele>536.3</ele>
        <time>2022-03-29T08:32:38Z</time>
      </trkpt>
      <trkpt lat="46.64225" lon="5.62358">
        <ele>536.4</ele>
        <time>2022-03-29T08:32:42Z</time>
      </trkpt>
      <trkpt lat="46.6422" lon="5.62356">
        <ele>536.6</ele>
        <time>2022-03-29T08:32:46Z</time>
      </trkpt>
      <trkpt lat="46.64215" lon="5.62353">
        <ele>536.8</ele>
        <time>2022-03-29T08:32:51Z</time>
      </trkpt>
      <trkpt lat="46.6421" lon="5.62351">
        <ele>536.7</ele>
        <time>2022-03-29T08:32:55Z</time>
      </trkpt>
      <trkpt lat="46.64205" lon="5.62349">
        <ele>536.8</ele>
        <time>2022-03-29T08:32:59Z</time>
      </trkpt>
      <trkpt lat="46.64199" lon="5.62348">
        <ele>536.6</ele>
        <time>2022-03-29T08:33:03Z</time>
      </trkpt>
      <trkpt lat="46.64195" lon="5.62346">
        <ele>536.1</ele>
        <time>2022-03-29T08:33:07Z</time>
      </trkpt>
      <trkpt lat="46.6419" lon="5.62344">
        <ele>535.9</ele>
        <time>2022-03-29T08:33:11Z</time>
      </trkpt>
      <trkpt lat="46.64186" lon="5.62341">
        <ele>536.2</ele>
        <time>2022-03-29T08:33:15Z</time>
      </trkpt>
      <trkpt lat="46.64181" lon="5.6234">
        <ele>536.4</ele>
        <time>2022-03-29T08:33:20Z</time>
      </trkpt>
      <trkpt lat="46.64176" lon="5.62339">
        <ele>536.3</ele>
        <time>2022-03-29T08:33:25Z</time>
      </trkpt>
      <trkpt lat="46.64171" lon="5.62337">
        <ele>536.4</ele>
        <time>2022-03-29T08:33:29Z</time>
      </trkpt>
      <trkpt lat="46.64166" lon="5.62334">
        <ele>536.7</ele>
        <time>2022-03-29T08:33:34Z</time>
      </trkpt>
      <trkpt lat="46.64162" lon="5.6233">
        <ele>537.2</ele>
        <time>2022-03-29T08:33:39Z</time>
      </trkpt>
      <trkpt lat="46.64158" lon="5.62327">
        <ele>537.9</ele>
        <time>2022-03-29T08:33:43Z</time>
      </trkpt>
      <trkpt lat="46.64153" lon="5.62325">
        <ele>538</ele>
        <time>2022-03-29T08:33:47Z</time>
      </trkpt>
      <trkpt lat="46.64148" lon="5.62322">
        <ele>537.9</ele>
        <time>2022-03-29T08:33:52Z</time>
      </trkpt>
      <trkpt lat="46.64144" lon="5.62321">
        <ele>537.9</ele>
        <time>2022-03-29T08:33:56Z</time>
      </trkpt>
      <trkpt lat="46.64139" lon="5.62319">
        <ele>538</ele>
        <time>2022-03-29T08:34:00Z</time>
      </trkpt>
      <trkpt lat="46.64135" lon="5.62316">
        <ele>537.8</ele>
        <time>2022-03-29T08:34:04Z</time>
      </trkpt>
      <trkpt lat="46.6413" lon="5.62313">
        <ele>537.3</ele>
        <time>2022-03-29T08:34:09Z</time>
      </trkpt>
      <trkpt lat="46.64126" lon="5.62309">
        <ele>537.1</ele>
        <time>2022-03-29T08:34:13Z</time>
      </trkpt>
      <trkpt lat="46.64122" lon="5.62306">
        <ele>536.5</ele>
        <time>2022-03-29T08:34:17Z</time>
      </trkpt>
      <trkpt lat="46.64117" lon="5.62304">
        <ele>535.9</ele>
        <time>2022-03-29T08:34:21Z</time>
      </trkpt>
      <trkpt lat="46.64112" lon="5.62301">
        <ele>535.9</ele>
        <time>2022-03-29T08:34:25Z</time>
      </trkpt>
      <trkpt lat="46.64107" lon="5.62299">
        <ele>536.1</ele>
        <time>2022-03-29T08:34:29Z</time>
      </trkpt>
      <trkpt lat="46.64102" lon="5.62297">
        <ele>536.3</ele>
        <time>2022-03-29T08:34:34Z</time>
      </trkpt>
      <trkpt lat="46.64097" lon="5.62295">
        <ele>536.3</ele>
        <time>2022-03-29T08:34:38Z</time>
      </trkpt>
      <trkpt lat="46.64093" lon="5.62293">
        <ele>536.2</ele>
        <time>2022-03-29T08:34:42Z</time>
      </trkpt>
      <trkpt lat="46.64088" lon="5.62291">
        <ele>536.2</ele>
        <time>2022-03-29T08:34:46Z</time>
      </trkpt>
      <trkpt lat="46.64083" lon="5.62288">
        <ele>536.1</ele>
        <time>2022-03-29T08:34:51Z</time>
      </trkpt>
      <trkpt lat="46.64078" lon="5.62285">
        <ele>536.2</ele>
        <time>2022-03-29T08:34:56Z</time>
      </trkpt>
      <trkpt lat="46.64073" lon="5.62282">
        <ele>536</ele>
        <time>2022-03-29T08:35:01Z</time>
      </trkpt>
      <trkpt lat="46.64069" lon="5.6228">
        <ele>535.6</ele>
        <time>2022-03-29T08:35:06Z</time>
      </trkpt>
      <trkpt lat="46.64064" lon="5.62277">
        <ele>534.9</ele>
        <time>2022-03-29T08:35:11Z</time>
      </trkpt>
      <trkpt lat="46.6406" lon="5.62274">
        <ele>534.3</ele>
        <time>2022-03-29T08:35:15Z</time>
      </trkpt>
      <trkpt lat="46.64056" lon="5.62271">
        <ele>534</ele>
        <time>2022-03-29T08:35:19Z</time>
      </trkpt>
      <trkpt lat="46.64052" lon="5.62267">
        <ele>534.5</ele>
        <time>2022-03-29T08:35:23Z</time>
      </trkpt>
      <trkpt lat="46.64048" lon="5.62263">
        <ele>534.9</ele>
        <time>2022-03-29T08:35:27Z</time>
      </trkpt>
      <trkpt lat="46.64043" lon="5.62259">
        <ele>535.2</ele>
        <time>2022-03-29T08:35:32Z</time>
      </trkpt>
      <trkpt lat="46.64039" lon="5.62255">
        <ele>535.7</ele>
        <time>2022-03-29T08:35:36Z</time>
      </trkpt>
      <trkpt lat="46.64035" lon="5.62251">
        <ele>536.6</ele>
        <time>2022-03-29T08:35:40Z</time>
      </trkpt>
      <trkpt lat="46.64031" lon="5.62247">
        <ele>537.4</ele>
        <time>2022-03-29T08:35:44Z</time>
      </trkpt>
      <trkpt lat="46.64028" lon="5.62243">
        <ele>537.9</ele>
        <time>2022-03-29T08:35:48Z</time>
      </trkpt>
      <trkpt lat="46.64023" lon="5.62238">
        <ele>538.3</ele>
        <time>2022-03-29T08:35:53Z</time>
      </trkpt>
      <trkpt lat="46.64019" lon="5.62233">
        <ele>538.9</ele>
        <time>2022-03-29T08:35:58Z</time>
      </trkpt>
      <trkpt lat="46.64014" lon="5.62229">
        <ele>539</ele>
        <time>2022-03-29T08:36:03Z</time>
      </trkpt>
      <trkpt lat="46.6401" lon="5.62225">
        <ele>539.3</ele>
        <time>2022-03-29T08:36:08Z</time>
      </trkpt>
      <trkpt lat="46.64006" lon="5.62221">
        <ele>539.2</ele>
        <time>2022-03-29T08:36:12Z</time>
      </trkpt>
      <trkpt lat="46.64002" lon="5.62217">
        <ele>538.4</ele>
        <time>2022-03-29T08:36:16Z</time>
      </trkpt>
      <trkpt lat="46.63998" lon="5.62213">
        <ele>537</ele>
        <time>2022-03-29T08:36:20Z</time>
      </trkpt>
      <trkpt lat="46.63994" lon="5.62209">
        <ele>535.3</ele>
        <time>2022-03-29T08:36:25Z</time>
      </trkpt>
      <trkpt lat="46.6399" lon="5.62205">
        <ele>534.5</ele>
        <time>2022-03-29T08:36:30Z</time>
      </trkpt>
      <trkpt lat="46.63986" lon="5.622">
        <ele>533.7</ele>
        <time>2022-03-29T08:36:34Z</time>
      </trkpt>
      <trkpt lat="46.63983" lon="5.62195">
        <ele>533.2</ele>
        <time>2022-03-29T08:36:39Z</time>
      </trkpt>
      <trkpt lat="46.6398" lon="5.6219">
        <ele>533.5</ele>
        <time>2022-03-29T08:36:44Z</time>
      </trkpt>
      <trkpt lat="46.63979" lon="5.62182">
        <ele>534.7</ele>
        <time>2022-03-29T08:36:51Z</time>
      </trkpt>
      <trkpt lat="46.63979" lon="5.62176">
        <ele>535.3</ele>
        <time>2022-03-29T08:36:55Z</time>
      </trkpt>
      <trkpt lat="46.6398" lon="5.62168">
        <ele>536</ele>
        <time>2022-03-29T08:37:00Z</time>
      </trkpt>
      <trkpt lat="46.63983" lon="5.6216">
        <ele>536.7</ele>
        <time>2022-03-29T08:37:04Z</time>
      </trkpt>
      <trkpt lat="46.63985" lon="5.62154">
        <ele>537.2</ele>
        <time>2022-03-29T08:37:08Z</time>
      </trkpt>
      <trkpt lat="46.63988" lon="5.62147">
        <ele>538</ele>
        <time>2022-03-29T08:37:13Z</time>
      </trkpt>
      <trkpt lat="46.63991" lon="5.62143">
        <ele>538.4</ele>
        <time>2022-03-29T08:37:18Z</time>
      </trkpt>
      <trkpt lat="46.63992" lon="5.62135">
        <ele>539.2</ele>
        <time>2022-03-29T08:37:27Z</time>
      </trkpt>
      <trkpt lat="46.63992" lon="5.62128">
        <ele>539.9</ele>
        <time>2022-03-29T08:37:49Z</time>
      </trkpt>
      <trkpt lat="46.63996" lon="5.62122">
        <ele>540</ele>
        <time>2022-03-29T08:38:21Z</time>
      </trkpt>
      <trkpt lat="46.64" lon="5.62118">
        <ele>540.3</ele>
        <time>2022-03-29T08:38:25Z</time>
      </trkpt>
      <trkpt lat="46.64003" lon="5.62113">
        <ele>540.5</ele>
        <time>2022-03-29T08:38:29Z</time>
      </trkpt>
      <trkpt lat="46.64006" lon="5.62107">
        <ele>540.5</ele>
        <time>2022-03-29T08:38:34Z</time>
      </trkpt>
      <trkpt lat="46.64009" lon="5.62102">
        <ele>540.5</ele>
        <time>2022-03-29T08:38:38Z</time>
      </trkpt>
      <trkpt lat="46.64012" lon="5.62096">
        <ele>540.6</ele>
        <time>2022-03-29T08:38:42Z</time>
      </trkpt>
      <trkpt lat="46.64015" lon="5.62091">
        <ele>540.4</ele>
        <time>2022-03-29T08:38:46Z</time>
      </trkpt>
      <trkpt lat="46.64018" lon="5.62085">
        <ele>540.2</ele>
        <time>2022-03-29T08:38:50Z</time>
      </trkpt>
      <trkpt lat="46.64021" lon="5.6208">
        <ele>539.5</ele>
        <time>2022-03-29T08:38:54Z</time>
      </trkpt>
      <trkpt lat="46.64024" lon="5.62073">
        <ele>538.8</ele>
        <time>2022-03-29T08:38:59Z</time>
      </trkpt>
      <trkpt lat="46.64029" lon="5.62068">
        <ele>538.6</ele>
        <time>2022-03-29T08:39:03Z</time>
      </trkpt>
      <trkpt lat="46.64033" lon="5.62063">
        <ele>538.6</ele>
        <time>2022-03-29T08:39:07Z</time>
      </trkpt>
      <trkpt lat="46.64036" lon="5.62058">
        <ele>538.9</ele>
        <time>2022-03-29T08:39:11Z</time>
      </trkpt>
      <trkpt lat="46.64039" lon="5.62053">
        <ele>539</ele>
        <time>2022-03-29T08:39:15Z</time>
      </trkpt>
      <trkpt lat="46.64042" lon="5.62047">
        <ele>538.6</ele>
        <time>2022-03-29T08:39:19Z</time>
      </trkpt>
      <trkpt lat="46.64046" lon="5.6204">
        <ele>537.8</ele>
        <time>2022-03-29T08:39:24Z</time>
      </trkpt>
      <trkpt lat="46.64049" lon="5.62035">
        <ele>537.3</ele>
        <time>2022-03-29T08:39:28Z</time>
      </trkpt>
      <trkpt lat="46.64053" lon="5.6203">
        <ele>537.7</ele>
        <time>2022-03-29T08:39:32Z</time>
      </trkpt>
      <trkpt lat="46.64057" lon="5.62023">
        <ele>538.6</ele>
        <time>2022-03-29T08:39:36Z</time>
      </trkpt>
      <trkpt lat="46.6406" lon="5.62019">
        <ele>539.4</ele>
        <time>2022-03-29T08:39:39Z</time>
      </trkpt>
      <trkpt lat="46.64064" lon="5.62013">
        <ele>540.6</ele>
        <time>2022-03-29T08:39:43Z</time>
      </trkpt>
      <trkpt lat="46.64067" lon="5.62007">
        <ele>541.3</ele>
        <time>2022-03-29T08:39:47Z</time>
      </trkpt>
      <trkpt lat="46.6407" lon="5.62001">
        <ele>541.8</ele>
        <time>2022-03-29T08:39:50Z</time>
      </trkpt>
      <trkpt lat="46.64074" lon="5.61996">
        <ele>542.1</ele>
        <time>2022-03-29T08:39:53Z</time>
      </trkpt>
      <trkpt lat="46.64077" lon="5.61991">
        <ele>542.1</ele>
        <time>2022-03-29T08:39:56Z</time>
      </trkpt>
      <trkpt lat="46.64081" lon="5.61986">
        <ele>542.3</ele>
        <time>2022-03-29T08:40:00Z</time>
      </trkpt>
      <trkpt lat="46.64085" lon="5.61981">
        <ele>542.6</ele>
        <time>2022-03-29T08:40:03Z</time>
      </trkpt>
      <trkpt lat="46.64088" lon="5.61976">
        <ele>542.9</ele>
        <time>2022-03-29T08:40:06Z</time>
      </trkpt>
      <trkpt lat="46.64091" lon="5.6197">
        <ele>543.5</ele>
        <time>2022-03-29T08:40:10Z</time>
      </trkpt>
      <trkpt lat="46.64095" lon="5.61963">
        <ele>544.2</ele>
        <time>2022-03-29T08:40:14Z</time>
      </trkpt>
      <trkpt lat="46.64097" lon="5.61957">
        <ele>544.6</ele>
        <time>2022-03-29T08:40:19Z</time>
      </trkpt>
      <trkpt lat="46.64096" lon="5.6195">
        <ele>544.3</ele>
        <time>2022-03-29T08:40:25Z</time>
      </trkpt>
      <trkpt lat="46.64095" lon="5.61943">
        <ele>543.8</ele>
        <time>2022-03-29T08:40:30Z</time>
      </trkpt>
      <trkpt lat="46.64094" lon="5.61936">
        <ele>543.6</ele>
        <time>2022-03-29T08:40:36Z</time>
      </trkpt>
      <trkpt lat="46.64093" lon="5.61929">
        <ele>543.3</ele>
        <time>2022-03-29T08:40:41Z</time>
      </trkpt>
      <trkpt lat="46.64091" lon="5.61921">
        <ele>542.9</ele>
        <time>2022-03-29T08:40:46Z</time>
      </trkpt>
      <trkpt lat="46.6409" lon="5.61915">
        <ele>542.6</ele>
        <time>2022-03-29T08:40:50Z</time>
      </trkpt>
      <trkpt lat="46.64088" lon="5.61908">
        <ele>542.5</ele>
        <time>2022-03-29T08:40:54Z</time>
      </trkpt>
      <trkpt lat="46.64086" lon="5.61901">
        <ele>541.7</ele>
        <time>2022-03-29T08:41:00Z</time>
      </trkpt>
      <trkpt lat="46.6409" lon="5.61898">
        <ele>540.8</ele>
        <time>2022-03-29T08:42:06Z</time>
      </trkpt>
      <trkpt lat="46.64095" lon="5.61896">
        <ele>540.4</ele>
        <time>2022-03-29T08:42:12Z</time>
      </trkpt>
      <trkpt lat="46.64099" lon="5.61892">
        <ele>540.4</ele>
        <time>2022-03-29T08:42:16Z</time>
      </trkpt>
      <trkpt lat="46.64103" lon="5.61887">
        <ele>540.2</ele>
        <time>2022-03-29T08:42:20Z</time>
      </trkpt>
      <trkpt lat="46.64107" lon="5.61882">
        <ele>540.4</ele>
        <time>2022-03-29T08:42:25Z</time>
      </trkpt>
      <trkpt lat="46.64111" lon="5.61878">
        <ele>540.7</ele>
        <time>2022-03-29T08:42:29Z</time>
      </trkpt>
      <trkpt lat="46.64115" lon="5.61874">
        <ele>541.1</ele>
        <time>2022-03-29T08:42:34Z</time>
      </trkpt>
      <trkpt lat="46.64119" lon="5.6187">
        <ele>540.7</ele>
        <time>2022-03-29T08:42:40Z</time>
      </trkpt>
      <trkpt lat="46.64123" lon="5.61867">
        <ele>540</ele>
        <time>2022-03-29T08:42:47Z</time>
      </trkpt>
      <trkpt lat="46.64128" lon="5.61864">
        <ele>540</ele>
        <time>2022-03-29T08:42:53Z</time>
      </trkpt>
      <trkpt lat="46.64132" lon="5.61861">
        <ele>540</ele>
        <time>2022-03-29T08:42:59Z</time>
      </trkpt>
      <trkpt lat="46.64136" lon="5.61857">
        <ele>540</ele>
        <time>2022-03-29T08:43:05Z</time>
      </trkpt>
      <trkpt lat="46.6414" lon="5.61852">
        <ele>540.1</ele>
        <time>2022-03-29T08:43:11Z</time>
      </trkpt>
      <trkpt lat="46.64145" lon="5.6185">
        <ele>539.7</ele>
        <time>2022-03-29T08:43:17Z</time>
      </trkpt>
      <trkpt lat="46.6415" lon="5.6185">
        <ele>539</ele>
        <time>2022-03-29T08:43:22Z</time>
      </trkpt>
      <trkpt lat="46.64154" lon="5.6185">
        <ele>538.2</ele>
        <time>2022-03-29T08:43:27Z</time>
      </trkpt>
      <trkpt lat="46.64159" lon="5.61848">
        <ele>537</ele>
        <time>2022-03-29T08:43:37Z</time>
      </trkpt>
      <trkpt lat="46.64165" lon="5.61846">
        <ele>537.1</ele>
        <time>2022-03-29T08:43:43Z</time>
      </trkpt>
      <trkpt lat="46.64168" lon="5.61841">
        <ele>536.1</ele>
        <time>2022-03-29T08:43:51Z</time>
      </trkpt>
      <trkpt lat="46.64171" lon="5.61836">
        <ele>535.2</ele>
        <time>2022-03-29T08:43:58Z</time>
      </trkpt>
      <trkpt lat="46.64175" lon="5.61831">
        <ele>534.8</ele>
        <time>2022-03-29T08:44:04Z</time>
      </trkpt>
      <trkpt lat="46.64179" lon="5.61828">
        <ele>534.8</ele>
        <time>2022-03-29T08:44:09Z</time>
      </trkpt>
      <trkpt lat="46.64182" lon="5.61823">
        <ele>534.9</ele>
        <time>2022-03-29T08:44:13Z</time>
      </trkpt>
      <trkpt lat="46.64185" lon="5.61817">
        <ele>535.2</ele>
        <time>2022-03-29T08:44:18Z</time>
      </trkpt>
      <trkpt lat="46.64188" lon="5.61811">
        <ele>536.4</ele>
        <time>2022-03-29T08:44:23Z</time>
      </trkpt>
      <trkpt lat="46.64191" lon="5.61806">
        <ele>537.7</ele>
        <time>2022-03-29T08:44:28Z</time>
      </trkpt>
      <trkpt lat="46.64194" lon="5.61799">
        <ele>538.7</ele>
        <time>2022-03-29T08:44:34Z</time>
      </trkpt>
      <trkpt lat="46.64198" lon="5.61793">
        <ele>539.2</ele>
        <time>2022-03-29T08:44:39Z</time>
      </trkpt>
      <trkpt lat="46.64201" lon="5.61788">
        <ele>539.8</ele>
        <time>2022-03-29T08:44:43Z</time>
      </trkpt>
      <trkpt lat="46.64204" lon="5.61782">
        <ele>540.3</ele>
        <time>2022-03-29T08:44:48Z</time>
      </trkpt>
      <trkpt lat="46.64206" lon="5.61776">
        <ele>540.8</ele>
        <time>2022-03-29T08:44:53Z</time>
      </trkpt>
      <trkpt lat="46.64206" lon="5.61769">
        <ele>540.9</ele>
        <time>2022-03-29T08:44:59Z</time>
      </trkpt>
      <trkpt lat="46.64209" lon="5.61762">
        <ele>540.6</ele>
        <time>2022-03-29T08:45:04Z</time>
      </trkpt>
      <trkpt lat="46.64212" lon="5.61756">
        <ele>540.6</ele>
        <time>2022-03-29T08:45:09Z</time>
      </trkpt>
      <trkpt lat="46.64215" lon="5.6175">
        <ele>541</ele>
        <time>2022-03-29T08:45:13Z</time>
      </trkpt>
      <trkpt lat="46.64217" lon="5.61744">
        <ele>541.3</ele>
        <time>2022-03-29T08:45:17Z</time>
      </trkpt>
      <trkpt lat="46.64219" lon="5.61738">
        <ele>541.7</ele>
        <time>2022-03-29T08:45:21Z</time>
      </trkpt>
      <trkpt lat="46.64222" lon="5.61731">
        <ele>542.1</ele>
        <time>2022-03-29T08:45:26Z</time>
      </trkpt>
      <trkpt lat="46.64224" lon="5.61725">
        <ele>542.5</ele>
        <time>2022-03-29T08:45:31Z</time>
      </trkpt>
      <trkpt lat="46.64227" lon="5.61718">
        <ele>542.1</ele>
        <time>2022-03-29T08:45:38Z</time>
      </trkpt>
      <trkpt lat="46.64229" lon="5.61713">
        <ele>541.9</ele>
        <time>2022-03-29T08:45:42Z</time>
      </trkpt>
      <trkpt lat="46.64232" lon="5.61707">
        <ele>541.7</ele>
        <time>2022-03-29T08:45:46Z</time>
      </trkpt>
      <trkpt lat="46.64234" lon="5.61701">
        <ele>541.5</ele>
        <time>2022-03-29T08:45:50Z</time>
      </trkpt>
      <trkpt lat="46.64237" lon="5.61696">
        <ele>541.4</ele>
        <time>2022-03-29T08:45:54Z</time>
      </trkpt>
      <trkpt lat="46.6424" lon="5.61689">
        <ele>541.6</ele>
        <time>2022-03-29T08:45:59Z</time>
      </trkpt>
      <trkpt lat="46.64243" lon="5.61684">
        <ele>541.8</ele>
        <time>2022-03-29T08:46:04Z</time>
      </trkpt>
      <trkpt lat="46.64246" lon="5.61678">
        <ele>541.4</ele>
        <time>2022-03-29T08:46:09Z</time>
      </trkpt>
      <trkpt lat="46.64248" lon="5.61671">
        <ele>540.9</ele>
        <time>2022-03-29T08:46:13Z</time>
      </trkpt>
      <trkpt lat="46.6425" lon="5.61665">
        <ele>540.6</ele>
        <time>2022-03-29T08:46:17Z</time>
      </trkpt>
      <trkpt lat="46.64253" lon="5.61659">
        <ele>540.2</ele>
        <time>2022-03-29T08:46:23Z</time>
      </trkpt>
      <trkpt lat="46.64256" lon="5.61653">
        <ele>540.2</ele>
        <time>2022-03-29T08:46:27Z</time>
      </trkpt>
      <trkpt lat="46.64259" lon="5.61647">
        <ele>539.7</ele>
        <time>2022-03-29T08:46:32Z</time>
      </trkpt>
      <trkpt lat="46.64262" lon="5.61641">
        <ele>539.5</ele>
        <time>2022-03-29T08:46:36Z</time>
      </trkpt>
      <trkpt lat="46.64265" lon="5.61635">
        <ele>539.6</ele>
        <time>2022-03-29T08:46:40Z</time>
      </trkpt>
      <trkpt lat="46.64267" lon="5.61628">
        <ele>539.6</ele>
        <time>2022-03-29T08:46:45Z</time>
      </trkpt>
      <trkpt lat="46.64269" lon="5.61622">
        <ele>539.4</ele>
        <time>2022-03-29T08:46:50Z</time>
      </trkpt>
      <trkpt lat="46.64271" lon="5.61615">
        <ele>539.2</ele>
        <time>2022-03-29T08:46:54Z</time>
      </trkpt>
      <trkpt lat="46.64274" lon="5.61609">
        <ele>539.4</ele>
        <time>2022-03-29T08:46:58Z</time>
      </trkpt>
      <trkpt lat="46.64276" lon="5.61603">
        <ele>539.3</ele>
        <time>2022-03-29T08:47:03Z</time>
      </trkpt>
      <trkpt lat="46.64279" lon="5.61597">
        <ele>539.2</ele>
        <time>2022-03-29T08:47:08Z</time>
      </trkpt>
      <trkpt lat="46.64282" lon="5.61591">
        <ele>538.9</ele>
        <time>2022-03-29T08:47:12Z</time>
      </trkpt>
      <trkpt lat="46.64285" lon="5.61585">
        <ele>538.8</ele>
        <time>2022-03-29T08:47:16Z</time>
      </trkpt>
      <trkpt lat="46.64287" lon="5.61579">
        <ele>538.6</ele>
        <time>2022-03-29T08:47:21Z</time>
      </trkpt>
      <trkpt lat="46.64289" lon="5.61572">
        <ele>538.4</ele>
        <time>2022-03-29T08:47:26Z</time>
      </trkpt>
      <trkpt lat="46.64291" lon="5.61565">
        <ele>538.8</ele>
        <time>2022-03-29T08:47:30Z</time>
      </trkpt>
      <trkpt lat="46.64294" lon="5.61559">
        <ele>539.3</ele>
        <time>2022-03-29T08:47:34Z</time>
      </trkpt>
      <trkpt lat="46.64296" lon="5.61552">
        <ele>539.6</ele>
        <time>2022-03-29T08:47:39Z</time>
      </trkpt>
      <trkpt lat="46.64298" lon="5.61546">
        <ele>539.8</ele>
        <time>2022-03-29T08:47:44Z</time>
      </trkpt>
      <trkpt lat="46.643" lon="5.61539">
        <ele>540.4</ele>
        <time>2022-03-29T08:47:49Z</time>
      </trkpt>
      <trkpt lat="46.64301" lon="5.61532">
        <ele>541.1</ele>
        <time>2022-03-29T08:47:53Z</time>
      </trkpt>
      <trkpt lat="46.64299" lon="5.61525">
        <ele>541.4</ele>
        <time>2022-03-29T08:47:59Z</time>
      </trkpt>
      <trkpt lat="46.64294" lon="5.6152">
        <ele>541.1</ele>
        <time>2022-03-29T08:48:04Z</time>
      </trkpt>
      <trkpt lat="46.6429" lon="5.61515">
        <ele>541.3</ele>
        <time>2022-03-29T08:48:09Z</time>
      </trkpt>
      <trkpt lat="46.64286" lon="5.61511">
        <ele>540.8</ele>
        <time>2022-03-29T08:48:14Z</time>
      </trkpt>
      <trkpt lat="46.64281" lon="5.61508">
        <ele>539.6</ele>
        <time>2022-03-29T08:48:19Z</time>
      </trkpt>
      <trkpt lat="46.64277" lon="5.61505">
        <ele>538.5</ele>
        <time>2022-03-29T08:48:23Z</time>
      </trkpt>
      <trkpt lat="46.64273" lon="5.61501">
        <ele>537.2</ele>
        <time>2022-03-29T08:48:28Z</time>
      </trkpt>
      <trkpt lat="46.64268" lon="5.61497">
        <ele>535.3</ele>
        <time>2022-03-29T08:48:34Z</time>
      </trkpt>
      <trkpt lat="46.64265" lon="5.61492">
        <ele>534.8</ele>
        <time>2022-03-29T08:48:39Z</time>
      </trkpt>
      <trkpt lat="46.64261" lon="5.61487">
        <ele>535.1</ele>
        <time>2022-03-29T08:48:44Z</time>
      </trkpt>
      <trkpt lat="46.64257" lon="5.61482">
        <ele>535.5</ele>
        <time>2022-03-29T08:48:49Z</time>
      </trkpt>
      <trkpt lat="46.64254" lon="5.61478">
        <ele>535.6</ele>
        <time>2022-03-29T08:48:54Z</time>
      </trkpt>
      <trkpt lat="46.6425" lon="5.61473">
        <ele>535.6</ele>
        <time>2022-03-29T08:48:59Z</time>
      </trkpt>
      <trkpt lat="46.64246" lon="5.6147">
        <ele>535.5</ele>
        <time>2022-03-29T08:49:03Z</time>
      </trkpt>
      <trkpt lat="46.64241" lon="5.61467">
        <ele>535.4</ele>
        <time>2022-03-29T08:49:07Z</time>
      </trkpt>
      <trkpt lat="46.64237" lon="5.61465">
        <ele>535.5</ele>
        <time>2022-03-29T08:49:11Z</time>
      </trkpt>
      <trkpt lat="46.64233" lon="5.61462">
        <ele>535.6</ele>
        <time>2022-03-29T08:49:15Z</time>
      </trkpt>
      <trkpt lat="46.64229" lon="5.61456">
        <ele>536</ele>
        <time>2022-03-29T08:49:20Z</time>
      </trkpt>
      <trkpt lat="46.64226" lon="5.61451">
        <ele>536.5</ele>
        <time>2022-03-29T08:49:25Z</time>
      </trkpt>
      <trkpt lat="46.64222" lon="5.61448">
        <ele>537.4</ele>
        <time>2022-03-29T08:49:30Z</time>
      </trkpt>
      <trkpt lat="46.64219" lon="5.61443">
        <ele>538</ele>
        <time>2022-03-29T08:49:35Z</time>
      </trkpt>
      <trkpt lat="46.64215" lon="5.61439">
        <ele>538.2</ele>
        <time>2022-03-29T08:49:43Z</time>
      </trkpt>
      <trkpt lat="46.6421" lon="5.61436">
        <ele>539</ele>
        <time>2022-03-29T08:49:49Z</time>
      </trkpt>
      <trkpt lat="46.64205" lon="5.61436">
        <ele>539.6</ele>
        <time>2022-03-29T08:49:53Z</time>
      </trkpt>
      <trkpt lat="46.642" lon="5.61435">
        <ele>540.4</ele>
        <time>2022-03-29T08:49:58Z</time>
      </trkpt>
      <trkpt lat="46.64195" lon="5.61433">
        <ele>540.9</ele>
        <time>2022-03-29T08:50:02Z</time>
      </trkpt>
      <trkpt lat="46.64191" lon="5.61431">
        <ele>541.2</ele>
        <time>2022-03-29T08:50:06Z</time>
      </trkpt>
      <trkpt lat="46.64186" lon="5.6143">
        <ele>541.1</ele>
        <time>2022-03-29T08:50:11Z</time>
      </trkpt>
      <trkpt lat="46.6418" lon="5.6143">
        <ele>540.9</ele>
        <time>2022-03-29T08:50:16Z</time>
      </trkpt>
      <trkpt lat="46.64175" lon="5.61431">
        <ele>540.8</ele>
        <time>2022-03-29T08:50:20Z</time>
      </trkpt>
      <trkpt lat="46.64171" lon="5.61434">
        <ele>540.5</ele>
        <time>2022-03-29T08:50:24Z</time>
      </trkpt>
      <trkpt lat="46.64166" lon="5.61436">
        <ele>540.1</ele>
        <time>2022-03-29T08:50:28Z</time>
      </trkpt>
      <trkpt lat="46.64161" lon="5.61435">
        <ele>539.5</ele>
        <time>2022-03-29T08:50:32Z</time>
      </trkpt>
      <trkpt lat="46.64156" lon="5.61433">
        <ele>538.6</ele>
        <time>2022-03-29T08:50:36Z</time>
      </trkpt>
      <trkpt lat="46.64151" lon="5.61432">
        <ele>537.4</ele>
        <time>2022-03-29T08:50:41Z</time>
      </trkpt>
      <trkpt lat="46.64147" lon="5.61431">
        <ele>536.4</ele>
        <time>2022-03-29T08:50:46Z</time>
      </trkpt>
      <trkpt lat="46.64142" lon="5.61428">
        <ele>535.9</ele>
        <time>2022-03-29T08:50:51Z</time>
      </trkpt>
      <trkpt lat="46.64137" lon="5.61427">
        <ele>535.6</ele>
        <time>2022-03-29T08:50:57Z</time>
      </trkpt>
      <trkpt lat="46.64131" lon="5.61426">
        <ele>535.8</ele>
        <time>2022-03-29T08:51:02Z</time>
      </trkpt>
      <trkpt lat="46.64127" lon="5.61424">
        <ele>536.1</ele>
        <time>2022-03-29T08:51:06Z</time>
      </trkpt>
      <trkpt lat="46.64123" lon="5.61422">
        <ele>536.1</ele>
        <time>2022-03-29T08:51:10Z</time>
      </trkpt>
      <trkpt lat="46.64117" lon="5.6142">
        <ele>536.6</ele>
        <time>2022-03-29T08:51:15Z</time>
      </trkpt>
      <trkpt lat="46.64112" lon="5.61418">
        <ele>536.9</ele>
        <time>2022-03-29T08:51:19Z</time>
      </trkpt>
      <trkpt lat="46.64106" lon="5.61416">
        <ele>538</ele>
        <time>2022-03-29T08:51:24Z</time>
      </trkpt>
      <trkpt lat="46.64102" lon="5.61412">
        <ele>539</ele>
        <time>2022-03-29T08:51:28Z</time>
      </trkpt>
      <trkpt lat="46.64097" lon="5.61409">
        <ele>540.2</ele>
        <time>2022-03-29T08:51:33Z</time>
      </trkpt>
      <trkpt lat="46.64093" lon="5.61405">
        <ele>540.6</ele>
        <time>2022-03-29T08:51:38Z</time>
      </trkpt>
      <trkpt lat="46.64089" lon="5.614">
        <ele>540.8</ele>
        <time>2022-03-29T08:51:43Z</time>
      </trkpt>
      <trkpt lat="46.64085" lon="5.61396">
        <ele>541</ele>
        <time>2022-03-29T08:51:47Z</time>
      </trkpt>
      <trkpt lat="46.6408" lon="5.61393">
        <ele>540.3</ele>
        <time>2022-03-29T08:51:52Z</time>
      </trkpt>
      <trkpt lat="46.64076" lon="5.61388">
        <ele>539.6</ele>
        <time>2022-03-29T08:51:57Z</time>
      </trkpt>
      <trkpt lat="46.64071" lon="5.61385">
        <ele>539.6</ele>
        <time>2022-03-29T08:52:01Z</time>
      </trkpt>
      <trkpt lat="46.64067" lon="5.61382">
        <ele>539.5</ele>
        <time>2022-03-29T08:52:05Z</time>
      </trkpt>
      <trkpt lat="46.64062" lon="5.61378">
        <ele>539.9</ele>
        <time>2022-03-29T08:52:10Z</time>
      </trkpt>
      <trkpt lat="46.64058" lon="5.61374">
        <ele>540.2</ele>
        <time>2022-03-29T08:52:15Z</time>
      </trkpt>
      <trkpt lat="46.64054" lon="5.61371">
        <ele>540.7</ele>
        <time>2022-03-29T08:52:20Z</time>
      </trkpt>
      <trkpt lat="46.6405" lon="5.61368">
        <ele>541.5</ele>
        <time>2022-03-29T08:52:25Z</time>
      </trkpt>
      <trkpt lat="46.64046" lon="5.61365">
        <ele>542.5</ele>
        <time>2022-03-29T08:52:30Z</time>
      </trkpt>
      <trkpt lat="46.64041" lon="5.61362">
        <ele>543.7</ele>
        <time>2022-03-29T08:52:35Z</time>
      </trkpt>
      <trkpt lat="46.64037" lon="5.61361">
        <ele>544.8</ele>
        <time>2022-03-29T08:52:40Z</time>
      </trkpt>
      <trkpt lat="46.64032" lon="5.61358">
        <ele>545.3</ele>
        <time>2022-03-29T08:52:45Z</time>
      </trkpt>
      <trkpt lat="46.64027" lon="5.61355">
        <ele>545.9</ele>
        <time>2022-03-29T08:52:49Z</time>
      </trkpt>
      <trkpt lat="46.64024" lon="5.61351">
        <ele>546.3</ele>
        <time>2022-03-29T08:52:56Z</time>
      </trkpt>
      <trkpt lat="46.64021" lon="5.61345">
        <ele>546.4</ele>
        <time>2022-03-29T08:53:06Z</time>
      </trkpt>
      <trkpt lat="46.64016" lon="5.61343">
        <ele>545.4</ele>
        <time>2022-03-29T08:53:19Z</time>
      </trkpt>
      <trkpt lat="46.64011" lon="5.61343">
        <ele>545.5</ele>
        <time>2022-03-29T08:53:24Z</time>
      </trkpt>
      <trkpt lat="46.64006" lon="5.61342">
        <ele>545.5</ele>
        <time>2022-03-29T08:53:30Z</time>
      </trkpt>
      <trkpt lat="46.64002" lon="5.61343">
        <ele>545.6</ele>
        <time>2022-03-29T08:53:35Z</time>
      </trkpt>
      <trkpt lat="46.63997" lon="5.61344">
        <ele>545.5</ele>
        <time>2022-03-29T08:53:41Z</time>
      </trkpt>
      <trkpt lat="46.63992" lon="5.61342">
        <ele>544.8</ele>
        <time>2022-03-29T08:53:46Z</time>
      </trkpt>
      <trkpt lat="46.63988" lon="5.61339">
        <ele>544.1</ele>
        <time>2022-03-29T08:53:51Z</time>
      </trkpt>
      <trkpt lat="46.63983" lon="5.61337">
        <ele>543.1</ele>
        <time>2022-03-29T08:53:57Z</time>
      </trkpt>
      <trkpt lat="46.63979" lon="5.61335">
        <ele>542.2</ele>
        <time>2022-03-29T08:54:03Z</time>
      </trkpt>
      <trkpt lat="46.63974" lon="5.61332">
        <ele>541.2</ele>
        <time>2022-03-29T08:54:08Z</time>
      </trkpt>
      <trkpt lat="46.63969" lon="5.6133">
        <ele>540.5</ele>
        <time>2022-03-29T08:54:14Z</time>
      </trkpt>
      <trkpt lat="46.63963" lon="5.61328">
        <ele>540.9</ele>
        <time>2022-03-29T08:54:18Z</time>
      </trkpt>
      <trkpt lat="46.63958" lon="5.61327">
        <ele>541.4</ele>
        <time>2022-03-29T08:54:22Z</time>
      </trkpt>
      <trkpt lat="46.63953" lon="5.61326">
        <ele>542</ele>
        <time>2022-03-29T08:54:27Z</time>
      </trkpt>
      <trkpt lat="46.63949" lon="5.61326">
        <ele>542.3</ele>
        <time>2022-03-29T08:54:31Z</time>
      </trkpt>
      <trkpt lat="46.63944" lon="5.61329">
        <ele>542.5</ele>
        <time>2022-03-29T08:54:35Z</time>
      </trkpt>
      <trkpt lat="46.63938" lon="5.61329">
        <ele>542.9</ele>
        <time>2022-03-29T08:54:39Z</time>
      </trkpt>
      <trkpt lat="46.63933" lon="5.61329">
        <ele>543.3</ele>
        <time>2022-03-29T08:54:43Z</time>
      </trkpt>
      <trkpt lat="46.63927" lon="5.61329">
        <ele>543.8</ele>
        <time>2022-03-29T08:54:49Z</time>
      </trkpt>
      <trkpt lat="46.63923" lon="5.61327">
        <ele>543.7</ele>
        <time>2022-03-29T08:54:53Z</time>
      </trkpt>
      <trkpt lat="46.63918" lon="5.61326">
        <ele>543.9</ele>
        <time>2022-03-29T08:54:57Z</time>
      </trkpt>
      <trkpt lat="46.63913" lon="5.61325">
        <ele>544</ele>
        <time>2022-03-29T08:55:02Z</time>
      </trkpt>
      <trkpt lat="46.63908" lon="5.61322">
        <ele>544.2</ele>
        <time>2022-03-29T08:55:07Z</time>
      </trkpt>
      <trkpt lat="46.63903" lon="5.61321">
        <ele>544</ele>
        <time>2022-03-29T08:55:12Z</time>
      </trkpt>
      <trkpt lat="46.63898" lon="5.6132">
        <ele>543.7</ele>
        <time>2022-03-29T08:55:17Z</time>
      </trkpt>
      <trkpt lat="46.63893" lon="5.61319">
        <ele>542.8</ele>
        <time>2022-03-29T08:55:22Z</time>
      </trkpt>
      <trkpt lat="46.63889" lon="5.61318">
        <ele>542.4</ele>
        <time>2022-03-29T08:55:27Z</time>
      </trkpt>
      <trkpt lat="46.63884" lon="5.61317">
        <ele>542.2</ele>
        <time>2022-03-29T08:55:31Z</time>
      </trkpt>
      <trkpt lat="46.63879" lon="5.61315">
        <ele>541.9</ele>
        <time>2022-03-29T08:55:35Z</time>
      </trkpt>
      <trkpt lat="46.63875" lon="5.61312">
        <ele>541.9</ele>
        <time>2022-03-29T08:55:40Z</time>
      </trkpt>
      <trkpt lat="46.6387" lon="5.61312">
        <ele>541.7</ele>
        <time>2022-03-29T08:55:45Z</time>
      </trkpt>
      <trkpt lat="46.63864" lon="5.61312">
        <ele>541.6</ele>
        <time>2022-03-29T08:55:50Z</time>
      </trkpt>
      <trkpt lat="46.63859" lon="5.61312">
        <ele>541.7</ele>
        <time>2022-03-29T08:55:55Z</time>
      </trkpt>
      <trkpt lat="46.63854" lon="5.61309">
        <ele>542</ele>
        <time>2022-03-29T08:56:01Z</time>
      </trkpt>
      <trkpt lat="46.63849" lon="5.61308">
        <ele>542.1</ele>
        <time>2022-03-29T08:56:06Z</time>
      </trkpt>
      <trkpt lat="46.63844" lon="5.61309">
        <ele>541.8</ele>
        <time>2022-03-29T08:56:13Z</time>
      </trkpt>
      <trkpt lat="46.63839" lon="5.6131">
        <ele>541.8</ele>
        <time>2022-03-29T08:56:17Z</time>
      </trkpt>
      <trkpt lat="46.63834" lon="5.61312">
        <ele>541.8</ele>
        <time>2022-03-29T08:56:22Z</time>
      </trkpt>
      <trkpt lat="46.63829" lon="5.61313">
        <ele>541.4</ele>
        <time>2022-03-29T08:56:26Z</time>
      </trkpt>
      <trkpt lat="46.63823" lon="5.61314">
        <ele>540.8</ele>
        <time>2022-03-29T08:56:31Z</time>
      </trkpt>
      <trkpt lat="46.63819" lon="5.61313">
        <ele>540.2</ele>
        <time>2022-03-29T08:56:37Z</time>
      </trkpt>
      <trkpt lat="46.63813" lon="5.6131">
        <ele>539.3</ele>
        <time>2022-03-29T08:56:42Z</time>
      </trkpt>
      <trkpt lat="46.63809" lon="5.61308">
        <ele>538.4</ele>
        <time>2022-03-29T08:56:46Z</time>
      </trkpt>
      <trkpt lat="46.63804" lon="5.61306">
        <ele>537.7</ele>
        <time>2022-03-29T08:56:50Z</time>
      </trkpt>
      <trkpt lat="46.63799" lon="5.61304">
        <ele>537.1</ele>
        <time>2022-03-29T08:56:54Z</time>
      </trkpt>
      <trkpt lat="46.63795" lon="5.61302">
        <ele>536</ele>
        <time>2022-03-29T08:57:01Z</time>
      </trkpt>
      <trkpt lat="46.63789" lon="5.61302">
        <ele>536</ele>
        <time>2022-03-29T08:57:07Z</time>
      </trkpt>
      <trkpt lat="46.63784" lon="5.61301">
        <ele>535.8</ele>
        <time>2022-03-29T08:57:13Z</time>
      </trkpt>
      <trkpt lat="46.63779" lon="5.61299">
        <ele>535.5</ele>
        <time>2022-03-29T08:57:18Z</time>
      </trkpt>
      <trkpt lat="46.63774" lon="5.61298">
        <ele>535.2</ele>
        <time>2022-03-29T08:57:22Z</time>
      </trkpt>
      <trkpt lat="46.63769" lon="5.61295">
        <ele>534.5</ele>
        <time>2022-03-29T08:57:27Z</time>
      </trkpt>
      <trkpt lat="46.63764" lon="5.61292">
        <ele>534.3</ele>
        <time>2022-03-29T08:57:32Z</time>
      </trkpt>
      <trkpt lat="46.63761" lon="5.61286">
        <ele>534.1</ele>
        <time>2022-03-29T08:57:37Z</time>
      </trkpt>
      <trkpt lat="46.63758" lon="5.61281">
        <ele>533.8</ele>
        <time>2022-03-29T08:57:42Z</time>
      </trkpt>
      <trkpt lat="46.63754" lon="5.61277">
        <ele>533.7</ele>
        <time>2022-03-29T08:57:47Z</time>
      </trkpt>
      <trkpt lat="46.6375" lon="5.61273">
        <ele>534.7</ele>
        <time>2022-03-29T08:57:52Z</time>
      </trkpt>
      <trkpt lat="46.63747" lon="5.61268">
        <ele>535.8</ele>
        <time>2022-03-29T08:57:57Z</time>
      </trkpt>
      <trkpt lat="46.63742" lon="5.61268">
        <ele>535.7</ele>
        <time>2022-03-29T08:58:04Z</time>
      </trkpt>
      <trkpt lat="46.63737" lon="5.61269">
        <ele>534.6</ele>
        <time>2022-03-29T08:58:09Z</time>
      </trkpt>
      <trkpt lat="46.63732" lon="5.61271">
        <ele>533.4</ele>
        <time>2022-03-29T08:58:16Z</time>
      </trkpt>
      <trkpt lat="46.63727" lon="5.61268">
        <ele>533.9</ele>
        <time>2022-03-29T08:58:28Z</time>
      </trkpt>
      <trkpt lat="46.63723" lon="5.6127">
        <ele>534.4</ele>
        <time>2022-03-29T08:58:34Z</time>
      </trkpt>
      <trkpt lat="46.63718" lon="5.61269">
        <ele>535.5</ele>
        <time>2022-03-29T08:58:42Z</time>
      </trkpt>
      <trkpt lat="46.63716" lon="5.61274">
        <ele>536</ele>
        <time>2022-03-29T08:59:44Z</time>
      </trkpt>
      <trkpt lat="46.63719" lon="5.61269">
        <ele>536.4</ele>
        <time>2022-03-29T09:00:22Z</time>
      </trkpt>
      <trkpt lat="46.63723" lon="5.6127">
        <ele>538.8</ele>
        <time>2022-03-29T09:00:54Z</time>
      </trkpt>
      <trkpt lat="46.63728" lon="5.61273">
        <ele>539.6</ele>
        <time>2022-03-29T09:01:08Z</time>
      </trkpt>
      <trkpt lat="46.63732" lon="5.61271">
        <ele>539.7</ele>
        <time>2022-03-29T09:01:13Z</time>
      </trkpt>
      <trkpt lat="46.63736" lon="5.6127">
        <ele>539.6</ele>
        <time>2022-03-29T09:01:17Z</time>
      </trkpt>
      <trkpt lat="46.63741" lon="5.61267">
        <ele>539.4</ele>
        <time>2022-03-29T09:01:21Z</time>
      </trkpt>
      <trkpt lat="46.63744" lon="5.61262">
        <ele>539.4</ele>
        <time>2022-03-29T09:01:26Z</time>
      </trkpt>
      <trkpt lat="46.63743" lon="5.61255">
        <ele>539.8</ele>
        <time>2022-03-29T09:01:33Z</time>
      </trkpt>
      <trkpt lat="46.63741" lon="5.61248">
        <ele>540.5</ele>
        <time>2022-03-29T09:01:39Z</time>
      </trkpt>
      <trkpt lat="46.63742" lon="5.61242">
        <ele>541.1</ele>
        <time>2022-03-29T09:01:44Z</time>
      </trkpt>
      <trkpt lat="46.63741" lon="5.61234">
        <ele>542.4</ele>
        <time>2022-03-29T09:01:51Z</time>
      </trkpt>
      <trkpt lat="46.63739" lon="5.61228">
        <ele>543.1</ele>
        <time>2022-03-29T09:01:55Z</time>
      </trkpt>
      <trkpt lat="46.63738" lon="5.61221">
        <ele>543.6</ele>
        <time>2022-03-29T09:01:59Z</time>
      </trkpt>
      <trkpt lat="46.63737" lon="5.61214">
        <ele>544.8</ele>
        <time>2022-03-29T09:02:04Z</time>
      </trkpt>
      <trkpt lat="46.63738" lon="5.61207">
        <ele>546.1</ele>
        <time>2022-03-29T09:02:10Z</time>
      </trkpt>
      <trkpt lat="46.63739" lon="5.61201">
        <ele>546.3</ele>
        <time>2022-03-29T09:02:16Z</time>
      </trkpt>
      <trkpt lat="46.63739" lon="5.61194">
        <ele>545.2</ele>
        <time>2022-03-29T09:02:22Z</time>
      </trkpt>
      <trkpt lat="46.6374" lon="5.61187">
        <ele>544.3</ele>
        <time>2022-03-29T09:02:28Z</time>
      </trkpt>
      <trkpt lat="46.6374" lon="5.6118">
        <ele>543.3</ele>
        <time>2022-03-29T09:02:34Z</time>
      </trkpt>
      <trkpt lat="46.63739" lon="5.61173">
        <ele>542.6</ele>
        <time>2022-03-29T09:02:38Z</time>
      </trkpt>
      <trkpt lat="46.63739" lon="5.61165">
        <ele>542.3</ele>
        <time>2022-03-29T09:02:43Z</time>
      </trkpt>
      <trkpt lat="46.6374" lon="5.61158">
        <ele>542.3</ele>
        <time>2022-03-29T09:02:48Z</time>
      </trkpt>
      <trkpt lat="46.6374" lon="5.6115">
        <ele>542.6</ele>
        <time>2022-03-29T09:02:52Z</time>
      </trkpt>
      <trkpt lat="46.6374" lon="5.61143">
        <ele>542.5</ele>
        <time>2022-03-29T09:02:56Z</time>
      </trkpt>
      <trkpt lat="46.6374" lon="5.61136">
        <ele>542.4</ele>
        <time>2022-03-29T09:03:00Z</time>
      </trkpt>
      <trkpt lat="46.6374" lon="5.61129">
        <ele>542.6</ele>
        <time>2022-03-29T09:03:04Z</time>
      </trkpt>
      <trkpt lat="46.6374" lon="5.61122">
        <ele>543.1</ele>
        <time>2022-03-29T09:03:08Z</time>
      </trkpt>
      <trkpt lat="46.63738" lon="5.61114">
        <ele>544.2</ele>
        <time>2022-03-29T09:03:12Z</time>
      </trkpt>
      <trkpt lat="46.63738" lon="5.61107">
        <ele>545.1</ele>
        <time>2022-03-29T09:03:15Z</time>
      </trkpt>
      <trkpt lat="46.63736" lon="5.611">
        <ele>546.4</ele>
        <time>2022-03-29T09:03:19Z</time>
      </trkpt>
      <trkpt lat="46.63734" lon="5.61094">
        <ele>548.4</ele>
        <time>2022-03-29T09:03:25Z</time>
      </trkpt>
      <trkpt lat="46.63732" lon="5.61088">
        <ele>549.5</ele>
        <time>2022-03-29T09:03:29Z</time>
      </trkpt>
      <trkpt lat="46.63731" lon="5.61081">
        <ele>550</ele>
        <time>2022-03-29T09:03:34Z</time>
      </trkpt>
      <trkpt lat="46.63728" lon="5.61075">
        <ele>549.5</ele>
        <time>2022-03-29T09:03:40Z</time>
      </trkpt>
      <trkpt lat="46.63727" lon="5.61068">
        <ele>548.5</ele>
        <time>2022-03-29T09:03:46Z</time>
      </trkpt>
      <trkpt lat="46.63724" lon="5.61062">
        <ele>548.2</ele>
        <time>2022-03-29T09:03:52Z</time>
      </trkpt>
      <trkpt lat="46.63724" lon="5.61054">
        <ele>547.3</ele>
        <time>2022-03-29T09:03:56Z</time>
      </trkpt>
      <trkpt lat="46.63723" lon="5.61047">
        <ele>544.7</ele>
        <time>2022-03-29T09:04:02Z</time>
      </trkpt>
      <trkpt lat="46.6372" lon="5.61042">
        <ele>544</ele>
        <time>2022-03-29T09:04:07Z</time>
      </trkpt>
      <trkpt lat="46.63718" lon="5.61037">
        <ele>544.3</ele>
        <time>2022-03-29T09:04:10Z</time>
      </trkpt>
      <trkpt lat="46.63714" lon="5.6103">
        <ele>545.2</ele>
        <time>2022-03-29T09:04:14Z</time>
      </trkpt>
      <trkpt lat="46.63712" lon="5.61023">
        <ele>546</ele>
        <time>2022-03-29T09:04:20Z</time>
      </trkpt>
      <trkpt lat="46.63709" lon="5.61017">
        <ele>546.3</ele>
        <time>2022-03-29T09:04:25Z</time>
      </trkpt>
      <trkpt lat="46.63708" lon="5.6101">
        <ele>546.6</ele>
        <time>2022-03-29T09:04:32Z</time>
      </trkpt>
      <trkpt lat="46.63704" lon="5.61005">
        <ele>545.3</ele>
        <time>2022-03-29T09:04:45Z</time>
      </trkpt>
      <trkpt lat="46.63702" lon="5.60999">
        <ele>545.4</ele>
        <time>2022-03-29T09:04:49Z</time>
      </trkpt>
      <trkpt lat="46.63701" lon="5.60992">
        <ele>545.8</ele>
        <time>2022-03-29T09:04:53Z</time>
      </trkpt>
      <trkpt lat="46.63699" lon="5.60984">
        <ele>546.3</ele>
        <time>2022-03-29T09:04:57Z</time>
      </trkpt>
      <trkpt lat="46.63699" lon="5.60978">
        <ele>546.3</ele>
        <time>2022-03-29T09:05:01Z</time>
      </trkpt>
      <trkpt lat="46.63699" lon="5.60969">
        <ele>546.2</ele>
        <time>2022-03-29T09:05:05Z</time>
      </trkpt>
      <trkpt lat="46.63701" lon="5.60964">
        <ele>545.8</ele>
        <time>2022-03-29T09:05:09Z</time>
      </trkpt>
      <trkpt lat="46.63705" lon="5.60959">
        <ele>544.9</ele>
        <time>2022-03-29T09:05:14Z</time>
      </trkpt>
      <trkpt lat="46.63708" lon="5.60954">
        <ele>544.7</ele>
        <time>2022-03-29T09:05:19Z</time>
      </trkpt>
      <trkpt lat="46.63712" lon="5.6095">
        <ele>544.5</ele>
        <time>2022-03-29T09:05:24Z</time>
      </trkpt>
      <trkpt lat="46.63716" lon="5.60945">
        <ele>544.3</ele>
        <time>2022-03-29T09:05:30Z</time>
      </trkpt>
      <trkpt lat="46.63719" lon="5.60938">
        <ele>544.4</ele>
        <time>2022-03-29T09:05:36Z</time>
      </trkpt>
      <trkpt lat="46.63723" lon="5.60933">
        <ele>545.4</ele>
        <time>2022-03-29T09:05:41Z</time>
      </trkpt>
      <trkpt lat="46.63726" lon="5.60928">
        <ele>546.5</ele>
        <time>2022-03-29T09:05:45Z</time>
      </trkpt>
      <trkpt lat="46.63731" lon="5.60925">
        <ele>547.8</ele>
        <time>2022-03-29T09:05:50Z</time>
      </trkpt>
      <trkpt lat="46.63736" lon="5.60924">
        <ele>548.2</ele>
        <time>2022-03-29T09:05:54Z</time>
      </trkpt>
      <trkpt lat="46.6374" lon="5.60922">
        <ele>548.2</ele>
        <time>2022-03-29T09:05:58Z</time>
      </trkpt>
      <trkpt lat="46.63744" lon="5.60917">
        <ele>548.3</ele>
        <time>2022-03-29T09:06:02Z</time>
      </trkpt>
      <trkpt lat="46.63746" lon="5.60911">
        <ele>548.5</ele>
        <time>2022-03-29T09:06:07Z</time>
      </trkpt>
      <trkpt lat="46.6375" lon="5.60907">
        <ele>548.6</ele>
        <time>2022-03-29T09:06:11Z</time>
      </trkpt>
      <trkpt lat="46.63753" lon="5.60902">
        <ele>548.8</ele>
        <time>2022-03-29T09:06:15Z</time>
      </trkpt>
      <trkpt lat="46.63757" lon="5.60898">
        <ele>548.9</ele>
        <time>2022-03-29T09:06:19Z</time>
      </trkpt>
      <trkpt lat="46.63761" lon="5.60895">
        <ele>549.4</ele>
        <time>2022-03-29T09:06:24Z</time>
      </trkpt>
      <trkpt lat="46.63767" lon="5.60895">
        <ele>549.8</ele>
        <time>2022-03-29T09:06:29Z</time>
      </trkpt>
      <trkpt lat="46.63771" lon="5.60895">
        <ele>550</ele>
        <time>2022-03-29T09:06:33Z</time>
      </trkpt>
      <trkpt lat="46.63776" lon="5.60893">
        <ele>550.1</ele>
        <time>2022-03-29T09:06:38Z</time>
      </trkpt>
      <trkpt lat="46.63781" lon="5.60892">
        <ele>549.8</ele>
        <time>2022-03-29T09:06:43Z</time>
      </trkpt>
      <trkpt lat="46.63785" lon="5.6089">
        <ele>549.2</ele>
        <time>2022-03-29T09:06:49Z</time>
      </trkpt>
      <trkpt lat="46.6379" lon="5.60887">
        <ele>549</ele>
        <time>2022-03-29T09:06:54Z</time>
      </trkpt>
      <trkpt lat="46.63795" lon="5.60884">
        <ele>548.4</ele>
        <time>2022-03-29T09:06:58Z</time>
      </trkpt>
      <trkpt lat="46.638" lon="5.6088">
        <ele>548.1</ele>
        <time>2022-03-29T09:07:03Z</time>
      </trkpt>
      <trkpt lat="46.63805" lon="5.60878">
        <ele>548</ele>
        <time>2022-03-29T09:07:08Z</time>
      </trkpt>
      <trkpt lat="46.63809" lon="5.60875">
        <ele>548.4</ele>
        <time>2022-03-29T09:07:13Z</time>
      </trkpt>
      <trkpt lat="46.63814" lon="5.60872">
        <ele>548.5</ele>
        <time>2022-03-29T09:07:17Z</time>
      </trkpt>
      <trkpt lat="46.63818" lon="5.60872">
        <ele>548.2</ele>
        <time>2022-03-29T09:07:21Z</time>
      </trkpt>
      <trkpt lat="46.63823" lon="5.60868">
        <ele>549.2</ele>
        <time>2022-03-29T09:07:28Z</time>
      </trkpt>
      <trkpt lat="46.63827" lon="5.60865">
        <ele>550.4</ele>
        <time>2022-03-29T09:07:35Z</time>
      </trkpt>
      <trkpt lat="46.63831" lon="5.60861">
        <ele>551.2</ele>
        <time>2022-03-29T09:07:39Z</time>
      </trkpt>
      <trkpt lat="46.63835" lon="5.60857">
        <ele>552</ele>
        <time>2022-03-29T09:07:42Z</time>
      </trkpt>
      <trkpt lat="46.63839" lon="5.60852">
        <ele>553.8</ele>
        <time>2022-03-29T09:07:48Z</time>
      </trkpt>
      <trkpt lat="46.63844" lon="5.60854">
        <ele>554.4</ele>
        <time>2022-03-29T09:07:53Z</time>
      </trkpt>
      <trkpt lat="46.6385" lon="5.60856">
        <ele>554.1</ele>
        <time>2022-03-29T09:07:57Z</time>
      </trkpt>
      <trkpt lat="46.63854" lon="5.60854">
        <ele>553.7</ele>
        <time>2022-03-29T09:08:00Z</time>
      </trkpt>
      <trkpt lat="46.63859" lon="5.6085">
        <ele>553.2</ele>
        <time>2022-03-29T09:08:03Z</time>
      </trkpt>
      <trkpt lat="46.63864" lon="5.60848">
        <ele>552.8</ele>
        <time>2022-03-29T09:08:07Z</time>
      </trkpt>
      <trkpt lat="46.63869" lon="5.60845">
        <ele>552.4</ele>
        <time>2022-03-29T09:08:11Z</time>
      </trkpt>
      <trkpt lat="46.63874" lon="5.60842">
        <ele>552</ele>
        <time>2022-03-29T09:08:16Z</time>
      </trkpt>
      <trkpt lat="46.63878" lon="5.60841">
        <ele>551.7</ele>
        <time>2022-03-29T09:08:20Z</time>
      </trkpt>
      <trkpt lat="46.63883" lon="5.6084">
        <ele>551.6</ele>
        <time>2022-03-29T09:08:24Z</time>
      </trkpt>
      <trkpt lat="46.63889" lon="5.60841">
        <ele>551.2</ele>
        <time>2022-03-29T09:08:28Z</time>
      </trkpt>
      <trkpt lat="46.63894" lon="5.60841">
        <ele>550.6</ele>
        <time>2022-03-29T09:08:33Z</time>
      </trkpt>
      <trkpt lat="46.63898" lon="5.60841">
        <ele>549.8</ele>
        <time>2022-03-29T09:08:39Z</time>
      </trkpt>
      <trkpt lat="46.63904" lon="5.6084">
        <ele>549.3</ele>
        <time>2022-03-29T09:08:45Z</time>
      </trkpt>
      <trkpt lat="46.63909" lon="5.60843">
        <ele>548.6</ele>
        <time>2022-03-29T09:08:50Z</time>
      </trkpt>
      <trkpt lat="46.63914" lon="5.60843">
        <ele>547.7</ele>
        <time>2022-03-29T09:08:55Z</time>
      </trkpt>
      <trkpt lat="46.63919" lon="5.60844">
        <ele>546.5</ele>
        <time>2022-03-29T09:09:00Z</time>
      </trkpt>
      <trkpt lat="46.63923" lon="5.60842">
        <ele>545.6</ele>
        <time>2022-03-29T09:09:04Z</time>
      </trkpt>
      <trkpt lat="46.63928" lon="5.60839">
        <ele>544.6</ele>
        <time>2022-03-29T09:09:09Z</time>
      </trkpt>
      <trkpt lat="46.63933" lon="5.60837">
        <ele>543.9</ele>
        <time>2022-03-29T09:09:13Z</time>
      </trkpt>
      <trkpt lat="46.63938" lon="5.60836">
        <ele>543</ele>
        <time>2022-03-29T09:09:18Z</time>
      </trkpt>
      <trkpt lat="46.63942" lon="5.60836">
        <ele>542.2</ele>
        <time>2022-03-29T09:09:25Z</time>
      </trkpt>
      <trkpt lat="46.63947" lon="5.60836">
        <ele>541.5</ele>
        <time>2022-03-29T09:09:32Z</time>
      </trkpt>
      <trkpt lat="46.63952" lon="5.60838">
        <ele>540.8</ele>
        <time>2022-03-29T09:09:40Z</time>
      </trkpt>
      <trkpt lat="46.63957" lon="5.60838">
        <ele>540.6</ele>
        <time>2022-03-29T09:09:43Z</time>
      </trkpt>
      <trkpt lat="46.63962" lon="5.60838">
        <ele>539.9</ele>
        <time>2022-03-29T09:09:47Z</time>
      </trkpt>
      <trkpt lat="46.63967" lon="5.60834">
        <ele>539.5</ele>
        <time>2022-03-29T09:09:51Z</time>
      </trkpt>
      <trkpt lat="46.63971" lon="5.6083">
        <ele>539.5</ele>
        <time>2022-03-29T09:09:55Z</time>
      </trkpt>
      <trkpt lat="46.63976" lon="5.60827">
        <ele>539.6</ele>
        <time>2022-03-29T09:09:58Z</time>
      </trkpt>
      <trkpt lat="46.63981" lon="5.60825">
        <ele>539.8</ele>
        <time>2022-03-29T09:10:02Z</time>
      </trkpt>
      <trkpt lat="46.63987" lon="5.60824">
        <ele>540.1</ele>
        <time>2022-03-29T09:10:06Z</time>
      </trkpt>
      <trkpt lat="46.63991" lon="5.60824">
        <ele>540.4</ele>
        <time>2022-03-29T09:10:09Z</time>
      </trkpt>
      <trkpt lat="46.63997" lon="5.60823">
        <ele>540.8</ele>
        <time>2022-03-29T09:10:13Z</time>
      </trkpt>
      <trkpt lat="46.64002" lon="5.60824">
        <ele>541.2</ele>
        <time>2022-03-29T09:10:18Z</time>
      </trkpt>
      <trkpt lat="46.64007" lon="5.60824">
        <ele>541.2</ele>
        <time>2022-03-29T09:10:23Z</time>
      </trkpt>
      <trkpt lat="46.64012" lon="5.60825">
        <ele>540.5</ele>
        <time>2022-03-29T09:10:27Z</time>
      </trkpt>
      <trkpt lat="46.64017" lon="5.60825">
        <ele>539.7</ele>
        <time>2022-03-29T09:10:33Z</time>
      </trkpt>
      <trkpt lat="46.64023" lon="5.60823">
        <ele>539.1</ele>
        <time>2022-03-29T09:10:39Z</time>
      </trkpt>
      <trkpt lat="46.64028" lon="5.60823">
        <ele>537.4</ele>
        <time>2022-03-29T09:10:46Z</time>
      </trkpt>
      <trkpt lat="46.64033" lon="5.60822">
        <ele>536.3</ele>
        <time>2022-03-29T09:10:49Z</time>
      </trkpt>
      <trkpt lat="46.64037" lon="5.60822">
        <ele>534.9</ele>
        <time>2022-03-29T09:10:53Z</time>
      </trkpt>
      <trkpt lat="46.64042" lon="5.60821">
        <ele>533.4</ele>
        <time>2022-03-29T09:10:59Z</time>
      </trkpt>
      <trkpt lat="46.64047" lon="5.60816">
        <ele>532.7</ele>
        <time>2022-03-29T09:11:04Z</time>
      </trkpt>
      <trkpt lat="46.64052" lon="5.60815">
        <ele>532.5</ele>
        <time>2022-03-29T09:11:07Z</time>
      </trkpt>
      <trkpt lat="46.64056" lon="5.60814">
        <ele>532.4</ele>
        <time>2022-03-29T09:11:10Z</time>
      </trkpt>
      <trkpt lat="46.64061" lon="5.60812">
        <ele>532.4</ele>
        <time>2022-03-29T09:11:13Z</time>
      </trkpt>
      <trkpt lat="46.64066" lon="5.60812">
        <ele>532.7</ele>
        <time>2022-03-29T09:11:17Z</time>
      </trkpt>
      <trkpt lat="46.64072" lon="5.60812">
        <ele>533.3</ele>
        <time>2022-03-29T09:11:22Z</time>
      </trkpt>
      <trkpt lat="46.64076" lon="5.60812">
        <ele>533.8</ele>
        <time>2022-03-29T09:11:25Z</time>
      </trkpt>
      <trkpt lat="46.64082" lon="5.60813">
        <ele>533.8</ele>
        <time>2022-03-29T09:11:29Z</time>
      </trkpt>
      <trkpt lat="46.64087" lon="5.60812">
        <ele>534</ele>
        <time>2022-03-29T09:11:34Z</time>
      </trkpt>
      <trkpt lat="46.64091" lon="5.60814">
        <ele>534</ele>
        <time>2022-03-29T09:11:39Z</time>
      </trkpt>
      <trkpt lat="46.64096" lon="5.60816">
        <ele>533.8</ele>
        <time>2022-03-29T09:11:43Z</time>
      </trkpt>
      <trkpt lat="46.641" lon="5.60818">
        <ele>533.4</ele>
        <time>2022-03-29T09:11:47Z</time>
      </trkpt>
      <trkpt lat="46.64105" lon="5.60818">
        <ele>532.9</ele>
        <time>2022-03-29T09:11:51Z</time>
      </trkpt>
      <trkpt lat="46.6411" lon="5.60818">
        <ele>532.7</ele>
        <time>2022-03-29T09:12:00Z</time>
      </trkpt>
      <trkpt lat="46.64115" lon="5.60817">
        <ele>532.9</ele>
        <time>2022-03-29T09:12:05Z</time>
      </trkpt>
      <trkpt lat="46.64119" lon="5.60814">
        <ele>533</ele>
        <time>2022-03-29T09:12:10Z</time>
      </trkpt>
      <trkpt lat="46.64123" lon="5.60813">
        <ele>533</ele>
        <time>2022-03-29T09:12:14Z</time>
      </trkpt>
      <trkpt lat="46.64129" lon="5.60813">
        <ele>533.1</ele>
        <time>2022-03-29T09:12:19Z</time>
      </trkpt>
      <trkpt lat="46.64133" lon="5.60813">
        <ele>533</ele>
        <time>2022-03-29T09:12:24Z</time>
      </trkpt>
      <trkpt lat="46.64138" lon="5.60811">
        <ele>533.2</ele>
        <time>2022-03-29T09:12:29Z</time>
      </trkpt>
      <trkpt lat="46.64142" lon="5.60809">
        <ele>533.6</ele>
        <time>2022-03-29T09:12:34Z</time>
      </trkpt>
      <trkpt lat="46.64146" lon="5.60805">
        <ele>534.2</ele>
        <time>2022-03-29T09:12:40Z</time>
      </trkpt>
      <trkpt lat="46.64151" lon="5.60804">
        <ele>534.4</ele>
        <time>2022-03-29T09:12:45Z</time>
      </trkpt>
      <trkpt lat="46.64156" lon="5.60804">
        <ele>534.6</ele>
        <time>2022-03-29T09:12:49Z</time>
      </trkpt>
      <trkpt lat="46.64161" lon="5.60803">
        <ele>535</ele>
        <time>2022-03-29T09:12:53Z</time>
      </trkpt>
      <trkpt lat="46.64167" lon="5.60803">
        <ele>535.7</ele>
        <time>2022-03-29T09:12:57Z</time>
      </trkpt>
      <trkpt lat="46.64172" lon="5.60802">
        <ele>536.3</ele>
        <time>2022-03-29T09:13:00Z</time>
      </trkpt>
      <trkpt lat="46.64177" lon="5.60802">
        <ele>537</ele>
        <time>2022-03-29T09:13:04Z</time>
      </trkpt>
      <trkpt lat="46.64182" lon="5.60803">
        <ele>537.1</ele>
        <time>2022-03-29T09:13:08Z</time>
      </trkpt>
      <trkpt lat="46.64187" lon="5.60803">
        <ele>537</ele>
        <time>2022-03-29T09:13:12Z</time>
      </trkpt>
      <trkpt lat="46.64192" lon="5.60805">
        <ele>536.4</ele>
        <time>2022-03-29T09:13:16Z</time>
      </trkpt>
      <trkpt lat="46.64198" lon="5.60808">
        <ele>535.9</ele>
        <time>2022-03-29T09:13:20Z</time>
      </trkpt>
      <trkpt lat="46.64203" lon="5.6081">
        <ele>535.2</ele>
        <time>2022-03-29T09:13:24Z</time>
      </trkpt>
      <trkpt lat="46.64208" lon="5.6081">
        <ele>535</ele>
        <time>2022-03-29T09:13:27Z</time>
      </trkpt>
      <trkpt lat="46.64213" lon="5.6081">
        <ele>535.2</ele>
        <time>2022-03-29T09:13:31Z</time>
      </trkpt>
      <trkpt lat="46.64219" lon="5.60811">
        <ele>535.4</ele>
        <time>2022-03-29T09:13:36Z</time>
      </trkpt>
      <trkpt lat="46.64223" lon="5.60812">
        <ele>535.3</ele>
        <time>2022-03-29T09:13:42Z</time>
      </trkpt>
      <trkpt lat="46.64227" lon="5.6081">
        <ele>535.1</ele>
        <time>2022-03-29T09:13:52Z</time>
      </trkpt>
      <trkpt lat="46.64232" lon="5.60806">
        <ele>532.1</ele>
        <time>2022-03-29T09:14:44Z</time>
      </trkpt>
      <trkpt lat="46.64236" lon="5.60808">
        <ele>533.2</ele>
        <time>2022-03-29T09:14:51Z</time>
      </trkpt>
      <trkpt lat="46.6424" lon="5.6081">
        <ele>533.7</ele>
        <time>2022-03-29T09:14:57Z</time>
      </trkpt>
      <trkpt lat="46.64245" lon="5.60809">
        <ele>533.7</ele>
        <time>2022-03-29T09:15:02Z</time>
      </trkpt>
      <trkpt lat="46.6425" lon="5.60808">
        <ele>533.5</ele>
        <time>2022-03-29T09:15:06Z</time>
      </trkpt>
      <trkpt lat="46.64255" lon="5.60806">
        <ele>533.3</ele>
        <time>2022-03-29T09:15:10Z</time>
      </trkpt>
      <trkpt lat="46.64259" lon="5.60803">
        <ele>533.2</ele>
        <time>2022-03-29T09:15:13Z</time>
      </trkpt>
      <trkpt lat="46.64265" lon="5.60803">
        <ele>533.1</ele>
        <time>2022-03-29T09:15:17Z</time>
      </trkpt>
      <trkpt lat="46.6427" lon="5.60805">
        <ele>532.6</ele>
        <time>2022-03-29T09:15:22Z</time>
      </trkpt>
      <trkpt lat="46.64275" lon="5.60807">
        <ele>532.3</ele>
        <time>2022-03-29T09:15:29Z</time>
      </trkpt>
      <trkpt lat="46.6428" lon="5.60809">
        <ele>532</ele>
        <time>2022-03-29T09:15:33Z</time>
      </trkpt>
      <trkpt lat="46.64285" lon="5.60811">
        <ele>531.5</ele>
        <time>2022-03-29T09:15:39Z</time>
      </trkpt>
      <trkpt lat="46.6429" lon="5.60811">
        <ele>532.1</ele>
        <time>2022-03-29T09:16:24Z</time>
      </trkpt>
      <trkpt lat="46.64295" lon="5.60813">
        <ele>531.4</ele>
        <time>2022-03-29T09:16:29Z</time>
      </trkpt>
      <trkpt lat="46.64301" lon="5.60814">
        <ele>530.8</ele>
        <time>2022-03-29T09:16:32Z</time>
      </trkpt>
      <trkpt lat="46.64306" lon="5.60814">
        <ele>530.7</ele>
        <time>2022-03-29T09:16:35Z</time>
      </trkpt>
      <trkpt lat="46.64311" lon="5.60813">
        <ele>530.8</ele>
        <time>2022-03-29T09:16:38Z</time>
      </trkpt>
      <trkpt lat="46.64316" lon="5.60813">
        <ele>531</ele>
        <time>2022-03-29T09:16:41Z</time>
      </trkpt>
      <trkpt lat="46.64321" lon="5.60813">
        <ele>531.1</ele>
        <time>2022-03-29T09:16:45Z</time>
      </trkpt>
      <trkpt lat="46.64326" lon="5.60813">
        <ele>530.9</ele>
        <time>2022-03-29T09:16:50Z</time>
      </trkpt>
      <trkpt lat="46.64331" lon="5.60811">
        <ele>530.9</ele>
        <time>2022-03-29T09:16:55Z</time>
      </trkpt>
      <trkpt lat="46.64336" lon="5.6081">
        <ele>530.6</ele>
        <time>2022-03-29T09:17:00Z</time>
      </trkpt>
      <trkpt lat="46.64341" lon="5.60809">
        <ele>529.9</ele>
        <time>2022-03-29T09:17:05Z</time>
      </trkpt>
      <trkpt lat="46.64346" lon="5.60809">
        <ele>529.1</ele>
        <time>2022-03-29T09:17:09Z</time>
      </trkpt>
      <trkpt lat="46.64351" lon="5.60811">
        <ele>527.8</ele>
        <time>2022-03-29T09:17:14Z</time>
      </trkpt>
      <trkpt lat="46.64356" lon="5.60811">
        <ele>527.5</ele>
        <time>2022-03-29T09:17:20Z</time>
      </trkpt>
      <trkpt lat="46.64361" lon="5.60809">
        <ele>527.1</ele>
        <time>2022-03-29T09:17:25Z</time>
      </trkpt>
      <trkpt lat="46.64366" lon="5.60808">
        <ele>526.4</ele>
        <time>2022-03-29T09:17:32Z</time>
      </trkpt>
      <trkpt lat="46.64371" lon="5.6081">
        <ele>525.9</ele>
        <time>2022-03-29T09:17:36Z</time>
      </trkpt>
      <trkpt lat="46.64377" lon="5.60811">
        <ele>525.5</ele>
        <time>2022-03-29T09:17:40Z</time>
      </trkpt>
      <trkpt lat="46.64382" lon="5.60811">
        <ele>525</ele>
        <time>2022-03-29T09:17:43Z</time>
      </trkpt>
      <trkpt lat="46.64388" lon="5.60812">
        <ele>524.7</ele>
        <time>2022-03-29T09:17:46Z</time>
      </trkpt>
      <trkpt lat="46.64393" lon="5.60812">
        <ele>524.5</ele>
        <time>2022-03-29T09:17:49Z</time>
      </trkpt>
      <trkpt lat="46.64399" lon="5.60809">
        <ele>524.6</ele>
        <time>2022-03-29T09:17:53Z</time>
      </trkpt>
      <trkpt lat="46.64404" lon="5.60807">
        <ele>524.7</ele>
        <time>2022-03-29T09:17:57Z</time>
      </trkpt>
      <trkpt lat="46.64409" lon="5.60803">
        <ele>524.7</ele>
        <time>2022-03-29T09:18:01Z</time>
      </trkpt>
      <trkpt lat="46.64413" lon="5.60802">
        <ele>524.8</ele>
        <time>2022-03-29T09:18:06Z</time>
      </trkpt>
      <trkpt lat="46.64419" lon="5.60801">
        <ele>525.1</ele>
        <time>2022-03-29T09:18:11Z</time>
      </trkpt>
      <trkpt lat="46.64424" lon="5.60801">
        <ele>525.6</ele>
        <time>2022-03-29T09:18:15Z</time>
      </trkpt>
      <trkpt lat="46.64429" lon="5.608">
        <ele>526.1</ele>
        <time>2022-03-29T09:18:20Z</time>
      </trkpt>
      <trkpt lat="46.64434" lon="5.608">
        <ele>526</ele>
        <time>2022-03-29T09:18:24Z</time>
      </trkpt>
      <trkpt lat="46.64437" lon="5.60795">
        <ele>526.2</ele>
        <time>2022-03-29T09:18:28Z</time>
      </trkpt>
      <trkpt lat="46.64442" lon="5.60793">
        <ele>526.4</ele>
        <time>2022-03-29T09:18:33Z</time>
      </trkpt>
      <trkpt lat="46.64446" lon="5.60793">
        <ele>526.3</ele>
        <time>2022-03-29T09:18:38Z</time>
      </trkpt>
      <trkpt lat="46.64451" lon="5.60795">
        <ele>525.2</ele>
        <time>2022-03-29T09:18:43Z</time>
      </trkpt>
      <trkpt lat="46.64456" lon="5.60797">
        <ele>523.8</ele>
        <time>2022-03-29T09:18:48Z</time>
      </trkpt>
      <trkpt lat="46.64461" lon="5.608">
        <ele>522.1</ele>
        <time>2022-03-29T09:18:53Z</time>
      </trkpt>
      <trkpt lat="46.64464" lon="5.60804">
        <ele>520.5</ele>
        <time>2022-03-29T09:18:58Z</time>
      </trkpt>
      <trkpt lat="46.64469" lon="5.60807">
        <ele>519</ele>
        <time>2022-03-29T09:19:04Z</time>
      </trkpt>
      <trkpt lat="46.64474" lon="5.6081">
        <ele>518.1</ele>
        <time>2022-03-29T09:19:08Z</time>
      </trkpt>
      <trkpt lat="46.64478" lon="5.60813">
        <ele>517.6</ele>
        <time>2022-03-29T09:19:11Z</time>
      </trkpt>
      <trkpt lat="46.64484" lon="5.60814">
        <ele>517.2</ele>
        <time>2022-03-29T09:19:15Z</time>
      </trkpt>
      <trkpt lat="46.64489" lon="5.60816">
        <ele>517</ele>
        <time>2022-03-29T09:19:19Z</time>
      </trkpt>
      <trkpt lat="46.64494" lon="5.60817">
        <ele>517</ele>
        <time>2022-03-29T09:19:24Z</time>
      </trkpt>
      <trkpt lat="46.64498" lon="5.6082">
        <ele>516.7</ele>
        <time>2022-03-29T09:19:29Z</time>
      </trkpt>
      <trkpt lat="46.64502" lon="5.60825">
        <ele>516.5</ele>
        <time>2022-03-29T09:19:34Z</time>
      </trkpt>
      <trkpt lat="46.64507" lon="5.60828">
        <ele>516.8</ele>
        <time>2022-03-29T09:19:38Z</time>
      </trkpt>
      <trkpt lat="46.64512" lon="5.60831">
        <ele>517</ele>
        <time>2022-03-29T09:19:42Z</time>
      </trkpt>
      <trkpt lat="46.64517" lon="5.60834">
        <ele>517.5</ele>
        <time>2022-03-29T09:19:46Z</time>
      </trkpt>
      <trkpt lat="46.64522" lon="5.60834">
        <ele>518</ele>
        <time>2022-03-29T09:19:50Z</time>
      </trkpt>
      <trkpt lat="46.64527" lon="5.60835">
        <ele>518.6</ele>
        <time>2022-03-29T09:19:55Z</time>
      </trkpt>
      <trkpt lat="46.64533" lon="5.60835">
        <ele>518.9</ele>
        <time>2022-03-29T09:20:00Z</time>
      </trkpt>
      <trkpt lat="46.64537" lon="5.60836">
        <ele>518.6</ele>
        <time>2022-03-29T09:20:06Z</time>
      </trkpt>
      <trkpt lat="46.64543" lon="5.60837">
        <ele>518.3</ele>
        <time>2022-03-29T09:20:15Z</time>
      </trkpt>
      <trkpt lat="46.64548" lon="5.60839">
        <ele>518.4</ele>
        <time>2022-03-29T09:20:20Z</time>
      </trkpt>
      <trkpt lat="46.64553" lon="5.60841">
        <ele>518.6</ele>
        <time>2022-03-29T09:20:23Z</time>
      </trkpt>
      <trkpt lat="46.64557" lon="5.60843">
        <ele>519.2</ele>
        <time>2022-03-29T09:20:28Z</time>
      </trkpt>
      <trkpt lat="46.64562" lon="5.60847">
        <ele>520.2</ele>
        <time>2022-03-29T09:20:34Z</time>
      </trkpt>
      <trkpt lat="46.64566" lon="5.60851">
        <ele>520.9</ele>
        <time>2022-03-29T09:20:39Z</time>
      </trkpt>
      <trkpt lat="46.6457" lon="5.60855">
        <ele>521.9</ele>
        <time>2022-03-29T09:20:45Z</time>
      </trkpt>
      <trkpt lat="46.64573" lon="5.60859">
        <ele>522</ele>
        <time>2022-03-29T09:20:50Z</time>
      </trkpt>
      <trkpt lat="46.64577" lon="5.60864">
        <ele>521.9</ele>
        <time>2022-03-29T09:20:55Z</time>
      </trkpt>
      <trkpt lat="46.6458" lon="5.60869">
        <ele>521.4</ele>
        <time>2022-03-29T09:21:00Z</time>
      </trkpt>
      <trkpt lat="46.64584" lon="5.60873">
        <ele>520.7</ele>
        <time>2022-03-29T09:21:05Z</time>
      </trkpt>
      <trkpt lat="46.64589" lon="5.60876">
        <ele>520.1</ele>
        <time>2022-03-29T09:21:10Z</time>
      </trkpt>
      <trkpt lat="46.64593" lon="5.60881">
        <ele>519.4</ele>
        <time>2022-03-29T09:21:14Z</time>
      </trkpt>
      <trkpt lat="46.64597" lon="5.60885">
        <ele>518.1</ele>
        <time>2022-03-29T09:21:19Z</time>
      </trkpt>
      <trkpt lat="46.64597" lon="5.60891">
        <ele>517.3</ele>
        <time>2022-03-29T09:21:24Z</time>
      </trkpt>
      <trkpt lat="46.64599" lon="5.60897">
        <ele>516.8</ele>
        <time>2022-03-29T09:21:29Z</time>
      </trkpt>
      <trkpt lat="46.64602" lon="5.60904">
        <ele>516.7</ele>
        <time>2022-03-29T09:21:34Z</time>
      </trkpt>
      <trkpt lat="46.64603" lon="5.60911">
        <ele>516.8</ele>
        <time>2022-03-29T09:21:38Z</time>
      </trkpt>
      <trkpt lat="46.64603" lon="5.60918">
        <ele>516.8</ele>
        <time>2022-03-29T09:21:43Z</time>
      </trkpt>
      <trkpt lat="46.64602" lon="5.60925">
        <ele>516.2</ele>
        <time>2022-03-29T09:21:54Z</time>
      </trkpt>
      <trkpt lat="46.64601" lon="5.60932">
        <ele>516.1</ele>
        <time>2022-03-29T09:22:06Z</time>
      </trkpt>
      <trkpt lat="46.64598" lon="5.60938">
        <ele>516.7</ele>
        <time>2022-03-29T09:22:11Z</time>
      </trkpt>
      <trkpt lat="46.64595" lon="5.60942">
        <ele>517</ele>
        <time>2022-03-29T09:22:15Z</time>
      </trkpt>
      <trkpt lat="46.64589" lon="5.60943">
        <ele>517.6</ele>
        <time>2022-03-29T09:22:21Z</time>
      </trkpt>
      <trkpt lat="46.64584" lon="5.60946">
        <ele>517.6</ele>
        <time>2022-03-29T09:22:26Z</time>
      </trkpt>
      <trkpt lat="46.6458" lon="5.60949">
        <ele>517.2</ele>
        <time>2022-03-29T09:22:31Z</time>
      </trkpt>
      <trkpt lat="46.64577" lon="5.60954">
        <ele>517.4</ele>
        <time>2022-03-29T09:22:38Z</time>
      </trkpt>
      <trkpt lat="46.64573" lon="5.60961">
        <ele>518.1</ele>
        <time>2022-03-29T09:22:43Z</time>
      </trkpt>
      <trkpt lat="46.6457" lon="5.60966">
        <ele>518.4</ele>
        <time>2022-03-29T09:22:46Z</time>
      </trkpt>
      <trkpt lat="46.64568" lon="5.60972">
        <ele>518.7</ele>
        <time>2022-03-29T09:22:50Z</time>
      </trkpt>
      <trkpt lat="46.64566" lon="5.60979">
        <ele>519.7</ele>
        <time>2022-03-29T09:22:57Z</time>
      </trkpt>
      <trkpt lat="46.64565" lon="5.60986">
        <ele>520.3</ele>
        <time>2022-03-29T09:23:03Z</time>
      </trkpt>
      <trkpt lat="46.64562" lon="5.60992">
        <ele>520.9</ele>
        <time>2022-03-29T09:23:09Z</time>
      </trkpt>
      <trkpt lat="46.64558" lon="5.60996">
        <ele>522</ele>
        <time>2022-03-29T09:23:14Z</time>
      </trkpt>
      <trkpt lat="46.64555" lon="5.61002">
        <ele>523.5</ele>
        <time>2022-03-29T09:23:21Z</time>
      </trkpt>
      <trkpt lat="46.64553" lon="5.61009">
        <ele>524.4</ele>
        <time>2022-03-29T09:23:26Z</time>
      </trkpt>
      <trkpt lat="46.6455" lon="5.61016">
        <ele>525</ele>
        <time>2022-03-29T09:23:31Z</time>
      </trkpt>
      <trkpt lat="46.64547" lon="5.61021">
        <ele>525.3</ele>
        <time>2022-03-29T09:23:36Z</time>
      </trkpt>
      <trkpt lat="46.64545" lon="5.61028">
        <ele>525.5</ele>
        <time>2022-03-29T09:23:41Z</time>
      </trkpt>
      <trkpt lat="46.64542" lon="5.61033">
        <ele>525.7</ele>
        <time>2022-03-29T09:23:47Z</time>
      </trkpt>
      <trkpt lat="46.64539" lon="5.61039">
        <ele>525.6</ele>
        <time>2022-03-29T09:23:52Z</time>
      </trkpt>
      <trkpt lat="46.64537" lon="5.61045">
        <ele>524.8</ele>
        <time>2022-03-29T09:23:58Z</time>
      </trkpt>
      <trkpt lat="46.64536" lon="5.61053">
        <ele>524.2</ele>
        <time>2022-03-29T09:24:04Z</time>
      </trkpt>
      <trkpt lat="46.64536" lon="5.61061">
        <ele>523.3</ele>
        <time>2022-03-29T09:24:10Z</time>
      </trkpt>
      <trkpt lat="46.64536" lon="5.61068">
        <ele>522.2</ele>
        <time>2022-03-29T09:24:17Z</time>
      </trkpt>
      <trkpt lat="46.64534" lon="5.61074">
        <ele>520.9</ele>
        <time>2022-03-29T09:24:23Z</time>
      </trkpt>
      <trkpt lat="46.64534" lon="5.61081">
        <ele>519.5</ele>
        <time>2022-03-29T09:24:30Z</time>
      </trkpt>
      <trkpt lat="46.64536" lon="5.61087">
        <ele>519.5</ele>
        <time>2022-03-29T09:24:33Z</time>
      </trkpt>
      <trkpt lat="46.64538" lon="5.61093">
        <ele>519.7</ele>
        <time>2022-03-29T09:24:36Z</time>
      </trkpt>
      <trkpt lat="46.64541" lon="5.61099">
        <ele>519.8</ele>
        <time>2022-03-29T09:24:40Z</time>
      </trkpt>
      <trkpt lat="46.64546" lon="5.61101">
        <ele>520.8</ele>
        <time>2022-03-29T09:24:51Z</time>
      </trkpt>
      <trkpt lat="46.6455" lon="5.61098">
        <ele>521.7</ele>
        <time>2022-03-29T09:24:55Z</time>
      </trkpt>
      <trkpt lat="46.64555" lon="5.61096">
        <ele>522.6</ele>
        <time>2022-03-29T09:24:59Z</time>
      </trkpt>
      <trkpt lat="46.6456" lon="5.61095">
        <ele>523.3</ele>
        <time>2022-03-29T09:25:02Z</time>
      </trkpt>
      <trkpt lat="46.64565" lon="5.61095">
        <ele>524</ele>
        <time>2022-03-29T09:25:05Z</time>
      </trkpt>
      <trkpt lat="46.6457" lon="5.61094">
        <ele>524.9</ele>
        <time>2022-03-29T09:25:09Z</time>
      </trkpt>
      <trkpt lat="46.64575" lon="5.61094">
        <ele>525.9</ele>
        <time>2022-03-29T09:25:14Z</time>
      </trkpt>
      <trkpt lat="46.64581" lon="5.61093">
        <ele>527.1</ele>
        <time>2022-03-29T09:25:19Z</time>
      </trkpt>
      <trkpt lat="46.64585" lon="5.61093">
        <ele>527.7</ele>
        <time>2022-03-29T09:25:23Z</time>
      </trkpt>
      <trkpt lat="46.6459" lon="5.61091">
        <ele>528.2</ele>
        <time>2022-03-29T09:25:26Z</time>
      </trkpt>
      <trkpt lat="46.64594" lon="5.6109">
        <ele>528.9</ele>
        <time>2022-03-29T09:25:29Z</time>
      </trkpt>
      <trkpt lat="46.64599" lon="5.6109">
        <ele>529.9</ele>
        <time>2022-03-29T09:25:33Z</time>
      </trkpt>
      <trkpt lat="46.64604" lon="5.61089">
        <ele>530.2</ele>
        <time>2022-03-29T09:25:39Z</time>
      </trkpt>
      <trkpt lat="46.64609" lon="5.61086">
        <ele>530.8</ele>
        <time>2022-03-29T09:25:47Z</time>
      </trkpt>
      <trkpt lat="46.64613" lon="5.61082">
        <ele>531.4</ele>
        <time>2022-03-29T09:25:52Z</time>
      </trkpt>
      <trkpt lat="46.64617" lon="5.61077">
        <ele>531.9</ele>
        <time>2022-03-29T09:25:57Z</time>
      </trkpt>
      <trkpt lat="46.6462" lon="5.61071">
        <ele>531.3</ele>
        <time>2022-03-29T09:26:03Z</time>
      </trkpt>
      <trkpt lat="46.64625" lon="5.61068">
        <ele>530.8</ele>
        <time>2022-03-29T09:26:08Z</time>
      </trkpt>
      <trkpt lat="46.64629" lon="5.61066">
        <ele>530.5</ele>
        <time>2022-03-29T09:26:14Z</time>
      </trkpt>
      <trkpt lat="46.64633" lon="5.61061">
        <ele>530.2</ele>
        <time>2022-03-29T09:26:20Z</time>
      </trkpt>
      <trkpt lat="46.64637" lon="5.61058">
        <ele>530.2</ele>
        <time>2022-03-29T09:26:25Z</time>
      </trkpt>
      <trkpt lat="46.64641" lon="5.61054">
        <ele>530.2</ele>
        <time>2022-03-29T09:26:29Z</time>
      </trkpt>
      <trkpt lat="46.64644" lon="5.61049">
        <ele>530.3</ele>
        <time>2022-03-29T09:26:33Z</time>
      </trkpt>
      <trkpt lat="46.64647" lon="5.61043">
        <ele>530.2</ele>
        <time>2022-03-29T09:26:38Z</time>
      </trkpt>
      <trkpt lat="46.64651" lon="5.61038">
        <ele>530</ele>
        <time>2022-03-29T09:26:43Z</time>
      </trkpt>
      <trkpt lat="46.64656" lon="5.61036">
        <ele>530</ele>
        <time>2022-03-29T09:26:47Z</time>
      </trkpt>
      <trkpt lat="46.6466" lon="5.61032">
        <ele>530.1</ele>
        <time>2022-03-29T09:26:51Z</time>
      </trkpt>
      <trkpt lat="46.64665" lon="5.61028">
        <ele>530.4</ele>
        <time>2022-03-29T09:26:56Z</time>
      </trkpt>
      <trkpt lat="46.64669" lon="5.61024">
        <ele>530.8</ele>
        <time>2022-03-29T09:27:01Z</time>
      </trkpt>
      <trkpt lat="46.64674" lon="5.61021">
        <ele>531.1</ele>
        <time>2022-03-29T09:27:06Z</time>
      </trkpt>
      <trkpt lat="46.64678" lon="5.6102">
        <ele>530.4</ele>
        <time>2022-03-29T09:27:15Z</time>
      </trkpt>
      <trkpt lat="46.64683" lon="5.61019">
        <ele>529.5</ele>
        <time>2022-03-29T09:27:20Z</time>
      </trkpt>
      <trkpt lat="46.64687" lon="5.61017">
        <ele>528.7</ele>
        <time>2022-03-29T09:27:27Z</time>
      </trkpt>
      <trkpt lat="46.64693" lon="5.61015">
        <ele>528.1</ele>
        <time>2022-03-29T09:27:32Z</time>
      </trkpt>
      <trkpt lat="46.64698" lon="5.61012">
        <ele>527.9</ele>
        <time>2022-03-29T09:27:35Z</time>
      </trkpt>
      <trkpt lat="46.64703" lon="5.6101">
        <ele>527.6</ele>
        <time>2022-03-29T09:27:38Z</time>
      </trkpt>
      <trkpt lat="46.64708" lon="5.61008">
        <ele>527.4</ele>
        <time>2022-03-29T09:27:42Z</time>
      </trkpt>
      <trkpt lat="46.64713" lon="5.61005">
        <ele>527.3</ele>
        <time>2022-03-29T09:27:46Z</time>
      </trkpt>
      <trkpt lat="46.64718" lon="5.61002">
        <ele>527.3</ele>
        <time>2022-03-29T09:27:50Z</time>
      </trkpt>
      <trkpt lat="46.64722" lon="5.61">
        <ele>527.4</ele>
        <time>2022-03-29T09:27:53Z</time>
      </trkpt>
      <trkpt lat="46.64727" lon="5.60998">
        <ele>527.3</ele>
        <time>2022-03-29T09:27:56Z</time>
      </trkpt>
      <trkpt lat="46.64732" lon="5.60998">
        <ele>527</ele>
        <time>2022-03-29T09:28:00Z</time>
      </trkpt>
      <trkpt lat="46.64737" lon="5.60998">
        <ele>526.8</ele>
        <time>2022-03-29T09:28:04Z</time>
      </trkpt>
      <trkpt lat="46.64742" lon="5.60997">
        <ele>527.1</ele>
        <time>2022-03-29T09:28:10Z</time>
      </trkpt>
      <trkpt lat="46.64746" lon="5.60992">
        <ele>526.5</ele>
        <time>2022-03-29T09:28:32Z</time>
      </trkpt>
      <trkpt lat="46.64748" lon="5.60986">
        <ele>526.5</ele>
        <time>2022-03-29T09:28:37Z</time>
      </trkpt>
      <trkpt lat="46.64751" lon="5.6098">
        <ele>526</ele>
        <time>2022-03-29T09:28:42Z</time>
      </trkpt>
      <trkpt lat="46.64756" lon="5.60977">
        <ele>525.4</ele>
        <time>2022-03-29T09:28:46Z</time>
      </trkpt>
      <trkpt lat="46.6476" lon="5.60974">
        <ele>524.3</ele>
        <time>2022-03-29T09:28:51Z</time>
      </trkpt>
      <trkpt lat="46.64765" lon="5.60971">
        <ele>523.3</ele>
        <time>2022-03-29T09:28:56Z</time>
      </trkpt>
      <trkpt lat="46.6477" lon="5.60968">
        <ele>522.3</ele>
        <time>2022-03-29T09:29:01Z</time>
      </trkpt>
      <trkpt lat="46.64775" lon="5.60964">
        <ele>521.5</ele>
        <time>2022-03-29T09:29:05Z</time>
      </trkpt>
      <trkpt lat="46.64779" lon="5.6096">
        <ele>521.3</ele>
        <time>2022-03-29T09:29:10Z</time>
      </trkpt>
      <trkpt lat="46.64783" lon="5.60957">
        <ele>521.2</ele>
        <time>2022-03-29T09:29:14Z</time>
      </trkpt>
      <trkpt lat="46.64787" lon="5.60954">
        <ele>520.8</ele>
        <time>2022-03-29T09:29:18Z</time>
      </trkpt>
      <trkpt lat="46.64791" lon="5.60949">
        <ele>520.8</ele>
        <time>2022-03-29T09:29:22Z</time>
      </trkpt>
      <trkpt lat="46.64796" lon="5.60946">
        <ele>520.8</ele>
        <time>2022-03-29T09:29:28Z</time>
      </trkpt>
      <trkpt lat="46.64799" lon="5.60941">
        <ele>520.7</ele>
        <time>2022-03-29T09:29:33Z</time>
      </trkpt>
      <trkpt lat="46.64805" lon="5.60938">
        <ele>520.7</ele>
        <time>2022-03-29T09:29:37Z</time>
      </trkpt>
      <trkpt lat="46.64809" lon="5.60935">
        <ele>520.8</ele>
        <time>2022-03-29T09:29:41Z</time>
      </trkpt>
      <trkpt lat="46.64813" lon="5.6093">
        <ele>521.1</ele>
        <time>2022-03-29T09:29:46Z</time>
      </trkpt>
      <trkpt lat="46.64816" lon="5.60925">
        <ele>521.3</ele>
        <time>2022-03-29T09:29:52Z</time>
      </trkpt>
      <trkpt lat="46.64819" lon="5.6092">
        <ele>521.5</ele>
        <time>2022-03-29T09:29:57Z</time>
      </trkpt>
      <trkpt lat="46.64822" lon="5.60915">
        <ele>521.7</ele>
        <time>2022-03-29T09:30:01Z</time>
      </trkpt>
      <trkpt lat="46.64827" lon="5.60912">
        <ele>522.1</ele>
        <time>2022-03-29T09:30:05Z</time>
      </trkpt>
      <trkpt lat="46.64832" lon="5.60909">
        <ele>522.4</ele>
        <time>2022-03-29T09:30:09Z</time>
      </trkpt>
      <trkpt lat="46.64836" lon="5.60906">
        <ele>522.7</ele>
        <time>2022-03-29T09:30:13Z</time>
      </trkpt>
      <trkpt lat="46.6484" lon="5.60903">
        <ele>522.9</ele>
        <time>2022-03-29T09:30:17Z</time>
      </trkpt>
      <trkpt lat="46.64844" lon="5.609">
        <ele>523.2</ele>
        <time>2022-03-29T09:30:21Z</time>
      </trkpt>
      <trkpt lat="46.64849" lon="5.60896">
        <ele>523.1</ele>
        <time>2022-03-29T09:30:26Z</time>
      </trkpt>
      <trkpt lat="46.64853" lon="5.60891">
        <ele>523</ele>
        <time>2022-03-29T09:30:30Z</time>
      </trkpt>
      <trkpt lat="46.64858" lon="5.60887">
        <ele>523</ele>
        <time>2022-03-29T09:30:34Z</time>
      </trkpt>
      <trkpt lat="46.64862" lon="5.60883">
        <ele>523.2</ele>
        <time>2022-03-29T09:30:38Z</time>
      </trkpt>
      <trkpt lat="46.64866" lon="5.6088">
        <ele>523.2</ele>
        <time>2022-03-29T09:30:43Z</time>
      </trkpt>
      <trkpt lat="46.6487" lon="5.60876">
        <ele>523.6</ele>
        <time>2022-03-29T09:30:48Z</time>
      </trkpt>
      <trkpt lat="46.64875" lon="5.60872">
        <ele>524.1</ele>
        <time>2022-03-29T09:30:55Z</time>
      </trkpt>
      <trkpt lat="46.64879" lon="5.60869">
        <ele>524</ele>
        <time>2022-03-29T09:31:00Z</time>
      </trkpt>
      <trkpt lat="46.64884" lon="5.60865">
        <ele>523.9</ele>
        <time>2022-03-29T09:31:06Z</time>
      </trkpt>
      <trkpt lat="46.64889" lon="5.60861">
        <ele>523.8</ele>
        <time>2022-03-29T09:31:11Z</time>
      </trkpt>
      <trkpt lat="46.64894" lon="5.60859">
        <ele>523.8</ele>
        <time>2022-03-29T09:31:16Z</time>
      </trkpt>
      <trkpt lat="46.64899" lon="5.60854">
        <ele>523.8</ele>
        <time>2022-03-29T09:31:21Z</time>
      </trkpt>
      <trkpt lat="46.64903" lon="5.60851">
        <ele>523.7</ele>
        <time>2022-03-29T09:31:26Z</time>
      </trkpt>
      <trkpt lat="46.64909" lon="5.60851">
        <ele>523.4</ele>
        <time>2022-03-29T09:31:30Z</time>
      </trkpt>
      <trkpt lat="46.64913" lon="5.6085">
        <ele>523.2</ele>
        <time>2022-03-29T09:31:36Z</time>
      </trkpt>
      <trkpt lat="46.64916" lon="5.60844">
        <ele>522.3</ele>
        <time>2022-03-29T09:31:43Z</time>
      </trkpt>
      <trkpt lat="46.6492" lon="5.60839">
        <ele>521.5</ele>
        <time>2022-03-29T09:31:49Z</time>
      </trkpt>
      <trkpt lat="46.64925" lon="5.60835">
        <ele>521.1</ele>
        <time>2022-03-29T09:31:54Z</time>
      </trkpt>
      <trkpt lat="46.64929" lon="5.60832">
        <ele>521.4</ele>
        <time>2022-03-29T09:31:59Z</time>
      </trkpt>
      <trkpt lat="46.64932" lon="5.60828">
        <ele>522</ele>
        <time>2022-03-29T09:32:05Z</time>
      </trkpt>
      <trkpt lat="46.64935" lon="5.60821">
        <ele>522.2</ele>
        <time>2022-03-29T09:32:11Z</time>
      </trkpt>
      <trkpt lat="46.64939" lon="5.60816">
        <ele>522.5</ele>
        <time>2022-03-29T09:32:17Z</time>
      </trkpt>
      <trkpt lat="46.64943" lon="5.60811">
        <ele>522.6</ele>
        <time>2022-03-29T09:32:20Z</time>
      </trkpt>
      <trkpt lat="46.64947" lon="5.60807">
        <ele>522.4</ele>
        <time>2022-03-29T09:32:25Z</time>
      </trkpt>
      <trkpt lat="46.64952" lon="5.60803">
        <ele>521.4</ele>
        <time>2022-03-29T09:32:31Z</time>
      </trkpt>
      <trkpt lat="46.64957" lon="5.608">
        <ele>520.6</ele>
        <time>2022-03-29T09:32:35Z</time>
      </trkpt>
      <trkpt lat="46.64962" lon="5.60801">
        <ele>519.7</ele>
        <time>2022-03-29T09:32:40Z</time>
      </trkpt>
      <trkpt lat="46.64968" lon="5.60801">
        <ele>519</ele>
        <time>2022-03-29T09:32:44Z</time>
      </trkpt>
      <trkpt lat="46.64973" lon="5.608">
        <ele>518.9</ele>
        <time>2022-03-29T09:32:48Z</time>
      </trkpt>
      <trkpt lat="46.64977" lon="5.60796">
        <ele>518.6</ele>
        <time>2022-03-29T09:32:52Z</time>
      </trkpt>
      <trkpt lat="46.64978" lon="5.6079">
        <ele>517.5</ele>
        <time>2022-03-29T09:32:58Z</time>
      </trkpt>
      <trkpt lat="46.64981" lon="5.60796">
        <ele>516</ele>
        <time>2022-03-29T09:33:09Z</time>
      </trkpt>
      <trkpt lat="46.64984" lon="5.608">
        <ele>515.9</ele>
        <time>2022-03-29T09:33:14Z</time>
      </trkpt>
      <trkpt lat="46.64988" lon="5.60804">
        <ele>516</ele>
        <time>2022-03-29T09:33:18Z</time>
      </trkpt>
      <trkpt lat="46.64993" lon="5.60805">
        <ele>515.7</ele>
        <time>2022-03-29T09:33:25Z</time>
      </trkpt>
      <trkpt lat="46.64998" lon="5.60802">
        <ele>515</ele>
        <time>2022-03-29T09:33:30Z</time>
      </trkpt>
      <trkpt lat="46.65002" lon="5.60798">
        <ele>514</ele>
        <time>2022-03-29T09:33:36Z</time>
      </trkpt>
      <trkpt lat="46.65007" lon="5.60798">
        <ele>512.9</ele>
        <time>2022-03-29T09:33:41Z</time>
      </trkpt>
      <trkpt lat="46.65012" lon="5.60795">
        <ele>511.8</ele>
        <time>2022-03-29T09:33:47Z</time>
      </trkpt>
      <trkpt lat="46.65015" lon="5.6079">
        <ele>511.7</ele>
        <time>2022-03-29T09:33:51Z</time>
      </trkpt>
      <trkpt lat="46.65018" lon="5.60784">
        <ele>512</ele>
        <time>2022-03-29T09:33:56Z</time>
      </trkpt>
      <trkpt lat="46.65021" lon="5.60778">
        <ele>512.4</ele>
        <time>2022-03-29T09:34:02Z</time>
      </trkpt>
      <trkpt lat="46.65025" lon="5.60772">
        <ele>513.2</ele>
        <time>2022-03-29T09:34:07Z</time>
      </trkpt>
      <trkpt lat="46.6503" lon="5.60768">
        <ele>514.2</ele>
        <time>2022-03-29T09:34:11Z</time>
      </trkpt>
      <trkpt lat="46.65036" lon="5.60765">
        <ele>515.1</ele>
        <time>2022-03-29T09:34:14Z</time>
      </trkpt>
      <trkpt lat="46.65041" lon="5.60763">
        <ele>515.8</ele>
        <time>2022-03-29T09:34:17Z</time>
      </trkpt>
      <trkpt lat="46.65047" lon="5.60762">
        <ele>516.3</ele>
        <time>2022-03-29T09:34:21Z</time>
      </trkpt>
      <trkpt lat="46.65052" lon="5.60762">
        <ele>516.5</ele>
        <time>2022-03-29T09:34:26Z</time>
      </trkpt>
      <trkpt lat="46.65057" lon="5.60761">
        <ele>516.7</ele>
        <time>2022-03-29T09:34:31Z</time>
      </trkpt>
      <trkpt lat="46.65061" lon="5.60762">
        <ele>516.6</ele>
        <time>2022-03-29T09:34:36Z</time>
      </trkpt>
      <trkpt lat="46.65067" lon="5.6076">
        <ele>516.6</ele>
        <time>2022-03-29T09:34:42Z</time>
      </trkpt>
      <trkpt lat="46.65072" lon="5.60756">
        <ele>516.9</ele>
        <time>2022-03-29T09:34:47Z</time>
      </trkpt>
      <trkpt lat="46.65076" lon="5.60754">
        <ele>517.3</ele>
        <time>2022-03-29T09:34:51Z</time>
      </trkpt>
      <trkpt lat="46.65082" lon="5.60754">
        <ele>517.8</ele>
        <time>2022-03-29T09:34:58Z</time>
      </trkpt>
      <trkpt lat="46.65086" lon="5.60753">
        <ele>518.2</ele>
        <time>2022-03-29T09:35:02Z</time>
      </trkpt>
      <trkpt lat="46.65091" lon="5.60751">
        <ele>518.7</ele>
        <time>2022-03-29T09:35:08Z</time>
      </trkpt>
      <trkpt lat="46.65095" lon="5.60749">
        <ele>518.7</ele>
        <time>2022-03-29T09:35:12Z</time>
      </trkpt>
      <trkpt lat="46.651" lon="5.60747">
        <ele>519.1</ele>
        <time>2022-03-29T09:35:17Z</time>
      </trkpt>
      <trkpt lat="46.65105" lon="5.60746">
        <ele>519.3</ele>
        <time>2022-03-29T09:35:27Z</time>
      </trkpt>
      <trkpt lat="46.6511" lon="5.60744">
        <ele>518.7</ele>
        <time>2022-03-29T09:35:31Z</time>
      </trkpt>
      <trkpt lat="46.65115" lon="5.60742">
        <ele>517.7</ele>
        <time>2022-03-29T09:35:35Z</time>
      </trkpt>
      <trkpt lat="46.6512" lon="5.6074">
        <ele>517</ele>
        <time>2022-03-29T09:35:39Z</time>
      </trkpt>
      <trkpt lat="46.65125" lon="5.60737">
        <ele>516.2</ele>
        <time>2022-03-29T09:35:43Z</time>
      </trkpt>
      <trkpt lat="46.6513" lon="5.60735">
        <ele>516.1</ele>
        <time>2022-03-29T09:35:47Z</time>
      </trkpt>
      <trkpt lat="46.65134" lon="5.60733">
        <ele>516.3</ele>
        <time>2022-03-29T09:35:51Z</time>
      </trkpt>
      <trkpt lat="46.65139" lon="5.60732">
        <ele>516.4</ele>
        <time>2022-03-29T09:35:56Z</time>
      </trkpt>
      <trkpt lat="46.65145" lon="5.60733">
        <ele>516.6</ele>
        <time>2022-03-29T09:36:02Z</time>
      </trkpt>
      <trkpt lat="46.6515" lon="5.60732">
        <ele>516.9</ele>
        <time>2022-03-29T09:36:06Z</time>
      </trkpt>
      <trkpt lat="46.65154" lon="5.60728">
        <ele>517.4</ele>
        <time>2022-03-29T09:36:10Z</time>
      </trkpt>
      <trkpt lat="46.65158" lon="5.60723">
        <ele>517.9</ele>
        <time>2022-03-29T09:36:16Z</time>
      </trkpt>
      <trkpt lat="46.65158" lon="5.60716">
        <ele>517.8</ele>
        <time>2022-03-29T09:36:23Z</time>
      </trkpt>
      <trkpt lat="46.6516" lon="5.6071">
        <ele>517.1</ele>
        <time>2022-03-29T09:36:30Z</time>
      </trkpt>
      <trkpt lat="46.65163" lon="5.60705">
        <ele>516.6</ele>
        <time>2022-03-29T09:36:36Z</time>
      </trkpt>
      <trkpt lat="46.65168" lon="5.60701">
        <ele>515.8</ele>
        <time>2022-03-29T09:36:41Z</time>
      </trkpt>
      <trkpt lat="46.65172" lon="5.60695">
        <ele>514.8</ele>
        <time>2022-03-29T09:36:46Z</time>
      </trkpt>
      <trkpt lat="46.65177" lon="5.60691">
        <ele>513.7</ele>
        <time>2022-03-29T09:36:51Z</time>
      </trkpt>
      <trkpt lat="46.65181" lon="5.60688">
        <ele>512.9</ele>
        <time>2022-03-29T09:36:55Z</time>
      </trkpt>
      <trkpt lat="46.65186" lon="5.60685">
        <ele>511.9</ele>
        <time>2022-03-29T09:36:59Z</time>
      </trkpt>
      <trkpt lat="46.6519" lon="5.60683">
        <ele>510.7</ele>
        <time>2022-03-29T09:37:04Z</time>
      </trkpt>
      <trkpt lat="46.65195" lon="5.60682">
        <ele>509.4</ele>
        <time>2022-03-29T09:37:09Z</time>
      </trkpt>
      <trkpt lat="46.65199" lon="5.60683">
        <ele>508.4</ele>
        <time>2022-03-29T09:37:14Z</time>
      </trkpt>
      <trkpt lat="46.65204" lon="5.60685">
        <ele>507.5</ele>
        <time>2022-03-29T09:37:20Z</time>
      </trkpt>
      <trkpt lat="46.65209" lon="5.60688">
        <ele>506.3</ele>
        <time>2022-03-29T09:37:26Z</time>
      </trkpt>
      <trkpt lat="46.65206" lon="5.60693">
        <ele>504.2</ele>
        <time>2022-03-29T09:37:44Z</time>
      </trkpt>
      <trkpt lat="46.65203" lon="5.60699">
        <ele>503.9</ele>
        <time>2022-03-29T09:37:49Z</time>
      </trkpt>
      <trkpt lat="46.65199" lon="5.60705">
        <ele>503.6</ele>
        <time>2022-03-29T09:37:53Z</time>
      </trkpt>
      <trkpt lat="46.65195" lon="5.60709">
        <ele>503.4</ele>
        <time>2022-03-29T09:37:58Z</time>
      </trkpt>
      <trkpt lat="46.65199" lon="5.60706">
        <ele>502.3</ele>
        <time>2022-03-29T09:38:20Z</time>
      </trkpt>
      <trkpt lat="46.65202" lon="5.607">
        <ele>502.4</ele>
        <time>2022-03-29T09:38:22Z</time>
      </trkpt>
      <trkpt lat="46.65203" lon="5.60693">
        <ele>503.6</ele>
        <time>2022-03-29T09:38:45Z</time>
      </trkpt>
      <trkpt lat="46.65208" lon="5.60689">
        <ele>503.5</ele>
        <time>2022-03-29T09:38:51Z</time>
      </trkpt>
      <trkpt lat="46.65212" lon="5.60686">
        <ele>503.3</ele>
        <time>2022-03-29T09:38:54Z</time>
      </trkpt>
      <trkpt lat="46.65216" lon="5.60683">
        <ele>502.7</ele>
        <time>2022-03-29T09:38:58Z</time>
      </trkpt>
      <trkpt lat="46.65221" lon="5.60681">
        <ele>502.2</ele>
        <time>2022-03-29T09:39:02Z</time>
      </trkpt>
      <trkpt lat="46.65226" lon="5.6068">
        <ele>501.5</ele>
        <time>2022-03-29T09:39:07Z</time>
      </trkpt>
      <trkpt lat="46.6523" lon="5.60684">
        <ele>500.8</ele>
        <time>2022-03-29T09:39:22Z</time>
      </trkpt>
      <trkpt lat="46.65226" lon="5.60687">
        <ele>509.1</ele>
        <time>2022-03-29T09:41:55Z</time>
      </trkpt>
      <trkpt lat="46.65223" lon="5.60693">
        <ele>508.4</ele>
        <time>2022-03-29T09:42:02Z</time>
      </trkpt>
      <trkpt lat="46.65221" lon="5.60699">
        <ele>507.9</ele>
        <time>2022-03-29T09:42:08Z</time>
      </trkpt>
      <trkpt lat="46.65219" lon="5.6071">
        <ele>507.4</ele>
        <time>2022-03-29T09:43:01Z</time>
      </trkpt>
      <trkpt lat="46.65219" lon="5.60716">
        <ele>507.2</ele>
        <time>2022-03-29T09:43:06Z</time>
      </trkpt>
      <trkpt lat="46.65218" lon="5.60725">
        <ele>507.7</ele>
        <time>2022-03-29T09:43:19Z</time>
      </trkpt>
      <trkpt lat="46.65217" lon="5.60732">
        <ele>508.2</ele>
        <time>2022-03-29T09:43:22Z</time>
      </trkpt>
      <trkpt lat="46.65218" lon="5.60738">
        <ele>509.2</ele>
        <time>2022-03-29T09:43:28Z</time>
      </trkpt>
      <trkpt lat="46.65218" lon="5.60747">
        <ele>509.4</ele>
        <time>2022-03-29T09:43:37Z</time>
      </trkpt>
      <trkpt lat="46.6522" lon="5.60754">
        <ele>509</ele>
        <time>2022-03-29T09:43:43Z</time>
      </trkpt>
      <trkpt lat="46.65222" lon="5.6076">
        <ele>508.8</ele>
        <time>2022-03-29T09:43:49Z</time>
      </trkpt>
      <trkpt lat="46.65225" lon="5.60766">
        <ele>508.7</ele>
        <time>2022-03-29T09:43:57Z</time>
      </trkpt>
      <trkpt lat="46.6523" lon="5.60765">
        <ele>508.4</ele>
        <time>2022-03-29T09:44:03Z</time>
      </trkpt>
      <trkpt lat="46.65236" lon="5.60765">
        <ele>508.3</ele>
        <time>2022-03-29T09:44:07Z</time>
      </trkpt>
      <trkpt lat="46.65241" lon="5.60765">
        <ele>508.3</ele>
        <time>2022-03-29T09:44:10Z</time>
      </trkpt>
      <trkpt lat="46.65247" lon="5.60764">
        <ele>508.6</ele>
        <time>2022-03-29T09:44:13Z</time>
      </trkpt>
      <trkpt lat="46.65252" lon="5.60767">
        <ele>510.5</ele>
        <time>2022-03-29T09:44:18Z</time>
      </trkpt>
      <trkpt lat="46.65257" lon="5.60769">
        <ele>513.9</ele>
        <time>2022-03-29T09:44:27Z</time>
      </trkpt>
      <trkpt lat="46.65262" lon="5.6077">
        <ele>513.9</ele>
        <time>2022-03-29T09:44:31Z</time>
      </trkpt>
      <trkpt lat="46.65266" lon="5.60774">
        <ele>513.9</ele>
        <time>2022-03-29T09:44:37Z</time>
      </trkpt>
      <trkpt lat="46.6527" lon="5.60781">
        <ele>512.3</ele>
        <time>2022-03-29T09:44:48Z</time>
      </trkpt>
      <trkpt lat="46.6527" lon="5.60789">
        <ele>511.2</ele>
        <time>2022-03-29T09:44:53Z</time>
      </trkpt>
      <trkpt lat="46.65271" lon="5.60797">
        <ele>510.4</ele>
        <time>2022-03-29T09:44:57Z</time>
      </trkpt>
      <trkpt lat="46.65272" lon="5.60804">
        <ele>509.7</ele>
        <time>2022-03-29T09:45:02Z</time>
      </trkpt>
      <trkpt lat="46.65276" lon="5.60809">
        <ele>508.9</ele>
        <time>2022-03-29T09:45:07Z</time>
      </trkpt>
      <trkpt lat="46.65279" lon="5.60816">
        <ele>507.6</ele>
        <time>2022-03-29T09:45:12Z</time>
      </trkpt>
      <trkpt lat="46.65281" lon="5.60822">
        <ele>506.4</ele>
        <time>2022-03-29T09:45:16Z</time>
      </trkpt>
      <trkpt lat="46.65283" lon="5.60828">
        <ele>504.6</ele>
        <time>2022-03-29T09:45:21Z</time>
      </trkpt>
      <trkpt lat="46.65285" lon="5.60834">
        <ele>503</ele>
        <time>2022-03-29T09:45:26Z</time>
      </trkpt>
      <trkpt lat="46.65287" lon="5.6084">
        <ele>500.6</ele>
        <time>2022-03-29T09:45:33Z</time>
      </trkpt>
      <trkpt lat="46.65289" lon="5.60847">
        <ele>498.2</ele>
        <time>2022-03-29T09:45:39Z</time>
      </trkpt>
      <trkpt lat="46.65289" lon="5.60853">
        <ele>496.9</ele>
        <time>2022-03-29T09:45:44Z</time>
      </trkpt>
      <trkpt lat="46.65291" lon="5.6086">
        <ele>496.3</ele>
        <time>2022-03-29T09:45:49Z</time>
      </trkpt>
      <trkpt lat="46.65294" lon="5.60865">
        <ele>495.5</ele>
        <time>2022-03-29T09:45:55Z</time>
      </trkpt>
      <trkpt lat="46.65297" lon="5.60871">
        <ele>495</ele>
        <time>2022-03-29T09:46:01Z</time>
      </trkpt>
      <trkpt lat="46.653" lon="5.60877">
        <ele>494.4</ele>
        <time>2022-03-29T09:46:06Z</time>
      </trkpt>
      <trkpt lat="46.65303" lon="5.60883">
        <ele>493.6</ele>
        <time>2022-03-29T09:46:11Z</time>
      </trkpt>
      <trkpt lat="46.65306" lon="5.60889">
        <ele>492.4</ele>
        <time>2022-03-29T09:46:18Z</time>
      </trkpt>
      <trkpt lat="46.65308" lon="5.60894">
        <ele>491.7</ele>
        <time>2022-03-29T09:46:24Z</time>
      </trkpt>
      <trkpt lat="46.65311" lon="5.609">
        <ele>491.3</ele>
        <time>2022-03-29T09:46:31Z</time>
      </trkpt>
      <trkpt lat="46.65314" lon="5.60906">
        <ele>491.3</ele>
        <time>2022-03-29T09:46:37Z</time>
      </trkpt>
      <trkpt lat="46.65317" lon="5.60912">
        <ele>491</ele>
        <time>2022-03-29T09:46:43Z</time>
      </trkpt>
      <trkpt lat="46.6532" lon="5.60919">
        <ele>490.3</ele>
        <time>2022-03-29T09:46:51Z</time>
      </trkpt>
      <trkpt lat="46.65323" lon="5.60924">
        <ele>489.9</ele>
        <time>2022-03-29T09:46:55Z</time>
      </trkpt>
      <trkpt lat="46.65327" lon="5.60929">
        <ele>489.7</ele>
        <time>2022-03-29T09:46:59Z</time>
      </trkpt>
      <trkpt lat="46.6533" lon="5.60935">
        <ele>489.7</ele>
        <time>2022-03-29T09:47:04Z</time>
      </trkpt>
      <trkpt lat="46.6533" lon="5.60943">
        <ele>489.6</ele>
        <time>2022-03-29T09:47:10Z</time>
      </trkpt>
      <trkpt lat="46.65332" lon="5.60952">
        <ele>489.6</ele>
        <time>2022-03-29T09:47:16Z</time>
      </trkpt>
      <trkpt lat="46.65334" lon="5.60958">
        <ele>489.7</ele>
        <time>2022-03-29T09:47:20Z</time>
      </trkpt>
      <trkpt lat="46.65337" lon="5.60963">
        <ele>489.4</ele>
        <time>2022-03-29T09:47:25Z</time>
      </trkpt>
      <trkpt lat="46.6534" lon="5.60968">
        <ele>489.2</ele>
        <time>2022-03-29T09:47:30Z</time>
      </trkpt>
      <trkpt lat="46.65343" lon="5.60974">
        <ele>489.2</ele>
        <time>2022-03-29T09:47:35Z</time>
      </trkpt>
      <trkpt lat="46.65347" lon="5.60979">
        <ele>489</ele>
        <time>2022-03-29T09:47:42Z</time>
      </trkpt>
      <trkpt lat="46.65349" lon="5.60988">
        <ele>487.9</ele>
        <time>2022-03-29T09:48:02Z</time>
      </trkpt>
      <trkpt lat="46.65352" lon="5.60993">
        <ele>488.2</ele>
        <time>2022-03-29T09:48:05Z</time>
      </trkpt>
      <trkpt lat="46.65354" lon="5.61001">
        <ele>489.1</ele>
        <time>2022-03-29T09:48:10Z</time>
      </trkpt>
      <trkpt lat="46.65357" lon="5.61007">
        <ele>490</ele>
        <time>2022-03-29T09:48:15Z</time>
      </trkpt>
      <trkpt lat="46.65358" lon="5.61014">
        <ele>490.2</ele>
        <time>2022-03-29T09:48:21Z</time>
      </trkpt>
      <trkpt lat="46.65362" lon="5.61019">
        <ele>489.9</ele>
        <time>2022-03-29T09:48:28Z</time>
      </trkpt>
      <trkpt lat="46.65365" lon="5.61023">
        <ele>488.9</ele>
        <time>2022-03-29T09:48:36Z</time>
      </trkpt>
      <trkpt lat="46.65369" lon="5.61028">
        <ele>487.5</ele>
        <time>2022-03-29T09:48:42Z</time>
      </trkpt>
      <trkpt lat="46.65371" lon="5.61036">
        <ele>484.5</ele>
        <time>2022-03-29T09:48:50Z</time>
      </trkpt>
      <trkpt lat="46.65372" lon="5.61042">
        <ele>482.4</ele>
        <time>2022-03-29T09:48:54Z</time>
      </trkpt>
      <trkpt lat="46.65375" lon="5.61049">
        <ele>479.6</ele>
        <time>2022-03-29T09:48:59Z</time>
      </trkpt>
      <trkpt lat="46.65376" lon="5.61055">
        <ele>475.6</ele>
        <time>2022-03-29T09:49:07Z</time>
      </trkpt>
      <trkpt lat="46.65379" lon="5.61061">
        <ele>473.5</ele>
        <time>2022-03-29T09:49:14Z</time>
      </trkpt>
      <trkpt lat="46.65382" lon="5.61067">
        <ele>473.1</ele>
        <time>2022-03-29T09:49:19Z</time>
      </trkpt>
      <trkpt lat="46.65385" lon="5.61074">
        <ele>473</ele>
        <time>2022-03-29T09:49:24Z</time>
      </trkpt>
      <trkpt lat="46.65388" lon="5.61079">
        <ele>472.8</ele>
        <time>2022-03-29T09:49:29Z</time>
      </trkpt>
      <trkpt lat="46.6539" lon="5.61086">
        <ele>471.7</ele>
        <time>2022-03-29T09:49:36Z</time>
      </trkpt>
      <trkpt lat="46.65391" lon="5.61094">
        <ele>470.6</ele>
        <time>2022-03-29T09:49:44Z</time>
      </trkpt>
      <trkpt lat="46.65391" lon="5.61101">
        <ele>469.4</ele>
        <time>2022-03-29T09:49:49Z</time>
      </trkpt>
      <trkpt lat="46.65391" lon="5.61109">
        <ele>468.6</ele>
        <time>2022-03-29T09:49:54Z</time>
      </trkpt>
      <trkpt lat="46.65392" lon="5.61116">
        <ele>467.9</ele>
        <time>2022-03-29T09:50:04Z</time>
      </trkpt>
      <trkpt lat="46.65394" lon="5.61123">
        <ele>469.2</ele>
        <time>2022-03-29T09:50:14Z</time>
      </trkpt>
      <trkpt lat="46.65396" lon="5.61129">
        <ele>470.4</ele>
        <time>2022-03-29T09:50:20Z</time>
      </trkpt>
      <trkpt lat="46.654" lon="5.61128">
        <ele>479.4</ele>
        <time>2022-03-29T09:52:13Z</time>
      </trkpt>
      <trkpt lat="46.65405" lon="5.61129">
        <ele>478.5</ele>
        <time>2022-03-29T09:52:34Z</time>
      </trkpt>
      <trkpt lat="46.65402" lon="5.61133">
        <ele>475.9</ele>
        <time>2022-03-29T09:52:44Z</time>
      </trkpt>
      <trkpt lat="46.65405" lon="5.61138">
        <ele>476.4</ele>
        <time>2022-03-29T09:53:04Z</time>
      </trkpt>
      <trkpt lat="46.65407" lon="5.61144">
        <ele>476.9</ele>
        <time>2022-03-29T09:53:18Z</time>
      </trkpt>
      <trkpt lat="46.65407" lon="5.61151">
        <ele>475.8</ele>
        <time>2022-03-29T09:53:25Z</time>
      </trkpt>
      <trkpt lat="46.65407" lon="5.61159">
        <ele>474.1</ele>
        <time>2022-03-29T09:53:31Z</time>
      </trkpt>
      <trkpt lat="46.65409" lon="5.61165">
        <ele>473.2</ele>
        <time>2022-03-29T09:53:36Z</time>
      </trkpt>
      <trkpt lat="46.6541" lon="5.61172">
        <ele>472.3</ele>
        <time>2022-03-29T09:53:44Z</time>
      </trkpt>
      <trkpt lat="46.6541" lon="5.61178">
        <ele>470.8</ele>
        <time>2022-03-29T09:53:55Z</time>
      </trkpt>
      <trkpt lat="46.65406" lon="5.6118">
        <ele>468.2</ele>
        <time>2022-03-29T09:54:07Z</time>
      </trkpt>
      <trkpt lat="46.65409" lon="5.61186">
        <ele>467.3</ele>
        <time>2022-03-29T09:54:13Z</time>
      </trkpt>
      <trkpt lat="46.65413" lon="5.61191">
        <ele>467</ele>
        <time>2022-03-29T09:54:17Z</time>
      </trkpt>
      <trkpt lat="46.65417" lon="5.61197">
        <ele>466.5</ele>
        <time>2022-03-29T09:54:23Z</time>
      </trkpt>
      <trkpt lat="46.65421" lon="5.61201">
        <ele>466.3</ele>
        <time>2022-03-29T09:54:28Z</time>
      </trkpt>
      <trkpt lat="46.65425" lon="5.61205">
        <ele>466.8</ele>
        <time>2022-03-29T09:54:33Z</time>
      </trkpt>
      <trkpt lat="46.65428" lon="5.6121">
        <ele>468.3</ele>
        <time>2022-03-29T09:54:39Z</time>
      </trkpt>
      <trkpt lat="46.65425" lon="5.61215">
        <ele>468.8</ele>
        <time>2022-03-29T09:54:46Z</time>
      </trkpt>
      <trkpt lat="46.65427" lon="5.61221">
        <ele>467.5</ele>
        <time>2022-03-29T09:54:54Z</time>
      </trkpt>
      <trkpt lat="46.6543" lon="5.61226">
        <ele>467.7</ele>
        <time>2022-03-29T09:54:58Z</time>
      </trkpt>
      <trkpt lat="46.65433" lon="5.61231">
        <ele>467.7</ele>
        <time>2022-03-29T09:55:02Z</time>
      </trkpt>
      <trkpt lat="46.65437" lon="5.61235">
        <ele>467.8</ele>
        <time>2022-03-29T09:55:09Z</time>
      </trkpt>
      <trkpt lat="46.65442" lon="5.61236">
        <ele>467.7</ele>
        <time>2022-03-29T09:55:13Z</time>
      </trkpt>
      <trkpt lat="46.65447" lon="5.6124">
        <ele>468</ele>
        <time>2022-03-29T09:55:17Z</time>
      </trkpt>
      <trkpt lat="46.65449" lon="5.61245">
        <ele>468</ele>
        <time>2022-03-29T09:55:22Z</time>
      </trkpt>
      <trkpt lat="46.65452" lon="5.61251">
        <ele>467</ele>
        <time>2022-03-29T09:55:55Z</time>
      </trkpt>
      <trkpt lat="46.65454" lon="5.61257">
        <ele>468.9</ele>
        <time>2022-03-29T09:56:02Z</time>
      </trkpt>
      <trkpt lat="46.65458" lon="5.61261">
        <ele>470.4</ele>
        <time>2022-03-29T09:56:08Z</time>
      </trkpt>
      <trkpt lat="46.65457" lon="5.61268">
        <ele>471.8</ele>
        <time>2022-03-29T09:56:20Z</time>
      </trkpt>
      <trkpt lat="46.65461" lon="5.61274">
        <ele>471</ele>
        <time>2022-03-29T09:56:27Z</time>
      </trkpt>
      <trkpt lat="46.65464" lon="5.6128">
        <ele>469.2</ele>
        <time>2022-03-29T09:56:34Z</time>
      </trkpt>
      <trkpt lat="46.65468" lon="5.61287">
        <ele>467.2</ele>
        <time>2022-03-29T09:56:39Z</time>
      </trkpt>
      <trkpt lat="46.65472" lon="5.61291">
        <ele>465.4</ele>
        <time>2022-03-29T09:56:43Z</time>
      </trkpt>
      <trkpt lat="46.65475" lon="5.61297">
        <ele>463.6</ele>
        <time>2022-03-29T09:56:48Z</time>
      </trkpt>
      <trkpt lat="46.65479" lon="5.61302">
        <ele>462.4</ele>
        <time>2022-03-29T09:56:52Z</time>
      </trkpt>
      <trkpt lat="46.65483" lon="5.61309">
        <ele>461.9</ele>
        <time>2022-03-29T09:56:55Z</time>
      </trkpt>
      <trkpt lat="46.65486" lon="5.61314">
        <ele>461.6</ele>
        <time>2022-03-29T09:56:58Z</time>
      </trkpt>
      <trkpt lat="46.6549" lon="5.61321">
        <ele>461.2</ele>
        <time>2022-03-29T09:57:02Z</time>
      </trkpt>
      <trkpt lat="46.6549" lon="5.61328">
        <ele>459.9</ele>
        <time>2022-03-29T09:57:07Z</time>
      </trkpt>
      <trkpt lat="46.65489" lon="5.61335">
        <ele>458.6</ele>
        <time>2022-03-29T09:57:13Z</time>
      </trkpt>
      <trkpt lat="46.65491" lon="5.61341">
        <ele>458.3</ele>
        <time>2022-03-29T09:57:34Z</time>
      </trkpt>
      <trkpt lat="46.65487" lon="5.61345">
        <ele>458</ele>
        <time>2022-03-29T09:57:50Z</time>
      </trkpt>
      <trkpt lat="46.65482" lon="5.61345">
        <ele>457.8</ele>
        <time>2022-03-29T09:57:54Z</time>
      </trkpt>
      <trkpt lat="46.65477" lon="5.61343">
        <ele>457.4</ele>
        <time>2022-03-29T09:57:57Z</time>
      </trkpt>
      <trkpt lat="46.65474" lon="5.61339">
        <ele>457</ele>
        <time>2022-03-29T09:58:01Z</time>
      </trkpt>
      <trkpt lat="46.6547" lon="5.61335">
        <ele>456.7</ele>
        <time>2022-03-29T09:58:06Z</time>
      </trkpt>
      <trkpt lat="46.65467" lon="5.61329">
        <ele>458.9</ele>
        <time>2022-03-29T09:58:16Z</time>
      </trkpt>
      <trkpt lat="46.65465" lon="5.61322">
        <ele>463.6</ele>
        <time>2022-03-29T09:58:36Z</time>
      </trkpt>
      <trkpt lat="46.65465" lon="5.6133">
        <ele>467.7</ele>
        <time>2022-03-29T09:58:45Z</time>
      </trkpt>
      <trkpt lat="46.65467" lon="5.61336">
        <ele>469.7</ele>
        <time>2022-03-29T09:58:50Z</time>
      </trkpt>
      <trkpt lat="46.65469" lon="5.61342">
        <ele>471.9</ele>
        <time>2022-03-29T09:58:55Z</time>
      </trkpt>
      <trkpt lat="46.65473" lon="5.61347">
        <ele>473.7</ele>
        <time>2022-03-29T09:58:59Z</time>
      </trkpt>
      <trkpt lat="46.65476" lon="5.61352">
        <ele>476.3</ele>
        <time>2022-03-29T09:59:05Z</time>
      </trkpt>
      <trkpt lat="46.65478" lon="5.61359">
        <ele>479.3</ele>
        <time>2022-03-29T09:59:12Z</time>
      </trkpt>
      <trkpt lat="46.65481" lon="5.61363">
        <ele>482.3</ele>
        <time>2022-03-29T09:59:18Z</time>
      </trkpt>
      <trkpt lat="46.65483" lon="5.6137">
        <ele>483.8</ele>
        <time>2022-03-29T09:59:24Z</time>
      </trkpt>
      <trkpt lat="46.65485" lon="5.61376">
        <ele>485.1</ele>
        <time>2022-03-29T09:59:34Z</time>
      </trkpt>
      <trkpt lat="46.65489" lon="5.6138">
        <ele>485.9</ele>
        <time>2022-03-29T09:59:42Z</time>
      </trkpt>
      <trkpt lat="46.65492" lon="5.61385">
        <ele>487.9</ele>
        <time>2022-03-29T09:59:49Z</time>
      </trkpt>
      <trkpt lat="46.6549" lon="5.61392">
        <ele>491.5</ele>
        <time>2022-03-29T10:00:03Z</time>
      </trkpt>
      <trkpt lat="46.65489" lon="5.61399">
        <ele>492.3</ele>
        <time>2022-03-29T10:00:12Z</time>
      </trkpt>
      <trkpt lat="46.65492" lon="5.61404">
        <ele>491.8</ele>
        <time>2022-03-29T10:00:20Z</time>
      </trkpt>
      <trkpt lat="46.65493" lon="5.6141">
        <ele>491.4</ele>
        <time>2022-03-29T10:00:29Z</time>
      </trkpt>
      <trkpt lat="46.6549" lon="5.61415">
        <ele>492.7</ele>
        <time>2022-03-29T10:00:39Z</time>
      </trkpt>
      <trkpt lat="46.65487" lon="5.61422">
        <ele>493.5</ele>
        <time>2022-03-29T10:00:49Z</time>
      </trkpt>
      <trkpt lat="46.65484" lon="5.61428">
        <ele>492.6</ele>
        <time>2022-03-29T10:00:58Z</time>
      </trkpt>
      <trkpt lat="46.65485" lon="5.61435">
        <ele>492.1</ele>
        <time>2022-03-29T10:01:09Z</time>
      </trkpt>
      <trkpt lat="46.65488" lon="5.6144">
        <ele>492.1</ele>
        <time>2022-03-29T10:01:20Z</time>
      </trkpt>
      <trkpt lat="46.65492" lon="5.61446">
        <ele>492</ele>
        <time>2022-03-29T10:01:24Z</time>
      </trkpt>
      <trkpt lat="46.65496" lon="5.61451">
        <ele>492</ele>
        <time>2022-03-29T10:01:28Z</time>
      </trkpt>
      <trkpt lat="46.65501" lon="5.61458">
        <ele>492.1</ele>
        <time>2022-03-29T10:01:46Z</time>
      </trkpt>
      <trkpt lat="46.65506" lon="5.61461">
        <ele>492.4</ele>
        <time>2022-03-29T10:01:49Z</time>
      </trkpt>
      <trkpt lat="46.65511" lon="5.61461">
        <ele>492.8</ele>
        <time>2022-03-29T10:01:54Z</time>
      </trkpt>
      <trkpt lat="46.65518" lon="5.61463">
        <ele>494.5</ele>
        <time>2022-03-29T10:02:17Z</time>
      </trkpt>
      <trkpt lat="46.65525" lon="5.61469">
        <ele>496.7</ele>
        <time>2022-03-29T10:02:46Z</time>
      </trkpt>
      <trkpt lat="46.6553" lon="5.61472">
        <ele>496.9</ele>
        <time>2022-03-29T10:02:49Z</time>
      </trkpt>
      <trkpt lat="46.65534" lon="5.61476">
        <ele>497.4</ele>
        <time>2022-03-29T10:02:54Z</time>
      </trkpt>
      <trkpt lat="46.65535" lon="5.61482">
        <ele>498.5</ele>
        <time>2022-03-29T10:03:06Z</time>
      </trkpt>
      <trkpt lat="46.65538" lon="5.61488">
        <ele>499.5</ele>
        <time>2022-03-29T10:03:15Z</time>
      </trkpt>
      <trkpt lat="46.65543" lon="5.6149">
        <ele>500.4</ele>
        <time>2022-03-29T10:03:27Z</time>
      </trkpt>
      <trkpt lat="46.65548" lon="5.61491">
        <ele>500.4</ele>
        <time>2022-03-29T10:03:33Z</time>
      </trkpt>
      <trkpt lat="46.65553" lon="5.6149">
        <ele>500.8</ele>
        <time>2022-03-29T10:03:37Z</time>
      </trkpt>
      <trkpt lat="46.65558" lon="5.61492">
        <ele>501.2</ele>
        <time>2022-03-29T10:03:44Z</time>
      </trkpt>
      <trkpt lat="46.65562" lon="5.61499">
        <ele>500.4</ele>
        <time>2022-03-29T10:04:11Z</time>
      </trkpt>
      <trkpt lat="46.65564" lon="5.61504">
        <ele>498.6</ele>
        <time>2022-03-29T10:04:19Z</time>
      </trkpt>
      <trkpt lat="46.65565" lon="5.61497">
        <ele>493</ele>
        <time>2022-03-29T10:05:08Z</time>
      </trkpt>
      <trkpt lat="46.6557" lon="5.61494">
        <ele>494.5</ele>
        <time>2022-03-29T10:05:35Z</time>
      </trkpt>
      <trkpt lat="46.65574" lon="5.6149">
        <ele>494.7</ele>
        <time>2022-03-29T10:05:41Z</time>
      </trkpt>
      <trkpt lat="46.65574" lon="5.61483">
        <ele>495</ele>
        <time>2022-03-29T10:06:04Z</time>
      </trkpt>
      <trkpt lat="46.65575" lon="5.61476">
        <ele>495.5</ele>
        <time>2022-03-29T10:06:11Z</time>
      </trkpt>
      <trkpt lat="46.65579" lon="5.61478">
        <ele>497.2</ele>
        <time>2022-03-29T10:06:26Z</time>
      </trkpt>
      <trkpt lat="46.65582" lon="5.61483">
        <ele>499.6</ele>
        <time>2022-03-29T10:06:45Z</time>
      </trkpt>
      <trkpt lat="46.65587" lon="5.61486">
        <ele>500.5</ele>
        <time>2022-03-29T10:06:51Z</time>
      </trkpt>
      <trkpt lat="46.65585" lon="5.61492">
        <ele>502.5</ele>
        <time>2022-03-29T10:07:02Z</time>
      </trkpt>
      <trkpt lat="46.65588" lon="5.61498">
        <ele>503</ele>
        <time>2022-03-29T10:07:10Z</time>
      </trkpt>
      <trkpt lat="46.65589" lon="5.61505">
        <ele>502.6</ele>
        <time>2022-03-29T10:07:55Z</time>
      </trkpt>
      <trkpt lat="46.65594" lon="5.61504">
        <ele>501.6</ele>
        <time>2022-03-29T10:08:05Z</time>
      </trkpt>
      <trkpt lat="46.65589" lon="5.61504">
        <ele>499.3</ele>
        <time>2022-03-29T10:08:25Z</time>
      </trkpt>
      <trkpt lat="46.65594" lon="5.61502">
        <ele>500.1</ele>
        <time>2022-03-29T10:09:39Z</time>
      </trkpt>
      <trkpt lat="46.65599" lon="5.615">
        <ele>501.1</ele>
        <time>2022-03-29T10:09:44Z</time>
      </trkpt>
      <trkpt lat="46.65604" lon="5.61498">
        <ele>502</ele>
        <time>2022-03-29T10:09:57Z</time>
      </trkpt>
      <trkpt lat="46.65606" lon="5.61491">
        <ele>502.8</ele>
        <time>2022-03-29T10:10:14Z</time>
      </trkpt>
      <trkpt lat="46.65604" lon="5.61484">
        <ele>505.2</ele>
        <time>2022-03-29T10:10:23Z</time>
      </trkpt>
      <trkpt lat="46.65607" lon="5.61478">
        <ele>507.5</ele>
        <time>2022-03-29T10:10:30Z</time>
      </trkpt>
      <trkpt lat="46.6561" lon="5.61474">
        <ele>510.8</ele>
        <time>2022-03-29T10:10:39Z</time>
      </trkpt>
      <trkpt lat="46.65612" lon="5.61468">
        <ele>513.9</ele>
        <time>2022-03-29T10:10:47Z</time>
      </trkpt>
      <trkpt lat="46.65613" lon="5.61461">
        <ele>515.6</ele>
        <time>2022-03-29T10:10:54Z</time>
      </trkpt>
      <trkpt lat="46.65614" lon="5.61454">
        <ele>517.2</ele>
        <time>2022-03-29T10:11:02Z</time>
      </trkpt>
      <trkpt lat="46.65615" lon="5.61447">
        <ele>519.1</ele>
        <time>2022-03-29T10:11:15Z</time>
      </trkpt>
      <trkpt lat="46.65617" lon="5.6144">
        <ele>519.9</ele>
        <time>2022-03-29T10:11:22Z</time>
      </trkpt>
      <trkpt lat="46.65618" lon="5.61433">
        <ele>520.3</ele>
        <time>2022-03-29T10:11:27Z</time>
      </trkpt>
      <trkpt lat="46.65621" lon="5.61426">
        <ele>520.9</ele>
        <time>2022-03-29T10:11:32Z</time>
      </trkpt>
      <trkpt lat="46.65623" lon="5.6142">
        <ele>524.6</ele>
        <time>2022-03-29T10:11:51Z</time>
      </trkpt>
      <trkpt lat="46.65625" lon="5.61414">
        <ele>527.1</ele>
        <time>2022-03-29T10:12:02Z</time>
      </trkpt>
      <trkpt lat="46.65628" lon="5.61408">
        <ele>528.6</ele>
        <time>2022-03-29T10:12:10Z</time>
      </trkpt>
      <trkpt lat="46.65632" lon="5.61404">
        <ele>529.7</ele>
        <time>2022-03-29T10:12:17Z</time>
      </trkpt>
      <trkpt lat="46.65633" lon="5.61397">
        <ele>530.9</ele>
        <time>2022-03-29T10:12:26Z</time>
      </trkpt>
      <trkpt lat="46.65631" lon="5.61391">
        <ele>531.3</ele>
        <time>2022-03-29T10:12:30Z</time>
      </trkpt>
      <trkpt lat="46.65628" lon="5.61386">
        <ele>531.5</ele>
        <time>2022-03-29T10:12:34Z</time>
      </trkpt>
      <trkpt lat="46.65624" lon="5.61382">
        <ele>531.9</ele>
        <time>2022-03-29T10:12:39Z</time>
      </trkpt>
      <trkpt lat="46.65622" lon="5.61375">
        <ele>531.9</ele>
        <time>2022-03-29T10:12:44Z</time>
      </trkpt>
      <trkpt lat="46.65622" lon="5.61368">
        <ele>531.7</ele>
        <time>2022-03-29T10:12:48Z</time>
      </trkpt>
      <trkpt lat="46.65624" lon="5.61361">
        <ele>531.4</ele>
        <time>2022-03-29T10:12:53Z</time>
      </trkpt>
      <trkpt lat="46.65627" lon="5.61356">
        <ele>531.3</ele>
        <time>2022-03-29T10:12:58Z</time>
      </trkpt>
      <trkpt lat="46.6563" lon="5.61351">
        <ele>531.2</ele>
        <time>2022-03-29T10:13:04Z</time>
      </trkpt>
      <trkpt lat="46.65633" lon="5.61346">
        <ele>530.7</ele>
        <time>2022-03-29T10:13:11Z</time>
      </trkpt>
      <trkpt lat="46.65637" lon="5.61343">
        <ele>530.3</ele>
        <time>2022-03-29T10:13:17Z</time>
      </trkpt>
      <trkpt lat="46.65641" lon="5.61337">
        <ele>529.9</ele>
        <time>2022-03-29T10:13:23Z</time>
      </trkpt>
      <trkpt lat="46.65642" lon="5.61331">
        <ele>529.6</ele>
        <time>2022-03-29T10:13:28Z</time>
      </trkpt>
      <trkpt lat="46.65639" lon="5.61324">
        <ele>529.1</ele>
        <time>2022-03-29T10:13:34Z</time>
      </trkpt>
      <trkpt lat="46.65638" lon="5.61317">
        <ele>528.7</ele>
        <time>2022-03-29T10:13:39Z</time>
      </trkpt>
      <trkpt lat="46.65642" lon="5.61311">
        <ele>527.7</ele>
        <time>2022-03-29T10:13:45Z</time>
      </trkpt>
      <trkpt lat="46.65645" lon="5.61304">
        <ele>521.3</ele>
        <time>2022-03-29T10:14:40Z</time>
      </trkpt>
      <trkpt lat="46.6565" lon="5.61299">
        <ele>519.7</ele>
        <time>2022-03-29T10:14:55Z</time>
      </trkpt>
      <trkpt lat="46.65655" lon="5.613">
        <ele>519.5</ele>
        <time>2022-03-29T10:14:59Z</time>
      </trkpt>
      <trkpt lat="46.65659" lon="5.61298">
        <ele>519.1</ele>
        <time>2022-03-29T10:15:05Z</time>
      </trkpt>
      <trkpt lat="46.65665" lon="5.61298">
        <ele>518.5</ele>
        <time>2022-03-29T10:15:12Z</time>
      </trkpt>
      <trkpt lat="46.65669" lon="5.61296">
        <ele>518.2</ele>
        <time>2022-03-29T10:15:18Z</time>
      </trkpt>
      <trkpt lat="46.65674" lon="5.61294">
        <ele>517.3</ele>
        <time>2022-03-29T10:15:25Z</time>
      </trkpt>
      <trkpt lat="46.65678" lon="5.61289">
        <ele>516.7</ele>
        <time>2022-03-29T10:15:30Z</time>
      </trkpt>
      <trkpt lat="46.65681" lon="5.61284">
        <ele>516.5</ele>
        <time>2022-03-29T10:15:34Z</time>
      </trkpt>
      <trkpt lat="46.65684" lon="5.61279">
        <ele>516.4</ele>
        <time>2022-03-29T10:15:39Z</time>
      </trkpt>
      <trkpt lat="46.65688" lon="5.61274">
        <ele>516.4</ele>
        <time>2022-03-29T10:15:48Z</time>
      </trkpt>
      <trkpt lat="46.65692" lon="5.6127">
        <ele>515.8</ele>
        <time>2022-03-29T10:15:55Z</time>
      </trkpt>
      <trkpt lat="46.65696" lon="5.61266">
        <ele>515.1</ele>
        <time>2022-03-29T10:16:01Z</time>
      </trkpt>
      <trkpt lat="46.657" lon="5.6126">
        <ele>514.3</ele>
        <time>2022-03-29T10:16:09Z</time>
      </trkpt>
      <trkpt lat="46.65703" lon="5.61253">
        <ele>513.8</ele>
        <time>2022-03-29T10:16:26Z</time>
      </trkpt>
      <trkpt lat="46.65707" lon="5.61248">
        <ele>513.5</ele>
        <time>2022-03-29T10:16:29Z</time>
      </trkpt>
      <trkpt lat="46.65711" lon="5.61245">
        <ele>513</ele>
        <time>2022-03-29T10:16:33Z</time>
      </trkpt>
      <trkpt lat="46.65716" lon="5.6124">
        <ele>512.6</ele>
        <time>2022-03-29T10:16:39Z</time>
      </trkpt>
      <trkpt lat="46.65721" lon="5.61236">
        <ele>512.4</ele>
        <time>2022-03-29T10:16:43Z</time>
      </trkpt>
      <trkpt lat="46.65726" lon="5.61234">
        <ele>512.2</ele>
        <time>2022-03-29T10:16:47Z</time>
      </trkpt>
      <trkpt lat="46.65731" lon="5.61232">
        <ele>511.8</ele>
        <time>2022-03-29T10:16:52Z</time>
      </trkpt>
      <trkpt lat="46.65735" lon="5.6123">
        <ele>511.5</ele>
        <time>2022-03-29T10:16:58Z</time>
      </trkpt>
      <trkpt lat="46.65738" lon="5.61224">
        <ele>512.2</ele>
        <time>2022-03-29T10:17:50Z</time>
      </trkpt>
      <trkpt lat="46.65742" lon="5.61222">
        <ele>513.7</ele>
        <time>2022-03-29T10:17:58Z</time>
      </trkpt>
      <trkpt lat="46.65747" lon="5.61223">
        <ele>513.7</ele>
        <time>2022-03-29T10:18:05Z</time>
      </trkpt>
      <trkpt lat="46.65753" lon="5.61221">
        <ele>513.5</ele>
        <time>2022-03-29T10:18:19Z</time>
      </trkpt>
      <trkpt lat="46.65758" lon="5.61219">
        <ele>513.4</ele>
        <time>2022-03-29T10:18:22Z</time>
      </trkpt>
      <trkpt lat="46.65763" lon="5.61216">
        <ele>512.9</ele>
        <time>2022-03-29T10:18:30Z</time>
      </trkpt>
      <trkpt lat="46.65768" lon="5.61215">
        <ele>512.5</ele>
        <time>2022-03-29T10:18:33Z</time>
      </trkpt>
      <trkpt lat="46.65774" lon="5.61211">
        <ele>511.1</ele>
        <time>2022-03-29T10:18:52Z</time>
      </trkpt>
      <trkpt lat="46.65779" lon="5.61209">
        <ele>510.5</ele>
        <time>2022-03-29T10:18:57Z</time>
      </trkpt>
      <trkpt lat="46.65783" lon="5.61204">
        <ele>508.6</ele>
        <time>2022-03-29T10:19:15Z</time>
      </trkpt>
      <trkpt lat="46.65787" lon="5.61201">
        <ele>507.3</ele>
        <time>2022-03-29T10:19:19Z</time>
      </trkpt>
      <trkpt lat="46.65791" lon="5.612">
        <ele>505.1</ele>
        <time>2022-03-29T10:19:26Z</time>
      </trkpt>
      <trkpt lat="46.65796" lon="5.61199">
        <ele>503.4</ele>
        <time>2022-03-29T10:19:33Z</time>
      </trkpt>
      <trkpt lat="46.65802" lon="5.61199">
        <ele>502</ele>
        <time>2022-03-29T10:19:39Z</time>
      </trkpt>
      <trkpt lat="46.65808" lon="5.61197">
        <ele>499.8</ele>
        <time>2022-03-29T10:19:55Z</time>
      </trkpt>
      <trkpt lat="46.65812" lon="5.61195">
        <ele>499</ele>
        <time>2022-03-29T10:19:57Z</time>
      </trkpt>
      <trkpt lat="46.65821" lon="5.61194">
        <ele>496.1</ele>
        <time>2022-03-29T10:20:07Z</time>
      </trkpt>
      <trkpt lat="46.65825" lon="5.61195">
        <ele>495.5</ele>
        <time>2022-03-29T10:20:09Z</time>
      </trkpt>
      <trkpt lat="46.65831" lon="5.61196">
        <ele>494.4</ele>
        <time>2022-03-29T10:20:13Z</time>
      </trkpt>
      <trkpt lat="46.65836" lon="5.61199">
        <ele>493</ele>
        <time>2022-03-29T10:20:18Z</time>
      </trkpt>
      <trkpt lat="46.65841" lon="5.612">
        <ele>492</ele>
        <time>2022-03-29T10:20:25Z</time>
      </trkpt>
      <trkpt lat="46.65845" lon="5.61204">
        <ele>491.4</ele>
        <time>2022-03-29T10:20:31Z</time>
      </trkpt>
      <trkpt lat="46.6585" lon="5.61208">
        <ele>490.5</ele>
        <time>2022-03-29T10:20:53Z</time>
      </trkpt>
      <trkpt lat="46.65855" lon="5.61211">
        <ele>490.1</ele>
        <time>2022-03-29T10:20:56Z</time>
      </trkpt>
      <trkpt lat="46.65862" lon="5.61212">
        <ele>489.4</ele>
        <time>2022-03-29T10:21:07Z</time>
      </trkpt>
      <trkpt lat="46.65867" lon="5.61213">
        <ele>489.2</ele>
        <time>2022-03-29T10:21:09Z</time>
      </trkpt>
      <trkpt lat="46.65873" lon="5.61215">
        <ele>489</ele>
        <time>2022-03-29T10:21:12Z</time>
      </trkpt>
      <trkpt lat="46.65878" lon="5.61216">
        <ele>488.7</ele>
        <time>2022-03-29T10:21:16Z</time>
      </trkpt>
      <trkpt lat="46.65883" lon="5.61218">
        <ele>488.3</ele>
        <time>2022-03-29T10:21:24Z</time>
      </trkpt>
      <trkpt lat="46.65887" lon="5.61222">
        <ele>487.4</ele>
        <time>2022-03-29T10:21:30Z</time>
      </trkpt>
      <trkpt lat="46.65892" lon="5.61225">
        <ele>487</ele>
        <time>2022-03-29T10:21:35Z</time>
      </trkpt>
      <trkpt lat="46.65897" lon="5.61226">
        <ele>486.7</ele>
        <time>2022-03-29T10:21:44Z</time>
      </trkpt>
      <trkpt lat="46.65903" lon="5.61227">
        <ele>486</ele>
        <time>2022-03-29T10:21:55Z</time>
      </trkpt>
      <trkpt lat="46.65908" lon="5.61226">
        <ele>485.1</ele>
        <time>2022-03-29T10:21:59Z</time>
      </trkpt>
      <trkpt lat="46.65912" lon="5.61226">
        <ele>484.2</ele>
        <time>2022-03-29T10:22:06Z</time>
      </trkpt>
      <trkpt lat="46.65918" lon="5.61227">
        <ele>483.4</ele>
        <time>2022-03-29T10:22:19Z</time>
      </trkpt>
      <trkpt lat="46.65926" lon="5.61227">
        <ele>481.4</ele>
        <time>2022-03-29T10:22:39Z</time>
      </trkpt>
      <trkpt lat="46.65931" lon="5.61226">
        <ele>481.3</ele>
        <time>2022-03-29T10:22:42Z</time>
      </trkpt>
      <trkpt lat="46.65937" lon="5.6122">
        <ele>481</ele>
        <time>2022-03-29T10:22:59Z</time>
      </trkpt>
      <trkpt lat="46.65941" lon="5.61218">
        <ele>480.6</ele>
        <time>2022-03-29T10:23:01Z</time>
      </trkpt>
      <trkpt lat="46.65946" lon="5.61217">
        <ele>480</ele>
        <time>2022-03-29T10:23:05Z</time>
      </trkpt>
      <trkpt lat="46.65951" lon="5.61217">
        <ele>479</ele>
        <time>2022-03-29T10:23:16Z</time>
      </trkpt>
      <trkpt lat="46.65955" lon="5.6122">
        <ele>478.2</ele>
        <time>2022-03-29T10:23:22Z</time>
      </trkpt>
      <trkpt lat="46.65962" lon="5.61225">
        <ele>475.8</ele>
        <time>2022-03-29T10:23:41Z</time>
      </trkpt>
      <trkpt lat="46.65967" lon="5.61226">
        <ele>474.7</ele>
        <time>2022-03-29T10:23:44Z</time>
      </trkpt>
      <trkpt lat="46.65971" lon="5.61222">
        <ele>473</ele>
        <time>2022-03-29T10:23:50Z</time>
      </trkpt>
      <trkpt lat="46.65975" lon="5.61219">
        <ele>471.3</ele>
        <time>2022-03-29T10:24:02Z</time>
      </trkpt>
      <trkpt lat="46.6598" lon="5.61218">
        <ele>470.9</ele>
        <time>2022-03-29T10:24:08Z</time>
      </trkpt>
      <trkpt lat="46.65985" lon="5.61217">
        <ele>470.9</ele>
        <time>2022-03-29T10:24:14Z</time>
      </trkpt>
      <trkpt lat="46.65989" lon="5.61219">
        <ele>470.8</ele>
        <time>2022-03-29T10:24:22Z</time>
      </trkpt>
      <trkpt lat="46.65994" lon="5.6122">
        <ele>470.9</ele>
        <time>2022-03-29T10:24:30Z</time>
      </trkpt>
      <trkpt lat="46.65998" lon="5.61222">
        <ele>470.1</ele>
        <time>2022-03-29T10:24:40Z</time>
      </trkpt>
      <trkpt lat="46.66002" lon="5.61225">
        <ele>469</ele>
        <time>2022-03-29T10:24:48Z</time>
      </trkpt>
      <trkpt lat="46.66006" lon="5.61229">
        <ele>467.5</ele>
        <time>2022-03-29T10:24:59Z</time>
      </trkpt>
      <trkpt lat="46.6601" lon="5.61235">
        <ele>466.8</ele>
        <time>2022-03-29T10:25:13Z</time>
      </trkpt>
      <trkpt lat="46.66014" lon="5.61239">
        <ele>466.4</ele>
        <time>2022-03-29T10:25:17Z</time>
      </trkpt>
      <trkpt lat="46.66019" lon="5.61241">
        <ele>465.3</ele>
        <time>2022-03-29T10:25:23Z</time>
      </trkpt>
      <trkpt lat="46.66023" lon="5.61245">
        <ele>463.9</ele>
        <time>2022-03-29T10:25:31Z</time>
      </trkpt>
      <trkpt lat="46.66028" lon="5.61249">
        <ele>463.8</ele>
        <time>2022-03-29T10:25:39Z</time>
      </trkpt>
      <trkpt lat="46.66036" lon="5.61253">
        <ele>465.2</ele>
        <time>2022-03-29T10:25:56Z</time>
      </trkpt>
      <trkpt lat="46.6604" lon="5.61254">
        <ele>465.7</ele>
        <time>2022-03-29T10:25:58Z</time>
      </trkpt>
      <trkpt lat="46.66045" lon="5.61254">
        <ele>466.8</ele>
        <time>2022-03-29T10:26:03Z</time>
      </trkpt>
      <trkpt lat="46.66054" lon="5.61255">
        <ele>467.9</ele>
        <time>2022-03-29T10:26:25Z</time>
      </trkpt>
      <trkpt lat="46.66058" lon="5.61257">
        <ele>467.8</ele>
        <time>2022-03-29T10:26:29Z</time>
      </trkpt>
      <trkpt lat="46.66064" lon="5.61255">
        <ele>467.1</ele>
        <time>2022-03-29T10:26:52Z</time>
      </trkpt>
      <trkpt lat="46.66068" lon="5.61252">
        <ele>466.6</ele>
        <time>2022-03-29T10:26:55Z</time>
      </trkpt>
      <trkpt lat="46.66074" lon="5.6125">
        <ele>465.5</ele>
        <time>2022-03-29T10:27:13Z</time>
      </trkpt>
      <trkpt lat="46.66079" lon="5.61249">
        <ele>465.1</ele>
        <time>2022-03-29T10:27:17Z</time>
      </trkpt>
      <trkpt lat="46.66083" lon="5.61254">
        <ele>466</ele>
        <time>2022-03-29T10:27:42Z</time>
      </trkpt>
      <trkpt lat="46.66087" lon="5.61259">
        <ele>468.2</ele>
        <time>2022-03-29T10:27:48Z</time>
      </trkpt>
      <trkpt lat="46.66092" lon="5.61261">
        <ele>470.3</ele>
        <time>2022-03-29T10:27:51Z</time>
      </trkpt>
      <trkpt lat="46.66097" lon="5.61262">
        <ele>474.6</ele>
        <time>2022-03-29T10:27:57Z</time>
      </trkpt>
      <trkpt lat="46.66101" lon="5.61267">
        <ele>480.5</ele>
        <time>2022-03-29T10:28:06Z</time>
      </trkpt>
      <trkpt lat="46.66097" lon="5.61272">
        <ele>486.4</ele>
        <time>2022-03-29T10:28:16Z</time>
      </trkpt>
      <trkpt lat="46.66102" lon="5.61274">
        <ele>491.2</ele>
        <time>2022-03-29T10:28:33Z</time>
      </trkpt>
      <trkpt lat="46.66107" lon="5.61273">
        <ele>492.1</ele>
        <time>2022-03-29T10:28:39Z</time>
      </trkpt>
      <trkpt lat="46.6611" lon="5.61278">
        <ele>496.8</ele>
        <time>2022-03-29T10:29:16Z</time>
      </trkpt>
      <trkpt lat="46.6611" lon="5.61285">
        <ele>497.9</ele>
        <time>2022-03-29T10:29:24Z</time>
      </trkpt>
      <trkpt lat="46.6611" lon="5.61292">
        <ele>499.9</ele>
        <time>2022-03-29T10:29:32Z</time>
      </trkpt>
      <trkpt lat="46.66112" lon="5.61301">
        <ele>502.8</ele>
        <time>2022-03-29T10:29:45Z</time>
      </trkpt>
      <trkpt lat="46.66115" lon="5.61307">
        <ele>503.5</ele>
        <time>2022-03-29T10:29:47Z</time>
      </trkpt>
      <trkpt lat="46.66116" lon="5.61313">
        <ele>504.7</ele>
        <time>2022-03-29T10:29:51Z</time>
      </trkpt>
      <trkpt lat="46.66121" lon="5.6132">
        <ele>505.5</ele>
        <time>2022-03-29T10:30:03Z</time>
      </trkpt>
      <trkpt lat="46.66125" lon="5.61324">
        <ele>505.1</ele>
        <time>2022-03-29T10:30:06Z</time>
      </trkpt>
      <trkpt lat="46.66132" lon="5.61328">
        <ele>505.1</ele>
        <time>2022-03-29T10:30:16Z</time>
      </trkpt>
      <trkpt lat="46.66137" lon="5.61329">
        <ele>505.6</ele>
        <time>2022-03-29T10:30:19Z</time>
      </trkpt>
      <trkpt lat="46.66142" lon="5.61332">
        <ele>506.1</ele>
        <time>2022-03-29T10:30:25Z</time>
      </trkpt>
      <trkpt lat="46.66146" lon="5.61337">
        <ele>505.8</ele>
        <time>2022-03-29T10:30:30Z</time>
      </trkpt>
      <trkpt lat="46.6615" lon="5.61336">
        <ele>504.8</ele>
        <time>2022-03-29T10:30:36Z</time>
      </trkpt>
      <trkpt lat="46.66155" lon="5.61335">
        <ele>503.2</ele>
        <time>2022-03-29T10:30:44Z</time>
      </trkpt>
      <trkpt lat="46.6616" lon="5.61333">
        <ele>501.7</ele>
        <time>2022-03-29T10:30:52Z</time>
      </trkpt>
      <trkpt lat="46.66168" lon="5.61337">
        <ele>498.2</ele>
        <time>2022-03-29T10:31:14Z</time>
      </trkpt>
      <trkpt lat="46.66172" lon="5.6134">
        <ele>497.7</ele>
        <time>2022-03-29T10:31:17Z</time>
      </trkpt>
      <trkpt lat="46.66178" lon="5.6134">
        <ele>496.4</ele>
        <time>2022-03-29T10:31:24Z</time>
      </trkpt>
      <trkpt lat="46.66184" lon="5.61339">
        <ele>495.8</ele>
        <time>2022-03-29T10:31:27Z</time>
      </trkpt>
      <trkpt lat="46.66188" lon="5.61341">
        <ele>494.3</ele>
        <time>2022-03-29T10:31:35Z</time>
      </trkpt>
      <trkpt lat="46.66192" lon="5.61343">
        <ele>492.3</ele>
        <time>2022-03-29T10:31:50Z</time>
      </trkpt>
      <trkpt lat="46.66196" lon="5.61347">
        <ele>490.6</ele>
        <time>2022-03-29T10:31:53Z</time>
      </trkpt>
      <trkpt lat="46.66201" lon="5.61349">
        <ele>489</ele>
        <time>2022-03-29T10:31:56Z</time>
      </trkpt>
      <trkpt lat="46.66206" lon="5.6135">
        <ele>488</ele>
        <time>2022-03-29T10:31:59Z</time>
      </trkpt>
      <trkpt lat="46.66211" lon="5.61352">
        <ele>487.6</ele>
        <time>2022-03-29T10:32:02Z</time>
      </trkpt>
      <trkpt lat="46.66216" lon="5.61353">
        <ele>488.1</ele>
        <time>2022-03-29T10:32:07Z</time>
      </trkpt>
      <trkpt lat="46.66221" lon="5.61354">
        <ele>489</ele>
        <time>2022-03-29T10:32:14Z</time>
      </trkpt>
      <trkpt lat="46.66227" lon="5.61354">
        <ele>489.8</ele>
        <time>2022-03-29T10:32:18Z</time>
      </trkpt>
      <trkpt lat="46.66231" lon="5.61354">
        <ele>490.4</ele>
        <time>2022-03-29T10:32:25Z</time>
      </trkpt>
      <trkpt lat="46.66229" lon="5.61347">
        <ele>489.1</ele>
        <time>2022-03-29T10:32:37Z</time>
      </trkpt>
      <trkpt lat="46.66234" lon="5.6135">
        <ele>489.1</ele>
        <time>2022-03-29T10:32:55Z</time>
      </trkpt>
      <trkpt lat="46.66238" lon="5.61352">
        <ele>490.1</ele>
        <time>2022-03-29T10:33:00Z</time>
      </trkpt>
      <trkpt lat="46.66239" lon="5.61359">
        <ele>490.3</ele>
        <time>2022-03-29T10:33:09Z</time>
      </trkpt>
      <trkpt lat="46.6624" lon="5.61366">
        <ele>489.7</ele>
        <time>2022-03-29T10:33:15Z</time>
      </trkpt>
      <trkpt lat="46.66244" lon="5.61372">
        <ele>491</ele>
        <time>2022-03-29T10:33:25Z</time>
      </trkpt>
      <trkpt lat="46.66249" lon="5.61371">
        <ele>491.1</ele>
        <time>2022-03-29T10:33:36Z</time>
      </trkpt>
      <trkpt lat="46.66253" lon="5.61366">
        <ele>490.8</ele>
        <time>2022-03-29T10:33:45Z</time>
      </trkpt>
      <trkpt lat="46.66258" lon="5.61369">
        <ele>490.9</ele>
        <time>2022-03-29T10:33:50Z</time>
      </trkpt>
      <trkpt lat="46.6626" lon="5.61375">
        <ele>490.8</ele>
        <time>2022-03-29T10:33:56Z</time>
      </trkpt>
      <trkpt lat="46.66265" lon="5.61376">
        <ele>491.6</ele>
        <time>2022-03-29T10:34:03Z</time>
      </trkpt>
      <trkpt lat="46.6627" lon="5.61377">
        <ele>494</ele>
        <time>2022-03-29T10:34:09Z</time>
      </trkpt>
      <trkpt lat="46.66275" lon="5.61377">
        <ele>496.7</ele>
        <time>2022-03-29T10:34:22Z</time>
      </trkpt>
      <trkpt lat="46.6628" lon="5.61378">
        <ele>498.4</ele>
        <time>2022-03-29T10:34:26Z</time>
      </trkpt>
      <trkpt lat="46.66286" lon="5.6138">
        <ele>502.5</ele>
        <time>2022-03-29T10:35:00Z</time>
      </trkpt>
      <trkpt lat="46.6629" lon="5.61382">
        <ele>501.7</ele>
        <time>2022-03-29T10:35:04Z</time>
      </trkpt>
      <trkpt lat="46.66295" lon="5.61382">
        <ele>501.6</ele>
        <time>2022-03-29T10:35:08Z</time>
      </trkpt>
      <trkpt lat="46.663" lon="5.61383">
        <ele>502.4</ele>
        <time>2022-03-29T10:35:14Z</time>
      </trkpt>
      <trkpt lat="46.66305" lon="5.61383">
        <ele>503.1</ele>
        <time>2022-03-29T10:35:23Z</time>
      </trkpt>
      <trkpt lat="46.66309" lon="5.61383">
        <ele>503.4</ele>
        <time>2022-03-29T10:35:27Z</time>
      </trkpt>
      <trkpt lat="46.66313" lon="5.61377">
        <ele>501.6</ele>
        <time>2022-03-29T10:35:40Z</time>
      </trkpt>
      <trkpt lat="46.66318" lon="5.61377">
        <ele>499.4</ele>
        <time>2022-03-29T10:35:45Z</time>
      </trkpt>
      <trkpt lat="46.66322" lon="5.61378">
        <ele>498.3</ele>
        <time>2022-03-29T10:35:51Z</time>
      </trkpt>
      <trkpt lat="46.66327" lon="5.6138">
        <ele>498.2</ele>
        <time>2022-03-29T10:35:53Z</time>
      </trkpt>
      <trkpt lat="46.66333" lon="5.61381">
        <ele>498.2</ele>
        <time>2022-03-29T10:35:56Z</time>
      </trkpt>
      <trkpt lat="46.66338" lon="5.6138">
        <ele>498.3</ele>
        <time>2022-03-29T10:36:01Z</time>
      </trkpt>
      <trkpt lat="46.66344" lon="5.61379">
        <ele>498.2</ele>
        <time>2022-03-29T10:36:18Z</time>
      </trkpt>
      <trkpt lat="46.66349" lon="5.61379">
        <ele>498.7</ele>
        <time>2022-03-29T10:36:21Z</time>
      </trkpt>
      <trkpt lat="46.66354" lon="5.61378">
        <ele>499.8</ele>
        <time>2022-03-29T10:36:26Z</time>
      </trkpt>
      <trkpt lat="46.6636" lon="5.61377">
        <ele>500.5</ele>
        <time>2022-03-29T10:36:31Z</time>
      </trkpt>
      <trkpt lat="46.66364" lon="5.61375">
        <ele>499.3</ele>
        <time>2022-03-29T10:36:47Z</time>
      </trkpt>
      <trkpt lat="46.66369" lon="5.61369">
        <ele>498.2</ele>
        <time>2022-03-29T10:37:02Z</time>
      </trkpt>
      <trkpt lat="46.66372" lon="5.61365">
        <ele>498.3</ele>
        <time>2022-03-29T10:37:05Z</time>
      </trkpt>
      <trkpt lat="46.66376" lon="5.6136">
        <ele>498.1</ele>
        <time>2022-03-29T10:37:11Z</time>
      </trkpt>
      <trkpt lat="46.66381" lon="5.61358">
        <ele>497.8</ele>
        <time>2022-03-29T10:37:18Z</time>
      </trkpt>
      <trkpt lat="46.66386" lon="5.61359">
        <ele>497.1</ele>
        <time>2022-03-29T10:37:23Z</time>
      </trkpt>
      <trkpt lat="46.6639" lon="5.61356">
        <ele>496.8</ele>
        <time>2022-03-29T10:37:27Z</time>
      </trkpt>
      <trkpt lat="46.66395" lon="5.61355">
        <ele>495.9</ele>
        <time>2022-03-29T10:37:34Z</time>
      </trkpt>
      <trkpt lat="46.66399" lon="5.61352">
        <ele>495.1</ele>
        <time>2022-03-29T10:37:42Z</time>
      </trkpt>
      <trkpt lat="46.66404" lon="5.6135">
        <ele>494.6</ele>
        <time>2022-03-29T10:37:49Z</time>
      </trkpt>
      <trkpt lat="46.66407" lon="5.61345">
        <ele>494.3</ele>
        <time>2022-03-29T10:37:54Z</time>
      </trkpt>
      <trkpt lat="46.66412" lon="5.61341">
        <ele>494.7</ele>
        <time>2022-03-29T10:37:59Z</time>
      </trkpt>
      <trkpt lat="46.66416" lon="5.61338">
        <ele>495.6</ele>
        <time>2022-03-29T10:38:05Z</time>
      </trkpt>
      <trkpt lat="46.66421" lon="5.61339">
        <ele>498.2</ele>
        <time>2022-03-29T10:38:15Z</time>
      </trkpt>
      <trkpt lat="46.66423" lon="5.61333">
        <ele>499.9</ele>
        <time>2022-03-29T10:38:25Z</time>
      </trkpt>
      <trkpt lat="46.66427" lon="5.61328">
        <ele>500.6</ele>
        <time>2022-03-29T10:38:32Z</time>
      </trkpt>
      <trkpt lat="46.66429" lon="5.61323">
        <ele>501.8</ele>
        <time>2022-03-29T10:38:40Z</time>
      </trkpt>
      <trkpt lat="46.6643" lon="5.61316">
        <ele>503.3</ele>
        <time>2022-03-29T10:38:46Z</time>
      </trkpt>
      <trkpt lat="46.66431" lon="5.61309">
        <ele>505.2</ele>
        <time>2022-03-29T10:38:51Z</time>
      </trkpt>
      <trkpt lat="46.66435" lon="5.61305">
        <ele>507.1</ele>
        <time>2022-03-29T10:38:57Z</time>
      </trkpt>
      <trkpt lat="46.66439" lon="5.61299">
        <ele>508.9</ele>
        <time>2022-03-29T10:39:02Z</time>
      </trkpt>
      <trkpt lat="46.66442" lon="5.61295">
        <ele>510.7</ele>
        <time>2022-03-29T10:39:06Z</time>
      </trkpt>
      <trkpt lat="46.66445" lon="5.61289">
        <ele>514.5</ele>
        <time>2022-03-29T10:39:14Z</time>
      </trkpt>
      <trkpt lat="46.66449" lon="5.61284">
        <ele>517.9</ele>
        <time>2022-03-29T10:39:25Z</time>
      </trkpt>
      <trkpt lat="46.66449" lon="5.61276">
        <ele>519.1</ele>
        <time>2022-03-29T10:39:32Z</time>
      </trkpt>
      <trkpt lat="46.6645" lon="5.61269">
        <ele>520.3</ele>
        <time>2022-03-29T10:39:38Z</time>
      </trkpt>
      <trkpt lat="46.66453" lon="5.61263">
        <ele>521.7</ele>
        <time>2022-03-29T10:39:43Z</time>
      </trkpt>
      <trkpt lat="46.66453" lon="5.61256">
        <ele>522.8</ele>
        <time>2022-03-29T10:39:48Z</time>
      </trkpt>
      <trkpt lat="46.66455" lon="5.61249">
        <ele>523.4</ele>
        <time>2022-03-29T10:39:53Z</time>
      </trkpt>
      <trkpt lat="46.66458" lon="5.61243">
        <ele>523.4</ele>
        <time>2022-03-29T10:39:59Z</time>
      </trkpt>
      <trkpt lat="46.66462" lon="5.61238">
        <ele>523.3</ele>
        <time>2022-03-29T10:40:05Z</time>
      </trkpt>
      <trkpt lat="46.66465" lon="5.61233">
        <ele>522.8</ele>
        <time>2022-03-29T10:40:10Z</time>
      </trkpt>
      <trkpt lat="46.66469" lon="5.61228">
        <ele>523</ele>
        <time>2022-03-29T10:40:15Z</time>
      </trkpt>
      <trkpt lat="46.66472" lon="5.61224">
        <ele>523.4</ele>
        <time>2022-03-29T10:40:19Z</time>
      </trkpt>
      <trkpt lat="46.66475" lon="5.61218">
        <ele>524.5</ele>
        <time>2022-03-29T10:40:25Z</time>
      </trkpt>
      <trkpt lat="46.66475" lon="5.61211">
        <ele>527.8</ele>
        <time>2022-03-29T10:40:38Z</time>
      </trkpt>
      <trkpt lat="46.6648" lon="5.6121">
        <ele>529.5</ele>
        <time>2022-03-29T10:41:02Z</time>
      </trkpt>
      <trkpt lat="46.66484" lon="5.61214">
        <ele>529.2</ele>
        <time>2022-03-29T10:41:09Z</time>
      </trkpt>
      <trkpt lat="46.66482" lon="5.6122">
        <ele>529.5</ele>
        <time>2022-03-29T10:41:24Z</time>
      </trkpt>
      <trkpt lat="46.66477" lon="5.61222">
        <ele>529.7</ele>
        <time>2022-03-29T10:41:30Z</time>
      </trkpt>
      <trkpt lat="46.66482" lon="5.61223">
        <ele>531.7</ele>
        <time>2022-03-29T10:41:50Z</time>
      </trkpt>
      <trkpt lat="46.66486" lon="5.61218">
        <ele>530.9</ele>
        <time>2022-03-29T10:41:56Z</time>
      </trkpt>
      <trkpt lat="46.6649" lon="5.61221">
        <ele>527.3</ele>
        <time>2022-03-29T10:42:06Z</time>
      </trkpt>
      <trkpt lat="46.6649" lon="5.61227">
        <ele>525.4</ele>
        <time>2022-03-29T10:42:17Z</time>
      </trkpt>
      <trkpt lat="46.6649" lon="5.61234">
        <ele>523</ele>
        <time>2022-03-29T10:42:34Z</time>
      </trkpt>
      <trkpt lat="46.66486" lon="5.61238">
        <ele>524.5</ele>
        <time>2022-03-29T10:42:44Z</time>
      </trkpt>
      <trkpt lat="46.66484" lon="5.61233">
        <ele>525</ele>
        <time>2022-03-29T10:42:52Z</time>
      </trkpt>
      <trkpt lat="46.66485" lon="5.61226">
        <ele>526.2</ele>
        <time>2022-03-29T10:43:00Z</time>
      </trkpt>
      <trkpt lat="46.66485" lon="5.6122">
        <ele>526.8</ele>
        <time>2022-03-29T10:43:28Z</time>
      </trkpt>
      <trkpt lat="46.66488" lon="5.61213">
        <ele>529.6</ele>
        <time>2022-03-29T10:43:43Z</time>
      </trkpt>
      <trkpt lat="46.66491" lon="5.61209">
        <ele>533.3</ele>
        <time>2022-03-29T10:43:54Z</time>
      </trkpt>
      <trkpt lat="46.66494" lon="5.61203">
        <ele>534.7</ele>
        <time>2022-03-29T10:44:00Z</time>
      </trkpt>
      <trkpt lat="46.66496" lon="5.61197">
        <ele>534</ele>
        <time>2022-03-29T10:44:07Z</time>
      </trkpt>
      <trkpt lat="46.66501" lon="5.61195">
        <ele>532.4</ele>
        <time>2022-03-29T10:44:14Z</time>
      </trkpt>
      <trkpt lat="46.66504" lon="5.6119">
        <ele>530.6</ele>
        <time>2022-03-29T10:44:24Z</time>
      </trkpt>
      <trkpt lat="46.66506" lon="5.61183">
        <ele>529.3</ele>
        <time>2022-03-29T10:44:32Z</time>
      </trkpt>
      <trkpt lat="46.66509" lon="5.61177">
        <ele>528.1</ele>
        <time>2022-03-29T10:44:39Z</time>
      </trkpt>
      <trkpt lat="46.66512" lon="5.61172">
        <ele>526.6</ele>
        <time>2022-03-29T10:44:44Z</time>
      </trkpt>
      <trkpt lat="46.66514" lon="5.61166">
        <ele>524.7</ele>
        <time>2022-03-29T10:44:49Z</time>
      </trkpt>
      <trkpt lat="46.66516" lon="5.61159">
        <ele>523.4</ele>
        <time>2022-03-29T10:44:54Z</time>
      </trkpt>
      <trkpt lat="46.66517" lon="5.61153">
        <ele>522.8</ele>
        <time>2022-03-29T10:45:00Z</time>
      </trkpt>
      <trkpt lat="46.66521" lon="5.61148">
        <ele>522.8</ele>
        <time>2022-03-29T10:45:05Z</time>
      </trkpt>
      <trkpt lat="46.66523" lon="5.61142">
        <ele>523</ele>
        <time>2022-03-29T10:45:10Z</time>
      </trkpt>
      <trkpt lat="46.66526" lon="5.61136">
        <ele>523</ele>
        <time>2022-03-29T10:45:15Z</time>
      </trkpt>
      <trkpt lat="46.66526" lon="5.61129">
        <ele>522.9</ele>
        <time>2022-03-29T10:45:19Z</time>
      </trkpt>
      <trkpt lat="46.66526" lon="5.61122">
        <ele>522.6</ele>
        <time>2022-03-29T10:45:24Z</time>
      </trkpt>
      <trkpt lat="46.66527" lon="5.61115">
        <ele>522.5</ele>
        <time>2022-03-29T10:45:28Z</time>
      </trkpt>
      <trkpt lat="46.66527" lon="5.61108">
        <ele>522.3</ele>
        <time>2022-03-29T10:45:33Z</time>
      </trkpt>
      <trkpt lat="46.66532" lon="5.61105">
        <ele>521.9</ele>
        <time>2022-03-29T10:45:40Z</time>
      </trkpt>
      <trkpt lat="46.66536" lon="5.611">
        <ele>521.6</ele>
        <time>2022-03-29T10:45:54Z</time>
      </trkpt>
      <trkpt lat="46.66537" lon="5.61087">
        <ele>522.4</ele>
        <time>2022-03-29T10:46:16Z</time>
      </trkpt>
      <trkpt lat="46.66537" lon="5.61079">
        <ele>522.2</ele>
        <time>2022-03-29T10:46:19Z</time>
      </trkpt>
      <trkpt lat="46.66536" lon="5.61073">
        <ele>521.3</ele>
        <time>2022-03-29T10:46:32Z</time>
      </trkpt>
      <trkpt lat="46.6654" lon="5.61067">
        <ele>522.8</ele>
        <time>2022-03-29T10:46:41Z</time>
      </trkpt>
      <trkpt lat="46.66542" lon="5.61061">
        <ele>522.8</ele>
        <time>2022-03-29T10:46:46Z</time>
      </trkpt>
      <trkpt lat="46.6654" lon="5.61055">
        <ele>523</ele>
        <time>2022-03-29T10:46:55Z</time>
      </trkpt>
      <trkpt lat="46.66535" lon="5.61053">
        <ele>522.8</ele>
        <time>2022-03-29T10:47:01Z</time>
      </trkpt>
      <trkpt lat="46.66531" lon="5.61056">
        <ele>522.8</ele>
        <time>2022-03-29T10:47:07Z</time>
      </trkpt>
      <trkpt lat="46.66528" lon="5.61062">
        <ele>523.9</ele>
        <time>2022-03-29T10:47:14Z</time>
      </trkpt>
      <trkpt lat="46.66527" lon="5.61069">
        <ele>525.9</ele>
        <time>2022-03-29T10:47:22Z</time>
      </trkpt>
      <trkpt lat="46.66521" lon="5.61069">
        <ele>524.5</ele>
        <time>2022-03-29T10:47:27Z</time>
      </trkpt>
      <trkpt lat="46.66516" lon="5.61072">
        <ele>522.7</ele>
        <time>2022-03-29T10:47:31Z</time>
      </trkpt>
      <trkpt lat="46.66511" lon="5.61071">
        <ele>520.9</ele>
        <time>2022-03-29T10:47:39Z</time>
      </trkpt>
      <trkpt lat="46.66515" lon="5.61073">
        <ele>518.9</ele>
        <time>2022-03-29T10:48:08Z</time>
      </trkpt>
      <trkpt lat="46.66518" lon="5.61079">
        <ele>518.6</ele>
        <time>2022-03-29T10:48:13Z</time>
      </trkpt>
      <trkpt lat="46.66514" lon="5.61079">
        <ele>519.7</ele>
        <time>2022-03-29T10:48:26Z</time>
      </trkpt>
      <trkpt lat="46.6651" lon="5.61073">
        <ele>517.4</ele>
        <time>2022-03-29T10:48:44Z</time>
      </trkpt>
      <trkpt lat="46.66505" lon="5.61068">
        <ele>517.2</ele>
        <time>2022-03-29T10:48:48Z</time>
      </trkpt>
      <trkpt lat="46.66502" lon="5.61063">
        <ele>517.1</ele>
        <time>2022-03-29T10:48:51Z</time>
      </trkpt>
      <trkpt lat="46.66498" lon="5.61057">
        <ele>516.7</ele>
        <time>2022-03-29T10:48:55Z</time>
      </trkpt>
      <trkpt lat="46.66497" lon="5.61049">
        <ele>516.4</ele>
        <time>2022-03-29T10:48:58Z</time>
      </trkpt>
      <trkpt lat="46.66497" lon="5.61042">
        <ele>515.9</ele>
        <time>2022-03-29T10:49:02Z</time>
      </trkpt>
      <trkpt lat="46.665" lon="5.61035">
        <ele>515.2</ele>
        <time>2022-03-29T10:49:07Z</time>
      </trkpt>
      <trkpt lat="46.66502" lon="5.61028">
        <ele>514.7</ele>
        <time>2022-03-29T10:49:13Z</time>
      </trkpt>
      <trkpt lat="46.66499" lon="5.61021">
        <ele>514.7</ele>
        <time>2022-03-29T10:49:19Z</time>
      </trkpt>
      <trkpt lat="46.66499" lon="5.61014">
        <ele>514.9</ele>
        <time>2022-03-29T10:49:25Z</time>
      </trkpt>
      <trkpt lat="46.66498" lon="5.61007">
        <ele>514.9</ele>
        <time>2022-03-29T10:49:29Z</time>
      </trkpt>
      <trkpt lat="46.66496" lon="5.60998">
        <ele>515</ele>
        <time>2022-03-29T10:49:32Z</time>
      </trkpt>
      <trkpt lat="46.66494" lon="5.60991">
        <ele>514.7</ele>
        <time>2022-03-29T10:49:35Z</time>
      </trkpt>
      <trkpt lat="46.66492" lon="5.60984">
        <ele>514.6</ele>
        <time>2022-03-29T10:49:39Z</time>
      </trkpt>
      <trkpt lat="46.66489" lon="5.60979">
        <ele>514.2</ele>
        <time>2022-03-29T10:49:43Z</time>
      </trkpt>
      <trkpt lat="46.6649" lon="5.60972">
        <ele>513.7</ele>
        <time>2022-03-29T10:49:50Z</time>
      </trkpt>
      <trkpt lat="46.6649" lon="5.60964">
        <ele>513.2</ele>
        <time>2022-03-29T10:49:55Z</time>
      </trkpt>
      <trkpt lat="46.66488" lon="5.60955">
        <ele>513</ele>
        <time>2022-03-29T10:50:02Z</time>
      </trkpt>
      <trkpt lat="46.66486" lon="5.60948">
        <ele>512.9</ele>
        <time>2022-03-29T10:50:04Z</time>
      </trkpt>
      <trkpt lat="46.66483" lon="5.60939">
        <ele>513</ele>
        <time>2022-03-29T10:50:08Z</time>
      </trkpt>
      <trkpt lat="46.66481" lon="5.60933">
        <ele>513.2</ele>
        <time>2022-03-29T10:50:12Z</time>
      </trkpt>
      <trkpt lat="46.66479" lon="5.60927">
        <ele>513.2</ele>
        <time>2022-03-29T10:50:18Z</time>
      </trkpt>
      <trkpt lat="46.66478" lon="5.6092">
        <ele>512.7</ele>
        <time>2022-03-29T10:50:23Z</time>
      </trkpt>
      <trkpt lat="46.66477" lon="5.60913">
        <ele>512.1</ele>
        <time>2022-03-29T10:50:27Z</time>
      </trkpt>
      <trkpt lat="46.66476" lon="5.60906">
        <ele>511.2</ele>
        <time>2022-03-29T10:50:31Z</time>
      </trkpt>
      <trkpt lat="46.66474" lon="5.60899">
        <ele>510</ele>
        <time>2022-03-29T10:50:40Z</time>
      </trkpt>
      <trkpt lat="46.6647" lon="5.60896">
        <ele>509.8</ele>
        <time>2022-03-29T10:50:45Z</time>
      </trkpt>
      <trkpt lat="46.66465" lon="5.60891">
        <ele>510</ele>
        <time>2022-03-29T10:50:49Z</time>
      </trkpt>
      <trkpt lat="46.66467" lon="5.60882">
        <ele>510.2</ele>
        <time>2022-03-29T10:50:53Z</time>
      </trkpt>
      <trkpt lat="46.6647" lon="5.60878">
        <ele>511</ele>
        <time>2022-03-29T10:51:05Z</time>
      </trkpt>
      <trkpt lat="46.66465" lon="5.60874">
        <ele>510.8</ele>
        <time>2022-03-29T10:51:11Z</time>
      </trkpt>
      <trkpt lat="46.66461" lon="5.6087">
        <ele>511</ele>
        <time>2022-03-29T10:51:13Z</time>
      </trkpt>
      <trkpt lat="46.66457" lon="5.60866">
        <ele>511.2</ele>
        <time>2022-03-29T10:51:17Z</time>
      </trkpt>
      <trkpt lat="46.66453" lon="5.60861">
        <ele>511.6</ele>
        <time>2022-03-29T10:51:22Z</time>
      </trkpt>
      <trkpt lat="46.66449" lon="5.60855">
        <ele>512.2</ele>
        <time>2022-03-29T10:51:30Z</time>
      </trkpt>
      <trkpt lat="46.66448" lon="5.60849">
        <ele>512.4</ele>
        <time>2022-03-29T10:51:33Z</time>
      </trkpt>
      <trkpt lat="46.66447" lon="5.60842">
        <ele>512.7</ele>
        <time>2022-03-29T10:51:39Z</time>
      </trkpt>
      <trkpt lat="46.66444" lon="5.60835">
        <ele>513.1</ele>
        <time>2022-03-29T10:51:55Z</time>
      </trkpt>
      <trkpt lat="46.66457" lon="5.60848">
        <ele>500.3</ele>
        <time>2022-03-29T10:52:35Z</time>
      </trkpt>
      <trkpt lat="46.66462" lon="5.60848">
        <ele>498.4</ele>
        <time>2022-03-29T10:52:38Z</time>
      </trkpt>
      <trkpt lat="46.66457" lon="5.60853">
        <ele>505.8</ele>
        <time>2022-03-29T10:52:44Z</time>
      </trkpt>
      <trkpt lat="46.66453" lon="5.60857">
        <ele>511.9</ele>
        <time>2022-03-29T10:52:46Z</time>
      </trkpt>
      <trkpt lat="46.66448" lon="5.60854">
        <ele>515.4</ele>
        <time>2022-03-29T10:52:51Z</time>
      </trkpt>
      <trkpt lat="46.66447" lon="5.60848">
        <ele>517</ele>
        <time>2022-03-29T10:52:56Z</time>
      </trkpt>
      <trkpt lat="46.66449" lon="5.60839">
        <ele>518.5</ele>
        <time>2022-03-29T10:53:00Z</time>
      </trkpt>
      <trkpt lat="46.66447" lon="5.60832">
        <ele>518.3</ele>
        <time>2022-03-29T10:53:04Z</time>
      </trkpt>
      <trkpt lat="46.66443" lon="5.60827">
        <ele>517.8</ele>
        <time>2022-03-29T10:53:08Z</time>
      </trkpt>
      <trkpt lat="46.66441" lon="5.60821">
        <ele>514</ele>
        <time>2022-03-29T10:53:12Z</time>
      </trkpt>
      <trkpt lat="46.66438" lon="5.60815">
        <ele>511.2</ele>
        <time>2022-03-29T10:53:15Z</time>
      </trkpt>
      <trkpt lat="46.66435" lon="5.60808">
        <ele>508.5</ele>
        <time>2022-03-29T10:53:19Z</time>
      </trkpt>
      <trkpt lat="46.66433" lon="5.60802">
        <ele>507.1</ele>
        <time>2022-03-29T10:53:23Z</time>
      </trkpt>
      <trkpt lat="46.66434" lon="5.60795">
        <ele>506.2</ele>
        <time>2022-03-29T10:53:27Z</time>
      </trkpt>
      <trkpt lat="46.66436" lon="5.6079">
        <ele>505.1</ele>
        <time>2022-03-29T10:53:33Z</time>
      </trkpt>
      <trkpt lat="46.66437" lon="5.60783">
        <ele>504.1</ele>
        <time>2022-03-29T10:53:39Z</time>
      </trkpt>
      <trkpt lat="46.66433" lon="5.60778">
        <ele>503.9</ele>
        <time>2022-03-29T10:53:45Z</time>
      </trkpt>
      <trkpt lat="46.66432" lon="5.60769">
        <ele>504.2</ele>
        <time>2022-03-29T10:53:50Z</time>
      </trkpt>
      <trkpt lat="46.66432" lon="5.60761">
        <ele>504.3</ele>
        <time>2022-03-29T10:53:53Z</time>
      </trkpt>
      <trkpt lat="46.66431" lon="5.60753">
        <ele>504.9</ele>
        <time>2022-03-29T10:53:57Z</time>
      </trkpt>
      <trkpt lat="46.66428" lon="5.60747">
        <ele>506.2</ele>
        <time>2022-03-29T10:54:02Z</time>
      </trkpt>
      <trkpt lat="46.66425" lon="5.60742">
        <ele>507.5</ele>
        <time>2022-03-29T10:54:06Z</time>
      </trkpt>
      <trkpt lat="46.66423" lon="5.60736">
        <ele>508.5</ele>
        <time>2022-03-29T10:54:11Z</time>
      </trkpt>
      <trkpt lat="46.66421" lon="5.60729">
        <ele>508.5</ele>
        <time>2022-03-29T10:54:17Z</time>
      </trkpt>
      <trkpt lat="46.66421" lon="5.60722">
        <ele>507.4</ele>
        <time>2022-03-29T10:54:21Z</time>
      </trkpt>
      <trkpt lat="46.66421" lon="5.60715">
        <ele>506.4</ele>
        <time>2022-03-29T10:54:26Z</time>
      </trkpt>
      <trkpt lat="46.66419" lon="5.60706">
        <ele>505.5</ele>
        <time>2022-03-29T10:54:38Z</time>
      </trkpt>
      <trkpt lat="46.66417" lon="5.607">
        <ele>505.7</ele>
        <time>2022-03-29T10:54:42Z</time>
      </trkpt>
      <trkpt lat="46.66412" lon="5.607">
        <ele>507</ele>
        <time>2022-03-29T10:54:48Z</time>
      </trkpt>
      <trkpt lat="46.66407" lon="5.60697">
        <ele>508.4</ele>
        <time>2022-03-29T10:54:54Z</time>
      </trkpt>
      <trkpt lat="46.66403" lon="5.60693">
        <ele>509.4</ele>
        <time>2022-03-29T10:55:01Z</time>
      </trkpt>
      <trkpt lat="46.66398" lon="5.60687">
        <ele>509.6</ele>
        <time>2022-03-29T10:55:06Z</time>
      </trkpt>
      <trkpt lat="46.66395" lon="5.60682">
        <ele>509.6</ele>
        <time>2022-03-29T10:55:10Z</time>
      </trkpt>
      <trkpt lat="46.66393" lon="5.60675">
        <ele>509.5</ele>
        <time>2022-03-29T10:55:14Z</time>
      </trkpt>
      <trkpt lat="46.66391" lon="5.60669">
        <ele>509.3</ele>
        <time>2022-03-29T10:55:17Z</time>
      </trkpt>
      <trkpt lat="46.66387" lon="5.60663">
        <ele>509</ele>
        <time>2022-03-29T10:55:21Z</time>
      </trkpt>
      <trkpt lat="46.66383" lon="5.60657">
        <ele>509.1</ele>
        <time>2022-03-29T10:55:24Z</time>
      </trkpt>
      <trkpt lat="46.6638" lon="5.60651">
        <ele>509.6</ele>
        <time>2022-03-29T10:55:28Z</time>
      </trkpt>
      <trkpt lat="46.66377" lon="5.60644">
        <ele>510.5</ele>
        <time>2022-03-29T10:55:32Z</time>
      </trkpt>
      <trkpt lat="46.66372" lon="5.60639">
        <ele>512</ele>
        <time>2022-03-29T10:55:36Z</time>
      </trkpt>
      <trkpt lat="46.66369" lon="5.60631">
        <ele>513.1</ele>
        <time>2022-03-29T10:55:41Z</time>
      </trkpt>
      <trkpt lat="46.66366" lon="5.60626">
        <ele>513.3</ele>
        <time>2022-03-29T10:55:44Z</time>
      </trkpt>
      <trkpt lat="46.66362" lon="5.60622">
        <ele>513.8</ele>
        <time>2022-03-29T10:55:47Z</time>
      </trkpt>
      <trkpt lat="46.66358" lon="5.60617">
        <ele>513.8</ele>
        <time>2022-03-29T10:55:50Z</time>
      </trkpt>
      <trkpt lat="46.66353" lon="5.60614">
        <ele>514.2</ele>
        <time>2022-03-29T10:55:55Z</time>
      </trkpt>
      <trkpt lat="46.6635" lon="5.60608">
        <ele>515.7</ele>
        <time>2022-03-29T10:56:05Z</time>
      </trkpt>
      <trkpt lat="46.66345" lon="5.60606">
        <ele>516.9</ele>
        <time>2022-03-29T10:56:13Z</time>
      </trkpt>
      <trkpt lat="46.6634" lon="5.60605">
        <ele>518</ele>
        <time>2022-03-29T10:56:18Z</time>
      </trkpt>
      <trkpt lat="46.66336" lon="5.60605">
        <ele>519.1</ele>
        <time>2022-03-29T10:56:23Z</time>
      </trkpt>
      <trkpt lat="46.66331" lon="5.60605">
        <ele>520.8</ele>
        <time>2022-03-29T10:56:26Z</time>
      </trkpt>
      <trkpt lat="46.66326" lon="5.60603">
        <ele>523.1</ele>
        <time>2022-03-29T10:56:30Z</time>
      </trkpt>
      <trkpt lat="46.66322" lon="5.60598">
        <ele>525.6</ele>
        <time>2022-03-29T10:56:36Z</time>
      </trkpt>
      <trkpt lat="46.66318" lon="5.60594">
        <ele>526.3</ele>
        <time>2022-03-29T10:56:44Z</time>
      </trkpt>
      <trkpt lat="46.66313" lon="5.60593">
        <ele>526.6</ele>
        <time>2022-03-29T10:56:49Z</time>
      </trkpt>
      <trkpt lat="46.6631" lon="5.60587">
        <ele>526.7</ele>
        <time>2022-03-29T10:56:55Z</time>
      </trkpt>
      <trkpt lat="46.66305" lon="5.60585">
        <ele>526.3</ele>
        <time>2022-03-29T10:57:01Z</time>
      </trkpt>
      <trkpt lat="46.66305" lon="5.60577">
        <ele>525.7</ele>
        <time>2022-03-29T10:57:06Z</time>
      </trkpt>
      <trkpt lat="46.663" lon="5.60575">
        <ele>525.5</ele>
        <time>2022-03-29T10:57:11Z</time>
      </trkpt>
      <trkpt lat="46.66296" lon="5.60575">
        <ele>525.4</ele>
        <time>2022-03-29T10:57:17Z</time>
      </trkpt>
      <trkpt lat="46.66291" lon="5.60574">
        <ele>525.3</ele>
        <time>2022-03-29T10:57:21Z</time>
      </trkpt>
      <trkpt lat="46.66287" lon="5.60572">
        <ele>525.1</ele>
        <time>2022-03-29T10:57:27Z</time>
      </trkpt>
      <trkpt lat="46.66282" lon="5.60569">
        <ele>524.6</ele>
        <time>2022-03-29T10:57:32Z</time>
      </trkpt>
      <trkpt lat="46.66277" lon="5.60565">
        <ele>523.8</ele>
        <time>2022-03-29T10:57:37Z</time>
      </trkpt>
      <trkpt lat="46.66276" lon="5.60559">
        <ele>522.9</ele>
        <time>2022-03-29T10:57:45Z</time>
      </trkpt>
      <trkpt lat="46.66271" lon="5.6056">
        <ele>523.7</ele>
        <time>2022-03-29T10:57:51Z</time>
      </trkpt>
      <trkpt lat="46.6627" lon="5.60567">
        <ele>524.8</ele>
        <time>2022-03-29T10:58:05Z</time>
      </trkpt>
      <trkpt lat="46.66268" lon="5.60573">
        <ele>526.4</ele>
        <time>2022-03-29T10:58:25Z</time>
      </trkpt>
      <trkpt lat="46.66265" lon="5.60567">
        <ele>527.1</ele>
        <time>2022-03-29T10:58:34Z</time>
      </trkpt>
      <trkpt lat="46.66263" lon="5.6056">
        <ele>527.4</ele>
        <time>2022-03-29T10:58:41Z</time>
      </trkpt>
      <trkpt lat="46.66259" lon="5.60555">
        <ele>527.6</ele>
        <time>2022-03-29T10:58:46Z</time>
      </trkpt>
      <trkpt lat="46.66256" lon="5.60549">
        <ele>527.8</ele>
        <time>2022-03-29T10:58:52Z</time>
      </trkpt>
      <trkpt lat="46.66253" lon="5.60545">
        <ele>527.8</ele>
        <time>2022-03-29T10:58:56Z</time>
      </trkpt>
      <trkpt lat="46.66248" lon="5.60544">
        <ele>527.5</ele>
        <time>2022-03-29T10:59:00Z</time>
      </trkpt>
      <trkpt lat="46.66244" lon="5.60541">
        <ele>527.9</ele>
        <time>2022-03-29T10:59:08Z</time>
      </trkpt>
      <trkpt lat="46.6624" lon="5.60535">
        <ele>527.3</ele>
        <time>2022-03-29T10:59:18Z</time>
      </trkpt>
      <trkpt lat="46.66235" lon="5.60533">
        <ele>527</ele>
        <time>2022-03-29T10:59:26Z</time>
      </trkpt>
      <trkpt lat="46.66231" lon="5.60527">
        <ele>526</ele>
        <time>2022-03-29T10:59:36Z</time>
      </trkpt>
      <trkpt lat="46.66227" lon="5.60529">
        <ele>525.5</ele>
        <time>2022-03-29T10:59:44Z</time>
      </trkpt>
      <trkpt lat="46.66224" lon="5.60535">
        <ele>526.6</ele>
        <time>2022-03-29T10:59:51Z</time>
      </trkpt>
      <trkpt lat="46.6622" lon="5.60535">
        <ele>529</ele>
        <time>2022-03-29T11:00:02Z</time>
      </trkpt>
      <trkpt lat="46.66215" lon="5.60533">
        <ele>530.8</ele>
        <time>2022-03-29T11:00:29Z</time>
      </trkpt>
      <trkpt lat="46.66211" lon="5.60529">
        <ele>530.2</ele>
        <time>2022-03-29T11:00:34Z</time>
      </trkpt>
      <trkpt lat="46.66207" lon="5.60525">
        <ele>529.4</ele>
        <time>2022-03-29T11:00:41Z</time>
      </trkpt>
      <trkpt lat="46.66203" lon="5.60521">
        <ele>529.1</ele>
        <time>2022-03-29T11:00:48Z</time>
      </trkpt>
      <trkpt lat="46.66207" lon="5.60518">
        <ele>527</ele>
        <time>2022-03-29T11:01:03Z</time>
      </trkpt>
      <trkpt lat="46.6621" lon="5.60515">
        <ele>525</ele>
        <time>2022-03-29T11:01:08Z</time>
      </trkpt>
      <trkpt lat="46.66208" lon="5.60521">
        <ele>522.9</ele>
        <time>2022-03-29T11:01:15Z</time>
      </trkpt>
      <trkpt lat="46.66201" lon="5.60523">
        <ele>522.5</ele>
        <time>2022-03-29T11:01:29Z</time>
      </trkpt>
      <trkpt lat="46.66197" lon="5.60524">
        <ele>523.1</ele>
        <time>2022-03-29T11:01:32Z</time>
      </trkpt>
      <trkpt lat="46.66193" lon="5.6053">
        <ele>523.9</ele>
        <time>2022-03-29T11:01:37Z</time>
      </trkpt>
      <trkpt lat="46.66189" lon="5.60529">
        <ele>524.9</ele>
        <time>2022-03-29T11:01:43Z</time>
      </trkpt>
      <trkpt lat="46.66188" lon="5.60519">
        <ele>523.3</ele>
        <time>2022-03-29T11:01:50Z</time>
      </trkpt>
      <trkpt lat="46.66189" lon="5.60512">
        <ele>521</ele>
        <time>2022-03-29T11:01:55Z</time>
      </trkpt>
      <trkpt lat="46.66184" lon="5.60509">
        <ele>519.1</ele>
        <time>2022-03-29T11:02:03Z</time>
      </trkpt>
      <trkpt lat="46.66179" lon="5.60508">
        <ele>518.7</ele>
        <time>2022-03-29T11:02:06Z</time>
      </trkpt>
      <trkpt lat="46.66175" lon="5.60502">
        <ele>517.8</ele>
        <time>2022-03-29T11:02:11Z</time>
      </trkpt>
      <trkpt lat="46.6617" lon="5.605">
        <ele>517</ele>
        <time>2022-03-29T11:02:15Z</time>
      </trkpt>
      <trkpt lat="46.66164" lon="5.605">
        <ele>516.2</ele>
        <time>2022-03-29T11:02:20Z</time>
      </trkpt>
      <trkpt lat="46.6616" lon="5.60498">
        <ele>515.5</ele>
        <time>2022-03-29T11:02:24Z</time>
      </trkpt>
      <trkpt lat="46.66157" lon="5.60493">
        <ele>514.1</ele>
        <time>2022-03-29T11:02:30Z</time>
      </trkpt>
      <trkpt lat="46.66154" lon="5.60487">
        <ele>513.1</ele>
        <time>2022-03-29T11:02:35Z</time>
      </trkpt>
      <trkpt lat="46.6615" lon="5.60482">
        <ele>512.8</ele>
        <time>2022-03-29T11:02:40Z</time>
      </trkpt>
      <trkpt lat="46.66146" lon="5.60477">
        <ele>512.7</ele>
        <time>2022-03-29T11:02:46Z</time>
      </trkpt>
      <trkpt lat="46.66143" lon="5.60472">
        <ele>512.3</ele>
        <time>2022-03-29T11:02:50Z</time>
      </trkpt>
      <trkpt lat="46.66138" lon="5.60468">
        <ele>512.1</ele>
        <time>2022-03-29T11:02:55Z</time>
      </trkpt>
      <trkpt lat="46.66134" lon="5.60463">
        <ele>511.6</ele>
        <time>2022-03-29T11:03:00Z</time>
      </trkpt>
      <trkpt lat="46.66129" lon="5.60463">
        <ele>511.3</ele>
        <time>2022-03-29T11:03:04Z</time>
      </trkpt>
      <trkpt lat="46.66125" lon="5.60461">
        <ele>510.5</ele>
        <time>2022-03-29T11:03:09Z</time>
      </trkpt>
      <trkpt lat="46.66121" lon="5.60458">
        <ele>509.5</ele>
        <time>2022-03-29T11:03:15Z</time>
      </trkpt>
      <trkpt lat="46.66116" lon="5.60456">
        <ele>508.2</ele>
        <time>2022-03-29T11:03:23Z</time>
      </trkpt>
      <trkpt lat="46.66114" lon="5.6045">
        <ele>508.3</ele>
        <time>2022-03-29T11:03:34Z</time>
      </trkpt>
      <trkpt lat="46.6611" lon="5.60444">
        <ele>508.9</ele>
        <time>2022-03-29T11:03:42Z</time>
      </trkpt>
      <trkpt lat="46.66107" lon="5.60439">
        <ele>508.7</ele>
        <time>2022-03-29T11:03:46Z</time>
      </trkpt>
      <trkpt lat="46.66103" lon="5.60437">
        <ele>508.1</ele>
        <time>2022-03-29T11:03:52Z</time>
      </trkpt>
      <trkpt lat="46.661" lon="5.60431">
        <ele>505.8</ele>
        <time>2022-03-29T11:04:00Z</time>
      </trkpt>
      <trkpt lat="46.66096" lon="5.60428">
        <ele>503.7</ele>
        <time>2022-03-29T11:04:05Z</time>
      </trkpt>
      <trkpt lat="46.66091" lon="5.60428">
        <ele>502.7</ele>
        <time>2022-03-29T11:04:10Z</time>
      </trkpt>
      <trkpt lat="46.66085" lon="5.60427">
        <ele>502.6</ele>
        <time>2022-03-29T11:04:14Z</time>
      </trkpt>
      <trkpt lat="46.6608" lon="5.60424">
        <ele>502.9</ele>
        <time>2022-03-29T11:04:18Z</time>
      </trkpt>
      <trkpt lat="46.66075" lon="5.6042">
        <ele>503.3</ele>
        <time>2022-03-29T11:04:24Z</time>
      </trkpt>
      <trkpt lat="46.66072" lon="5.60415">
        <ele>503.2</ele>
        <time>2022-03-29T11:04:29Z</time>
      </trkpt>
      <trkpt lat="46.66067" lon="5.60411">
        <ele>502.6</ele>
        <time>2022-03-29T11:04:34Z</time>
      </trkpt>
      <trkpt lat="46.66063" lon="5.60408">
        <ele>501.4</ele>
        <time>2022-03-29T11:04:40Z</time>
      </trkpt>
      <trkpt lat="46.66058" lon="5.60408">
        <ele>500.3</ele>
        <time>2022-03-29T11:04:46Z</time>
      </trkpt>
      <trkpt lat="46.66053" lon="5.6041">
        <ele>499.9</ele>
        <time>2022-03-29T11:04:51Z</time>
      </trkpt>
      <trkpt lat="46.6605" lon="5.60406">
        <ele>498.9</ele>
        <time>2022-03-29T11:04:55Z</time>
      </trkpt>
      <trkpt lat="46.66046" lon="5.604">
        <ele>497.3</ele>
        <time>2022-03-29T11:05:00Z</time>
      </trkpt>
      <trkpt lat="46.66042" lon="5.60395">
        <ele>495.9</ele>
        <time>2022-03-29T11:05:05Z</time>
      </trkpt>
      <trkpt lat="46.66039" lon="5.6039">
        <ele>494.3</ele>
        <time>2022-03-29T11:05:16Z</time>
      </trkpt>
      <trkpt lat="46.66035" lon="5.60385">
        <ele>493.8</ele>
        <time>2022-03-29T11:05:20Z</time>
      </trkpt>
      <trkpt lat="46.6603" lon="5.60379">
        <ele>493.1</ele>
        <time>2022-03-29T11:05:24Z</time>
      </trkpt>
      <trkpt lat="46.66027" lon="5.60375">
        <ele>492.8</ele>
        <time>2022-03-29T11:05:27Z</time>
      </trkpt>
      <trkpt lat="46.66025" lon="5.60369">
        <ele>492.1</ele>
        <time>2022-03-29T11:05:31Z</time>
      </trkpt>
      <trkpt lat="46.66026" lon="5.60361">
        <ele>491.1</ele>
        <time>2022-03-29T11:05:36Z</time>
      </trkpt>
      <trkpt lat="46.66022" lon="5.60358">
        <ele>490.6</ele>
        <time>2022-03-29T11:05:42Z</time>
      </trkpt>
      <trkpt lat="46.66017" lon="5.60357">
        <ele>490.4</ele>
        <time>2022-03-29T11:05:46Z</time>
      </trkpt>
      <trkpt lat="46.66012" lon="5.60356">
        <ele>490.5</ele>
        <time>2022-03-29T11:05:52Z</time>
      </trkpt>
      <trkpt lat="46.66009" lon="5.60349">
        <ele>490.6</ele>
        <time>2022-03-29T11:05:57Z</time>
      </trkpt>
      <trkpt lat="46.66008" lon="5.60343">
        <ele>490.1</ele>
        <time>2022-03-29T11:06:01Z</time>
      </trkpt>
      <trkpt lat="46.66005" lon="5.60336">
        <ele>489.9</ele>
        <time>2022-03-29T11:06:05Z</time>
      </trkpt>
      <trkpt lat="46.66003" lon="5.6033">
        <ele>489.6</ele>
        <time>2022-03-29T11:06:11Z</time>
      </trkpt>
      <trkpt lat="46.66001" lon="5.60323">
        <ele>490.1</ele>
        <time>2022-03-29T11:06:18Z</time>
      </trkpt>
      <trkpt lat="46.65999" lon="5.60316">
        <ele>490.5</ele>
        <time>2022-03-29T11:06:23Z</time>
      </trkpt>
      <trkpt lat="46.65999" lon="5.60309">
        <ele>490.5</ele>
        <time>2022-03-29T11:06:27Z</time>
      </trkpt>
      <trkpt lat="46.65999" lon="5.60302">
        <ele>490.5</ele>
        <time>2022-03-29T11:06:31Z</time>
      </trkpt>
      <trkpt lat="46.65997" lon="5.60294">
        <ele>490.4</ele>
        <time>2022-03-29T11:06:36Z</time>
      </trkpt>
      <trkpt lat="46.65997" lon="5.60287">
        <ele>489.9</ele>
        <time>2022-03-29T11:06:42Z</time>
      </trkpt>
      <trkpt lat="46.65996" lon="5.60281">
        <ele>489.6</ele>
        <time>2022-03-29T11:06:46Z</time>
      </trkpt>
      <trkpt lat="46.65993" lon="5.60275">
        <ele>489.8</ele>
        <time>2022-03-29T11:06:51Z</time>
      </trkpt>
      <trkpt lat="46.65993" lon="5.60268">
        <ele>490.6</ele>
        <time>2022-03-29T11:06:58Z</time>
      </trkpt>
      <trkpt lat="46.65993" lon="5.6026">
        <ele>491.7</ele>
        <time>2022-03-29T11:07:04Z</time>
      </trkpt>
      <trkpt lat="46.65993" lon="5.60254">
        <ele>492.9</ele>
        <time>2022-03-29T11:07:09Z</time>
      </trkpt>
      <trkpt lat="46.65992" lon="5.60247">
        <ele>494.7</ele>
        <time>2022-03-29T11:07:16Z</time>
      </trkpt>
      <trkpt lat="46.6599" lon="5.6024">
        <ele>495.6</ele>
        <time>2022-03-29T11:07:21Z</time>
      </trkpt>
      <trkpt lat="46.65989" lon="5.60234">
        <ele>496.4</ele>
        <time>2022-03-29T11:07:28Z</time>
      </trkpt>
      <trkpt lat="46.65991" lon="5.60226">
        <ele>498</ele>
        <time>2022-03-29T11:07:43Z</time>
      </trkpt>
      <trkpt lat="46.65993" lon="5.60221">
        <ele>499.9</ele>
        <time>2022-03-29T11:07:54Z</time>
      </trkpt>
      <trkpt lat="46.65996" lon="5.60216">
        <ele>500.6</ele>
        <time>2022-03-29T11:08:03Z</time>
      </trkpt>
      <trkpt lat="46.65996" lon="5.60208">
        <ele>500.4</ele>
        <time>2022-03-29T11:08:08Z</time>
      </trkpt>
      <trkpt lat="46.65999" lon="5.60202">
        <ele>499.8</ele>
        <time>2022-03-29T11:08:17Z</time>
      </trkpt>
      <trkpt lat="46.66003" lon="5.60199">
        <ele>498.9</ele>
        <time>2022-03-29T11:08:22Z</time>
      </trkpt>
      <trkpt lat="46.66005" lon="5.60191">
        <ele>497</ele>
        <time>2022-03-29T11:08:27Z</time>
      </trkpt>
      <trkpt lat="46.66003" lon="5.60185">
        <ele>494.7</ele>
        <time>2022-03-29T11:08:32Z</time>
      </trkpt>
      <trkpt lat="46.66" lon="5.6018">
        <ele>492.9</ele>
        <time>2022-03-29T11:08:42Z</time>
      </trkpt>
      <trkpt lat="46.65995" lon="5.60182">
        <ele>493.2</ele>
        <time>2022-03-29T11:08:51Z</time>
      </trkpt>
      <trkpt lat="46.66" lon="5.6018">
        <ele>498.8</ele>
        <time>2022-03-29T11:09:36Z</time>
      </trkpt>
      <trkpt lat="46.66004" lon="5.60183">
        <ele>500.1</ele>
        <time>2022-03-29T11:09:43Z</time>
      </trkpt>
      <trkpt lat="46.66002" lon="5.60183">
        <ele>500.6</ele>
        <time>2022-03-29T11:10:36Z</time>
      </trkpt>
      <trkpt lat="46.66006" lon="5.6019">
        <ele>501.1</ele>
        <time>2022-03-29T11:43:05Z</time>
      </trkpt>
      <trkpt lat="46.66003" lon="5.60183">
        <ele>500.3</ele>
        <time>2022-03-29T11:43:32Z</time>
      </trkpt>
      <trkpt lat="46.66002" lon="5.60176">
        <ele>507.3</ele>
        <time>2022-03-29T11:45:07Z</time>
      </trkpt>
      <trkpt lat="46.65999" lon="5.6017">
        <ele>510.7</ele>
        <time>2022-03-29T11:45:15Z</time>
      </trkpt>
      <trkpt lat="46.66004" lon="5.6017">
        <ele>512.1</ele>
        <time>2022-03-29T11:46:12Z</time>
      </trkpt>
      <trkpt lat="46.66008" lon="5.60166">
        <ele>512.2</ele>
        <time>2022-03-29T11:46:16Z</time>
      </trkpt>
      <trkpt lat="46.66012" lon="5.60162">
        <ele>512.4</ele>
        <time>2022-03-29T11:46:20Z</time>
      </trkpt>
      <trkpt lat="46.66016" lon="5.6016">
        <ele>512.5</ele>
        <time>2022-03-29T11:46:24Z</time>
      </trkpt>
      <trkpt lat="46.66021" lon="5.60157">
        <ele>512.5</ele>
        <time>2022-03-29T11:46:29Z</time>
      </trkpt>
      <trkpt lat="46.66025" lon="5.60153">
        <ele>512.6</ele>
        <time>2022-03-29T11:46:34Z</time>
      </trkpt>
      <trkpt lat="46.66028" lon="5.60147">
        <ele>512.8</ele>
        <time>2022-03-29T11:46:39Z</time>
      </trkpt>
      <trkpt lat="46.66032" lon="5.60142">
        <ele>512.6</ele>
        <time>2022-03-29T11:46:47Z</time>
      </trkpt>
      <trkpt lat="46.66027" lon="5.60141">
        <ele>511</ele>
        <time>2022-03-29T11:47:25Z</time>
      </trkpt>
      <trkpt lat="46.66022" lon="5.60142">
        <ele>513.5</ele>
        <time>2022-03-29T11:47:40Z</time>
      </trkpt>
      <trkpt lat="46.66019" lon="5.60147">
        <ele>514.9</ele>
        <time>2022-03-29T11:47:46Z</time>
      </trkpt>
      <trkpt lat="46.66015" lon="5.60154">
        <ele>515.7</ele>
        <time>2022-03-29T11:47:53Z</time>
      </trkpt>
      <trkpt lat="46.66012" lon="5.60159">
        <ele>516.2</ele>
        <time>2022-03-29T11:47:58Z</time>
      </trkpt>
      <trkpt lat="46.66009" lon="5.60164">
        <ele>516.3</ele>
        <time>2022-03-29T11:48:03Z</time>
      </trkpt>
      <trkpt lat="46.66006" lon="5.60169">
        <ele>516.2</ele>
        <time>2022-03-29T11:48:09Z</time>
      </trkpt>
      <trkpt lat="46.66003" lon="5.60177">
        <ele>514.8</ele>
        <time>2022-03-29T11:48:23Z</time>
      </trkpt>
      <trkpt lat="46.65998" lon="5.6018">
        <ele>514.3</ele>
        <time>2022-03-29T11:48:27Z</time>
      </trkpt>
      <trkpt lat="46.65995" lon="5.60186">
        <ele>513.4</ele>
        <time>2022-03-29T11:48:34Z</time>
      </trkpt>
      <trkpt lat="46.65998" lon="5.60191">
        <ele>512.9</ele>
        <time>2022-03-29T11:48:45Z</time>
      </trkpt>
      <trkpt lat="46.66002" lon="5.602">
        <ele>512.8</ele>
        <time>2022-03-29T11:48:50Z</time>
      </trkpt>
      <trkpt lat="46.66006" lon="5.60205">
        <ele>512.8</ele>
        <time>2022-03-29T11:48:53Z</time>
      </trkpt>
      <trkpt lat="46.6601" lon="5.60209">
        <ele>513</ele>
        <time>2022-03-29T11:48:58Z</time>
      </trkpt>
      <trkpt lat="46.66016" lon="5.60213">
        <ele>513</ele>
        <time>2022-03-29T11:49:01Z</time>
      </trkpt>
      <trkpt lat="46.65989" lon="5.60201">
        <ele>508.8</ele>
        <time>2022-03-29T11:50:39Z</time>
      </trkpt>
      <trkpt lat="46.65992" lon="5.60205">
        <ele>506.8</ele>
        <time>2022-03-29T11:50:44Z</time>
      </trkpt>
      <trkpt lat="46.65997" lon="5.60199">
        <ele>505.7</ele>
        <time>2022-03-29T11:50:50Z</time>
      </trkpt>
      <trkpt lat="46.65988" lon="5.60204">
        <ele>509.2</ele>
        <time>2022-03-29T11:51:08Z</time>
      </trkpt>
      <trkpt lat="46.65986" lon="5.60198">
        <ele>508.8</ele>
        <time>2022-03-29T11:51:15Z</time>
      </trkpt>
      <trkpt lat="46.65991" lon="5.60196">
        <ele>509</ele>
        <time>2022-03-29T11:51:20Z</time>
      </trkpt>
      <trkpt lat="46.65993" lon="5.60192">
        <ele>509.2</ele>
        <time>2022-03-29T11:51:43Z</time>
      </trkpt>
      <trkpt lat="46.65992" lon="5.60199">
        <ele>508.1</ele>
        <time>2022-03-29T11:51:45Z</time>
      </trkpt>
      <trkpt lat="46.65988" lon="5.60204">
        <ele>507</ele>
        <time>2022-03-29T11:51:48Z</time>
      </trkpt>
      <trkpt lat="46.65992" lon="5.60197">
        <ele>504.9</ele>
        <time>2022-03-29T11:51:55Z</time>
      </trkpt>
      <trkpt lat="46.65997" lon="5.60196">
        <ele>503.9</ele>
        <time>2022-03-29T11:51:57Z</time>
      </trkpt>
      <trkpt lat="46.66002" lon="5.60198">
        <ele>502.4</ele>
        <time>2022-03-29T11:52:00Z</time>
      </trkpt>
      <trkpt lat="46.66007" lon="5.602">
        <ele>499.7</ele>
        <time>2022-03-29T11:52:08Z</time>
      </trkpt>
      <trkpt lat="46.66002" lon="5.60199">
        <ele>496.6</ele>
        <time>2022-03-29T11:52:20Z</time>
      </trkpt>
      <trkpt lat="46.65997" lon="5.60201">
        <ele>495.4</ele>
        <time>2022-03-29T11:52:41Z</time>
      </trkpt>
      <trkpt lat="46.65993" lon="5.60206">
        <ele>498.1</ele>
        <time>2022-03-29T11:52:57Z</time>
      </trkpt>
      <trkpt lat="46.65989" lon="5.60211">
        <ele>496.1</ele>
        <time>2022-03-29T11:53:11Z</time>
      </trkpt>
      <trkpt lat="46.65994" lon="5.60212">
        <ele>495.6</ele>
        <time>2022-03-29T11:53:28Z</time>
      </trkpt>
      <trkpt lat="46.6599" lon="5.60215">
        <ele>496.8</ele>
        <time>2022-03-29T11:53:40Z</time>
      </trkpt>
      <trkpt lat="46.65993" lon="5.60219">
        <ele>499.4</ele>
        <time>2022-03-29T11:53:56Z</time>
      </trkpt>
      <trkpt lat="46.65994" lon="5.60226">
        <ele>501.2</ele>
        <time>2022-03-29T11:54:12Z</time>
      </trkpt>
      <trkpt lat="46.65993" lon="5.60232">
        <ele>501.3</ele>
        <time>2022-03-29T11:54:19Z</time>
      </trkpt>
      <trkpt lat="46.65993" lon="5.60239">
        <ele>501.4</ele>
        <time>2022-03-29T11:54:25Z</time>
      </trkpt>
      <trkpt lat="46.65995" lon="5.60246">
        <ele>501.3</ele>
        <time>2022-03-29T11:54:31Z</time>
      </trkpt>
      <trkpt lat="46.65997" lon="5.60254">
        <ele>501.3</ele>
        <time>2022-03-29T11:54:35Z</time>
      </trkpt>
      <trkpt lat="46.66" lon="5.6026">
        <ele>501.6</ele>
        <time>2022-03-29T11:54:39Z</time>
      </trkpt>
      <trkpt lat="46.66003" lon="5.60265">
        <ele>502.1</ele>
        <time>2022-03-29T11:54:44Z</time>
      </trkpt>
      <trkpt lat="46.66007" lon="5.60262">
        <ele>502.6</ele>
        <time>2022-03-29T11:54:52Z</time>
      </trkpt>
      <trkpt lat="46.66006" lon="5.60254">
        <ele>502.8</ele>
        <time>2022-03-29T11:54:58Z</time>
      </trkpt>
      <trkpt lat="46.66004" lon="5.60248">
        <ele>503.1</ele>
        <time>2022-03-29T11:55:03Z</time>
      </trkpt>
      <trkpt lat="46.66003" lon="5.6024">
        <ele>503.6</ele>
        <time>2022-03-29T11:55:09Z</time>
      </trkpt>
      <trkpt lat="46.66003" lon="5.60234">
        <ele>504.2</ele>
        <time>2022-03-29T11:55:14Z</time>
      </trkpt>
      <trkpt lat="46.66004" lon="5.60227">
        <ele>504.6</ele>
        <time>2022-03-29T11:55:19Z</time>
      </trkpt>
      <trkpt lat="46.66003" lon="5.60221">
        <ele>504.8</ele>
        <time>2022-03-29T11:55:26Z</time>
      </trkpt>
      <trkpt lat="46.66005" lon="5.60214">
        <ele>505.8</ele>
        <time>2022-03-29T11:55:34Z</time>
      </trkpt>
      <trkpt lat="46.66005" lon="5.60208">
        <ele>507.6</ele>
        <time>2022-03-29T11:55:41Z</time>
      </trkpt>
      <trkpt lat="46.66007" lon="5.60201">
        <ele>508.9</ele>
        <time>2022-03-29T11:55:46Z</time>
      </trkpt>
      <trkpt lat="46.66008" lon="5.60194">
        <ele>512.2</ele>
        <time>2022-03-29T11:56:00Z</time>
      </trkpt>
      <trkpt lat="46.66012" lon="5.6019">
        <ele>513.8</ele>
        <time>2022-03-29T11:56:09Z</time>
      </trkpt>
      <trkpt lat="46.66016" lon="5.60187">
        <ele>514.4</ele>
        <time>2022-03-29T11:56:15Z</time>
      </trkpt>
      <trkpt lat="46.66021" lon="5.60185">
        <ele>515.3</ele>
        <time>2022-03-29T11:56:22Z</time>
      </trkpt>
      <trkpt lat="46.66025" lon="5.6018">
        <ele>515.6</ele>
        <time>2022-03-29T11:56:28Z</time>
      </trkpt>
      <trkpt lat="46.66029" lon="5.60175">
        <ele>515.2</ele>
        <time>2022-03-29T11:56:34Z</time>
      </trkpt>
      <trkpt lat="46.66032" lon="5.60168">
        <ele>514</ele>
        <time>2022-03-29T11:57:48Z</time>
      </trkpt>
      <trkpt lat="46.66034" lon="5.60162">
        <ele>514.9</ele>
        <time>2022-03-29T11:57:52Z</time>
      </trkpt>
      <trkpt lat="46.66038" lon="5.60158">
        <ele>515.9</ele>
        <time>2022-03-29T11:57:59Z</time>
      </trkpt>
      <trkpt lat="46.66043" lon="5.60155">
        <ele>515.9</ele>
        <time>2022-03-29T11:58:08Z</time>
      </trkpt>
      <trkpt lat="46.66048" lon="5.60154">
        <ele>516.2</ele>
        <time>2022-03-29T11:58:14Z</time>
      </trkpt>
      <trkpt lat="46.66052" lon="5.6015">
        <ele>516.9</ele>
        <time>2022-03-29T11:58:19Z</time>
      </trkpt>
      <trkpt lat="46.66055" lon="5.60144">
        <ele>517.3</ele>
        <time>2022-03-29T11:58:26Z</time>
      </trkpt>
      <trkpt lat="46.66057" lon="5.60138">
        <ele>514.9</ele>
        <time>2022-03-29T11:58:39Z</time>
      </trkpt>
      <trkpt lat="46.66052" lon="5.60138">
        <ele>512.4</ele>
        <time>2022-03-29T11:58:47Z</time>
      </trkpt>
      <trkpt lat="46.66057" lon="5.60138">
        <ele>510.2</ele>
        <time>2022-03-29T11:58:59Z</time>
      </trkpt>
      <trkpt lat="46.66061" lon="5.60136">
        <ele>509.6</ele>
        <time>2022-03-29T11:59:03Z</time>
      </trkpt>
      <trkpt lat="46.66066" lon="5.60134">
        <ele>509.5</ele>
        <time>2022-03-29T11:59:10Z</time>
      </trkpt>
      <trkpt lat="46.6607" lon="5.6013">
        <ele>510.2</ele>
        <time>2022-03-29T11:59:16Z</time>
      </trkpt>
      <trkpt lat="46.66076" lon="5.60135">
        <ele>509.7</ele>
        <time>2022-03-29T11:59:42Z</time>
      </trkpt>
      <trkpt lat="46.66079" lon="5.60143">
        <ele>510</ele>
        <time>2022-03-29T11:59:58Z</time>
      </trkpt>
      <trkpt lat="46.66076" lon="5.60149">
        <ele>510.9</ele>
        <time>2022-03-29T12:00:03Z</time>
      </trkpt>
      <trkpt lat="46.6608" lon="5.60154">
        <ele>511.4</ele>
        <time>2022-03-29T12:00:12Z</time>
      </trkpt>
      <trkpt lat="46.66081" lon="5.60161">
        <ele>511.8</ele>
        <time>2022-03-29T12:00:22Z</time>
      </trkpt>
      <trkpt lat="46.66087" lon="5.60162">
        <ele>512</ele>
        <time>2022-03-29T12:00:26Z</time>
      </trkpt>
      <trkpt lat="46.66092" lon="5.60161">
        <ele>511.8</ele>
        <time>2022-03-29T12:00:29Z</time>
      </trkpt>
      <trkpt lat="46.66095" lon="5.60156">
        <ele>512.2</ele>
        <time>2022-03-29T12:00:39Z</time>
      </trkpt>
      <trkpt lat="46.66096" lon="5.6015">
        <ele>513</ele>
        <time>2022-03-29T12:00:44Z</time>
      </trkpt>
      <trkpt lat="46.66101" lon="5.60146">
        <ele>514.3</ele>
        <time>2022-03-29T12:00:50Z</time>
      </trkpt>
      <trkpt lat="46.66106" lon="5.60143">
        <ele>515</ele>
        <time>2022-03-29T12:00:56Z</time>
      </trkpt>
      <trkpt lat="46.66109" lon="5.60138">
        <ele>516.1</ele>
        <time>2022-03-29T12:01:02Z</time>
      </trkpt>
      <trkpt lat="46.66112" lon="5.60132">
        <ele>518.8</ele>
        <time>2022-03-29T12:01:09Z</time>
      </trkpt>
      <trkpt lat="46.66117" lon="5.60131">
        <ele>525.8</ele>
        <time>2022-03-29T12:01:23Z</time>
      </trkpt>
      <trkpt lat="46.66122" lon="5.60132">
        <ele>526.8</ele>
        <time>2022-03-29T12:01:29Z</time>
      </trkpt>
      <trkpt lat="46.66126" lon="5.60131">
        <ele>527.7</ele>
        <time>2022-03-29T12:01:34Z</time>
      </trkpt>
      <trkpt lat="46.66132" lon="5.60133">
        <ele>528.5</ele>
        <time>2022-03-29T12:01:39Z</time>
      </trkpt>
      <trkpt lat="46.66137" lon="5.60134">
        <ele>529.2</ele>
        <time>2022-03-29T12:01:43Z</time>
      </trkpt>
      <trkpt lat="46.66142" lon="5.60135">
        <ele>529.8</ele>
        <time>2022-03-29T12:01:48Z</time>
      </trkpt>
      <trkpt lat="46.66146" lon="5.60135">
        <ele>530.4</ele>
        <time>2022-03-29T12:01:53Z</time>
      </trkpt>
      <trkpt lat="46.66151" lon="5.60137">
        <ele>531</ele>
        <time>2022-03-29T12:01:59Z</time>
      </trkpt>
      <trkpt lat="46.66155" lon="5.60139">
        <ele>531.6</ele>
        <time>2022-03-29T12:02:04Z</time>
      </trkpt>
      <trkpt lat="46.6616" lon="5.6014">
        <ele>531.9</ele>
        <time>2022-03-29T12:02:11Z</time>
      </trkpt>
      <trkpt lat="46.66165" lon="5.60142">
        <ele>532.5</ele>
        <time>2022-03-29T12:02:16Z</time>
      </trkpt>
      <trkpt lat="46.66169" lon="5.60144">
        <ele>532.7</ele>
        <time>2022-03-29T12:02:20Z</time>
      </trkpt>
      <trkpt lat="46.66174" lon="5.60147">
        <ele>532.8</ele>
        <time>2022-03-29T12:02:24Z</time>
      </trkpt>
      <trkpt lat="46.66177" lon="5.60153">
        <ele>532.9</ele>
        <time>2022-03-29T12:02:29Z</time>
      </trkpt>
      <trkpt lat="46.66177" lon="5.60161">
        <ele>532.2</ele>
        <time>2022-03-29T12:02:35Z</time>
      </trkpt>
      <trkpt lat="46.66177" lon="5.60169">
        <ele>531.3</ele>
        <time>2022-03-29T12:02:40Z</time>
      </trkpt>
      <trkpt lat="46.66176" lon="5.60176">
        <ele>531.2</ele>
        <time>2022-03-29T12:02:46Z</time>
      </trkpt>
      <trkpt lat="46.66177" lon="5.60183">
        <ele>531.3</ele>
        <time>2022-03-29T12:02:51Z</time>
      </trkpt>
      <trkpt lat="46.66179" lon="5.60191">
        <ele>531.5</ele>
        <time>2022-03-29T12:02:59Z</time>
      </trkpt>
      <trkpt lat="46.66183" lon="5.60193">
        <ele>531.8</ele>
        <time>2022-03-29T12:03:04Z</time>
      </trkpt>
      <trkpt lat="46.66187" lon="5.60198">
        <ele>532.4</ele>
        <time>2022-03-29T12:03:10Z</time>
      </trkpt>
      <trkpt lat="46.66191" lon="5.60202">
        <ele>532.9</ele>
        <time>2022-03-29T12:03:15Z</time>
      </trkpt>
      <trkpt lat="46.66195" lon="5.60206">
        <ele>533.1</ele>
        <time>2022-03-29T12:03:19Z</time>
      </trkpt>
      <trkpt lat="46.662" lon="5.60208">
        <ele>533.3</ele>
        <time>2022-03-29T12:03:23Z</time>
      </trkpt>
      <trkpt lat="46.66204" lon="5.6021">
        <ele>534</ele>
        <time>2022-03-29T12:03:28Z</time>
      </trkpt>
      <trkpt lat="46.6621" lon="5.60215">
        <ele>535.7</ele>
        <time>2022-03-29T12:03:39Z</time>
      </trkpt>
      <trkpt lat="46.66215" lon="5.60221">
        <ele>536.5</ele>
        <time>2022-03-29T12:03:42Z</time>
      </trkpt>
      <trkpt lat="46.66219" lon="5.60225">
        <ele>538.7</ele>
        <time>2022-03-29T12:03:47Z</time>
      </trkpt>
      <trkpt lat="46.66223" lon="5.60225">
        <ele>541.7</ele>
        <time>2022-03-29T12:03:57Z</time>
      </trkpt>
      <trkpt lat="46.66227" lon="5.60229">
        <ele>541.6</ele>
        <time>2022-03-29T12:04:03Z</time>
      </trkpt>
      <trkpt lat="46.6623" lon="5.60236">
        <ele>541.9</ele>
        <time>2022-03-29T12:04:09Z</time>
      </trkpt>
      <trkpt lat="46.66233" lon="5.60241">
        <ele>542.1</ele>
        <time>2022-03-29T12:04:14Z</time>
      </trkpt>
      <trkpt lat="46.66237" lon="5.60245">
        <ele>542.5</ele>
        <time>2022-03-29T12:04:19Z</time>
      </trkpt>
      <trkpt lat="46.66241" lon="5.60249">
        <ele>542.6</ele>
        <time>2022-03-29T12:04:26Z</time>
      </trkpt>
      <trkpt lat="46.66243" lon="5.60255">
        <ele>542.2</ele>
        <time>2022-03-29T12:04:35Z</time>
      </trkpt>
      <trkpt lat="46.66247" lon="5.60258">
        <ele>542.2</ele>
        <time>2022-03-29T12:04:40Z</time>
      </trkpt>
      <trkpt lat="46.66252" lon="5.6026">
        <ele>542.6</ele>
        <time>2022-03-29T12:04:44Z</time>
      </trkpt>
      <trkpt lat="46.66257" lon="5.60261">
        <ele>543.6</ele>
        <time>2022-03-29T12:04:50Z</time>
      </trkpt>
      <trkpt lat="46.66261" lon="5.60264">
        <ele>545.1</ele>
        <time>2022-03-29T12:04:58Z</time>
      </trkpt>
      <trkpt lat="46.66266" lon="5.60262">
        <ele>546.4</ele>
        <time>2022-03-29T12:05:06Z</time>
      </trkpt>
      <trkpt lat="46.6627" lon="5.60266">
        <ele>548.1</ele>
        <time>2022-03-29T12:05:50Z</time>
      </trkpt>
      <trkpt lat="46.66273" lon="5.60272">
        <ele>548</ele>
        <time>2022-03-29T12:05:53Z</time>
      </trkpt>
      <trkpt lat="46.66276" lon="5.60277">
        <ele>547.8</ele>
        <time>2022-03-29T12:05:56Z</time>
      </trkpt>
      <trkpt lat="46.66279" lon="5.60282">
        <ele>547.7</ele>
        <time>2022-03-29T12:05:59Z</time>
      </trkpt>
      <trkpt lat="46.66282" lon="5.60288">
        <ele>547.8</ele>
        <time>2022-03-29T12:06:02Z</time>
      </trkpt>
      <trkpt lat="46.66285" lon="5.60294">
        <ele>547.8</ele>
        <time>2022-03-29T12:06:06Z</time>
      </trkpt>
      <trkpt lat="46.66287" lon="5.603">
        <ele>548</ele>
        <time>2022-03-29T12:06:10Z</time>
      </trkpt>
      <trkpt lat="46.66289" lon="5.60306">
        <ele>548</ele>
        <time>2022-03-29T12:06:14Z</time>
      </trkpt>
      <trkpt lat="46.66292" lon="5.6031">
        <ele>548</ele>
        <time>2022-03-29T12:06:17Z</time>
      </trkpt>
      <trkpt lat="46.66296" lon="5.60317">
        <ele>547.8</ele>
        <time>2022-03-29T12:06:21Z</time>
      </trkpt>
      <trkpt lat="46.66299" lon="5.60322">
        <ele>547.8</ele>
        <time>2022-03-29T12:06:24Z</time>
      </trkpt>
      <trkpt lat="46.66303" lon="5.60327">
        <ele>547.7</ele>
        <time>2022-03-29T12:06:27Z</time>
      </trkpt>
      <trkpt lat="46.66307" lon="5.60332">
        <ele>547.5</ele>
        <time>2022-03-29T12:06:30Z</time>
      </trkpt>
      <trkpt lat="46.66312" lon="5.60338">
        <ele>547.3</ele>
        <time>2022-03-29T12:06:34Z</time>
      </trkpt>
      <trkpt lat="46.66316" lon="5.60341">
        <ele>546.8</ele>
        <time>2022-03-29T12:06:40Z</time>
      </trkpt>
      <trkpt lat="46.66319" lon="5.60348">
        <ele>546.8</ele>
        <time>2022-03-29T12:06:45Z</time>
      </trkpt>
      <trkpt lat="46.6632" lon="5.60355">
        <ele>547</ele>
        <time>2022-03-29T12:06:51Z</time>
      </trkpt>
      <trkpt lat="46.66322" lon="5.60361">
        <ele>547.4</ele>
        <time>2022-03-29T12:06:58Z</time>
      </trkpt>
      <trkpt lat="46.66327" lon="5.60364">
        <ele>547.9</ele>
        <time>2022-03-29T12:07:03Z</time>
      </trkpt>
      <trkpt lat="46.6633" lon="5.6037">
        <ele>547.6</ele>
        <time>2022-03-29T12:07:08Z</time>
      </trkpt>
      <trkpt lat="46.66333" lon="5.60376">
        <ele>547.7</ele>
        <time>2022-03-29T12:07:13Z</time>
      </trkpt>
      <trkpt lat="46.66338" lon="5.6038">
        <ele>548.3</ele>
        <time>2022-03-29T12:07:17Z</time>
      </trkpt>
      <trkpt lat="46.66341" lon="5.60386">
        <ele>549.1</ele>
        <time>2022-03-29T12:07:22Z</time>
      </trkpt>
      <trkpt lat="46.66344" lon="5.60393">
        <ele>548.7</ele>
        <time>2022-03-29T12:07:27Z</time>
      </trkpt>
      <trkpt lat="46.66347" lon="5.60398">
        <ele>548.6</ele>
        <time>2022-03-29T12:07:30Z</time>
      </trkpt>
      <trkpt lat="46.6635" lon="5.60405">
        <ele>548.9</ele>
        <time>2022-03-29T12:07:34Z</time>
      </trkpt>
      <trkpt lat="46.66353" lon="5.60412">
        <ele>549.1</ele>
        <time>2022-03-29T12:07:38Z</time>
      </trkpt>
      <trkpt lat="46.66356" lon="5.60418">
        <ele>548.9</ele>
        <time>2022-03-29T12:07:42Z</time>
      </trkpt>
      <trkpt lat="46.6636" lon="5.60424">
        <ele>548.7</ele>
        <time>2022-03-29T12:07:46Z</time>
      </trkpt>
      <trkpt lat="46.66363" lon="5.6043">
        <ele>548.7</ele>
        <time>2022-03-29T12:07:51Z</time>
      </trkpt>
      <trkpt lat="46.66365" lon="5.60437">
        <ele>548.9</ele>
        <time>2022-03-29T12:07:56Z</time>
      </trkpt>
      <trkpt lat="46.66366" lon="5.60444">
        <ele>549.9</ele>
        <time>2022-03-29T12:08:04Z</time>
      </trkpt>
      <trkpt lat="46.66369" lon="5.6045">
        <ele>549.6</ele>
        <time>2022-03-29T12:08:08Z</time>
      </trkpt>
      <trkpt lat="46.66372" lon="5.60456">
        <ele>549.7</ele>
        <time>2022-03-29T12:08:12Z</time>
      </trkpt>
      <trkpt lat="46.66375" lon="5.60462">
        <ele>549.9</ele>
        <time>2022-03-29T12:08:16Z</time>
      </trkpt>
      <trkpt lat="46.66378" lon="5.60467">
        <ele>550.1</ele>
        <time>2022-03-29T12:08:20Z</time>
      </trkpt>
      <trkpt lat="46.66381" lon="5.60472">
        <ele>550.5</ele>
        <time>2022-03-29T12:08:24Z</time>
      </trkpt>
      <trkpt lat="46.66385" lon="5.60478">
        <ele>551.1</ele>
        <time>2022-03-29T12:08:28Z</time>
      </trkpt>
      <trkpt lat="46.66388" lon="5.60484">
        <ele>551.5</ele>
        <time>2022-03-29T12:08:33Z</time>
      </trkpt>
      <trkpt lat="46.66391" lon="5.6049">
        <ele>551.8</ele>
        <time>2022-03-29T12:08:38Z</time>
      </trkpt>
      <trkpt lat="46.66395" lon="5.60496">
        <ele>552.2</ele>
        <time>2022-03-29T12:08:43Z</time>
      </trkpt>
      <trkpt lat="46.66398" lon="5.60501">
        <ele>552.3</ele>
        <time>2022-03-29T12:08:47Z</time>
      </trkpt>
      <trkpt lat="46.66402" lon="5.60507">
        <ele>552.6</ele>
        <time>2022-03-29T12:08:52Z</time>
      </trkpt>
      <trkpt lat="46.66405" lon="5.60511">
        <ele>552.1</ele>
        <time>2022-03-29T12:08:56Z</time>
      </trkpt>
      <trkpt lat="46.66408" lon="5.60516">
        <ele>551.9</ele>
        <time>2022-03-29T12:09:00Z</time>
      </trkpt>
      <trkpt lat="46.66412" lon="5.60521">
        <ele>552</ele>
        <time>2022-03-29T12:09:04Z</time>
      </trkpt>
      <trkpt lat="46.66416" lon="5.60526">
        <ele>552</ele>
        <time>2022-03-29T12:09:08Z</time>
      </trkpt>
      <trkpt lat="46.6642" lon="5.60531">
        <ele>551.8</ele>
        <time>2022-03-29T12:09:12Z</time>
      </trkpt>
      <trkpt lat="46.66423" lon="5.60536">
        <ele>551.8</ele>
        <time>2022-03-29T12:09:16Z</time>
      </trkpt>
      <trkpt lat="46.66426" lon="5.60541">
        <ele>551.6</ele>
        <time>2022-03-29T12:09:21Z</time>
      </trkpt>
      <trkpt lat="46.66429" lon="5.60548">
        <ele>551</ele>
        <time>2022-03-29T12:09:26Z</time>
      </trkpt>
      <trkpt lat="46.66432" lon="5.60553">
        <ele>550.5</ele>
        <time>2022-03-29T12:09:30Z</time>
      </trkpt>
      <trkpt lat="46.66436" lon="5.60558">
        <ele>550.3</ele>
        <time>2022-03-29T12:09:35Z</time>
      </trkpt>
      <trkpt lat="46.6644" lon="5.60563">
        <ele>550.2</ele>
        <time>2022-03-29T12:09:39Z</time>
      </trkpt>
      <trkpt lat="46.66443" lon="5.60569">
        <ele>550</ele>
        <time>2022-03-29T12:09:44Z</time>
      </trkpt>
      <trkpt lat="46.66445" lon="5.60575">
        <ele>550.1</ele>
        <time>2022-03-29T12:09:49Z</time>
      </trkpt>
      <trkpt lat="46.66448" lon="5.6058">
        <ele>550.5</ele>
        <time>2022-03-29T12:09:54Z</time>
      </trkpt>
      <trkpt lat="46.66451" lon="5.60586">
        <ele>550.7</ele>
        <time>2022-03-29T12:09:58Z</time>
      </trkpt>
      <trkpt lat="46.66455" lon="5.60591">
        <ele>551</ele>
        <time>2022-03-29T12:10:03Z</time>
      </trkpt>
      <trkpt lat="46.66459" lon="5.60594">
        <ele>551.4</ele>
        <time>2022-03-29T12:10:08Z</time>
      </trkpt>
      <trkpt lat="46.66464" lon="5.60593">
        <ele>552.5</ele>
        <time>2022-03-29T12:10:13Z</time>
      </trkpt>
      <trkpt lat="46.66467" lon="5.60588">
        <ele>554</ele>
        <time>2022-03-29T12:10:18Z</time>
      </trkpt>
      <trkpt lat="46.66468" lon="5.60581">
        <ele>555.8</ele>
        <time>2022-03-29T12:10:24Z</time>
      </trkpt>
      <trkpt lat="46.66469" lon="5.60575">
        <ele>557.4</ele>
        <time>2022-03-29T12:10:29Z</time>
      </trkpt>
      <trkpt lat="46.6647" lon="5.60567">
        <ele>558.8</ele>
        <time>2022-03-29T12:10:34Z</time>
      </trkpt>
      <trkpt lat="46.66472" lon="5.6056">
        <ele>559.6</ele>
        <time>2022-03-29T12:10:38Z</time>
      </trkpt>
      <trkpt lat="46.66473" lon="5.60553">
        <ele>560.1</ele>
        <time>2022-03-29T12:10:43Z</time>
      </trkpt>
      <trkpt lat="46.66475" lon="5.60547">
        <ele>559.3</ele>
        <time>2022-03-29T12:10:50Z</time>
      </trkpt>
      <trkpt lat="46.66477" lon="5.6054">
        <ele>558.4</ele>
        <time>2022-03-29T12:10:56Z</time>
      </trkpt>
      <trkpt lat="46.66478" lon="5.60532">
        <ele>557.8</ele>
        <time>2022-03-29T12:11:01Z</time>
      </trkpt>
      <trkpt lat="46.6648" lon="5.60525">
        <ele>556.9</ele>
        <time>2022-03-29T12:11:06Z</time>
      </trkpt>
      <trkpt lat="46.66482" lon="5.60519">
        <ele>556.2</ele>
        <time>2022-03-29T12:11:10Z</time>
      </trkpt>
      <trkpt lat="46.66485" lon="5.60512">
        <ele>556.1</ele>
        <time>2022-03-29T12:11:14Z</time>
      </trkpt>
      <trkpt lat="46.66486" lon="5.60506">
        <ele>556.4</ele>
        <time>2022-03-29T12:11:20Z</time>
      </trkpt>
      <trkpt lat="46.66485" lon="5.605">
        <ele>556.6</ele>
        <time>2022-03-29T12:11:27Z</time>
      </trkpt>
      <trkpt lat="46.66485" lon="5.60492">
        <ele>556.7</ele>
        <time>2022-03-29T12:11:31Z</time>
      </trkpt>
      <trkpt lat="46.66485" lon="5.60486">
        <ele>556.2</ele>
        <time>2022-03-29T12:11:35Z</time>
      </trkpt>
      <trkpt lat="46.66485" lon="5.60478">
        <ele>555.7</ele>
        <time>2022-03-29T12:11:39Z</time>
      </trkpt>
      <trkpt lat="46.66484" lon="5.60471">
        <ele>555.3</ele>
        <time>2022-03-29T12:11:43Z</time>
      </trkpt>
      <trkpt lat="46.66483" lon="5.60463">
        <ele>554.8</ele>
        <time>2022-03-29T12:11:48Z</time>
      </trkpt>
      <trkpt lat="46.66482" lon="5.60455">
        <ele>554</ele>
        <time>2022-03-29T12:11:53Z</time>
      </trkpt>
      <trkpt lat="46.66482" lon="5.60447">
        <ele>552.8</ele>
        <time>2022-03-29T12:11:59Z</time>
      </trkpt>
      <trkpt lat="46.66481" lon="5.6044">
        <ele>552.3</ele>
        <time>2022-03-29T12:12:04Z</time>
      </trkpt>
      <trkpt lat="46.66479" lon="5.60434">
        <ele>552.7</ele>
        <time>2022-03-29T12:12:09Z</time>
      </trkpt>
      <trkpt lat="46.66477" lon="5.60427">
        <ele>552.8</ele>
        <time>2022-03-29T12:12:13Z</time>
      </trkpt>
      <trkpt lat="46.66476" lon="5.6042">
        <ele>552.7</ele>
        <time>2022-03-29T12:12:17Z</time>
      </trkpt>
      <trkpt lat="46.66476" lon="5.60414">
        <ele>553</ele>
        <time>2022-03-29T12:12:21Z</time>
      </trkpt>
      <trkpt lat="46.66475" lon="5.60407">
        <ele>553.5</ele>
        <time>2022-03-29T12:12:26Z</time>
      </trkpt>
      <trkpt lat="46.66476" lon="5.60399">
        <ele>554.3</ele>
        <time>2022-03-29T12:12:30Z</time>
      </trkpt>
      <trkpt lat="46.66476" lon="5.60392">
        <ele>555</ele>
        <time>2022-03-29T12:12:34Z</time>
      </trkpt>
      <trkpt lat="46.66476" lon="5.60385">
        <ele>555.7</ele>
        <time>2022-03-29T12:12:38Z</time>
      </trkpt>
      <trkpt lat="46.66475" lon="5.60378">
        <ele>556.5</ele>
        <time>2022-03-29T12:12:43Z</time>
      </trkpt>
      <trkpt lat="46.66473" lon="5.6037">
        <ele>557.3</ele>
        <time>2022-03-29T12:12:49Z</time>
      </trkpt>
      <trkpt lat="46.66472" lon="5.60363">
        <ele>557.5</ele>
        <time>2022-03-29T12:12:54Z</time>
      </trkpt>
      <trkpt lat="46.66471" lon="5.60356">
        <ele>557.4</ele>
        <time>2022-03-29T12:12:58Z</time>
      </trkpt>
      <trkpt lat="46.66471" lon="5.60348">
        <ele>557</ele>
        <time>2022-03-29T12:13:03Z</time>
      </trkpt>
      <trkpt lat="46.66471" lon="5.6034">
        <ele>555.9</ele>
        <time>2022-03-29T12:13:09Z</time>
      </trkpt>
      <trkpt lat="46.6647" lon="5.60334">
        <ele>555.3</ele>
        <time>2022-03-29T12:13:13Z</time>
      </trkpt>
      <trkpt lat="46.66469" lon="5.60327">
        <ele>554.8</ele>
        <time>2022-03-29T12:13:17Z</time>
      </trkpt>
      <trkpt lat="46.66468" lon="5.60319">
        <ele>554.6</ele>
        <time>2022-03-29T12:13:22Z</time>
      </trkpt>
      <trkpt lat="46.66468" lon="5.60312">
        <ele>554.4</ele>
        <time>2022-03-29T12:13:27Z</time>
      </trkpt>
      <trkpt lat="46.66467" lon="5.60305">
        <ele>554</ele>
        <time>2022-03-29T12:13:31Z</time>
      </trkpt>
      <trkpt lat="46.66465" lon="5.60298">
        <ele>554</ele>
        <time>2022-03-29T12:13:36Z</time>
      </trkpt>
      <trkpt lat="46.66464" lon="5.6029">
        <ele>554</ele>
        <time>2022-03-29T12:13:41Z</time>
      </trkpt>
      <trkpt lat="46.66463" lon="5.60283">
        <ele>553.8</ele>
        <time>2022-03-29T12:13:45Z</time>
      </trkpt>
      <trkpt lat="46.66461" lon="5.60276">
        <ele>553.5</ele>
        <time>2022-03-29T12:13:52Z</time>
      </trkpt>
      <trkpt lat="46.66464" lon="5.60272">
        <ele>553.7</ele>
        <time>2022-03-29T12:14:08Z</time>
      </trkpt>
      <trkpt lat="46.66467" lon="5.60267">
        <ele>554.2</ele>
        <time>2022-03-29T12:14:14Z</time>
      </trkpt>
      <trkpt lat="46.66463" lon="5.6027">
        <ele>553.4</ele>
        <time>2022-03-29T12:14:30Z</time>
      </trkpt>
      <trkpt lat="46.66458" lon="5.6027">
        <ele>550.7</ele>
        <time>2022-03-29T12:14:41Z</time>
      </trkpt>
      <trkpt lat="46.66454" lon="5.60272">
        <ele>550</ele>
        <time>2022-03-29T12:15:06Z</time>
      </trkpt>
      <trkpt lat="46.6645" lon="5.60271">
        <ele>550.1</ele>
        <time>2022-03-29T12:15:16Z</time>
      </trkpt>
      <trkpt lat="46.66445" lon="5.60271">
        <ele>550.2</ele>
        <time>2022-03-29T12:15:45Z</time>
      </trkpt>
      <trkpt lat="46.66441" lon="5.60269">
        <ele>551</ele>
        <time>2022-03-29T12:16:05Z</time>
      </trkpt>
      <trkpt lat="46.66436" lon="5.60272">
        <ele>550.5</ele>
        <time>2022-03-29T12:16:21Z</time>
      </trkpt>
      <trkpt lat="46.66432" lon="5.60275">
        <ele>551</ele>
        <time>2022-03-29T12:17:13Z</time>
      </trkpt>
      <trkpt lat="46.66427" lon="5.60276">
        <ele>553</ele>
        <time>2022-03-29T12:17:20Z</time>
      </trkpt>
      <trkpt lat="46.66432" lon="5.60273">
        <ele>554.8</ele>
        <time>2022-03-29T12:18:13Z</time>
      </trkpt>
      <trkpt lat="46.66436" lon="5.60268">
        <ele>555.1</ele>
        <time>2022-03-29T12:18:16Z</time>
      </trkpt>
      <trkpt lat="46.66438" lon="5.60262">
        <ele>555.9</ele>
        <time>2022-03-29T12:18:26Z</time>
      </trkpt>
      <trkpt lat="46.66438" lon="5.60255">
        <ele>556.6</ele>
        <time>2022-03-29T12:18:30Z</time>
      </trkpt>
      <trkpt lat="46.66434" lon="5.60259">
        <ele>555.1</ele>
        <time>2022-03-29T12:19:10Z</time>
      </trkpt>
      <trkpt lat="46.66435" lon="5.60253">
        <ele>555.2</ele>
        <time>2022-03-29T12:19:29Z</time>
      </trkpt>
      <trkpt lat="46.66435" lon="5.60245">
        <ele>556.3</ele>
        <time>2022-03-29T12:19:35Z</time>
      </trkpt>
      <trkpt lat="46.6643" lon="5.60241">
        <ele>558.9</ele>
        <time>2022-03-29T12:19:46Z</time>
      </trkpt>
      <trkpt lat="46.66435" lon="5.6024">
        <ele>559.4</ele>
        <time>2022-03-29T12:20:04Z</time>
      </trkpt>
      <trkpt lat="46.6644" lon="5.6024">
        <ele>559.1</ele>
        <time>2022-03-29T12:20:09Z</time>
      </trkpt>
      <trkpt lat="46.66444" lon="5.60245">
        <ele>558.4</ele>
        <time>2022-03-29T12:20:16Z</time>
      </trkpt>
      <trkpt lat="46.66444" lon="5.60251">
        <ele>557.8</ele>
        <time>2022-03-29T12:20:31Z</time>
      </trkpt>
      <trkpt lat="46.66449" lon="5.60255">
        <ele>555.5</ele>
        <time>2022-03-29T12:21:02Z</time>
      </trkpt>
      <trkpt lat="46.66451" lon="5.60261">
        <ele>554.9</ele>
        <time>2022-03-29T12:21:08Z</time>
      </trkpt>
      <trkpt lat="46.66454" lon="5.60267">
        <ele>553.8</ele>
        <time>2022-03-29T12:21:21Z</time>
      </trkpt>
      <trkpt lat="46.66458" lon="5.60269">
        <ele>553.4</ele>
        <time>2022-03-29T12:21:29Z</time>
      </trkpt>
      <trkpt lat="46.66463" lon="5.60268">
        <ele>553.7</ele>
        <time>2022-03-29T12:21:38Z</time>
      </trkpt>
      <trkpt lat="46.66468" lon="5.60274">
        <ele>555.9</ele>
        <time>2022-03-29T12:22:17Z</time>
      </trkpt>
      <trkpt lat="46.66466" lon="5.6028">
        <ele>556.6</ele>
        <time>2022-03-29T12:22:22Z</time>
      </trkpt>
      <trkpt lat="46.66467" lon="5.60288">
        <ele>555.5</ele>
        <time>2022-03-29T12:22:43Z</time>
      </trkpt>
      <trkpt lat="46.66467" lon="5.60295">
        <ele>553.6</ele>
        <time>2022-03-29T12:22:51Z</time>
      </trkpt>
      <trkpt lat="46.66468" lon="5.60302">
        <ele>551.8</ele>
        <time>2022-03-29T12:22:58Z</time>
      </trkpt>
      <trkpt lat="46.66469" lon="5.60309">
        <ele>550.7</ele>
        <time>2022-03-29T12:23:04Z</time>
      </trkpt>
      <trkpt lat="46.6647" lon="5.60317">
        <ele>549.9</ele>
        <time>2022-03-29T12:23:09Z</time>
      </trkpt>
      <trkpt lat="46.6647" lon="5.60323">
        <ele>549.5</ele>
        <time>2022-03-29T12:23:14Z</time>
      </trkpt>
      <trkpt lat="46.66472" lon="5.60331">
        <ele>549.5</ele>
        <time>2022-03-29T12:23:19Z</time>
      </trkpt>
      <trkpt lat="46.66474" lon="5.60338">
        <ele>549.4</ele>
        <time>2022-03-29T12:23:24Z</time>
      </trkpt>
      <trkpt lat="46.66474" lon="5.60345">
        <ele>549.4</ele>
        <time>2022-03-29T12:23:30Z</time>
      </trkpt>
      <trkpt lat="46.66474" lon="5.60352">
        <ele>549.2</ele>
        <time>2022-03-29T12:23:37Z</time>
      </trkpt>
      <trkpt lat="46.66475" lon="5.60359">
        <ele>548.8</ele>
        <time>2022-03-29T12:23:43Z</time>
      </trkpt>
      <trkpt lat="46.66476" lon="5.60366">
        <ele>549</ele>
        <time>2022-03-29T12:23:48Z</time>
      </trkpt>
      <trkpt lat="46.66477" lon="5.60373">
        <ele>549.5</ele>
        <time>2022-03-29T12:23:53Z</time>
      </trkpt>
      <trkpt lat="46.66479" lon="5.60381">
        <ele>550</ele>
        <time>2022-03-29T12:23:58Z</time>
      </trkpt>
      <trkpt lat="46.6648" lon="5.60388">
        <ele>550.6</ele>
        <time>2022-03-29T12:24:03Z</time>
      </trkpt>
      <trkpt lat="46.66481" lon="5.60395">
        <ele>551.1</ele>
        <time>2022-03-29T12:24:08Z</time>
      </trkpt>
      <trkpt lat="46.66481" lon="5.60403">
        <ele>551.6</ele>
        <time>2022-03-29T12:24:14Z</time>
      </trkpt>
      <trkpt lat="46.66482" lon="5.6041">
        <ele>551.4</ele>
        <time>2022-03-29T12:24:20Z</time>
      </trkpt>
      <trkpt lat="46.66483" lon="5.60418">
        <ele>551</ele>
        <time>2022-03-29T12:24:26Z</time>
      </trkpt>
      <trkpt lat="46.66482" lon="5.60425">
        <ele>550.6</ele>
        <time>2022-03-29T12:24:31Z</time>
      </trkpt>
      <trkpt lat="46.66483" lon="5.60432">
        <ele>550.3</ele>
        <time>2022-03-29T12:24:36Z</time>
      </trkpt>
      <trkpt lat="46.66484" lon="5.60439">
        <ele>550</ele>
        <time>2022-03-29T12:24:42Z</time>
      </trkpt>
      <trkpt lat="46.66485" lon="5.60446">
        <ele>549.8</ele>
        <time>2022-03-29T12:24:47Z</time>
      </trkpt>
      <trkpt lat="46.66485" lon="5.60453">
        <ele>549.9</ele>
        <time>2022-03-29T12:24:52Z</time>
      </trkpt>
      <trkpt lat="46.66485" lon="5.60461">
        <ele>550.1</ele>
        <time>2022-03-29T12:24:58Z</time>
      </trkpt>
      <trkpt lat="46.66485" lon="5.60469">
        <ele>549.7</ele>
        <time>2022-03-29T12:25:02Z</time>
      </trkpt>
      <trkpt lat="46.66486" lon="5.60475">
        <ele>549</ele>
        <time>2022-03-29T12:25:06Z</time>
      </trkpt>
      <trkpt lat="46.66489" lon="5.60481">
        <ele>547.8</ele>
        <time>2022-03-29T12:25:13Z</time>
      </trkpt>
      <trkpt lat="46.66493" lon="5.60482">
        <ele>548</ele>
        <time>2022-03-29T12:25:16Z</time>
      </trkpt>
      <trkpt lat="46.66498" lon="5.60481">
        <ele>548.5</ele>
        <time>2022-03-29T12:25:20Z</time>
      </trkpt>
      <trkpt lat="46.66502" lon="5.60476">
        <ele>549.2</ele>
        <time>2022-03-29T12:25:26Z</time>
      </trkpt>
      <trkpt lat="46.66504" lon="5.60469">
        <ele>550</ele>
        <time>2022-03-29T12:25:33Z</time>
      </trkpt>
      <trkpt lat="46.66503" lon="5.60461">
        <ele>550.5</ele>
        <time>2022-03-29T12:25:38Z</time>
      </trkpt>
      <trkpt lat="46.66503" lon="5.60454">
        <ele>550.7</ele>
        <time>2022-03-29T12:25:42Z</time>
      </trkpt>
      <trkpt lat="46.66505" lon="5.60448">
        <ele>550.8</ele>
        <time>2022-03-29T12:25:47Z</time>
      </trkpt>
      <trkpt lat="46.66507" lon="5.60441">
        <ele>550.8</ele>
        <time>2022-03-29T12:25:53Z</time>
      </trkpt>
      <trkpt lat="46.6651" lon="5.60436">
        <ele>550.4</ele>
        <time>2022-03-29T12:25:58Z</time>
      </trkpt>
      <trkpt lat="46.66512" lon="5.60429">
        <ele>550.1</ele>
        <time>2022-03-29T12:26:03Z</time>
      </trkpt>
      <trkpt lat="46.66514" lon="5.60422">
        <ele>549.5</ele>
        <time>2022-03-29T12:26:08Z</time>
      </trkpt>
      <trkpt lat="46.66517" lon="5.60416">
        <ele>548.7</ele>
        <time>2022-03-29T12:26:12Z</time>
      </trkpt>
      <trkpt lat="46.66518" lon="5.6041">
        <ele>548</ele>
        <time>2022-03-29T12:26:17Z</time>
      </trkpt>
      <trkpt lat="46.66521" lon="5.60404">
        <ele>548</ele>
        <time>2022-03-29T12:26:23Z</time>
      </trkpt>
      <trkpt lat="46.66525" lon="5.60398">
        <ele>548.2</ele>
        <time>2022-03-29T12:26:28Z</time>
      </trkpt>
      <trkpt lat="46.66527" lon="5.60392">
        <ele>548.4</ele>
        <time>2022-03-29T12:26:32Z</time>
      </trkpt>
      <trkpt lat="46.6653" lon="5.60386">
        <ele>548.6</ele>
        <time>2022-03-29T12:26:36Z</time>
      </trkpt>
      <trkpt lat="46.66532" lon="5.60381">
        <ele>548.7</ele>
        <time>2022-03-29T12:26:40Z</time>
      </trkpt>
      <trkpt lat="46.66535" lon="5.60375">
        <ele>548.7</ele>
        <time>2022-03-29T12:26:44Z</time>
      </trkpt>
      <trkpt lat="46.66536" lon="5.60368">
        <ele>548.7</ele>
        <time>2022-03-29T12:26:50Z</time>
      </trkpt>
      <trkpt lat="46.66539" lon="5.60362">
        <ele>548</ele>
        <time>2022-03-29T12:26:55Z</time>
      </trkpt>
      <trkpt lat="46.66541" lon="5.60356">
        <ele>547.1</ele>
        <time>2022-03-29T12:27:00Z</time>
      </trkpt>
      <trkpt lat="46.66542" lon="5.60349">
        <ele>546.5</ele>
        <time>2022-03-29T12:27:04Z</time>
      </trkpt>
      <trkpt lat="46.66544" lon="5.60341">
        <ele>545.6</ele>
        <time>2022-03-29T12:27:09Z</time>
      </trkpt>
      <trkpt lat="46.66547" lon="5.60335">
        <ele>545</ele>
        <time>2022-03-29T12:27:14Z</time>
      </trkpt>
      <trkpt lat="46.66551" lon="5.6033">
        <ele>544.9</ele>
        <time>2022-03-29T12:27:20Z</time>
      </trkpt>
      <trkpt lat="46.66553" lon="5.60323">
        <ele>545.3</ele>
        <time>2022-03-29T12:27:25Z</time>
      </trkpt>
      <trkpt lat="46.66553" lon="5.60316">
        <ele>545.5</ele>
        <time>2022-03-29T12:27:30Z</time>
      </trkpt>
      <trkpt lat="46.66553" lon="5.60309">
        <ele>545.7</ele>
        <time>2022-03-29T12:27:34Z</time>
      </trkpt>
      <trkpt lat="46.66553" lon="5.60301">
        <ele>545.7</ele>
        <time>2022-03-29T12:27:39Z</time>
      </trkpt>
      <trkpt lat="46.66555" lon="5.60294">
        <ele>546.1</ele>
        <time>2022-03-29T12:27:46Z</time>
      </trkpt>
      <trkpt lat="46.66557" lon="5.60288">
        <ele>546.3</ele>
        <time>2022-03-29T12:27:51Z</time>
      </trkpt>
      <trkpt lat="46.66559" lon="5.60282">
        <ele>546.9</ele>
        <time>2022-03-29T12:27:56Z</time>
      </trkpt>
      <trkpt lat="46.6656" lon="5.60275">
        <ele>547.6</ele>
        <time>2022-03-29T12:28:01Z</time>
      </trkpt>
      <trkpt lat="46.6656" lon="5.60267">
        <ele>547.9</ele>
        <time>2022-03-29T12:28:06Z</time>
      </trkpt>
      <trkpt lat="46.6656" lon="5.6026">
        <ele>548.1</ele>
        <time>2022-03-29T12:28:10Z</time>
      </trkpt>
      <trkpt lat="46.66561" lon="5.60253">
        <ele>548</ele>
        <time>2022-03-29T12:28:14Z</time>
      </trkpt>
      <trkpt lat="46.66563" lon="5.60245">
        <ele>547.6</ele>
        <time>2022-03-29T12:28:19Z</time>
      </trkpt>
      <trkpt lat="46.66567" lon="5.60241">
        <ele>547.2</ele>
        <time>2022-03-29T12:28:25Z</time>
      </trkpt>
      <trkpt lat="46.6657" lon="5.60236">
        <ele>546.9</ele>
        <time>2022-03-29T12:28:30Z</time>
      </trkpt>
      <trkpt lat="46.66574" lon="5.60233">
        <ele>546.7</ele>
        <time>2022-03-29T12:28:35Z</time>
      </trkpt>
      <trkpt lat="46.66577" lon="5.60227">
        <ele>546.8</ele>
        <time>2022-03-29T12:28:40Z</time>
      </trkpt>
      <trkpt lat="46.66579" lon="5.60221">
        <ele>546.8</ele>
        <time>2022-03-29T12:28:46Z</time>
      </trkpt>
      <trkpt lat="46.66578" lon="5.60213">
        <ele>547.6</ele>
        <time>2022-03-29T12:28:56Z</time>
      </trkpt>
      <trkpt lat="46.66574" lon="5.60217">
        <ele>548.3</ele>
        <time>2022-03-29T12:29:50Z</time>
      </trkpt>
      <trkpt lat="46.66578" lon="5.60214">
        <ele>548.1</ele>
        <time>2022-03-29T12:30:23Z</time>
      </trkpt>
      <trkpt lat="46.6658" lon="5.60208">
        <ele>548</ele>
        <time>2022-03-29T12:30:28Z</time>
      </trkpt>
      <trkpt lat="46.66582" lon="5.60201">
        <ele>548.5</ele>
        <time>2022-03-29T12:30:34Z</time>
      </trkpt>
      <trkpt lat="46.66587" lon="5.60198">
        <ele>550.7</ele>
        <time>2022-03-29T12:30:45Z</time>
      </trkpt>
      <trkpt lat="46.66588" lon="5.60192">
        <ele>552.2</ele>
        <time>2022-03-29T12:30:53Z</time>
      </trkpt>
      <trkpt lat="46.66592" lon="5.60196">
        <ele>551.7</ele>
        <time>2022-03-29T12:30:59Z</time>
      </trkpt>
      <trkpt lat="46.66597" lon="5.60199">
        <ele>550.5</ele>
        <time>2022-03-29T12:31:17Z</time>
      </trkpt>
      <trkpt lat="46.66601" lon="5.60203">
        <ele>549.8</ele>
        <time>2022-03-29T12:31:22Z</time>
      </trkpt>
      <trkpt lat="46.66604" lon="5.60197">
        <ele>549.6</ele>
        <time>2022-03-29T12:31:28Z</time>
      </trkpt>
      <trkpt lat="46.66606" lon="5.60191">
        <ele>549.6</ele>
        <time>2022-03-29T12:31:33Z</time>
      </trkpt>
      <trkpt lat="46.66609" lon="5.60186">
        <ele>549.6</ele>
        <time>2022-03-29T12:31:37Z</time>
      </trkpt>
      <trkpt lat="46.66614" lon="5.60182">
        <ele>550.1</ele>
        <time>2022-03-29T12:31:41Z</time>
      </trkpt>
      <trkpt lat="46.66619" lon="5.60179">
        <ele>550.8</ele>
        <time>2022-03-29T12:31:45Z</time>
      </trkpt>
      <trkpt lat="46.66624" lon="5.60176">
        <ele>551.9</ele>
        <time>2022-03-29T12:31:51Z</time>
      </trkpt>
      <trkpt lat="46.66628" lon="5.60172">
        <ele>552.3</ele>
        <time>2022-03-29T12:31:56Z</time>
      </trkpt>
      <trkpt lat="46.66633" lon="5.6017">
        <ele>552.1</ele>
        <time>2022-03-29T12:32:00Z</time>
      </trkpt>
      <trkpt lat="46.66638" lon="5.60168">
        <ele>551.8</ele>
        <time>2022-03-29T12:32:04Z</time>
      </trkpt>
      <trkpt lat="46.66641" lon="5.60163">
        <ele>551.5</ele>
        <time>2022-03-29T12:32:09Z</time>
      </trkpt>
      <trkpt lat="46.66644" lon="5.60158">
        <ele>551.3</ele>
        <time>2022-03-29T12:32:14Z</time>
      </trkpt>
      <trkpt lat="46.66649" lon="5.60155">
        <ele>551.5</ele>
        <time>2022-03-29T12:32:18Z</time>
      </trkpt>
      <trkpt lat="46.66653" lon="5.60151">
        <ele>551.7</ele>
        <time>2022-03-29T12:32:23Z</time>
      </trkpt>
      <trkpt lat="46.66658" lon="5.60149">
        <ele>552.9</ele>
        <time>2022-03-29T12:32:28Z</time>
      </trkpt>
      <trkpt lat="46.66663" lon="5.60148">
        <ele>554</ele>
        <time>2022-03-29T12:32:32Z</time>
      </trkpt>
      <trkpt lat="46.66667" lon="5.60147">
        <ele>555.4</ele>
        <time>2022-03-29T12:32:37Z</time>
      </trkpt>
      <trkpt lat="46.66672" lon="5.60144">
        <ele>557.3</ele>
        <time>2022-03-29T12:32:42Z</time>
      </trkpt>
      <trkpt lat="46.66676" lon="5.60139">
        <ele>558.7</ele>
        <time>2022-03-29T12:32:46Z</time>
      </trkpt>
      <trkpt lat="46.6668" lon="5.60135">
        <ele>559.5</ele>
        <time>2022-03-29T12:32:50Z</time>
      </trkpt>
      <trkpt lat="46.66684" lon="5.60133">
        <ele>560.4</ele>
        <time>2022-03-29T12:32:55Z</time>
      </trkpt>
      <trkpt lat="46.66689" lon="5.60128">
        <ele>560.6</ele>
        <time>2022-03-29T12:33:02Z</time>
      </trkpt>
      <trkpt lat="46.66694" lon="5.60125">
        <ele>560.7</ele>
        <time>2022-03-29T12:33:07Z</time>
      </trkpt>
      <trkpt lat="46.66698" lon="5.60121">
        <ele>560.1</ele>
        <time>2022-03-29T12:33:14Z</time>
      </trkpt>
      <trkpt lat="46.66701" lon="5.60115">
        <ele>559.2</ele>
        <time>2022-03-29T12:33:19Z</time>
      </trkpt>
      <trkpt lat="46.66705" lon="5.60112">
        <ele>557.6</ele>
        <time>2022-03-29T12:33:26Z</time>
      </trkpt>
      <trkpt lat="46.66709" lon="5.60109">
        <ele>556.4</ele>
        <time>2022-03-29T12:33:31Z</time>
      </trkpt>
      <trkpt lat="46.66713" lon="5.60106">
        <ele>556.5</ele>
        <time>2022-03-29T12:33:39Z</time>
      </trkpt>
      <trkpt lat="46.66717" lon="5.60102">
        <ele>556.4</ele>
        <time>2022-03-29T12:33:45Z</time>
      </trkpt>
      <trkpt lat="46.66722" lon="5.60097">
        <ele>556</ele>
        <time>2022-03-29T12:33:51Z</time>
      </trkpt>
      <trkpt lat="46.66727" lon="5.60094">
        <ele>555.5</ele>
        <time>2022-03-29T12:33:55Z</time>
      </trkpt>
      <trkpt lat="46.66732" lon="5.60092">
        <ele>554.9</ele>
        <time>2022-03-29T12:33:58Z</time>
      </trkpt>
      <trkpt lat="46.66737" lon="5.60091">
        <ele>554.3</ele>
        <time>2022-03-29T12:34:01Z</time>
      </trkpt>
      <trkpt lat="46.66742" lon="5.60089">
        <ele>553.9</ele>
        <time>2022-03-29T12:34:04Z</time>
      </trkpt>
      <trkpt lat="46.66747" lon="5.60087">
        <ele>554</ele>
        <time>2022-03-29T12:34:08Z</time>
      </trkpt>
      <trkpt lat="46.66751" lon="5.60085">
        <ele>554.1</ele>
        <time>2022-03-29T12:34:14Z</time>
      </trkpt>
      <trkpt lat="46.66756" lon="5.60084">
        <ele>554.3</ele>
        <time>2022-03-29T12:34:22Z</time>
      </trkpt>
      <trkpt lat="46.66761" lon="5.60082">
        <ele>554.4</ele>
        <time>2022-03-29T12:34:26Z</time>
      </trkpt>
      <trkpt lat="46.66765" lon="5.60077">
        <ele>553.7</ele>
        <time>2022-03-29T12:34:30Z</time>
      </trkpt>
      <trkpt lat="46.66768" lon="5.60072">
        <ele>552.9</ele>
        <time>2022-03-29T12:34:34Z</time>
      </trkpt>
      <trkpt lat="46.66772" lon="5.60068">
        <ele>552.1</ele>
        <time>2022-03-29T12:34:40Z</time>
      </trkpt>
      <trkpt lat="46.66776" lon="5.60063">
        <ele>552.1</ele>
        <time>2022-03-29T12:34:44Z</time>
      </trkpt>
      <trkpt lat="46.6678" lon="5.60059">
        <ele>552.1</ele>
        <time>2022-03-29T12:34:48Z</time>
      </trkpt>
      <trkpt lat="46.66784" lon="5.60054">
        <ele>552.7</ele>
        <time>2022-03-29T12:34:52Z</time>
      </trkpt>
      <trkpt lat="46.66788" lon="5.60051">
        <ele>554.1</ele>
        <time>2022-03-29T12:34:59Z</time>
      </trkpt>
      <trkpt lat="46.66792" lon="5.60046">
        <ele>554.8</ele>
        <time>2022-03-29T12:35:03Z</time>
      </trkpt>
      <trkpt lat="46.66795" lon="5.60042">
        <ele>555.3</ele>
        <time>2022-03-29T12:35:06Z</time>
      </trkpt>
      <trkpt lat="46.668" lon="5.60038">
        <ele>555.7</ele>
        <time>2022-03-29T12:35:10Z</time>
      </trkpt>
      <trkpt lat="46.66804" lon="5.60035">
        <ele>555.7</ele>
        <time>2022-03-29T12:35:14Z</time>
      </trkpt>
      <trkpt lat="46.66809" lon="5.60033">
        <ele>555.8</ele>
        <time>2022-03-29T12:35:17Z</time>
      </trkpt>
      <trkpt lat="46.66814" lon="5.60029">
        <ele>556.1</ele>
        <time>2022-03-29T12:35:21Z</time>
      </trkpt>
      <trkpt lat="46.66818" lon="5.60028">
        <ele>556.5</ele>
        <time>2022-03-29T12:35:26Z</time>
      </trkpt>
      <trkpt lat="46.66823" lon="5.60025">
        <ele>556.6</ele>
        <time>2022-03-29T12:35:30Z</time>
      </trkpt>
      <trkpt lat="46.66827" lon="5.60022">
        <ele>556.7</ele>
        <time>2022-03-29T12:35:33Z</time>
      </trkpt>
      <trkpt lat="46.6683" lon="5.60016">
        <ele>556.8</ele>
        <time>2022-03-29T12:35:37Z</time>
      </trkpt>
      <trkpt lat="46.66834" lon="5.60012">
        <ele>556.9</ele>
        <time>2022-03-29T12:35:44Z</time>
      </trkpt>
      <trkpt lat="46.66838" lon="5.60007">
        <ele>557.1</ele>
        <time>2022-03-29T12:35:51Z</time>
      </trkpt>
      <trkpt lat="46.66842" lon="5.60004">
        <ele>557.3</ele>
        <time>2022-03-29T12:35:56Z</time>
      </trkpt>
      <trkpt lat="46.66846" lon="5.59999">
        <ele>557</ele>
        <time>2022-03-29T12:36:02Z</time>
      </trkpt>
      <trkpt lat="46.6685" lon="5.59995">
        <ele>556.8</ele>
        <time>2022-03-29T12:36:06Z</time>
      </trkpt>
      <trkpt lat="46.66854" lon="5.59991">
        <ele>556.5</ele>
        <time>2022-03-29T12:36:11Z</time>
      </trkpt>
      <trkpt lat="46.66858" lon="5.59988">
        <ele>556.7</ele>
        <time>2022-03-29T12:36:18Z</time>
      </trkpt>
      <trkpt lat="46.66863" lon="5.59985">
        <ele>556.7</ele>
        <time>2022-03-29T12:36:23Z</time>
      </trkpt>
      <trkpt lat="46.66867" lon="5.59981">
        <ele>556.5</ele>
        <time>2022-03-29T12:36:28Z</time>
      </trkpt>
      <trkpt lat="46.66871" lon="5.59975">
        <ele>556.1</ele>
        <time>2022-03-29T12:36:33Z</time>
      </trkpt>
      <trkpt lat="46.66873" lon="5.59968">
        <ele>555.1</ele>
        <time>2022-03-29T12:36:38Z</time>
      </trkpt>
      <trkpt lat="46.66876" lon="5.59963">
        <ele>553.9</ele>
        <time>2022-03-29T12:36:44Z</time>
      </trkpt>
      <trkpt lat="46.66878" lon="5.59957">
        <ele>553.6</ele>
        <time>2022-03-29T12:36:49Z</time>
      </trkpt>
      <trkpt lat="46.66882" lon="5.59951">
        <ele>553.7</ele>
        <time>2022-03-29T12:36:54Z</time>
      </trkpt>
      <trkpt lat="46.66885" lon="5.59945">
        <ele>553.8</ele>
        <time>2022-03-29T12:37:00Z</time>
      </trkpt>
      <trkpt lat="46.66886" lon="5.59937">
        <ele>553.3</ele>
        <time>2022-03-29T12:37:05Z</time>
      </trkpt>
      <trkpt lat="46.66888" lon="5.5993">
        <ele>552.1</ele>
        <time>2022-03-29T12:37:11Z</time>
      </trkpt>
      <trkpt lat="46.66891" lon="5.59924">
        <ele>550.8</ele>
        <time>2022-03-29T12:37:16Z</time>
      </trkpt>
      <trkpt lat="46.66894" lon="5.59917">
        <ele>549.3</ele>
        <time>2022-03-29T12:37:22Z</time>
      </trkpt>
      <trkpt lat="46.66896" lon="5.59912">
        <ele>548.3</ele>
        <time>2022-03-29T12:37:28Z</time>
      </trkpt>
      <trkpt lat="46.669" lon="5.59907">
        <ele>547.1</ele>
        <time>2022-03-29T12:37:33Z</time>
      </trkpt>
      <trkpt lat="46.66901" lon="5.599">
        <ele>546.7</ele>
        <time>2022-03-29T12:37:37Z</time>
      </trkpt>
      <trkpt lat="46.66903" lon="5.59893">
        <ele>546.7</ele>
        <time>2022-03-29T12:37:42Z</time>
      </trkpt>
      <trkpt lat="46.66904" lon="5.59886">
        <ele>546.6</ele>
        <time>2022-03-29T12:37:46Z</time>
      </trkpt>
      <trkpt lat="46.66906" lon="5.59879">
        <ele>546.6</ele>
        <time>2022-03-29T12:37:52Z</time>
      </trkpt>
      <trkpt lat="46.6691" lon="5.59875">
        <ele>546.5</ele>
        <time>2022-03-29T12:37:57Z</time>
      </trkpt>
      <trkpt lat="46.66914" lon="5.59872">
        <ele>545.8</ele>
        <time>2022-03-29T12:38:03Z</time>
      </trkpt>
      <trkpt lat="46.66918" lon="5.59865">
        <ele>545.1</ele>
        <time>2022-03-29T12:38:09Z</time>
      </trkpt>
      <trkpt lat="46.6692" lon="5.5986">
        <ele>544.5</ele>
        <time>2022-03-29T12:38:13Z</time>
      </trkpt>
      <trkpt lat="46.66925" lon="5.59855">
        <ele>543.4</ele>
        <time>2022-03-29T12:38:20Z</time>
      </trkpt>
      <trkpt lat="46.66929" lon="5.59851">
        <ele>543.2</ele>
        <time>2022-03-29T12:38:25Z</time>
      </trkpt>
      <trkpt lat="46.66932" lon="5.59844">
        <ele>543.2</ele>
        <time>2022-03-29T12:38:28Z</time>
      </trkpt>
      <trkpt lat="46.66933" lon="5.59838">
        <ele>543.2</ele>
        <time>2022-03-29T12:38:31Z</time>
      </trkpt>
      <trkpt lat="46.66937" lon="5.59834">
        <ele>543</ele>
        <time>2022-03-29T12:38:36Z</time>
      </trkpt>
      <trkpt lat="46.66941" lon="5.59829">
        <ele>543</ele>
        <time>2022-03-29T12:38:41Z</time>
      </trkpt>
      <trkpt lat="46.66945" lon="5.59823">
        <ele>542.7</ele>
        <time>2022-03-29T12:38:46Z</time>
      </trkpt>
      <trkpt lat="46.66948" lon="5.59818">
        <ele>542.4</ele>
        <time>2022-03-29T12:38:52Z</time>
      </trkpt>
      <trkpt lat="46.66953" lon="5.59812">
        <ele>543.1</ele>
        <time>2022-03-29T12:38:57Z</time>
      </trkpt>
      <trkpt lat="46.66957" lon="5.59808">
        <ele>544</ele>
        <time>2022-03-29T12:39:00Z</time>
      </trkpt>
      <trkpt lat="46.66961" lon="5.59803">
        <ele>545.2</ele>
        <time>2022-03-29T12:39:04Z</time>
      </trkpt>
      <trkpt lat="46.66963" lon="5.59796">
        <ele>544.9</ele>
        <time>2022-03-29T12:39:09Z</time>
      </trkpt>
      <trkpt lat="46.66967" lon="5.59789">
        <ele>544.5</ele>
        <time>2022-03-29T12:39:13Z</time>
      </trkpt>
      <trkpt lat="46.6697" lon="5.59785">
        <ele>543.9</ele>
        <time>2022-03-29T12:39:17Z</time>
      </trkpt>
      <trkpt lat="46.66974" lon="5.5978">
        <ele>543.4</ele>
        <time>2022-03-29T12:39:22Z</time>
      </trkpt>
      <trkpt lat="46.66978" lon="5.59775">
        <ele>543.1</ele>
        <time>2022-03-29T12:39:28Z</time>
      </trkpt>
      <trkpt lat="46.66982" lon="5.59771">
        <ele>543.3</ele>
        <time>2022-03-29T12:39:35Z</time>
      </trkpt>
      <trkpt lat="46.66986" lon="5.59768">
        <ele>543.2</ele>
        <time>2022-03-29T12:39:40Z</time>
      </trkpt>
      <trkpt lat="46.66991" lon="5.59764">
        <ele>541.8</ele>
        <time>2022-03-29T12:39:46Z</time>
      </trkpt>
      <trkpt lat="46.66994" lon="5.59759">
        <ele>539.5</ele>
        <time>2022-03-29T12:39:52Z</time>
      </trkpt>
      <trkpt lat="46.66999" lon="5.59757">
        <ele>537.4</ele>
        <time>2022-03-29T12:39:59Z</time>
      </trkpt>
      <trkpt lat="46.67004" lon="5.59753">
        <ele>536.4</ele>
        <time>2022-03-29T12:40:08Z</time>
      </trkpt>
      <trkpt lat="46.6701" lon="5.59751">
        <ele>536.8</ele>
        <time>2022-03-29T12:40:11Z</time>
      </trkpt>
      <trkpt lat="46.67014" lon="5.59748">
        <ele>537.2</ele>
        <time>2022-03-29T12:40:13Z</time>
      </trkpt>
      <trkpt lat="46.67017" lon="5.59743">
        <ele>537.7</ele>
        <time>2022-03-29T12:40:16Z</time>
      </trkpt>
      <trkpt lat="46.67022" lon="5.59737">
        <ele>537.9</ele>
        <time>2022-03-29T12:40:20Z</time>
      </trkpt>
      <trkpt lat="46.67026" lon="5.59732">
        <ele>538.2</ele>
        <time>2022-03-29T12:40:23Z</time>
      </trkpt>
      <trkpt lat="46.67029" lon="5.59727">
        <ele>538.8</ele>
        <time>2022-03-29T12:40:26Z</time>
      </trkpt>
      <trkpt lat="46.67033" lon="5.59723">
        <ele>539.6</ele>
        <time>2022-03-29T12:40:31Z</time>
      </trkpt>
      <trkpt lat="46.67038" lon="5.59723">
        <ele>540.1</ele>
        <time>2022-03-29T12:40:36Z</time>
      </trkpt>
      <trkpt lat="46.67042" lon="5.59721">
        <ele>539.8</ele>
        <time>2022-03-29T12:40:41Z</time>
      </trkpt>
      <trkpt lat="46.67047" lon="5.59719">
        <ele>539.3</ele>
        <time>2022-03-29T12:40:45Z</time>
      </trkpt>
      <trkpt lat="46.67052" lon="5.59717">
        <ele>538.6</ele>
        <time>2022-03-29T12:40:49Z</time>
      </trkpt>
      <trkpt lat="46.67057" lon="5.59715">
        <ele>537.6</ele>
        <time>2022-03-29T12:40:53Z</time>
      </trkpt>
      <trkpt lat="46.67062" lon="5.59712">
        <ele>536.4</ele>
        <time>2022-03-29T12:40:58Z</time>
      </trkpt>
      <trkpt lat="46.67066" lon="5.5971">
        <ele>535.7</ele>
        <time>2022-03-29T12:41:04Z</time>
      </trkpt>
      <trkpt lat="46.67071" lon="5.59711">
        <ele>535.4</ele>
        <time>2022-03-29T12:41:11Z</time>
      </trkpt>
      <trkpt lat="46.67076" lon="5.59711">
        <ele>535.5</ele>
        <time>2022-03-29T12:41:16Z</time>
      </trkpt>
      <trkpt lat="46.67081" lon="5.59711">
        <ele>536</ele>
        <time>2022-03-29T12:41:20Z</time>
      </trkpt>
      <trkpt lat="46.67086" lon="5.59709">
        <ele>536.4</ele>
        <time>2022-03-29T12:41:24Z</time>
      </trkpt>
      <trkpt lat="46.6709" lon="5.59706">
        <ele>536.8</ele>
        <time>2022-03-29T12:41:29Z</time>
      </trkpt>
      <trkpt lat="46.67093" lon="5.59699">
        <ele>537.6</ele>
        <time>2022-03-29T12:41:35Z</time>
      </trkpt>
      <trkpt lat="46.67095" lon="5.59693">
        <ele>538.1</ele>
        <time>2022-03-29T12:41:41Z</time>
      </trkpt>
      <trkpt lat="46.67096" lon="5.59687">
        <ele>538.1</ele>
        <time>2022-03-29T12:41:47Z</time>
      </trkpt>
      <trkpt lat="46.67101" lon="5.59684">
        <ele>538</ele>
        <time>2022-03-29T12:41:52Z</time>
      </trkpt>
      <trkpt lat="46.67106" lon="5.59682">
        <ele>537.5</ele>
        <time>2022-03-29T12:41:56Z</time>
      </trkpt>
      <trkpt lat="46.6711" lon="5.59678">
        <ele>537.4</ele>
        <time>2022-03-29T12:42:01Z</time>
      </trkpt>
      <trkpt lat="46.67114" lon="5.59675">
        <ele>537.3</ele>
        <time>2022-03-29T12:42:04Z</time>
      </trkpt>
      <trkpt lat="46.67119" lon="5.59672">
        <ele>536.4</ele>
        <time>2022-03-29T12:42:09Z</time>
      </trkpt>
      <trkpt lat="46.67122" lon="5.59666">
        <ele>535.6</ele>
        <time>2022-03-29T12:42:13Z</time>
      </trkpt>
      <trkpt lat="46.67126" lon="5.5966">
        <ele>534.5</ele>
        <time>2022-03-29T12:42:17Z</time>
      </trkpt>
      <trkpt lat="46.67129" lon="5.59655">
        <ele>533.4</ele>
        <time>2022-03-29T12:42:21Z</time>
      </trkpt>
      <trkpt lat="46.67132" lon="5.59649">
        <ele>532.5</ele>
        <time>2022-03-29T12:42:25Z</time>
      </trkpt>
      <trkpt lat="46.67134" lon="5.59642">
        <ele>531.6</ele>
        <time>2022-03-29T12:42:30Z</time>
      </trkpt>
      <trkpt lat="46.67136" lon="5.59636">
        <ele>529.6</ele>
        <time>2022-03-29T12:42:36Z</time>
      </trkpt>
      <trkpt lat="46.67139" lon="5.5963">
        <ele>528.4</ele>
        <time>2022-03-29T12:42:41Z</time>
      </trkpt>
      <trkpt lat="46.67143" lon="5.59627">
        <ele>527.3</ele>
        <time>2022-03-29T12:42:47Z</time>
      </trkpt>
      <trkpt lat="46.67148" lon="5.59623">
        <ele>526.7</ele>
        <time>2022-03-29T12:42:56Z</time>
      </trkpt>
      <trkpt lat="46.67152" lon="5.59619">
        <ele>525.8</ele>
        <time>2022-03-29T12:43:01Z</time>
      </trkpt>
      <trkpt lat="46.67156" lon="5.59622">
        <ele>522.9</ele>
        <time>2022-03-29T12:43:16Z</time>
      </trkpt>
      <trkpt lat="46.6716" lon="5.59625">
        <ele>520.7</ele>
        <time>2022-03-29T12:43:23Z</time>
      </trkpt>
      <trkpt lat="46.67163" lon="5.59619">
        <ele>518.2</ele>
        <time>2022-03-29T12:43:30Z</time>
      </trkpt>
      <trkpt lat="46.67164" lon="5.59613">
        <ele>516.9</ele>
        <time>2022-03-29T12:43:36Z</time>
      </trkpt>
      <trkpt lat="46.67167" lon="5.59608">
        <ele>519.4</ele>
        <time>2022-03-29T12:44:04Z</time>
      </trkpt>
      <trkpt lat="46.67172" lon="5.59608">
        <ele>521.8</ele>
        <time>2022-03-29T12:44:10Z</time>
      </trkpt>
      <trkpt lat="46.67177" lon="5.59608">
        <ele>522.8</ele>
        <time>2022-03-29T12:44:14Z</time>
      </trkpt>
      <trkpt lat="46.67182" lon="5.59608">
        <ele>523.5</ele>
        <time>2022-03-29T12:44:18Z</time>
      </trkpt>
      <trkpt lat="46.67187" lon="5.59607">
        <ele>524.4</ele>
        <time>2022-03-29T12:44:25Z</time>
      </trkpt>
      <trkpt lat="46.67191" lon="5.59603">
        <ele>524.9</ele>
        <time>2022-03-29T12:44:31Z</time>
      </trkpt>
      <trkpt lat="46.67195" lon="5.59599">
        <ele>525.4</ele>
        <time>2022-03-29T12:44:36Z</time>
      </trkpt>
      <trkpt lat="46.672" lon="5.59596">
        <ele>525.5</ele>
        <time>2022-03-29T12:44:43Z</time>
      </trkpt>
      <trkpt lat="46.67205" lon="5.59594">
        <ele>525.7</ele>
        <time>2022-03-29T12:44:48Z</time>
      </trkpt>
      <trkpt lat="46.67211" lon="5.59593">
        <ele>526.1</ele>
        <time>2022-03-29T12:44:52Z</time>
      </trkpt>
      <trkpt lat="46.67215" lon="5.59594">
        <ele>526.1</ele>
        <time>2022-03-29T12:44:55Z</time>
      </trkpt>
      <trkpt lat="46.67221" lon="5.59595">
        <ele>526</ele>
        <time>2022-03-29T12:44:59Z</time>
      </trkpt>
      <trkpt lat="46.67225" lon="5.59596">
        <ele>525.9</ele>
        <time>2022-03-29T12:45:03Z</time>
      </trkpt>
      <trkpt lat="46.6723" lon="5.59599">
        <ele>525.9</ele>
        <time>2022-03-29T12:45:07Z</time>
      </trkpt>
      <trkpt lat="46.67235" lon="5.59601">
        <ele>525.9</ele>
        <time>2022-03-29T12:45:11Z</time>
      </trkpt>
      <trkpt lat="46.6724" lon="5.59598">
        <ele>525.5</ele>
        <time>2022-03-29T12:45:16Z</time>
      </trkpt>
      <trkpt lat="46.67245" lon="5.59595">
        <ele>524.2</ele>
        <time>2022-03-29T12:45:21Z</time>
      </trkpt>
      <trkpt lat="46.67251" lon="5.59595">
        <ele>522.6</ele>
        <time>2022-03-29T12:45:25Z</time>
      </trkpt>
      <trkpt lat="46.67256" lon="5.59595">
        <ele>521.5</ele>
        <time>2022-03-29T12:45:30Z</time>
      </trkpt>
      <trkpt lat="46.67262" lon="5.59593">
        <ele>521.1</ele>
        <time>2022-03-29T12:45:35Z</time>
      </trkpt>
      <trkpt lat="46.67267" lon="5.59591">
        <ele>520.4</ele>
        <time>2022-03-29T12:45:41Z</time>
      </trkpt>
      <trkpt lat="46.6727" lon="5.59586">
        <ele>519.7</ele>
        <time>2022-03-29T12:45:46Z</time>
      </trkpt>
      <trkpt lat="46.67275" lon="5.59583">
        <ele>519</ele>
        <time>2022-03-29T12:45:51Z</time>
      </trkpt>
      <trkpt lat="46.6728" lon="5.5958">
        <ele>518.1</ele>
        <time>2022-03-29T12:45:55Z</time>
      </trkpt>
      <trkpt lat="46.67285" lon="5.59575">
        <ele>516.9</ele>
        <time>2022-03-29T12:46:00Z</time>
      </trkpt>
      <trkpt lat="46.67289" lon="5.59573">
        <ele>515.8</ele>
        <time>2022-03-29T12:46:04Z</time>
      </trkpt>
      <trkpt lat="46.67294" lon="5.59572">
        <ele>514.4</ele>
        <time>2022-03-29T12:46:08Z</time>
      </trkpt>
      <trkpt lat="46.67298" lon="5.59572">
        <ele>513.2</ele>
        <time>2022-03-29T12:46:12Z</time>
      </trkpt>
      <trkpt lat="46.67304" lon="5.5957">
        <ele>511.9</ele>
        <time>2022-03-29T12:46:17Z</time>
      </trkpt>
      <trkpt lat="46.67308" lon="5.59569">
        <ele>510.9</ele>
        <time>2022-03-29T12:46:22Z</time>
      </trkpt>
      <trkpt lat="46.67314" lon="5.59569">
        <ele>510.3</ele>
        <time>2022-03-29T12:46:27Z</time>
      </trkpt>
      <trkpt lat="46.67318" lon="5.59566">
        <ele>510.1</ele>
        <time>2022-03-29T12:46:31Z</time>
      </trkpt>
      <trkpt lat="46.67322" lon="5.59564">
        <ele>510.2</ele>
        <time>2022-03-29T12:46:35Z</time>
      </trkpt>
      <trkpt lat="46.67327" lon="5.59565">
        <ele>510.4</ele>
        <time>2022-03-29T12:46:41Z</time>
      </trkpt>
      <trkpt lat="46.67332" lon="5.59565">
        <ele>510.7</ele>
        <time>2022-03-29T12:46:48Z</time>
      </trkpt>
      <trkpt lat="46.67337" lon="5.59562">
        <ele>511.5</ele>
        <time>2022-03-29T12:46:53Z</time>
      </trkpt>
      <trkpt lat="46.67341" lon="5.59559">
        <ele>512.5</ele>
        <time>2022-03-29T12:46:57Z</time>
      </trkpt>
      <trkpt lat="46.67346" lon="5.59556">
        <ele>513.4</ele>
        <time>2022-03-29T12:47:01Z</time>
      </trkpt>
      <trkpt lat="46.6735" lon="5.59553">
        <ele>514</ele>
        <time>2022-03-29T12:47:05Z</time>
      </trkpt>
      <trkpt lat="46.67355" lon="5.5955">
        <ele>514.5</ele>
        <time>2022-03-29T12:47:10Z</time>
      </trkpt>
      <trkpt lat="46.67359" lon="5.59548">
        <ele>514.6</ele>
        <time>2022-03-29T12:47:15Z</time>
      </trkpt>
      <trkpt lat="46.67364" lon="5.59547">
        <ele>514.9</ele>
        <time>2022-03-29T12:47:20Z</time>
      </trkpt>
      <trkpt lat="46.67369" lon="5.59546">
        <ele>515</ele>
        <time>2022-03-29T12:47:24Z</time>
      </trkpt>
      <trkpt lat="46.67374" lon="5.59546">
        <ele>514.9</ele>
        <time>2022-03-29T12:47:27Z</time>
      </trkpt>
      <trkpt lat="46.67379" lon="5.59547">
        <ele>514.6</ele>
        <time>2022-03-29T12:47:31Z</time>
      </trkpt>
      <trkpt lat="46.67384" lon="5.59548">
        <ele>514.1</ele>
        <time>2022-03-29T12:47:36Z</time>
      </trkpt>
      <trkpt lat="46.67389" lon="5.59548">
        <ele>513</ele>
        <time>2022-03-29T12:47:43Z</time>
      </trkpt>
      <trkpt lat="46.67394" lon="5.59546">
        <ele>511.8</ele>
        <time>2022-03-29T12:47:49Z</time>
      </trkpt>
      <trkpt lat="46.67398" lon="5.59542">
        <ele>511.4</ele>
        <time>2022-03-29T12:47:54Z</time>
      </trkpt>
      <trkpt lat="46.67401" lon="5.59536">
        <ele>512</ele>
        <time>2022-03-29T12:47:58Z</time>
      </trkpt>
      <trkpt lat="46.67403" lon="5.5953">
        <ele>513.2</ele>
        <time>2022-03-29T12:48:03Z</time>
      </trkpt>
      <trkpt lat="46.67407" lon="5.59525">
        <ele>513.2</ele>
        <time>2022-03-29T12:48:09Z</time>
      </trkpt>
      <trkpt lat="46.6741" lon="5.5952">
        <ele>512.4</ele>
        <time>2022-03-29T12:48:14Z</time>
      </trkpt>
      <trkpt lat="46.67414" lon="5.59516">
        <ele>511.7</ele>
        <time>2022-03-29T12:48:19Z</time>
      </trkpt>
      <trkpt lat="46.67418" lon="5.59511">
        <ele>511.3</ele>
        <time>2022-03-29T12:48:23Z</time>
      </trkpt>
      <trkpt lat="46.67422" lon="5.59507">
        <ele>511.4</ele>
        <time>2022-03-29T12:48:28Z</time>
      </trkpt>
      <trkpt lat="46.67427" lon="5.59506">
        <ele>511.8</ele>
        <time>2022-03-29T12:48:32Z</time>
      </trkpt>
      <trkpt lat="46.67432" lon="5.59503">
        <ele>512</ele>
        <time>2022-03-29T12:48:37Z</time>
      </trkpt>
      <trkpt lat="46.67437" lon="5.59499">
        <ele>511.8</ele>
        <time>2022-03-29T12:48:41Z</time>
      </trkpt>
      <trkpt lat="46.67441" lon="5.59496">
        <ele>511.5</ele>
        <time>2022-03-29T12:48:47Z</time>
      </trkpt>
      <trkpt lat="46.67444" lon="5.5949">
        <ele>511.7</ele>
        <time>2022-03-29T12:48:51Z</time>
      </trkpt>
      <trkpt lat="46.67448" lon="5.59485">
        <ele>512</ele>
        <time>2022-03-29T12:48:55Z</time>
      </trkpt>
      <trkpt lat="46.67451" lon="5.59481">
        <ele>512.4</ele>
        <time>2022-03-29T12:48:59Z</time>
      </trkpt>
      <trkpt lat="46.67456" lon="5.59477">
        <ele>512.7</ele>
        <time>2022-03-29T12:49:04Z</time>
      </trkpt>
      <trkpt lat="46.6746" lon="5.59473">
        <ele>512.5</ele>
        <time>2022-03-29T12:49:10Z</time>
      </trkpt>
      <trkpt lat="46.67464" lon="5.59467">
        <ele>512.1</ele>
        <time>2022-03-29T12:49:16Z</time>
      </trkpt>
      <trkpt lat="46.67467" lon="5.59461">
        <ele>511.5</ele>
        <time>2022-03-29T12:49:21Z</time>
      </trkpt>
      <trkpt lat="46.67472" lon="5.59458">
        <ele>510.5</ele>
        <time>2022-03-29T12:49:26Z</time>
      </trkpt>
      <trkpt lat="46.67476" lon="5.59457">
        <ele>510.3</ele>
        <time>2022-03-29T12:49:29Z</time>
      </trkpt>
      <trkpt lat="46.67481" lon="5.59457">
        <ele>510.4</ele>
        <time>2022-03-29T12:49:32Z</time>
      </trkpt>
      <trkpt lat="46.67486" lon="5.59457">
        <ele>510.4</ele>
        <time>2022-03-29T12:49:36Z</time>
      </trkpt>
      <trkpt lat="46.67491" lon="5.59457">
        <ele>509.4</ele>
        <time>2022-03-29T12:49:42Z</time>
      </trkpt>
      <trkpt lat="46.67496" lon="5.59457">
        <ele>509.2</ele>
        <time>2022-03-29T12:49:46Z</time>
      </trkpt>
      <trkpt lat="46.67501" lon="5.59457">
        <ele>508.7</ele>
        <time>2022-03-29T12:49:51Z</time>
      </trkpt>
      <trkpt lat="46.67506" lon="5.59456">
        <ele>507.8</ele>
        <time>2022-03-29T12:49:56Z</time>
      </trkpt>
      <trkpt lat="46.67511" lon="5.59455">
        <ele>506.9</ele>
        <time>2022-03-29T12:50:01Z</time>
      </trkpt>
      <trkpt lat="46.67515" lon="5.59458">
        <ele>505.6</ele>
        <time>2022-03-29T12:50:08Z</time>
      </trkpt>
      <trkpt lat="46.6752" lon="5.5946">
        <ele>504.6</ele>
        <time>2022-03-29T12:50:13Z</time>
      </trkpt>
      <trkpt lat="46.67525" lon="5.59461">
        <ele>503.6</ele>
        <time>2022-03-29T12:50:17Z</time>
      </trkpt>
      <trkpt lat="46.6753" lon="5.59462">
        <ele>502.8</ele>
        <time>2022-03-29T12:50:20Z</time>
      </trkpt>
      <trkpt lat="46.67534" lon="5.59464">
        <ele>501.9</ele>
        <time>2022-03-29T12:50:23Z</time>
      </trkpt>
      <trkpt lat="46.6754" lon="5.59464">
        <ele>501</ele>
        <time>2022-03-29T12:50:27Z</time>
      </trkpt>
      <trkpt lat="46.67545" lon="5.59465">
        <ele>500.1</ele>
        <time>2022-03-29T12:50:31Z</time>
      </trkpt>
      <trkpt lat="46.6755" lon="5.59465">
        <ele>499.3</ele>
        <time>2022-03-29T12:50:35Z</time>
      </trkpt>
      <trkpt lat="46.67554" lon="5.59465">
        <ele>498.6</ele>
        <time>2022-03-29T12:50:39Z</time>
      </trkpt>
      <trkpt lat="46.67559" lon="5.59464">
        <ele>497</ele>
        <time>2022-03-29T12:50:46Z</time>
      </trkpt>
      <trkpt lat="46.67563" lon="5.5946">
        <ele>496.2</ele>
        <time>2022-03-29T12:50:52Z</time>
      </trkpt>
      <trkpt lat="46.67568" lon="5.59458">
        <ele>496.3</ele>
        <time>2022-03-29T12:50:56Z</time>
      </trkpt>
      <trkpt lat="46.67573" lon="5.59456">
        <ele>497.2</ele>
        <time>2022-03-29T12:51:00Z</time>
      </trkpt>
      <trkpt lat="46.67579" lon="5.59455">
        <ele>498.3</ele>
        <time>2022-03-29T12:51:04Z</time>
      </trkpt>
      <trkpt lat="46.67584" lon="5.59453">
        <ele>499.1</ele>
        <time>2022-03-29T12:51:08Z</time>
      </trkpt>
      <trkpt lat="46.6759" lon="5.5945">
        <ele>499.6</ele>
        <time>2022-03-29T12:51:12Z</time>
      </trkpt>
      <trkpt lat="46.67595" lon="5.5945">
        <ele>500.1</ele>
        <time>2022-03-29T12:51:16Z</time>
      </trkpt>
      <trkpt lat="46.676" lon="5.59451">
        <ele>500.4</ele>
        <time>2022-03-29T12:51:20Z</time>
      </trkpt>
      <trkpt lat="46.67605" lon="5.5945">
        <ele>500.8</ele>
        <time>2022-03-29T12:51:24Z</time>
      </trkpt>
      <trkpt lat="46.6761" lon="5.59448">
        <ele>501</ele>
        <time>2022-03-29T12:51:29Z</time>
      </trkpt>
      <trkpt lat="46.67615" lon="5.59447">
        <ele>501.3</ele>
        <time>2022-03-29T12:51:34Z</time>
      </trkpt>
      <trkpt lat="46.6762" lon="5.59445">
        <ele>501.2</ele>
        <time>2022-03-29T12:51:38Z</time>
      </trkpt>
      <trkpt lat="46.67625" lon="5.59445">
        <ele>500.7</ele>
        <time>2022-03-29T12:51:42Z</time>
      </trkpt>
      <trkpt lat="46.6763" lon="5.59446">
        <ele>499.8</ele>
        <time>2022-03-29T12:51:46Z</time>
      </trkpt>
      <trkpt lat="46.67635" lon="5.59446">
        <ele>498.6</ele>
        <time>2022-03-29T12:51:50Z</time>
      </trkpt>
      <trkpt lat="46.67639" lon="5.59446">
        <ele>497.6</ele>
        <time>2022-03-29T12:51:54Z</time>
      </trkpt>
      <trkpt lat="46.67644" lon="5.59445">
        <ele>496.7</ele>
        <time>2022-03-29T12:51:58Z</time>
      </trkpt>
      <trkpt lat="46.67649" lon="5.59445">
        <ele>495.7</ele>
        <time>2022-03-29T12:52:03Z</time>
      </trkpt>
      <trkpt lat="46.67653" lon="5.59448">
        <ele>493.8</ele>
        <time>2022-03-29T12:52:09Z</time>
      </trkpt>
      <trkpt lat="46.67658" lon="5.59448">
        <ele>492.5</ele>
        <time>2022-03-29T12:52:13Z</time>
      </trkpt>
      <trkpt lat="46.67663" lon="5.59448">
        <ele>491.5</ele>
        <time>2022-03-29T12:52:16Z</time>
      </trkpt>
      <trkpt lat="46.67668" lon="5.5945">
        <ele>490.1</ele>
        <time>2022-03-29T12:52:22Z</time>
      </trkpt>
      <trkpt lat="46.67673" lon="5.59453">
        <ele>489.2</ele>
        <time>2022-03-29T12:52:27Z</time>
      </trkpt>
      <trkpt lat="46.67677" lon="5.59455">
        <ele>488.6</ele>
        <time>2022-03-29T12:52:33Z</time>
      </trkpt>
      <trkpt lat="46.67682" lon="5.59455">
        <ele>488.5</ele>
        <time>2022-03-29T12:52:39Z</time>
      </trkpt>
      <trkpt lat="46.67687" lon="5.59454">
        <ele>488.3</ele>
        <time>2022-03-29T12:52:43Z</time>
      </trkpt>
      <trkpt lat="46.67693" lon="5.59453">
        <ele>488.1</ele>
        <time>2022-03-29T12:52:47Z</time>
      </trkpt>
      <trkpt lat="46.67697" lon="5.59448">
        <ele>488.5</ele>
        <time>2022-03-29T12:52:52Z</time>
      </trkpt>
      <trkpt lat="46.67701" lon="5.59443">
        <ele>489.3</ele>
        <time>2022-03-29T12:52:58Z</time>
      </trkpt>
      <trkpt lat="46.67706" lon="5.5944">
        <ele>489.7</ele>
        <time>2022-03-29T12:53:02Z</time>
      </trkpt>
      <trkpt lat="46.6771" lon="5.59436">
        <ele>489.8</ele>
        <time>2022-03-29T12:53:07Z</time>
      </trkpt>
      <trkpt lat="46.67712" lon="5.59429">
        <ele>489.8</ele>
        <time>2022-03-29T12:53:13Z</time>
      </trkpt>
      <trkpt lat="46.67714" lon="5.59423">
        <ele>490.4</ele>
        <time>2022-03-29T12:53:22Z</time>
      </trkpt>
      <trkpt lat="46.67718" lon="5.5942">
        <ele>489.5</ele>
        <time>2022-03-29T12:53:30Z</time>
      </trkpt>
      <trkpt lat="46.67723" lon="5.59417">
        <ele>488.4</ele>
        <time>2022-03-29T12:53:35Z</time>
      </trkpt>
      <trkpt lat="46.67728" lon="5.59415">
        <ele>487.4</ele>
        <time>2022-03-29T12:53:40Z</time>
      </trkpt>
      <trkpt lat="46.67732" lon="5.59412">
        <ele>485.2</ele>
        <time>2022-03-29T12:53:51Z</time>
      </trkpt>
      <trkpt lat="46.67727" lon="5.59411">
        <ele>484.1</ele>
        <time>2022-03-29T12:54:13Z</time>
      </trkpt>
      <trkpt lat="46.6773" lon="5.59406">
        <ele>489.4</ele>
        <time>2022-03-29T12:54:42Z</time>
      </trkpt>
      <trkpt lat="46.67725" lon="5.59409">
        <ele>484.5</ele>
        <time>2022-03-29T12:54:57Z</time>
      </trkpt>
      <trkpt lat="46.67721" lon="5.59403">
        <ele>485.6</ele>
        <time>2022-03-29T12:55:02Z</time>
      </trkpt>
      <trkpt lat="46.67717" lon="5.59408">
        <ele>483.9</ele>
        <time>2022-03-29T12:55:17Z</time>
      </trkpt>
      <trkpt lat="46.67715" lon="5.59415">
        <ele>482.7</ele>
        <time>2022-03-29T12:55:21Z</time>
      </trkpt>
      <trkpt lat="46.67711" lon="5.5942">
        <ele>481.7</ele>
        <time>2022-03-29T12:55:25Z</time>
      </trkpt>
      <trkpt lat="46.67709" lon="5.59425">
        <ele>480.9</ele>
        <time>2022-03-29T12:55:29Z</time>
      </trkpt>
      <trkpt lat="46.67712" lon="5.5943">
        <ele>480.4</ele>
        <time>2022-03-29T12:55:37Z</time>
      </trkpt>
      <trkpt lat="46.67708" lon="5.59433">
        <ele>480.1</ele>
        <time>2022-03-29T12:55:46Z</time>
      </trkpt>
      <trkpt lat="46.67703" lon="5.59436">
        <ele>479.7</ele>
        <time>2022-03-29T12:55:53Z</time>
      </trkpt>
      <trkpt lat="46.67699" lon="5.59439">
        <ele>479.2</ele>
        <time>2022-03-29T12:55:58Z</time>
      </trkpt>
      <trkpt lat="46.67695" lon="5.59443">
        <ele>478.9</ele>
        <time>2022-03-29T12:56:02Z</time>
      </trkpt>
      <trkpt lat="46.67692" lon="5.59449">
        <ele>479.1</ele>
        <time>2022-03-29T12:56:07Z</time>
      </trkpt>
      <trkpt lat="46.6769" lon="5.59456">
        <ele>478.9</ele>
        <time>2022-03-29T12:56:12Z</time>
      </trkpt>
      <trkpt lat="46.67687" lon="5.59462">
        <ele>479</ele>
        <time>2022-03-29T12:56:16Z</time>
      </trkpt>
      <trkpt lat="46.67686" lon="5.59468">
        <ele>480.3</ele>
        <time>2022-03-29T12:56:22Z</time>
      </trkpt>
      <trkpt lat="46.67686" lon="5.59476">
        <ele>482</ele>
        <time>2022-03-29T12:56:29Z</time>
      </trkpt>
      <trkpt lat="46.67686" lon="5.59483">
        <ele>484.6</ele>
        <time>2022-03-29T12:56:36Z</time>
      </trkpt>
      <trkpt lat="46.67685" lon="5.5949">
        <ele>486.8</ele>
        <time>2022-03-29T12:56:42Z</time>
      </trkpt>
      <trkpt lat="46.67683" lon="5.59498">
        <ele>488.3</ele>
        <time>2022-03-29T12:56:47Z</time>
      </trkpt>
      <trkpt lat="46.67681" lon="5.59505">
        <ele>489.4</ele>
        <time>2022-03-29T12:56:54Z</time>
      </trkpt>
      <trkpt lat="46.67682" lon="5.59512">
        <ele>490.1</ele>
        <time>2022-03-29T12:56:59Z</time>
      </trkpt>
      <trkpt lat="46.67683" lon="5.59519">
        <ele>491.5</ele>
        <time>2022-03-29T12:57:04Z</time>
      </trkpt>
      <trkpt lat="46.67684" lon="5.59526">
        <ele>493.2</ele>
        <time>2022-03-29T12:57:10Z</time>
      </trkpt>
      <trkpt lat="46.67685" lon="5.59534">
        <ele>494.3</ele>
        <time>2022-03-29T12:57:15Z</time>
      </trkpt>
      <trkpt lat="46.67685" lon="5.59542">
        <ele>495.9</ele>
        <time>2022-03-29T12:57:20Z</time>
      </trkpt>
      <trkpt lat="46.67685" lon="5.59549">
        <ele>496.7</ele>
        <time>2022-03-29T12:57:23Z</time>
      </trkpt>
      <trkpt lat="46.67685" lon="5.59556">
        <ele>497.8</ele>
        <time>2022-03-29T12:57:27Z</time>
      </trkpt>
      <trkpt lat="46.67686" lon="5.59563">
        <ele>498.9</ele>
        <time>2022-03-29T12:57:31Z</time>
      </trkpt>
      <trkpt lat="46.67687" lon="5.59571">
        <ele>500.3</ele>
        <time>2022-03-29T12:57:36Z</time>
      </trkpt>
      <trkpt lat="46.67687" lon="5.59578">
        <ele>501.4</ele>
        <time>2022-03-29T12:57:41Z</time>
      </trkpt>
      <trkpt lat="46.67688" lon="5.59584">
        <ele>502.5</ele>
        <time>2022-03-29T12:57:46Z</time>
      </trkpt>
      <trkpt lat="46.67689" lon="5.59591">
        <ele>502.9</ele>
        <time>2022-03-29T12:57:51Z</time>
      </trkpt>
      <trkpt lat="46.67689" lon="5.59598">
        <ele>503.6</ele>
        <time>2022-03-29T12:57:56Z</time>
      </trkpt>
      <trkpt lat="46.67689" lon="5.59605">
        <ele>504.4</ele>
        <time>2022-03-29T12:58:02Z</time>
      </trkpt>
      <trkpt lat="46.67691" lon="5.59612">
        <ele>505.1</ele>
        <time>2022-03-29T12:58:07Z</time>
      </trkpt>
      <trkpt lat="46.67692" lon="5.59619">
        <ele>506.1</ele>
        <time>2022-03-29T12:58:16Z</time>
      </trkpt>
      <trkpt lat="46.67691" lon="5.59626">
        <ele>505.6</ele>
        <time>2022-03-29T12:58:22Z</time>
      </trkpt>
      <trkpt lat="46.67692" lon="5.59633">
        <ele>505.5</ele>
        <time>2022-03-29T12:58:28Z</time>
      </trkpt>
      <trkpt lat="46.67693" lon="5.59641">
        <ele>506</ele>
        <time>2022-03-29T12:58:33Z</time>
      </trkpt>
      <trkpt lat="46.67694" lon="5.59648">
        <ele>507</ele>
        <time>2022-03-29T12:58:39Z</time>
      </trkpt>
      <trkpt lat="46.67696" lon="5.59655">
        <ele>508.4</ele>
        <time>2022-03-29T12:58:46Z</time>
      </trkpt>
      <trkpt lat="46.67696" lon="5.59663">
        <ele>509.4</ele>
        <time>2022-03-29T12:58:51Z</time>
      </trkpt>
      <trkpt lat="46.67694" lon="5.59669">
        <ele>510.8</ele>
        <time>2022-03-29T12:58:57Z</time>
      </trkpt>
      <trkpt lat="46.67694" lon="5.59676">
        <ele>511.9</ele>
        <time>2022-03-29T12:59:03Z</time>
      </trkpt>
      <trkpt lat="46.67693" lon="5.59683">
        <ele>512.4</ele>
        <time>2022-03-29T12:59:08Z</time>
      </trkpt>
      <trkpt lat="46.67693" lon="5.59689">
        <ele>512</ele>
        <time>2022-03-29T12:59:15Z</time>
      </trkpt>
      <trkpt lat="46.67694" lon="5.59697">
        <ele>512.3</ele>
        <time>2022-03-29T12:59:20Z</time>
      </trkpt>
      <trkpt lat="46.67695" lon="5.59704">
        <ele>514.2</ele>
        <time>2022-03-29T12:59:29Z</time>
      </trkpt>
      <trkpt lat="46.67697" lon="5.59711">
        <ele>515.1</ele>
        <time>2022-03-29T12:59:37Z</time>
      </trkpt>
      <trkpt lat="46.67696" lon="5.59719">
        <ele>515.3</ele>
        <time>2022-03-29T12:59:42Z</time>
      </trkpt>
      <trkpt lat="46.67696" lon="5.59726">
        <ele>515.4</ele>
        <time>2022-03-29T12:59:47Z</time>
      </trkpt>
      <trkpt lat="46.67697" lon="5.59734">
        <ele>515.7</ele>
        <time>2022-03-29T12:59:53Z</time>
      </trkpt>
      <trkpt lat="46.67697" lon="5.59742">
        <ele>515.9</ele>
        <time>2022-03-29T12:59:58Z</time>
      </trkpt>
      <trkpt lat="46.67696" lon="5.59748">
        <ele>516</ele>
        <time>2022-03-29T13:00:03Z</time>
      </trkpt>
      <trkpt lat="46.67699" lon="5.59755">
        <ele>515.8</ele>
        <time>2022-03-29T13:00:08Z</time>
      </trkpt>
      <trkpt lat="46.67701" lon="5.59761">
        <ele>515.5</ele>
        <time>2022-03-29T13:00:13Z</time>
      </trkpt>
      <trkpt lat="46.67702" lon="5.59768">
        <ele>514.4</ele>
        <time>2022-03-29T13:00:20Z</time>
      </trkpt>
      <trkpt lat="46.67701" lon="5.59775">
        <ele>514.1</ele>
        <time>2022-03-29T13:00:27Z</time>
      </trkpt>
      <trkpt lat="46.67704" lon="5.5978">
        <ele>513.5</ele>
        <time>2022-03-29T13:00:34Z</time>
      </trkpt>
      <trkpt lat="46.67706" lon="5.59787">
        <ele>513.3</ele>
        <time>2022-03-29T13:00:38Z</time>
      </trkpt>
      <trkpt lat="46.67709" lon="5.59793">
        <ele>513.2</ele>
        <time>2022-03-29T13:00:42Z</time>
      </trkpt>
      <trkpt lat="46.67711" lon="5.598">
        <ele>513.1</ele>
        <time>2022-03-29T13:00:46Z</time>
      </trkpt>
      <trkpt lat="46.67711" lon="5.59807">
        <ele>512.9</ele>
        <time>2022-03-29T13:00:51Z</time>
      </trkpt>
      <trkpt lat="46.67711" lon="5.59814">
        <ele>513.6</ele>
        <time>2022-03-29T13:01:01Z</time>
      </trkpt>
      <trkpt lat="46.67714" lon="5.5982">
        <ele>513.6</ele>
        <time>2022-03-29T13:01:05Z</time>
      </trkpt>
      <trkpt lat="46.67714" lon="5.59827">
        <ele>513.3</ele>
        <time>2022-03-29T13:01:11Z</time>
      </trkpt>
      <trkpt lat="46.67715" lon="5.59834">
        <ele>514.5</ele>
        <time>2022-03-29T13:01:18Z</time>
      </trkpt>
      <trkpt lat="46.67718" lon="5.59839">
        <ele>515.4</ele>
        <time>2022-03-29T13:01:23Z</time>
      </trkpt>
      <trkpt lat="46.67719" lon="5.59846">
        <ele>516.6</ele>
        <time>2022-03-29T13:01:28Z</time>
      </trkpt>
      <trkpt lat="46.67721" lon="5.59854">
        <ele>520</ele>
        <time>2022-03-29T13:01:37Z</time>
      </trkpt>
      <trkpt lat="46.67722" lon="5.5986">
        <ele>522.7</ele>
        <time>2022-03-29T13:01:44Z</time>
      </trkpt>
      <trkpt lat="46.67723" lon="5.59868">
        <ele>524.6</ele>
        <time>2022-03-29T13:01:51Z</time>
      </trkpt>
      <trkpt lat="46.67723" lon="5.59875">
        <ele>525.9</ele>
        <time>2022-03-29T13:01:59Z</time>
      </trkpt>
      <trkpt lat="46.67725" lon="5.5988">
        <ele>526.9</ele>
        <time>2022-03-29T13:02:03Z</time>
      </trkpt>
      <trkpt lat="46.67727" lon="5.59888">
        <ele>528.4</ele>
        <time>2022-03-29T13:02:08Z</time>
      </trkpt>
      <trkpt lat="46.67729" lon="5.59894">
        <ele>529.7</ele>
        <time>2022-03-29T13:02:13Z</time>
      </trkpt>
      <trkpt lat="46.67731" lon="5.59901">
        <ele>530.9</ele>
        <time>2022-03-29T13:02:18Z</time>
      </trkpt>
      <trkpt lat="46.67734" lon="5.59909">
        <ele>532</ele>
        <time>2022-03-29T13:02:22Z</time>
      </trkpt>
      <trkpt lat="46.67735" lon="5.59916">
        <ele>533.1</ele>
        <time>2022-03-29T13:02:25Z</time>
      </trkpt>
      <trkpt lat="46.67736" lon="5.59923">
        <ele>534.5</ele>
        <time>2022-03-29T13:02:29Z</time>
      </trkpt>
      <trkpt lat="46.67739" lon="5.59929">
        <ele>535.9</ele>
        <time>2022-03-29T13:02:33Z</time>
      </trkpt>
      <trkpt lat="46.67741" lon="5.59935">
        <ele>537.6</ele>
        <time>2022-03-29T13:02:38Z</time>
      </trkpt>
      <trkpt lat="46.67741" lon="5.59943">
        <ele>540.6</ele>
        <time>2022-03-29T13:02:54Z</time>
      </trkpt>
      <trkpt lat="46.67742" lon="5.5995">
        <ele>540.4</ele>
        <time>2022-03-29T13:03:00Z</time>
      </trkpt>
      <trkpt lat="46.67744" lon="5.59957">
        <ele>540.4</ele>
        <time>2022-03-29T13:03:06Z</time>
      </trkpt>
      <trkpt lat="46.67744" lon="5.59964">
        <ele>541</ele>
        <time>2022-03-29T13:03:11Z</time>
      </trkpt>
      <trkpt lat="46.67745" lon="5.59971">
        <ele>541.9</ele>
        <time>2022-03-29T13:03:16Z</time>
      </trkpt>
      <trkpt lat="46.67747" lon="5.59978">
        <ele>542.4</ele>
        <time>2022-03-29T13:03:21Z</time>
      </trkpt>
      <trkpt lat="46.67748" lon="5.59985">
        <ele>542.5</ele>
        <time>2022-03-29T13:03:26Z</time>
      </trkpt>
      <trkpt lat="46.6775" lon="5.59993">
        <ele>542.1</ele>
        <time>2022-03-29T13:03:31Z</time>
      </trkpt>
      <trkpt lat="46.67753" lon="5.59998">
        <ele>541.3</ele>
        <time>2022-03-29T13:03:35Z</time>
      </trkpt>
      <trkpt lat="46.67753" lon="5.60005">
        <ele>540.7</ele>
        <time>2022-03-29T13:03:38Z</time>
      </trkpt>
      <trkpt lat="46.67754" lon="5.60012">
        <ele>540.1</ele>
        <time>2022-03-29T13:03:41Z</time>
      </trkpt>
      <trkpt lat="46.67755" lon="5.60019">
        <ele>538.9</ele>
        <time>2022-03-29T13:03:46Z</time>
      </trkpt>
      <trkpt lat="46.67756" lon="5.60026">
        <ele>536.9</ele>
        <time>2022-03-29T13:03:54Z</time>
      </trkpt>
      <trkpt lat="46.6776" lon="5.6003">
        <ele>536</ele>
        <time>2022-03-29T13:03:59Z</time>
      </trkpt>
      <trkpt lat="46.67764" lon="5.60034">
        <ele>536.1</ele>
        <time>2022-03-29T13:04:03Z</time>
      </trkpt>
      <trkpt lat="46.67767" lon="5.60039">
        <ele>536.5</ele>
        <time>2022-03-29T13:04:07Z</time>
      </trkpt>
      <trkpt lat="46.67769" lon="5.60045">
        <ele>536.8</ele>
        <time>2022-03-29T13:04:12Z</time>
      </trkpt>
      <trkpt lat="46.67773" lon="5.6005">
        <ele>536.3</ele>
        <time>2022-03-29T13:04:19Z</time>
      </trkpt>
      <trkpt lat="46.67776" lon="5.60055">
        <ele>535.9</ele>
        <time>2022-03-29T13:04:25Z</time>
      </trkpt>
      <trkpt lat="46.67781" lon="5.6006">
        <ele>535.8</ele>
        <time>2022-03-29T13:04:30Z</time>
      </trkpt>
      <trkpt lat="46.67784" lon="5.60065">
        <ele>535.6</ele>
        <time>2022-03-29T13:04:34Z</time>
      </trkpt>
      <trkpt lat="46.67788" lon="5.60071">
        <ele>535.2</ele>
        <time>2022-03-29T13:04:38Z</time>
      </trkpt>
      <trkpt lat="46.67789" lon="5.60078">
        <ele>534.8</ele>
        <time>2022-03-29T13:04:43Z</time>
      </trkpt>
      <trkpt lat="46.67791" lon="5.60085">
        <ele>535</ele>
        <time>2022-03-29T13:04:50Z</time>
      </trkpt>
      <trkpt lat="46.67795" lon="5.6009">
        <ele>535.8</ele>
        <time>2022-03-29T13:04:57Z</time>
      </trkpt>
      <trkpt lat="46.67795" lon="5.60097">
        <ele>536.7</ele>
        <time>2022-03-29T13:05:03Z</time>
      </trkpt>
      <trkpt lat="46.67794" lon="5.60104">
        <ele>537.5</ele>
        <time>2022-03-29T13:05:09Z</time>
      </trkpt>
      <trkpt lat="46.67796" lon="5.60111">
        <ele>537.9</ele>
        <time>2022-03-29T13:05:13Z</time>
      </trkpt>
      <trkpt lat="46.67797" lon="5.60118">
        <ele>538.2</ele>
        <time>2022-03-29T13:05:17Z</time>
      </trkpt>
      <trkpt lat="46.67799" lon="5.60125">
        <ele>537.8</ele>
        <time>2022-03-29T13:05:21Z</time>
      </trkpt>
      <trkpt lat="46.67802" lon="5.6013">
        <ele>537</ele>
        <time>2022-03-29T13:05:24Z</time>
      </trkpt>
      <trkpt lat="46.67806" lon="5.60136">
        <ele>535.8</ele>
        <time>2022-03-29T13:05:27Z</time>
      </trkpt>
      <trkpt lat="46.6781" lon="5.60142">
        <ele>534.4</ele>
        <time>2022-03-29T13:05:30Z</time>
      </trkpt>
      <trkpt lat="46.67812" lon="5.60148">
        <ele>532.5</ele>
        <time>2022-03-29T13:05:34Z</time>
      </trkpt>
      <trkpt lat="46.67814" lon="5.60155">
        <ele>530.5</ele>
        <time>2022-03-29T13:05:39Z</time>
      </trkpt>
      <trkpt lat="46.67814" lon="5.60162">
        <ele>528.3</ele>
        <time>2022-03-29T13:05:45Z</time>
      </trkpt>
      <trkpt lat="46.67817" lon="5.60168">
        <ele>526.4</ele>
        <time>2022-03-29T13:05:48Z</time>
      </trkpt>
      <trkpt lat="46.67818" lon="5.60174">
        <ele>520.6</ele>
        <time>2022-03-29T13:05:56Z</time>
      </trkpt>
      <trkpt lat="46.67814" lon="5.60178">
        <ele>517.8</ele>
        <time>2022-03-29T13:06:02Z</time>
      </trkpt>
      <trkpt lat="46.67812" lon="5.60184">
        <ele>516.2</ele>
        <time>2022-03-29T13:06:06Z</time>
      </trkpt>
      <trkpt lat="46.6781" lon="5.60192">
        <ele>515.6</ele>
        <time>2022-03-29T13:06:10Z</time>
      </trkpt>
      <trkpt lat="46.67809" lon="5.60201">
        <ele>517.6</ele>
        <time>2022-03-29T13:06:13Z</time>
      </trkpt>
      <trkpt lat="46.67809" lon="5.60208">
        <ele>519.9</ele>
        <time>2022-03-29T13:06:17Z</time>
      </trkpt>
      <trkpt lat="46.67812" lon="5.60213">
        <ele>522</ele>
        <time>2022-03-29T13:06:21Z</time>
      </trkpt>
      <trkpt lat="46.67814" lon="5.60221">
        <ele>524.5</ele>
        <time>2022-03-29T13:06:26Z</time>
      </trkpt>
      <trkpt lat="46.67814" lon="5.60228">
        <ele>526.9</ele>
        <time>2022-03-29T13:06:31Z</time>
      </trkpt>
      <trkpt lat="46.67816" lon="5.60234">
        <ele>529.3</ele>
        <time>2022-03-29T13:06:36Z</time>
      </trkpt>
      <trkpt lat="46.67818" lon="5.6024">
        <ele>531.3</ele>
        <time>2022-03-29T13:06:40Z</time>
      </trkpt>
      <trkpt lat="46.67821" lon="5.60247">
        <ele>532.3</ele>
        <time>2022-03-29T13:06:43Z</time>
      </trkpt>
      <trkpt lat="46.67825" lon="5.60252">
        <ele>533.2</ele>
        <time>2022-03-29T13:06:47Z</time>
      </trkpt>
      <trkpt lat="46.67827" lon="5.60259">
        <ele>535.5</ele>
        <time>2022-03-29T13:06:53Z</time>
      </trkpt>
      <trkpt lat="46.67829" lon="5.60265">
        <ele>537</ele>
        <time>2022-03-29T13:06:57Z</time>
      </trkpt>
      <trkpt lat="46.67833" lon="5.6027">
        <ele>538.7</ele>
        <time>2022-03-29T13:07:01Z</time>
      </trkpt>
      <trkpt lat="46.67837" lon="5.60274">
        <ele>540.6</ele>
        <time>2022-03-29T13:07:06Z</time>
      </trkpt>
      <trkpt lat="46.67841" lon="5.60279">
        <ele>541.9</ele>
        <time>2022-03-29T13:07:10Z</time>
      </trkpt>
      <trkpt lat="46.67845" lon="5.60284">
        <ele>543</ele>
        <time>2022-03-29T13:07:14Z</time>
      </trkpt>
      <trkpt lat="46.6785" lon="5.60287">
        <ele>543.8</ele>
        <time>2022-03-29T13:07:19Z</time>
      </trkpt>
      <trkpt lat="46.67854" lon="5.6029">
        <ele>544.3</ele>
        <time>2022-03-29T13:07:24Z</time>
      </trkpt>
      <trkpt lat="46.67857" lon="5.60296">
        <ele>544.5</ele>
        <time>2022-03-29T13:07:29Z</time>
      </trkpt>
      <trkpt lat="46.67855" lon="5.60302">
        <ele>543.9</ele>
        <time>2022-03-29T13:07:36Z</time>
      </trkpt>
      <trkpt lat="46.6786" lon="5.60303">
        <ele>541.2</ele>
        <time>2022-03-29T13:07:48Z</time>
      </trkpt>
      <trkpt lat="46.67865" lon="5.60304">
        <ele>541</ele>
        <time>2022-03-29T13:07:52Z</time>
      </trkpt>
      <trkpt lat="46.67869" lon="5.60306">
        <ele>541.2</ele>
        <time>2022-03-29T13:07:59Z</time>
      </trkpt>
      <trkpt lat="46.67873" lon="5.60312">
        <ele>541.9</ele>
        <time>2022-03-29T13:08:05Z</time>
      </trkpt>
      <trkpt lat="46.67877" lon="5.60317">
        <ele>543</ele>
        <time>2022-03-29T13:08:10Z</time>
      </trkpt>
      <trkpt lat="46.67881" lon="5.60322">
        <ele>544.6</ele>
        <time>2022-03-29T13:08:15Z</time>
      </trkpt>
      <trkpt lat="46.67884" lon="5.60327">
        <ele>545.9</ele>
        <time>2022-03-29T13:08:20Z</time>
      </trkpt>
      <trkpt lat="46.67888" lon="5.60333">
        <ele>547.2</ele>
        <time>2022-03-29T13:08:25Z</time>
      </trkpt>
      <trkpt lat="46.6789" lon="5.6034">
        <ele>548.7</ele>
        <time>2022-03-29T13:08:30Z</time>
      </trkpt>
      <trkpt lat="46.67894" lon="5.60345">
        <ele>549.6</ele>
        <time>2022-03-29T13:08:35Z</time>
      </trkpt>
      <trkpt lat="46.67898" lon="5.60351">
        <ele>549.9</ele>
        <time>2022-03-29T13:08:39Z</time>
      </trkpt>
      <trkpt lat="46.67901" lon="5.60356">
        <ele>549.7</ele>
        <time>2022-03-29T13:08:42Z</time>
      </trkpt>
      <trkpt lat="46.67905" lon="5.60361">
        <ele>549.5</ele>
        <time>2022-03-29T13:08:45Z</time>
      </trkpt>
      <trkpt lat="46.67909" lon="5.60368">
        <ele>549.3</ele>
        <time>2022-03-29T13:08:48Z</time>
      </trkpt>
      <trkpt lat="46.67913" lon="5.60373">
        <ele>549.6</ele>
        <time>2022-03-29T13:08:52Z</time>
      </trkpt>
      <trkpt lat="46.67915" lon="5.6038">
        <ele>550.1</ele>
        <time>2022-03-29T13:08:57Z</time>
      </trkpt>
      <trkpt lat="46.67918" lon="5.60385">
        <ele>550.1</ele>
        <time>2022-03-29T13:09:01Z</time>
      </trkpt>
      <trkpt lat="46.67922" lon="5.6039">
        <ele>549.9</ele>
        <time>2022-03-29T13:09:10Z</time>
      </trkpt>
      <trkpt lat="46.67926" lon="5.60395">
        <ele>549.1</ele>
        <time>2022-03-29T13:09:15Z</time>
      </trkpt>
      <trkpt lat="46.67929" lon="5.60401">
        <ele>548.5</ele>
        <time>2022-03-29T13:09:20Z</time>
      </trkpt>
      <trkpt lat="46.67931" lon="5.60408">
        <ele>548.3</ele>
        <time>2022-03-29T13:09:25Z</time>
      </trkpt>
      <trkpt lat="46.67931" lon="5.60415">
        <ele>548.8</ele>
        <time>2022-03-29T13:09:31Z</time>
      </trkpt>
      <trkpt lat="46.67934" lon="5.60421">
        <ele>549.6</ele>
        <time>2022-03-29T13:09:36Z</time>
      </trkpt>
      <trkpt lat="46.67936" lon="5.60427">
        <ele>550.1</ele>
        <time>2022-03-29T13:09:40Z</time>
      </trkpt>
      <trkpt lat="46.67937" lon="5.60434">
        <ele>550.8</ele>
        <time>2022-03-29T13:09:46Z</time>
      </trkpt>
      <trkpt lat="46.67936" lon="5.60441">
        <ele>550.4</ele>
        <time>2022-03-29T13:09:52Z</time>
      </trkpt>
      <trkpt lat="46.67933" lon="5.60446">
        <ele>548.3</ele>
        <time>2022-03-29T13:10:02Z</time>
      </trkpt>
      <trkpt lat="46.67936" lon="5.60452">
        <ele>545.7</ele>
        <time>2022-03-29T13:10:13Z</time>
      </trkpt>
      <trkpt lat="46.67938" lon="5.60458">
        <ele>544.7</ele>
        <time>2022-03-29T13:10:17Z</time>
      </trkpt>
      <trkpt lat="46.67941" lon="5.60464">
        <ele>544.5</ele>
        <time>2022-03-29T13:10:20Z</time>
      </trkpt>
      <trkpt lat="46.67943" lon="5.60471">
        <ele>544.9</ele>
        <time>2022-03-29T13:10:23Z</time>
      </trkpt>
      <trkpt lat="46.67946" lon="5.60477">
        <ele>546.3</ele>
        <time>2022-03-29T13:10:27Z</time>
      </trkpt>
      <trkpt lat="46.67948" lon="5.60484">
        <ele>548</ele>
        <time>2022-03-29T13:10:32Z</time>
      </trkpt>
      <trkpt lat="46.67951" lon="5.6049">
        <ele>549.6</ele>
        <time>2022-03-29T13:10:37Z</time>
      </trkpt>
      <trkpt lat="46.67954" lon="5.60495">
        <ele>550</ele>
        <time>2022-03-29T13:10:41Z</time>
      </trkpt>
      <trkpt lat="46.67958" lon="5.605">
        <ele>550</ele>
        <time>2022-03-29T13:10:46Z</time>
      </trkpt>
      <trkpt lat="46.6796" lon="5.60506">
        <ele>549.6</ele>
        <time>2022-03-29T13:10:51Z</time>
      </trkpt>
      <trkpt lat="46.67962" lon="5.60512">
        <ele>548.6</ele>
        <time>2022-03-29T13:10:56Z</time>
      </trkpt>
      <trkpt lat="46.6796" lon="5.60519">
        <ele>548.6</ele>
        <time>2022-03-29T13:11:05Z</time>
      </trkpt>
      <trkpt lat="46.6796" lon="5.60526">
        <ele>549.1</ele>
        <time>2022-03-29T13:11:10Z</time>
      </trkpt>
      <trkpt lat="46.67961" lon="5.60533">
        <ele>550.1</ele>
        <time>2022-03-29T13:11:15Z</time>
      </trkpt>
      <trkpt lat="46.6796" lon="5.6054">
        <ele>551.1</ele>
        <time>2022-03-29T13:11:20Z</time>
      </trkpt>
      <trkpt lat="46.67961" lon="5.60546">
        <ele>552.4</ele>
        <time>2022-03-29T13:11:25Z</time>
      </trkpt>
      <trkpt lat="46.67963" lon="5.60553">
        <ele>553.3</ele>
        <time>2022-03-29T13:11:30Z</time>
      </trkpt>
      <trkpt lat="46.67964" lon="5.6056">
        <ele>554.3</ele>
        <time>2022-03-29T13:11:35Z</time>
      </trkpt>
      <trkpt lat="46.67966" lon="5.60567">
        <ele>555.1</ele>
        <time>2022-03-29T13:11:42Z</time>
      </trkpt>
      <trkpt lat="46.67967" lon="5.60575">
        <ele>555.5</ele>
        <time>2022-03-29T13:11:47Z</time>
      </trkpt>
      <trkpt lat="46.67968" lon="5.60581">
        <ele>555.9</ele>
        <time>2022-03-29T13:11:52Z</time>
      </trkpt>
      <trkpt lat="46.67971" lon="5.60588">
        <ele>556.4</ele>
        <time>2022-03-29T13:11:58Z</time>
      </trkpt>
      <trkpt lat="46.67974" lon="5.60593">
        <ele>557.3</ele>
        <time>2022-03-29T13:12:04Z</time>
      </trkpt>
      <trkpt lat="46.67975" lon="5.60601">
        <ele>558.1</ele>
        <time>2022-03-29T13:12:10Z</time>
      </trkpt>
      <trkpt lat="46.67979" lon="5.60608">
        <ele>558.4</ele>
        <time>2022-03-29T13:12:15Z</time>
      </trkpt>
      <trkpt lat="46.67982" lon="5.60614">
        <ele>558.6</ele>
        <time>2022-03-29T13:12:19Z</time>
      </trkpt>
      <trkpt lat="46.67983" lon="5.60622">
        <ele>559.1</ele>
        <time>2022-03-29T13:12:24Z</time>
      </trkpt>
      <trkpt lat="46.67985" lon="5.6063">
        <ele>559.4</ele>
        <time>2022-03-29T13:12:28Z</time>
      </trkpt>
      <trkpt lat="46.67988" lon="5.60636">
        <ele>559.6</ele>
        <time>2022-03-29T13:12:32Z</time>
      </trkpt>
      <trkpt lat="46.67991" lon="5.60641">
        <ele>560.2</ele>
        <time>2022-03-29T13:12:38Z</time>
      </trkpt>
      <trkpt lat="46.67995" lon="5.60646">
        <ele>561.4</ele>
        <time>2022-03-29T13:12:44Z</time>
      </trkpt>
      <trkpt lat="46.67998" lon="5.60652">
        <ele>562.2</ele>
        <time>2022-03-29T13:12:48Z</time>
      </trkpt>
      <trkpt lat="46.68" lon="5.60659">
        <ele>562.4</ele>
        <time>2022-03-29T13:12:53Z</time>
      </trkpt>
      <trkpt lat="46.68003" lon="5.60664">
        <ele>562</ele>
        <time>2022-03-29T13:12:59Z</time>
      </trkpt>
      <trkpt lat="46.68007" lon="5.60668">
        <ele>561.4</ele>
        <time>2022-03-29T13:13:05Z</time>
      </trkpt>
      <trkpt lat="46.6801" lon="5.60675">
        <ele>560.3</ele>
        <time>2022-03-29T13:13:11Z</time>
      </trkpt>
      <trkpt lat="46.68013" lon="5.6068">
        <ele>558.9</ele>
        <time>2022-03-29T13:13:14Z</time>
      </trkpt>
      <trkpt lat="46.68015" lon="5.60687">
        <ele>556.6</ele>
        <time>2022-03-29T13:13:18Z</time>
      </trkpt>
      <trkpt lat="46.68018" lon="5.60693">
        <ele>554.2</ele>
        <time>2022-03-29T13:13:24Z</time>
      </trkpt>
      <trkpt lat="46.68022" lon="5.60697">
        <ele>553.3</ele>
        <time>2022-03-29T13:13:29Z</time>
      </trkpt>
      <trkpt lat="46.68026" lon="5.60702">
        <ele>551.8</ele>
        <time>2022-03-29T13:13:36Z</time>
      </trkpt>
      <trkpt lat="46.68028" lon="5.60709">
        <ele>550.3</ele>
        <time>2022-03-29T13:13:40Z</time>
      </trkpt>
      <trkpt lat="46.6803" lon="5.60716">
        <ele>548.1</ele>
        <time>2022-03-29T13:13:44Z</time>
      </trkpt>
      <trkpt lat="46.68033" lon="5.60722">
        <ele>544.6</ele>
        <time>2022-03-29T13:13:49Z</time>
      </trkpt>
      <trkpt lat="46.68036" lon="5.60728">
        <ele>539.6</ele>
        <time>2022-03-29T13:13:56Z</time>
      </trkpt>
      <trkpt lat="46.68037" lon="5.60734">
        <ele>535.2</ele>
        <time>2022-03-29T13:14:02Z</time>
      </trkpt>
      <trkpt lat="46.68036" lon="5.60742">
        <ele>532.5</ele>
        <time>2022-03-29T13:14:07Z</time>
      </trkpt>
      <trkpt lat="46.68037" lon="5.60749">
        <ele>531</ele>
        <time>2022-03-29T13:14:11Z</time>
      </trkpt>
      <trkpt lat="46.68037" lon="5.60757">
        <ele>530</ele>
        <time>2022-03-29T13:14:15Z</time>
      </trkpt>
      <trkpt lat="46.68037" lon="5.60764">
        <ele>529.8</ele>
        <time>2022-03-29T13:14:20Z</time>
      </trkpt>
      <trkpt lat="46.6804" lon="5.6077">
        <ele>530.5</ele>
        <time>2022-03-29T13:14:25Z</time>
      </trkpt>
      <trkpt lat="46.68041" lon="5.60777">
        <ele>531.4</ele>
        <time>2022-03-29T13:14:30Z</time>
      </trkpt>
      <trkpt lat="46.68043" lon="5.60783">
        <ele>532.5</ele>
        <time>2022-03-29T13:14:35Z</time>
      </trkpt>
      <trkpt lat="46.68045" lon="5.6079">
        <ele>533.6</ele>
        <time>2022-03-29T13:14:40Z</time>
      </trkpt>
      <trkpt lat="46.68047" lon="5.60796">
        <ele>534.6</ele>
        <time>2022-03-29T13:14:44Z</time>
      </trkpt>
      <trkpt lat="46.68049" lon="5.60802">
        <ele>535.4</ele>
        <time>2022-03-29T13:14:48Z</time>
      </trkpt>
      <trkpt lat="46.68051" lon="5.60809">
        <ele>536.2</ele>
        <time>2022-03-29T13:14:53Z</time>
      </trkpt>
      <trkpt lat="46.68053" lon="5.60815">
        <ele>536.6</ele>
        <time>2022-03-29T13:14:58Z</time>
      </trkpt>
      <trkpt lat="46.68054" lon="5.60822">
        <ele>536.9</ele>
        <time>2022-03-29T13:15:03Z</time>
      </trkpt>
      <trkpt lat="46.68056" lon="5.60828">
        <ele>537.3</ele>
        <time>2022-03-29T13:15:08Z</time>
      </trkpt>
      <trkpt lat="46.68058" lon="5.60833">
        <ele>537</ele>
        <time>2022-03-29T13:15:12Z</time>
      </trkpt>
      <trkpt lat="46.6806" lon="5.6084">
        <ele>536.2</ele>
        <time>2022-03-29T13:15:17Z</time>
      </trkpt>
      <trkpt lat="46.68061" lon="5.60847">
        <ele>535.1</ele>
        <time>2022-03-29T13:15:22Z</time>
      </trkpt>
      <trkpt lat="46.68062" lon="5.60854">
        <ele>535.1</ele>
        <time>2022-03-29T13:15:27Z</time>
      </trkpt>
      <trkpt lat="46.68062" lon="5.60861">
        <ele>535.4</ele>
        <time>2022-03-29T13:15:32Z</time>
      </trkpt>
      <trkpt lat="46.68064" lon="5.60867">
        <ele>535.4</ele>
        <time>2022-03-29T13:15:38Z</time>
      </trkpt>
      <trkpt lat="46.68067" lon="5.60872">
        <ele>535.6</ele>
        <time>2022-03-29T13:15:43Z</time>
      </trkpt>
      <trkpt lat="46.68069" lon="5.60878">
        <ele>535.6</ele>
        <time>2022-03-29T13:15:48Z</time>
      </trkpt>
      <trkpt lat="46.68068" lon="5.60886">
        <ele>536.2</ele>
        <time>2022-03-29T13:15:54Z</time>
      </trkpt>
      <trkpt lat="46.6807" lon="5.60893">
        <ele>536.9</ele>
        <time>2022-03-29T13:15:59Z</time>
      </trkpt>
      <trkpt lat="46.68071" lon="5.609">
        <ele>537.8</ele>
        <time>2022-03-29T13:16:04Z</time>
      </trkpt>
      <trkpt lat="46.68066" lon="5.60902">
        <ele>538.2</ele>
        <time>2022-03-29T13:16:11Z</time>
      </trkpt>
      <trkpt lat="46.68071" lon="5.60902">
        <ele>535.4</ele>
        <time>2022-03-29T13:16:38Z</time>
      </trkpt>
      <trkpt lat="46.68075" lon="5.60906">
        <ele>534</ele>
        <time>2022-03-29T13:16:50Z</time>
      </trkpt>
      <trkpt lat="46.68077" lon="5.60912">
        <ele>532.9</ele>
        <time>2022-03-29T13:16:56Z</time>
      </trkpt>
      <trkpt lat="46.68081" lon="5.60917">
        <ele>532.5</ele>
        <time>2022-03-29T13:17:02Z</time>
      </trkpt>
      <trkpt lat="46.68083" lon="5.60925">
        <ele>532.8</ele>
        <time>2022-03-29T13:17:06Z</time>
      </trkpt>
      <trkpt lat="46.68084" lon="5.60932">
        <ele>533.5</ele>
        <time>2022-03-29T13:17:10Z</time>
      </trkpt>
      <trkpt lat="46.68083" lon="5.6094">
        <ele>534.1</ele>
        <time>2022-03-29T13:17:16Z</time>
      </trkpt>
      <trkpt lat="46.68084" lon="5.60947">
        <ele>534.9</ele>
        <time>2022-03-29T13:17:23Z</time>
      </trkpt>
      <trkpt lat="46.68089" lon="5.60952">
        <ele>535</ele>
        <time>2022-03-29T13:17:28Z</time>
      </trkpt>
      <trkpt lat="46.68086" lon="5.60947">
        <ele>535.4</ele>
        <time>2022-03-29T13:17:55Z</time>
      </trkpt>
      <trkpt lat="46.68091" lon="5.60945">
        <ele>530.6</ele>
        <time>2022-03-29T13:18:16Z</time>
      </trkpt>
      <trkpt lat="46.68095" lon="5.60949">
        <ele>530.1</ele>
        <time>2022-03-29T13:18:20Z</time>
      </trkpt>
      <trkpt lat="46.68099" lon="5.6095">
        <ele>529.3</ele>
        <time>2022-03-29T13:18:23Z</time>
      </trkpt>
      <trkpt lat="46.68104" lon="5.60951">
        <ele>525.3</ele>
        <time>2022-03-29T13:18:30Z</time>
      </trkpt>
      <trkpt lat="46.68103" lon="5.60945">
        <ele>519.8</ele>
        <time>2022-03-29T13:18:39Z</time>
      </trkpt>
      <trkpt lat="46.681" lon="5.60951">
        <ele>515.8</ele>
        <time>2022-03-29T13:19:19Z</time>
      </trkpt>
      <trkpt lat="46.68105" lon="5.60957">
        <ele>516.9</ele>
        <time>2022-03-29T13:19:23Z</time>
      </trkpt>
      <trkpt lat="46.68109" lon="5.60961">
        <ele>517.8</ele>
        <time>2022-03-29T13:19:26Z</time>
      </trkpt>
      <trkpt lat="46.68113" lon="5.60964">
        <ele>518.9</ele>
        <time>2022-03-29T13:19:29Z</time>
      </trkpt>
      <trkpt lat="46.68117" lon="5.60969">
        <ele>520.7</ele>
        <time>2022-03-29T13:19:33Z</time>
      </trkpt>
      <trkpt lat="46.68121" lon="5.60973">
        <ele>523.2</ele>
        <time>2022-03-29T13:19:39Z</time>
      </trkpt>
      <trkpt lat="46.68125" lon="5.60978">
        <ele>524.9</ele>
        <time>2022-03-29T13:19:44Z</time>
      </trkpt>
      <trkpt lat="46.68129" lon="5.60984">
        <ele>526.4</ele>
        <time>2022-03-29T13:19:49Z</time>
      </trkpt>
      <trkpt lat="46.68132" lon="5.6099">
        <ele>527.9</ele>
        <time>2022-03-29T13:19:53Z</time>
      </trkpt>
      <trkpt lat="46.68135" lon="5.60994">
        <ele>528.9</ele>
        <time>2022-03-29T13:19:56Z</time>
      </trkpt>
      <trkpt lat="46.6814" lon="5.60999">
        <ele>529.8</ele>
        <time>2022-03-29T13:19:59Z</time>
      </trkpt>
      <trkpt lat="46.68145" lon="5.61003">
        <ele>530.6</ele>
        <time>2022-03-29T13:20:02Z</time>
      </trkpt>
      <trkpt lat="46.68148" lon="5.61009">
        <ele>531.6</ele>
        <time>2022-03-29T13:20:06Z</time>
      </trkpt>
      <trkpt lat="46.68146" lon="5.61017">
        <ele>533</ele>
        <time>2022-03-29T13:20:10Z</time>
      </trkpt>
      <trkpt lat="46.68146" lon="5.61024">
        <ele>534</ele>
        <time>2022-03-29T13:20:14Z</time>
      </trkpt>
      <trkpt lat="46.68147" lon="5.61032">
        <ele>534.5</ele>
        <time>2022-03-29T13:20:20Z</time>
      </trkpt>
      <trkpt lat="46.68145" lon="5.61039">
        <ele>534.6</ele>
        <time>2022-03-29T13:20:25Z</time>
      </trkpt>
      <trkpt lat="46.68141" lon="5.61043">
        <ele>534.6</ele>
        <time>2022-03-29T13:20:28Z</time>
      </trkpt>
      <trkpt lat="46.68137" lon="5.61046">
        <ele>535.6</ele>
        <time>2022-03-29T13:20:33Z</time>
      </trkpt>
      <trkpt lat="46.68137" lon="5.61053">
        <ele>537.3</ele>
        <time>2022-03-29T13:20:40Z</time>
      </trkpt>
      <trkpt lat="46.68137" lon="5.6106">
        <ele>538</ele>
        <time>2022-03-29T13:20:44Z</time>
      </trkpt>
      <trkpt lat="46.68136" lon="5.61067">
        <ele>538.8</ele>
        <time>2022-03-29T13:20:48Z</time>
      </trkpt>
      <trkpt lat="46.68134" lon="5.61073">
        <ele>539.2</ele>
        <time>2022-03-29T13:20:52Z</time>
      </trkpt>
      <trkpt lat="46.68132" lon="5.61081">
        <ele>540</ele>
        <time>2022-03-29T13:20:57Z</time>
      </trkpt>
      <trkpt lat="46.68131" lon="5.61089">
        <ele>541.1</ele>
        <time>2022-03-29T13:21:01Z</time>
      </trkpt>
      <trkpt lat="46.6813" lon="5.61096">
        <ele>542.5</ele>
        <time>2022-03-29T13:21:05Z</time>
      </trkpt>
      <trkpt lat="46.68127" lon="5.61102">
        <ele>543.6</ele>
        <time>2022-03-29T13:21:11Z</time>
      </trkpt>
      <trkpt lat="46.68123" lon="5.61106">
        <ele>544</ele>
        <time>2022-03-29T13:21:15Z</time>
      </trkpt>
      <trkpt lat="46.68119" lon="5.6111">
        <ele>544.2</ele>
        <time>2022-03-29T13:21:18Z</time>
      </trkpt>
      <trkpt lat="46.68114" lon="5.61115">
        <ele>544.4</ele>
        <time>2022-03-29T13:21:22Z</time>
      </trkpt>
      <trkpt lat="46.68109" lon="5.61118">
        <ele>544.3</ele>
        <time>2022-03-29T13:21:26Z</time>
      </trkpt>
      <trkpt lat="46.68104" lon="5.6112">
        <ele>544.3</ele>
        <time>2022-03-29T13:21:30Z</time>
      </trkpt>
      <trkpt lat="46.68099" lon="5.61121">
        <ele>544.3</ele>
        <time>2022-03-29T13:21:35Z</time>
      </trkpt>
      <trkpt lat="46.68095" lon="5.61124">
        <ele>543.4</ele>
        <time>2022-03-29T13:21:41Z</time>
      </trkpt>
      <trkpt lat="46.68091" lon="5.61126">
        <ele>543</ele>
        <time>2022-03-29T13:21:45Z</time>
      </trkpt>
      <trkpt lat="46.68086" lon="5.61128">
        <ele>543.1</ele>
        <time>2022-03-29T13:21:49Z</time>
      </trkpt>
      <trkpt lat="46.68081" lon="5.6113">
        <ele>543.3</ele>
        <time>2022-03-29T13:21:52Z</time>
      </trkpt>
      <trkpt lat="46.68076" lon="5.61129">
        <ele>543.1</ele>
        <time>2022-03-29T13:21:56Z</time>
      </trkpt>
      <trkpt lat="46.68071" lon="5.6113">
        <ele>542.8</ele>
        <time>2022-03-29T13:22:01Z</time>
      </trkpt>
      <trkpt lat="46.68066" lon="5.61133">
        <ele>542.9</ele>
        <time>2022-03-29T13:22:08Z</time>
      </trkpt>
      <trkpt lat="46.68062" lon="5.61137">
        <ele>542</ele>
        <time>2022-03-29T13:22:39Z</time>
      </trkpt>
      <trkpt lat="46.6806" lon="5.61144">
        <ele>540.6</ele>
        <time>2022-03-29T13:22:45Z</time>
      </trkpt>
      <trkpt lat="46.68061" lon="5.6115">
        <ele>540.2</ele>
        <time>2022-03-29T13:22:51Z</time>
      </trkpt>
      <trkpt lat="46.6806" lon="5.61157">
        <ele>540.4</ele>
        <time>2022-03-29T13:22:56Z</time>
      </trkpt>
      <trkpt lat="46.68058" lon="5.61164">
        <ele>541.2</ele>
        <time>2022-03-29T13:23:02Z</time>
      </trkpt>
      <trkpt lat="46.68057" lon="5.61171">
        <ele>541.9</ele>
        <time>2022-03-29T13:23:07Z</time>
      </trkpt>
      <trkpt lat="46.68057" lon="5.61178">
        <ele>542.3</ele>
        <time>2022-03-29T13:23:12Z</time>
      </trkpt>
      <trkpt lat="46.68054" lon="5.61185">
        <ele>542.7</ele>
        <time>2022-03-29T13:23:17Z</time>
      </trkpt>
      <trkpt lat="46.68052" lon="5.61192">
        <ele>543</ele>
        <time>2022-03-29T13:23:22Z</time>
      </trkpt>
      <trkpt lat="46.68051" lon="5.61198">
        <ele>543.8</ele>
        <time>2022-03-29T13:23:28Z</time>
      </trkpt>
      <trkpt lat="46.6805" lon="5.61205">
        <ele>544.5</ele>
        <time>2022-03-29T13:23:36Z</time>
      </trkpt>
      <trkpt lat="46.68048" lon="5.61212">
        <ele>543.9</ele>
        <time>2022-03-29T13:23:42Z</time>
      </trkpt>
      <trkpt lat="46.68046" lon="5.61218">
        <ele>543</ele>
        <time>2022-03-29T13:23:47Z</time>
      </trkpt>
      <trkpt lat="46.68043" lon="5.61223">
        <ele>541.1</ele>
        <time>2022-03-29T13:23:53Z</time>
      </trkpt>
      <trkpt lat="46.6804" lon="5.61228">
        <ele>538.1</ele>
        <time>2022-03-29T13:24:01Z</time>
      </trkpt>
      <trkpt lat="46.68039" lon="5.61235">
        <ele>535.8</ele>
        <time>2022-03-29T13:24:09Z</time>
      </trkpt>
      <trkpt lat="46.68036" lon="5.6124">
        <ele>534.7</ele>
        <time>2022-03-29T13:24:14Z</time>
      </trkpt>
      <trkpt lat="46.68034" lon="5.61247">
        <ele>534.5</ele>
        <time>2022-03-29T13:24:21Z</time>
      </trkpt>
      <trkpt lat="46.68033" lon="5.61253">
        <ele>534.6</ele>
        <time>2022-03-29T13:24:27Z</time>
      </trkpt>
      <trkpt lat="46.68032" lon="5.6126">
        <ele>534.9</ele>
        <time>2022-03-29T13:24:32Z</time>
      </trkpt>
      <trkpt lat="46.68031" lon="5.61267">
        <ele>534.7</ele>
        <time>2022-03-29T13:24:37Z</time>
      </trkpt>
      <trkpt lat="46.68029" lon="5.61273">
        <ele>534</ele>
        <time>2022-03-29T13:24:42Z</time>
      </trkpt>
      <trkpt lat="46.68026" lon="5.61278">
        <ele>533</ele>
        <time>2022-03-29T13:24:48Z</time>
      </trkpt>
      <trkpt lat="46.68024" lon="5.61284">
        <ele>531.4</ele>
        <time>2022-03-29T13:24:58Z</time>
      </trkpt>
      <trkpt lat="46.68024" lon="5.61291">
        <ele>530.3</ele>
        <time>2022-03-29T13:25:06Z</time>
      </trkpt>
      <trkpt lat="46.68021" lon="5.61298">
        <ele>529.1</ele>
        <time>2022-03-29T13:25:11Z</time>
      </trkpt>
      <trkpt lat="46.68019" lon="5.61306">
        <ele>524</ele>
        <time>2022-03-29T13:25:30Z</time>
      </trkpt>
      <trkpt lat="46.68017" lon="5.61312">
        <ele>523.5</ele>
        <time>2022-03-29T13:25:33Z</time>
      </trkpt>
      <trkpt lat="46.68015" lon="5.61319">
        <ele>522.8</ele>
        <time>2022-03-29T13:25:38Z</time>
      </trkpt>
      <trkpt lat="46.68013" lon="5.61325">
        <ele>521.4</ele>
        <time>2022-03-29T13:25:44Z</time>
      </trkpt>
      <trkpt lat="46.68012" lon="5.61332">
        <ele>519.1</ele>
        <time>2022-03-29T13:25:50Z</time>
      </trkpt>
      <trkpt lat="46.68009" lon="5.61338">
        <ele>516.9</ele>
        <time>2022-03-29T13:25:56Z</time>
      </trkpt>
      <trkpt lat="46.68007" lon="5.61344">
        <ele>515.4</ele>
        <time>2022-03-29T13:26:01Z</time>
      </trkpt>
      <trkpt lat="46.68003" lon="5.61348">
        <ele>514.4</ele>
        <time>2022-03-29T13:26:07Z</time>
      </trkpt>
      <trkpt lat="46.68005" lon="5.61355">
        <ele>513</ele>
        <time>2022-03-29T13:26:13Z</time>
      </trkpt>
      <trkpt lat="46.68008" lon="5.61362">
        <ele>510.5</ele>
        <time>2022-03-29T13:26:18Z</time>
      </trkpt>
      <trkpt lat="46.68011" lon="5.61367">
        <ele>507.7</ele>
        <time>2022-03-29T13:26:23Z</time>
      </trkpt>
      <trkpt lat="46.68007" lon="5.61373">
        <ele>502.3</ele>
        <time>2022-03-29T13:26:33Z</time>
      </trkpt>
      <trkpt lat="46.68003" lon="5.61379">
        <ele>501.3</ele>
        <time>2022-03-29T13:26:37Z</time>
      </trkpt>
      <trkpt lat="46.67999" lon="5.61385">
        <ele>501.3</ele>
        <time>2022-03-29T13:26:40Z</time>
      </trkpt>
      <trkpt lat="46.67996" lon="5.6139">
        <ele>501.5</ele>
        <time>2022-03-29T13:26:43Z</time>
      </trkpt>
      <trkpt lat="46.67993" lon="5.61395">
        <ele>502.2</ele>
        <time>2022-03-29T13:26:46Z</time>
      </trkpt>
      <trkpt lat="46.6799" lon="5.61402">
        <ele>503.3</ele>
        <time>2022-03-29T13:26:49Z</time>
      </trkpt>
      <trkpt lat="46.67988" lon="5.6141">
        <ele>505</ele>
        <time>2022-03-29T13:26:53Z</time>
      </trkpt>
      <trkpt lat="46.67984" lon="5.61417">
        <ele>506.8</ele>
        <time>2022-03-29T13:26:57Z</time>
      </trkpt>
      <trkpt lat="46.67981" lon="5.61423">
        <ele>508.7</ele>
        <time>2022-03-29T13:27:01Z</time>
      </trkpt>
      <trkpt lat="46.67978" lon="5.61428">
        <ele>510.9</ele>
        <time>2022-03-29T13:27:05Z</time>
      </trkpt>
      <trkpt lat="46.67976" lon="5.61434">
        <ele>513.1</ele>
        <time>2022-03-29T13:27:10Z</time>
      </trkpt>
      <trkpt lat="46.67974" lon="5.61441">
        <ele>514.6</ele>
        <time>2022-03-29T13:27:15Z</time>
      </trkpt>
      <trkpt lat="46.67972" lon="5.61449">
        <ele>516.2</ele>
        <time>2022-03-29T13:27:20Z</time>
      </trkpt>
      <trkpt lat="46.6797" lon="5.61455">
        <ele>517.9</ele>
        <time>2022-03-29T13:27:24Z</time>
      </trkpt>
      <trkpt lat="46.67968" lon="5.61462">
        <ele>519.9</ele>
        <time>2022-03-29T13:27:29Z</time>
      </trkpt>
      <trkpt lat="46.67968" lon="5.61468">
        <ele>520.7</ele>
        <time>2022-03-29T13:27:34Z</time>
      </trkpt>
      <trkpt lat="46.67968" lon="5.61476">
        <ele>520.7</ele>
        <time>2022-03-29T13:27:39Z</time>
      </trkpt>
      <trkpt lat="46.67967" lon="5.61483">
        <ele>521</ele>
        <time>2022-03-29T13:27:44Z</time>
      </trkpt>
      <trkpt lat="46.67966" lon="5.6149">
        <ele>521.8</ele>
        <time>2022-03-29T13:27:49Z</time>
      </trkpt>
      <trkpt lat="46.67964" lon="5.61497">
        <ele>522.2</ele>
        <time>2022-03-29T13:27:53Z</time>
      </trkpt>
      <trkpt lat="46.67962" lon="5.61505">
        <ele>522</ele>
        <time>2022-03-29T13:27:57Z</time>
      </trkpt>
      <trkpt lat="46.6796" lon="5.61511">
        <ele>521.4</ele>
        <time>2022-03-29T13:28:01Z</time>
      </trkpt>
      <trkpt lat="46.67959" lon="5.61517">
        <ele>520.2</ele>
        <time>2022-03-29T13:28:07Z</time>
      </trkpt>
      <trkpt lat="46.67957" lon="5.61524">
        <ele>519.3</ele>
        <time>2022-03-29T13:28:14Z</time>
      </trkpt>
      <trkpt lat="46.67956" lon="5.61531">
        <ele>519.1</ele>
        <time>2022-03-29T13:28:18Z</time>
      </trkpt>
      <trkpt lat="46.67954" lon="5.61537">
        <ele>518.8</ele>
        <time>2022-03-29T13:28:23Z</time>
      </trkpt>
      <trkpt lat="46.67953" lon="5.61544">
        <ele>517.2</ele>
        <time>2022-03-29T13:28:29Z</time>
      </trkpt>
      <trkpt lat="46.6795" lon="5.61551">
        <ele>515.6</ele>
        <time>2022-03-29T13:28:34Z</time>
      </trkpt>
      <trkpt lat="46.67949" lon="5.61558">
        <ele>514.9</ele>
        <time>2022-03-29T13:28:38Z</time>
      </trkpt>
      <trkpt lat="46.67946" lon="5.61564">
        <ele>514.9</ele>
        <time>2022-03-29T13:28:42Z</time>
      </trkpt>
      <trkpt lat="46.67944" lon="5.6157">
        <ele>514.9</ele>
        <time>2022-03-29T13:28:47Z</time>
      </trkpt>
      <trkpt lat="46.67942" lon="5.61576">
        <ele>513.9</ele>
        <time>2022-03-29T13:28:52Z</time>
      </trkpt>
      <trkpt lat="46.67941" lon="5.61583">
        <ele>512.5</ele>
        <time>2022-03-29T13:28:57Z</time>
      </trkpt>
      <trkpt lat="46.67939" lon="5.61589">
        <ele>512.1</ele>
        <time>2022-03-29T13:29:02Z</time>
      </trkpt>
      <trkpt lat="46.67938" lon="5.61596">
        <ele>512.9</ele>
        <time>2022-03-29T13:29:08Z</time>
      </trkpt>
      <trkpt lat="46.67936" lon="5.61603">
        <ele>513.2</ele>
        <time>2022-03-29T13:29:12Z</time>
      </trkpt>
      <trkpt lat="46.67934" lon="5.6161">
        <ele>513.2</ele>
        <time>2022-03-29T13:29:16Z</time>
      </trkpt>
      <trkpt lat="46.67931" lon="5.61616">
        <ele>512.8</ele>
        <time>2022-03-29T13:29:21Z</time>
      </trkpt>
      <trkpt lat="46.67929" lon="5.61622">
        <ele>513.5</ele>
        <time>2022-03-29T13:29:26Z</time>
      </trkpt>
      <trkpt lat="46.67927" lon="5.61628">
        <ele>515.5</ele>
        <time>2022-03-29T13:29:31Z</time>
      </trkpt>
      <trkpt lat="46.67925" lon="5.61634">
        <ele>517.4</ele>
        <time>2022-03-29T13:29:36Z</time>
      </trkpt>
      <trkpt lat="46.67925" lon="5.61642">
        <ele>519.4</ele>
        <time>2022-03-29T13:29:41Z</time>
      </trkpt>
      <trkpt lat="46.67922" lon="5.61647">
        <ele>520.3</ele>
        <time>2022-03-29T13:29:45Z</time>
      </trkpt>
      <trkpt lat="46.6792" lon="5.61654">
        <ele>520.3</ele>
        <time>2022-03-29T13:29:50Z</time>
      </trkpt>
      <trkpt lat="46.67917" lon="5.6166">
        <ele>520</ele>
        <time>2022-03-29T13:29:55Z</time>
      </trkpt>
      <trkpt lat="46.67916" lon="5.61667">
        <ele>519.9</ele>
        <time>2022-03-29T13:30:00Z</time>
      </trkpt>
      <trkpt lat="46.67914" lon="5.61674">
        <ele>520.6</ele>
        <time>2022-03-29T13:30:04Z</time>
      </trkpt>
      <trkpt lat="46.67911" lon="5.6168">
        <ele>521.8</ele>
        <time>2022-03-29T13:30:08Z</time>
      </trkpt>
      <trkpt lat="46.67909" lon="5.61686">
        <ele>524.2</ele>
        <time>2022-03-29T13:30:14Z</time>
      </trkpt>
      <trkpt lat="46.67908" lon="5.61693">
        <ele>525.2</ele>
        <time>2022-03-29T13:30:19Z</time>
      </trkpt>
      <trkpt lat="46.67907" lon="5.617">
        <ele>525.4</ele>
        <time>2022-03-29T13:30:23Z</time>
      </trkpt>
      <trkpt lat="46.67905" lon="5.61708">
        <ele>525.7</ele>
        <time>2022-03-29T13:30:27Z</time>
      </trkpt>
      <trkpt lat="46.67903" lon="5.61714">
        <ele>526.2</ele>
        <time>2022-03-29T13:30:31Z</time>
      </trkpt>
      <trkpt lat="46.67902" lon="5.61721">
        <ele>526.5</ele>
        <time>2022-03-29T13:30:36Z</time>
      </trkpt>
      <trkpt lat="46.679" lon="5.61728">
        <ele>527</ele>
        <time>2022-03-29T13:30:42Z</time>
      </trkpt>
      <trkpt lat="46.67898" lon="5.61734">
        <ele>527.5</ele>
        <time>2022-03-29T13:30:47Z</time>
      </trkpt>
      <trkpt lat="46.67896" lon="5.61741">
        <ele>528.3</ele>
        <time>2022-03-29T13:30:52Z</time>
      </trkpt>
      <trkpt lat="46.67893" lon="5.61748">
        <ele>529</ele>
        <time>2022-03-29T13:30:57Z</time>
      </trkpt>
      <trkpt lat="46.67891" lon="5.61755">
        <ele>530.1</ele>
        <time>2022-03-29T13:31:02Z</time>
      </trkpt>
      <trkpt lat="46.67889" lon="5.61762">
        <ele>530.3</ele>
        <time>2022-03-29T13:31:07Z</time>
      </trkpt>
      <trkpt lat="46.67886" lon="5.61769">
        <ele>530.6</ele>
        <time>2022-03-29T13:31:12Z</time>
      </trkpt>
      <trkpt lat="46.67882" lon="5.61774">
        <ele>530.2</ele>
        <time>2022-03-29T13:31:17Z</time>
      </trkpt>
      <trkpt lat="46.67881" lon="5.6178">
        <ele>529.2</ele>
        <time>2022-03-29T13:31:22Z</time>
      </trkpt>
      <trkpt lat="46.67881" lon="5.61788">
        <ele>527.7</ele>
        <time>2022-03-29T13:31:27Z</time>
      </trkpt>
      <trkpt lat="46.67881" lon="5.61795">
        <ele>526.1</ele>
        <time>2022-03-29T13:31:31Z</time>
      </trkpt>
      <trkpt lat="46.67878" lon="5.61801">
        <ele>524.8</ele>
        <time>2022-03-29T13:31:36Z</time>
      </trkpt>
      <trkpt lat="46.67877" lon="5.61808">
        <ele>524.6</ele>
        <time>2022-03-29T13:31:40Z</time>
      </trkpt>
      <trkpt lat="46.67874" lon="5.61814">
        <ele>524.6</ele>
        <time>2022-03-29T13:31:46Z</time>
      </trkpt>
      <trkpt lat="46.67871" lon="5.61821">
        <ele>525.2</ele>
        <time>2022-03-29T13:31:51Z</time>
      </trkpt>
      <trkpt lat="46.67871" lon="5.61827">
        <ele>525.3</ele>
        <time>2022-03-29T13:31:55Z</time>
      </trkpt>
      <trkpt lat="46.6787" lon="5.61834">
        <ele>525.8</ele>
        <time>2022-03-29T13:31:59Z</time>
      </trkpt>
      <trkpt lat="46.67869" lon="5.61841">
        <ele>526.5</ele>
        <time>2022-03-29T13:32:04Z</time>
      </trkpt>
      <trkpt lat="46.67866" lon="5.61847">
        <ele>527</ele>
        <time>2022-03-29T13:32:09Z</time>
      </trkpt>
      <trkpt lat="46.67863" lon="5.61853">
        <ele>527.6</ele>
        <time>2022-03-29T13:32:14Z</time>
      </trkpt>
      <trkpt lat="46.6786" lon="5.61859">
        <ele>527.3</ele>
        <time>2022-03-29T13:32:19Z</time>
      </trkpt>
      <trkpt lat="46.67859" lon="5.61866">
        <ele>525.9</ele>
        <time>2022-03-29T13:32:24Z</time>
      </trkpt>
      <trkpt lat="46.67858" lon="5.61873">
        <ele>524.2</ele>
        <time>2022-03-29T13:32:29Z</time>
      </trkpt>
      <trkpt lat="46.67856" lon="5.61879">
        <ele>523.1</ele>
        <time>2022-03-29T13:32:33Z</time>
      </trkpt>
      <trkpt lat="46.67852" lon="5.61884">
        <ele>522.4</ele>
        <time>2022-03-29T13:32:37Z</time>
      </trkpt>
      <trkpt lat="46.6785" lon="5.6189">
        <ele>521.2</ele>
        <time>2022-03-29T13:32:42Z</time>
      </trkpt>
      <trkpt lat="46.67849" lon="5.61896">
        <ele>520.1</ele>
        <time>2022-03-29T13:32:47Z</time>
      </trkpt>
      <trkpt lat="46.67847" lon="5.61902">
        <ele>520</ele>
        <time>2022-03-29T13:32:52Z</time>
      </trkpt>
      <trkpt lat="46.67845" lon="5.6191">
        <ele>520.1</ele>
        <time>2022-03-29T13:32:57Z</time>
      </trkpt>
      <trkpt lat="46.67843" lon="5.61917">
        <ele>520.3</ele>
        <time>2022-03-29T13:33:01Z</time>
      </trkpt>
      <trkpt lat="46.6784" lon="5.61924">
        <ele>520.5</ele>
        <time>2022-03-29T13:33:05Z</time>
      </trkpt>
      <trkpt lat="46.67838" lon="5.6193">
        <ele>520.7</ele>
        <time>2022-03-29T13:33:09Z</time>
      </trkpt>
      <trkpt lat="46.67836" lon="5.61936">
        <ele>521.7</ele>
        <time>2022-03-29T13:33:14Z</time>
      </trkpt>
      <trkpt lat="46.67836" lon="5.61943">
        <ele>523.3</ele>
        <time>2022-03-29T13:33:19Z</time>
      </trkpt>
      <trkpt lat="46.67835" lon="5.6195">
        <ele>524.8</ele>
        <time>2022-03-29T13:33:23Z</time>
      </trkpt>
      <trkpt lat="46.67833" lon="5.61956">
        <ele>526</ele>
        <time>2022-03-29T13:33:27Z</time>
      </trkpt>
      <trkpt lat="46.67832" lon="5.61963">
        <ele>526.6</ele>
        <time>2022-03-29T13:33:31Z</time>
      </trkpt>
      <trkpt lat="46.67832" lon="5.6197">
        <ele>527.1</ele>
        <time>2022-03-29T13:33:37Z</time>
      </trkpt>
      <trkpt lat="46.67832" lon="5.61977">
        <ele>527.7</ele>
        <time>2022-03-29T13:33:42Z</time>
      </trkpt>
      <trkpt lat="46.67829" lon="5.61984">
        <ele>528.3</ele>
        <time>2022-03-29T13:33:47Z</time>
      </trkpt>
      <trkpt lat="46.67826" lon="5.6199">
        <ele>528.7</ele>
        <time>2022-03-29T13:33:51Z</time>
      </trkpt>
      <trkpt lat="46.67824" lon="5.61996">
        <ele>529</ele>
        <time>2022-03-29T13:33:55Z</time>
      </trkpt>
      <trkpt lat="46.67821" lon="5.62002">
        <ele>529.3</ele>
        <time>2022-03-29T13:33:59Z</time>
      </trkpt>
      <trkpt lat="46.6782" lon="5.6201">
        <ele>529.4</ele>
        <time>2022-03-29T13:34:03Z</time>
      </trkpt>
      <trkpt lat="46.67816" lon="5.62016">
        <ele>530.2</ele>
        <time>2022-03-29T13:34:08Z</time>
      </trkpt>
      <trkpt lat="46.67815" lon="5.62023">
        <ele>530.7</ele>
        <time>2022-03-29T13:34:12Z</time>
      </trkpt>
      <trkpt lat="46.67814" lon="5.6203">
        <ele>530.4</ele>
        <time>2022-03-29T13:34:17Z</time>
      </trkpt>
      <trkpt lat="46.67811" lon="5.62035">
        <ele>530.2</ele>
        <time>2022-03-29T13:34:21Z</time>
      </trkpt>
      <trkpt lat="46.6781" lon="5.62042">
        <ele>529.8</ele>
        <time>2022-03-29T13:34:26Z</time>
      </trkpt>
      <trkpt lat="46.67809" lon="5.62049">
        <ele>529.1</ele>
        <time>2022-03-29T13:34:31Z</time>
      </trkpt>
      <trkpt lat="46.67807" lon="5.62055">
        <ele>528</ele>
        <time>2022-03-29T13:34:35Z</time>
      </trkpt>
      <trkpt lat="46.67806" lon="5.62062">
        <ele>527.4</ele>
        <time>2022-03-29T13:34:39Z</time>
      </trkpt>
      <trkpt lat="46.67802" lon="5.62066">
        <ele>527.8</ele>
        <time>2022-03-29T13:34:43Z</time>
      </trkpt>
      <trkpt lat="46.67799" lon="5.62072">
        <ele>528.2</ele>
        <time>2022-03-29T13:34:48Z</time>
      </trkpt>
      <trkpt lat="46.67798" lon="5.6208">
        <ele>528.4</ele>
        <time>2022-03-29T13:34:52Z</time>
      </trkpt>
      <trkpt lat="46.67797" lon="5.62087">
        <ele>528.4</ele>
        <time>2022-03-29T13:34:56Z</time>
      </trkpt>
      <trkpt lat="46.67796" lon="5.62095">
        <ele>527.7</ele>
        <time>2022-03-29T13:35:01Z</time>
      </trkpt>
      <trkpt lat="46.67794" lon="5.62102">
        <ele>527.2</ele>
        <time>2022-03-29T13:35:06Z</time>
      </trkpt>
      <trkpt lat="46.67792" lon="5.62108">
        <ele>527.4</ele>
        <time>2022-03-29T13:35:11Z</time>
      </trkpt>
      <trkpt lat="46.67789" lon="5.62113">
        <ele>528.3</ele>
        <time>2022-03-29T13:35:15Z</time>
      </trkpt>
      <trkpt lat="46.67786" lon="5.62119">
        <ele>530.3</ele>
        <time>2022-03-29T13:35:20Z</time>
      </trkpt>
      <trkpt lat="46.67783" lon="5.62124">
        <ele>531.4</ele>
        <time>2022-03-29T13:35:24Z</time>
      </trkpt>
      <trkpt lat="46.6778" lon="5.62131">
        <ele>532.2</ele>
        <time>2022-03-29T13:35:29Z</time>
      </trkpt>
      <trkpt lat="46.67777" lon="5.62136">
        <ele>532.7</ele>
        <time>2022-03-29T13:35:33Z</time>
      </trkpt>
      <trkpt lat="46.67775" lon="5.62143">
        <ele>533.1</ele>
        <time>2022-03-29T13:35:37Z</time>
      </trkpt>
      <trkpt lat="46.67773" lon="5.6215">
        <ele>533.5</ele>
        <time>2022-03-29T13:35:41Z</time>
      </trkpt>
      <trkpt lat="46.67771" lon="5.62156">
        <ele>534.3</ele>
        <time>2022-03-29T13:35:46Z</time>
      </trkpt>
      <trkpt lat="46.6777" lon="5.62162">
        <ele>535.5</ele>
        <time>2022-03-29T13:35:51Z</time>
      </trkpt>
      <trkpt lat="46.67768" lon="5.62169">
        <ele>536.2</ele>
        <time>2022-03-29T13:35:55Z</time>
      </trkpt>
      <trkpt lat="46.67767" lon="5.62176">
        <ele>537.1</ele>
        <time>2022-03-29T13:35:59Z</time>
      </trkpt>
      <trkpt lat="46.67766" lon="5.62184">
        <ele>537.7</ele>
        <time>2022-03-29T13:36:03Z</time>
      </trkpt>
      <trkpt lat="46.67763" lon="5.62189">
        <ele>538.5</ele>
        <time>2022-03-29T13:36:07Z</time>
      </trkpt>
      <trkpt lat="46.6776" lon="5.62194">
        <ele>539.4</ele>
        <time>2022-03-29T13:36:11Z</time>
      </trkpt>
      <trkpt lat="46.67758" lon="5.62201">
        <ele>540</ele>
        <time>2022-03-29T13:36:16Z</time>
      </trkpt>
      <trkpt lat="46.67755" lon="5.62208">
        <ele>540.9</ele>
        <time>2022-03-29T13:36:21Z</time>
      </trkpt>
      <trkpt lat="46.67752" lon="5.62214">
        <ele>541</ele>
        <time>2022-03-29T13:36:26Z</time>
      </trkpt>
      <trkpt lat="46.6775" lon="5.62222">
        <ele>540.3</ele>
        <time>2022-03-29T13:36:31Z</time>
      </trkpt>
      <trkpt lat="46.67749" lon="5.62228">
        <ele>539.2</ele>
        <time>2022-03-29T13:36:35Z</time>
      </trkpt>
      <trkpt lat="46.67748" lon="5.62236">
        <ele>538</ele>
        <time>2022-03-29T13:36:39Z</time>
      </trkpt>
      <trkpt lat="46.67747" lon="5.62243">
        <ele>536.3</ele>
        <time>2022-03-29T13:36:43Z</time>
      </trkpt>
      <trkpt lat="46.67748" lon="5.62251">
        <ele>533.5</ele>
        <time>2022-03-29T13:36:48Z</time>
      </trkpt>
      <trkpt lat="46.6775" lon="5.62258">
        <ele>530.4</ele>
        <time>2022-03-29T13:36:52Z</time>
      </trkpt>
      <trkpt lat="46.67752" lon="5.62265">
        <ele>527.6</ele>
        <time>2022-03-29T13:36:56Z</time>
      </trkpt>
      <trkpt lat="46.67755" lon="5.6227">
        <ele>525.3</ele>
        <time>2022-03-29T13:37:00Z</time>
      </trkpt>
      <trkpt lat="46.67759" lon="5.62274">
        <ele>523.2</ele>
        <time>2022-03-29T13:37:05Z</time>
      </trkpt>
      <trkpt lat="46.67762" lon="5.62279">
        <ele>521.9</ele>
        <time>2022-03-29T13:37:10Z</time>
      </trkpt>
      <trkpt lat="46.67764" lon="5.62286">
        <ele>520.4</ele>
        <time>2022-03-29T13:37:16Z</time>
      </trkpt>
      <trkpt lat="46.67768" lon="5.62291">
        <ele>519.3</ele>
        <time>2022-03-29T13:37:22Z</time>
      </trkpt>
      <trkpt lat="46.67772" lon="5.62294">
        <ele>518.6</ele>
        <time>2022-03-29T13:37:26Z</time>
      </trkpt>
      <trkpt lat="46.67777" lon="5.62296">
        <ele>517.7</ele>
        <time>2022-03-29T13:37:30Z</time>
      </trkpt>
      <trkpt lat="46.67782" lon="5.62301">
        <ele>516.9</ele>
        <time>2022-03-29T13:37:35Z</time>
      </trkpt>
      <trkpt lat="46.67785" lon="5.62305">
        <ele>516.7</ele>
        <time>2022-03-29T13:37:39Z</time>
      </trkpt>
      <trkpt lat="46.67789" lon="5.6231">
        <ele>516.2</ele>
        <time>2022-03-29T13:37:43Z</time>
      </trkpt>
      <trkpt lat="46.67792" lon="5.62314">
        <ele>515.6</ele>
        <time>2022-03-29T13:37:48Z</time>
      </trkpt>
      <trkpt lat="46.67796" lon="5.62319">
        <ele>515.2</ele>
        <time>2022-03-29T13:37:53Z</time>
      </trkpt>
      <trkpt lat="46.678" lon="5.62323">
        <ele>515.2</ele>
        <time>2022-03-29T13:37:59Z</time>
      </trkpt>
      <trkpt lat="46.67805" lon="5.62327">
        <ele>515.2</ele>
        <time>2022-03-29T13:38:04Z</time>
      </trkpt>
      <trkpt lat="46.67809" lon="5.6233">
        <ele>515.1</ele>
        <time>2022-03-29T13:38:09Z</time>
      </trkpt>
      <trkpt lat="46.67814" lon="5.62331">
        <ele>515</ele>
        <time>2022-03-29T13:38:13Z</time>
      </trkpt>
      <trkpt lat="46.67818" lon="5.62335">
        <ele>515.3</ele>
        <time>2022-03-29T13:38:17Z</time>
      </trkpt>
      <trkpt lat="46.67822" lon="5.62338">
        <ele>515.6</ele>
        <time>2022-03-29T13:38:21Z</time>
      </trkpt>
      <trkpt lat="46.67826" lon="5.62342">
        <ele>516</ele>
        <time>2022-03-29T13:38:25Z</time>
      </trkpt>
      <trkpt lat="46.6783" lon="5.62348">
        <ele>516.2</ele>
        <time>2022-03-29T13:38:31Z</time>
      </trkpt>
      <trkpt lat="46.67834" lon="5.62353">
        <ele>515.5</ele>
        <time>2022-03-29T13:38:36Z</time>
      </trkpt>
      <trkpt lat="46.67839" lon="5.62356">
        <ele>514.6</ele>
        <time>2022-03-29T13:38:40Z</time>
      </trkpt>
      <trkpt lat="46.67844" lon="5.62359">
        <ele>514.2</ele>
        <time>2022-03-29T13:38:44Z</time>
      </trkpt>
      <trkpt lat="46.67848" lon="5.62364">
        <ele>514.4</ele>
        <time>2022-03-29T13:38:48Z</time>
      </trkpt>
      <trkpt lat="46.67851" lon="5.62369">
        <ele>514.7</ele>
        <time>2022-03-29T13:38:52Z</time>
      </trkpt>
      <trkpt lat="46.67855" lon="5.62373">
        <ele>515.1</ele>
        <time>2022-03-29T13:38:56Z</time>
      </trkpt>
      <trkpt lat="46.67859" lon="5.62379">
        <ele>514.9</ele>
        <time>2022-03-29T13:39:01Z</time>
      </trkpt>
      <trkpt lat="46.67862" lon="5.62385">
        <ele>515.2</ele>
        <time>2022-03-29T13:39:05Z</time>
      </trkpt>
      <trkpt lat="46.67864" lon="5.62391">
        <ele>516.3</ele>
        <time>2022-03-29T13:39:10Z</time>
      </trkpt>
      <trkpt lat="46.67867" lon="5.62398">
        <ele>518.1</ele>
        <time>2022-03-29T13:39:16Z</time>
      </trkpt>
      <trkpt lat="46.67871" lon="5.62404">
        <ele>519.1</ele>
        <time>2022-03-29T13:39:21Z</time>
      </trkpt>
      <trkpt lat="46.67874" lon="5.62408">
        <ele>519.9</ele>
        <time>2022-03-29T13:39:25Z</time>
      </trkpt>
      <trkpt lat="46.67877" lon="5.62414">
        <ele>520.5</ele>
        <time>2022-03-29T13:39:30Z</time>
      </trkpt>
      <trkpt lat="46.67882" lon="5.62418">
        <ele>520.3</ele>
        <time>2022-03-29T13:39:35Z</time>
      </trkpt>
      <trkpt lat="46.67887" lon="5.62419">
        <ele>520.1</ele>
        <time>2022-03-29T13:39:39Z</time>
      </trkpt>
      <trkpt lat="46.67891" lon="5.62423">
        <ele>520.4</ele>
        <time>2022-03-29T13:39:46Z</time>
      </trkpt>
      <trkpt lat="46.67896" lon="5.62426">
        <ele>520.8</ele>
        <time>2022-03-29T13:39:50Z</time>
      </trkpt>
      <trkpt lat="46.679" lon="5.62427">
        <ele>521.5</ele>
        <time>2022-03-29T13:39:56Z</time>
      </trkpt>
      <trkpt lat="46.67903" lon="5.62432">
        <ele>522.7</ele>
        <time>2022-03-29T13:40:01Z</time>
      </trkpt>
      <trkpt lat="46.67907" lon="5.62438">
        <ele>523.7</ele>
        <time>2022-03-29T13:40:06Z</time>
      </trkpt>
      <trkpt lat="46.67911" lon="5.62438">
        <ele>524.8</ele>
        <time>2022-03-29T13:40:10Z</time>
      </trkpt>
      <trkpt lat="46.67917" lon="5.6244">
        <ele>525.5</ele>
        <time>2022-03-29T13:40:15Z</time>
      </trkpt>
      <trkpt lat="46.67922" lon="5.62441">
        <ele>525.4</ele>
        <time>2022-03-29T13:40:18Z</time>
      </trkpt>
      <trkpt lat="46.67928" lon="5.62441">
        <ele>525</ele>
        <time>2022-03-29T13:40:22Z</time>
      </trkpt>
      <trkpt lat="46.67932" lon="5.62437">
        <ele>524.7</ele>
        <time>2022-03-29T13:40:27Z</time>
      </trkpt>
      <trkpt lat="46.67935" lon="5.62431">
        <ele>525.1</ele>
        <time>2022-03-29T13:40:32Z</time>
      </trkpt>
      <trkpt lat="46.67938" lon="5.62427">
        <ele>525.9</ele>
        <time>2022-03-29T13:40:37Z</time>
      </trkpt>
    </trkseg>
  </trk>
</gpx>